<?xml version="1.0" encoding="UTF-8" standalone="no" ?>
<gpx xmlns="http://www.topografix.com/GPX/1/1" xmlns:xsi="http://www.w3.org/2001/XMLSchema-instance" xsi:schemaLocation="http://www.topografix.com/GPX/1/1 http://www.topografix.com/GPX/1/1/gpx.xsd" version="1.1" creator="VisuGPX - https://www.visugpx.com">
  <metadata>
    <name>Rando VTT Tran'sJulienoise 2024</name>
    <desc><![CDATA[Bonne rando.....]]></desc>
  </metadata>
  <trk>
    <name><![CDATA[Rando VTT Tran'sJulienoise 2024_1]]></name>
    <trkseg>
      <trkpt lat="46.57191" lon="0.55803">
        <ele>120.4</ele>
        <time>2024-03-17T07:11:17Z</time>
      </trkpt>
      <trkpt lat="46.5719" lon="0.55802">
        <ele>120.4</ele>
        <time>2024-03-17T07:11:25Z</time>
      </trkpt>
      <trkpt lat="46.57187" lon="0.55798">
        <ele>120.4</ele>
        <time>2024-03-17T07:11:32Z</time>
      </trkpt>
      <trkpt lat="46.57183" lon="0.55797">
        <ele>120.4</ele>
        <time>2024-03-17T07:11:35Z</time>
      </trkpt>
      <trkpt lat="46.57179" lon="0.558">
        <ele>120.4</ele>
        <time>2024-03-17T07:11:38Z</time>
      </trkpt>
      <trkpt lat="46.57173" lon="0.55811">
        <ele>120.4</ele>
        <time>2024-03-17T07:11:44Z</time>
      </trkpt>
      <trkpt lat="46.57166" lon="0.5583">
        <ele>121</ele>
        <time>2024-03-17T07:11:50Z</time>
      </trkpt>
      <trkpt lat="46.57162" lon="0.55863">
        <ele>121.2</ele>
        <time>2024-03-17T07:11:58Z</time>
      </trkpt>
      <trkpt lat="46.5716" lon="0.55875">
        <ele>121.4</ele>
        <time>2024-03-17T07:12:01Z</time>
      </trkpt>
      <trkpt lat="46.57156" lon="0.559">
        <ele>121.4</ele>
        <time>2024-03-17T07:12:07Z</time>
      </trkpt>
      <trkpt lat="46.57152" lon="0.55934">
        <ele>121.8</ele>
        <time>2024-03-17T07:12:15Z</time>
      </trkpt>
      <trkpt lat="46.57151" lon="0.55939">
        <ele>121.8</ele>
        <time>2024-03-17T07:12:16Z</time>
      </trkpt>
      <trkpt lat="46.57146" lon="0.55982">
        <ele>122.2</ele>
        <time>2024-03-17T07:12:25Z</time>
      </trkpt>
      <trkpt lat="46.5714" lon="0.56033">
        <ele>122.2</ele>
        <time>2024-03-17T07:12:35Z</time>
      </trkpt>
      <trkpt lat="46.57134" lon="0.5608">
        <ele>121.6</ele>
        <time>2024-03-17T07:12:44Z</time>
      </trkpt>
      <trkpt lat="46.5713" lon="0.5609">
        <ele>121.6</ele>
        <time>2024-03-17T07:12:48Z</time>
      </trkpt>
      <trkpt lat="46.57127" lon="0.56092">
        <ele>121.4</ele>
        <time>2024-03-17T07:12:51Z</time>
      </trkpt>
      <trkpt lat="46.57122" lon="0.56099">
        <ele>121.4</ele>
        <time>2024-03-17T07:12:55Z</time>
      </trkpt>
      <trkpt lat="46.57118" lon="0.56116">
        <ele>121.6</ele>
        <time>2024-03-17T07:13:00Z</time>
      </trkpt>
      <trkpt lat="46.57116" lon="0.56119">
        <ele>121.6</ele>
        <time>2024-03-17T07:13:01Z</time>
      </trkpt>
      <trkpt lat="46.57109" lon="0.56124">
        <ele>121.6</ele>
        <time>2024-03-17T07:13:03Z</time>
      </trkpt>
      <trkpt lat="46.57084" lon="0.56135">
        <ele>121.4</ele>
        <time>2024-03-17T07:13:10Z</time>
      </trkpt>
      <trkpt lat="46.57071" lon="0.56142">
        <ele>121.4</ele>
        <time>2024-03-17T07:13:14Z</time>
      </trkpt>
      <trkpt lat="46.5707" lon="0.56146">
        <ele>121.4</ele>
        <time>2024-03-17T07:13:15Z</time>
      </trkpt>
      <trkpt lat="46.57064" lon="0.56176">
        <ele>121.2</ele>
        <time>2024-03-17T07:13:21Z</time>
      </trkpt>
      <trkpt lat="46.57056" lon="0.56214">
        <ele>120.6</ele>
        <time>2024-03-17T07:13:28Z</time>
      </trkpt>
      <trkpt lat="46.57054" lon="0.56227">
        <ele>120.2</ele>
        <time>2024-03-17T07:13:30Z</time>
      </trkpt>
      <trkpt lat="46.57047" lon="0.56264">
        <ele>119.6</ele>
        <time>2024-03-17T07:13:36Z</time>
      </trkpt>
      <trkpt lat="46.57037" lon="0.56307">
        <ele>119.2</ele>
        <time>2024-03-17T07:13:43Z</time>
      </trkpt>
      <trkpt lat="46.57036" lon="0.56316">
        <ele>119.2</ele>
        <time>2024-03-17T07:13:45Z</time>
      </trkpt>
      <trkpt lat="46.57038" lon="0.5632">
        <ele>119.2</ele>
        <time>2024-03-17T07:13:46Z</time>
      </trkpt>
      <trkpt lat="46.57047" lon="0.56331">
        <ele>119</ele>
        <time>2024-03-17T07:13:49Z</time>
      </trkpt>
      <trkpt lat="46.57062" lon="0.56346">
        <ele>118.8</ele>
        <time>2024-03-17T07:13:53Z</time>
      </trkpt>
      <trkpt lat="46.57072" lon="0.56354">
        <ele>118.2</ele>
        <time>2024-03-17T07:13:56Z</time>
      </trkpt>
      <trkpt lat="46.57076" lon="0.56358">
        <ele>118</ele>
        <time>2024-03-17T07:13:58Z</time>
      </trkpt>
      <trkpt lat="46.5709" lon="0.56365">
        <ele>117.8</ele>
        <time>2024-03-17T07:14:03Z</time>
      </trkpt>
      <trkpt lat="46.57113" lon="0.56382">
        <ele>117.8</ele>
        <time>2024-03-17T07:14:10Z</time>
      </trkpt>
      <trkpt lat="46.57145" lon="0.5641">
        <ele>117.2</ele>
        <time>2024-03-17T07:14:19Z</time>
      </trkpt>
      <trkpt lat="46.57149" lon="0.56413">
        <ele>117.2</ele>
        <time>2024-03-17T07:14:20Z</time>
      </trkpt>
      <trkpt lat="46.57174" lon="0.56432">
        <ele>116.6</ele>
        <time>2024-03-17T07:14:26Z</time>
      </trkpt>
      <trkpt lat="46.57192" lon="0.56445">
        <ele>116.4</ele>
        <time>2024-03-17T07:14:30Z</time>
      </trkpt>
      <trkpt lat="46.57198" lon="0.56454">
        <ele>116.2</ele>
        <time>2024-03-17T07:14:32Z</time>
      </trkpt>
      <trkpt lat="46.57201" lon="0.56467">
        <ele>116.2</ele>
        <time>2024-03-17T07:14:34Z</time>
      </trkpt>
      <trkpt lat="46.57201" lon="0.56482">
        <ele>116</ele>
        <time>2024-03-17T07:14:36Z</time>
      </trkpt>
      <trkpt lat="46.57201" lon="0.56509">
        <ele>115.6</ele>
        <time>2024-03-17T07:14:40Z</time>
      </trkpt>
      <trkpt lat="46.57201" lon="0.56523">
        <ele>115.4</ele>
        <time>2024-03-17T07:14:42Z</time>
      </trkpt>
      <trkpt lat="46.57201" lon="0.56537">
        <ele>115.4</ele>
        <time>2024-03-17T07:14:44Z</time>
      </trkpt>
      <trkpt lat="46.57206" lon="0.5655">
        <ele>115.2</ele>
        <time>2024-03-17T07:14:46Z</time>
      </trkpt>
      <trkpt lat="46.57218" lon="0.56574">
        <ele>115</ele>
        <time>2024-03-17T07:14:50Z</time>
      </trkpt>
      <trkpt lat="46.57224" lon="0.56586">
        <ele>114.8</ele>
        <time>2024-03-17T07:14:52Z</time>
      </trkpt>
      <trkpt lat="46.57246" lon="0.56624">
        <ele>114.4</ele>
        <time>2024-03-17T07:14:59Z</time>
      </trkpt>
      <trkpt lat="46.57265" lon="0.56656">
        <ele>114.4</ele>
        <time>2024-03-17T07:15:05Z</time>
      </trkpt>
      <trkpt lat="46.57266" lon="0.56666">
        <ele>114.2</ele>
        <time>2024-03-17T07:15:07Z</time>
      </trkpt>
      <trkpt lat="46.57264" lon="0.5667">
        <ele>114</ele>
        <time>2024-03-17T07:15:08Z</time>
      </trkpt>
      <trkpt lat="46.57262" lon="0.56675">
        <ele>113.8</ele>
        <time>2024-03-17T07:15:09Z</time>
      </trkpt>
      <trkpt lat="46.57259" lon="0.56694">
        <ele>114</ele>
        <time>2024-03-17T07:15:12Z</time>
      </trkpt>
      <trkpt lat="46.57257" lon="0.56715">
        <ele>113.8</ele>
        <time>2024-03-17T07:15:15Z</time>
      </trkpt>
      <trkpt lat="46.57254" lon="0.56726">
        <ele>113.8</ele>
        <time>2024-03-17T07:15:17Z</time>
      </trkpt>
      <trkpt lat="46.57248" lon="0.56747">
        <ele>114.4</ele>
        <time>2024-03-17T07:15:22Z</time>
      </trkpt>
      <trkpt lat="46.57252" lon="0.56769">
        <ele>114.8</ele>
        <time>2024-03-17T07:15:26Z</time>
      </trkpt>
      <trkpt lat="46.57254" lon="0.56775">
        <ele>115</ele>
        <time>2024-03-17T07:15:27Z</time>
      </trkpt>
      <trkpt lat="46.57271" lon="0.5683">
        <ele>114.8</ele>
        <time>2024-03-17T07:15:35Z</time>
      </trkpt>
      <trkpt lat="46.57293" lon="0.56869">
        <ele>113.8</ele>
        <time>2024-03-17T07:15:41Z</time>
      </trkpt>
      <trkpt lat="46.57298" lon="0.56876">
        <ele>113.6</ele>
        <time>2024-03-17T07:15:42Z</time>
      </trkpt>
      <trkpt lat="46.57331" lon="0.56914">
        <ele>113.2</ele>
        <time>2024-03-17T07:15:49Z</time>
      </trkpt>
      <trkpt lat="46.57341" lon="0.56924">
        <ele>112.8</ele>
        <time>2024-03-17T07:15:51Z</time>
      </trkpt>
      <trkpt lat="46.57374" lon="0.56951">
        <ele>112</ele>
        <time>2024-03-17T07:15:57Z</time>
      </trkpt>
      <trkpt lat="46.57422" lon="0.56994">
        <ele>112.4</ele>
        <time>2024-03-17T07:16:07Z</time>
      </trkpt>
      <trkpt lat="46.57459" lon="0.5703">
        <ele>113.2</ele>
        <time>2024-03-17T07:16:15Z</time>
      </trkpt>
      <trkpt lat="46.575" lon="0.57073">
        <ele>113.2</ele>
        <time>2024-03-17T07:16:24Z</time>
      </trkpt>
      <trkpt lat="46.57533" lon="0.5712">
        <ele>113.2</ele>
        <time>2024-03-17T07:16:32Z</time>
      </trkpt>
      <trkpt lat="46.57563" lon="0.57174">
        <ele>112.8</ele>
        <time>2024-03-17T07:16:40Z</time>
      </trkpt>
      <trkpt lat="46.5757" lon="0.57188">
        <ele>112.6</ele>
        <time>2024-03-17T07:16:42Z</time>
      </trkpt>
      <trkpt lat="46.57597" lon="0.57239">
        <ele>112</ele>
        <time>2024-03-17T07:16:49Z</time>
      </trkpt>
      <trkpt lat="46.57608" lon="0.57262">
        <ele>111.4</ele>
        <time>2024-03-17T07:16:52Z</time>
      </trkpt>
      <trkpt lat="46.57623" lon="0.57289">
        <ele>110.6</ele>
        <time>2024-03-17T07:16:56Z</time>
      </trkpt>
      <trkpt lat="46.57647" lon="0.57322">
        <ele>110.8</ele>
        <time>2024-03-17T07:17:02Z</time>
      </trkpt>
      <trkpt lat="46.57674" lon="0.57341">
        <ele>111.8</ele>
        <time>2024-03-17T07:17:08Z</time>
      </trkpt>
      <trkpt lat="46.57678" lon="0.57344">
        <ele>111.8</ele>
        <time>2024-03-17T07:17:09Z</time>
      </trkpt>
      <trkpt lat="46.57681" lon="0.57354">
        <ele>112</ele>
        <time>2024-03-17T07:17:11Z</time>
      </trkpt>
      <trkpt lat="46.57679" lon="0.57365">
        <ele>111.6</ele>
        <time>2024-03-17T07:17:13Z</time>
      </trkpt>
      <trkpt lat="46.57676" lon="0.57377">
        <ele>111.2</ele>
        <time>2024-03-17T07:17:15Z</time>
      </trkpt>
      <trkpt lat="46.57663" lon="0.57414">
        <ele>111.2</ele>
        <time>2024-03-17T07:17:21Z</time>
      </trkpt>
      <trkpt lat="46.5765" lon="0.57458">
        <ele>111</ele>
        <time>2024-03-17T07:17:27Z</time>
      </trkpt>
      <trkpt lat="46.57638" lon="0.57506">
        <ele>110.8</ele>
        <time>2024-03-17T07:17:33Z</time>
      </trkpt>
      <trkpt lat="46.5763" lon="0.57537">
        <ele>110.4</ele>
        <time>2024-03-17T07:17:37Z</time>
      </trkpt>
      <trkpt lat="46.57621" lon="0.57574">
        <ele>109.6</ele>
        <time>2024-03-17T07:17:42Z</time>
      </trkpt>
      <trkpt lat="46.57617" lon="0.57589">
        <ele>109.2</ele>
        <time>2024-03-17T07:17:44Z</time>
      </trkpt>
      <trkpt lat="46.57605" lon="0.57633">
        <ele>108</ele>
        <time>2024-03-17T07:17:50Z</time>
      </trkpt>
      <trkpt lat="46.57602" lon="0.57648">
        <ele>107.8</ele>
        <time>2024-03-17T07:17:52Z</time>
      </trkpt>
      <trkpt lat="46.57599" lon="0.57675">
        <ele>107</ele>
        <time>2024-03-17T07:17:55Z</time>
      </trkpt>
      <trkpt lat="46.57597" lon="0.57693">
        <ele>106.8</ele>
        <time>2024-03-17T07:17:57Z</time>
      </trkpt>
      <trkpt lat="46.57595" lon="0.57739">
        <ele>106</ele>
        <time>2024-03-17T07:18:02Z</time>
      </trkpt>
      <trkpt lat="46.57595" lon="0.57754">
        <ele>105.6</ele>
        <time>2024-03-17T07:18:04Z</time>
      </trkpt>
      <trkpt lat="46.57595" lon="0.5776">
        <ele>105.8</ele>
        <time>2024-03-17T07:18:05Z</time>
      </trkpt>
      <trkpt lat="46.57599" lon="0.57778">
        <ele>106</ele>
        <time>2024-03-17T07:18:08Z</time>
      </trkpt>
      <trkpt lat="46.57602" lon="0.57802">
        <ele>106.6</ele>
        <time>2024-03-17T07:18:12Z</time>
      </trkpt>
      <trkpt lat="46.57604" lon="0.57814">
        <ele>106.8</ele>
        <time>2024-03-17T07:18:14Z</time>
      </trkpt>
      <trkpt lat="46.57609" lon="0.57838">
        <ele>107.2</ele>
        <time>2024-03-17T07:18:18Z</time>
      </trkpt>
      <trkpt lat="46.57613" lon="0.57868">
        <ele>108.6</ele>
        <time>2024-03-17T07:18:23Z</time>
      </trkpt>
      <trkpt lat="46.57615" lon="0.57879">
        <ele>109.4</ele>
        <time>2024-03-17T07:18:25Z</time>
      </trkpt>
      <trkpt lat="46.57617" lon="0.5789">
        <ele>109.8</ele>
        <time>2024-03-17T07:18:27Z</time>
      </trkpt>
      <trkpt lat="46.57619" lon="0.57905">
        <ele>110.8</ele>
        <time>2024-03-17T07:18:30Z</time>
      </trkpt>
      <trkpt lat="46.5762" lon="0.57909">
        <ele>111.4</ele>
        <time>2024-03-17T07:18:31Z</time>
      </trkpt>
      <trkpt lat="46.57622" lon="0.57918">
        <ele>111.8</ele>
        <time>2024-03-17T07:18:33Z</time>
      </trkpt>
      <trkpt lat="46.57624" lon="0.57938">
        <ele>112.4</ele>
        <time>2024-03-17T07:18:37Z</time>
      </trkpt>
      <trkpt lat="46.5763" lon="0.57977">
        <ele>112.4</ele>
        <time>2024-03-17T07:18:44Z</time>
      </trkpt>
      <trkpt lat="46.57632" lon="0.57994">
        <ele>112.4</ele>
        <time>2024-03-17T07:18:48Z</time>
      </trkpt>
      <trkpt lat="46.57634" lon="0.58002">
        <ele>112.4</ele>
        <time>2024-03-17T07:18:50Z</time>
      </trkpt>
      <trkpt lat="46.57641" lon="0.58026">
        <ele>112.8</ele>
        <time>2024-03-17T07:18:56Z</time>
      </trkpt>
      <trkpt lat="46.57647" lon="0.58062">
        <ele>112.8</ele>
        <time>2024-03-17T07:19:03Z</time>
      </trkpt>
      <trkpt lat="46.57648" lon="0.58078">
        <ele>113</ele>
        <time>2024-03-17T07:19:06Z</time>
      </trkpt>
      <trkpt lat="46.57649" lon="0.58091">
        <ele>113</ele>
        <time>2024-03-17T07:19:09Z</time>
      </trkpt>
      <trkpt lat="46.57648" lon="0.58098">
        <ele>113</ele>
        <time>2024-03-17T07:19:11Z</time>
      </trkpt>
      <trkpt lat="46.57645" lon="0.58103">
        <ele>112.8</ele>
        <time>2024-03-17T07:19:13Z</time>
      </trkpt>
      <trkpt lat="46.57633" lon="0.58117">
        <ele>113.4</ele>
        <time>2024-03-17T07:19:18Z</time>
      </trkpt>
      <trkpt lat="46.57631" lon="0.58118">
        <ele>113.6</ele>
        <time>2024-03-17T07:19:19Z</time>
      </trkpt>
      <trkpt lat="46.57623" lon="0.58121">
        <ele>113.6</ele>
        <time>2024-03-17T07:19:22Z</time>
      </trkpt>
      <trkpt lat="46.57618" lon="0.58123">
        <ele>113.6</ele>
        <time>2024-03-17T07:19:24Z</time>
      </trkpt>
      <trkpt lat="46.57609" lon="0.58127">
        <ele>113.6</ele>
        <time>2024-03-17T07:19:27Z</time>
      </trkpt>
      <trkpt lat="46.57606" lon="0.58127">
        <ele>113.6</ele>
        <time>2024-03-17T07:19:28Z</time>
      </trkpt>
      <trkpt lat="46.57597" lon="0.58125">
        <ele>114</ele>
        <time>2024-03-17T07:19:31Z</time>
      </trkpt>
      <trkpt lat="46.57592" lon="0.58127">
        <ele>114</ele>
        <time>2024-03-17T07:19:32Z</time>
      </trkpt>
      <trkpt lat="46.57588" lon="0.58129">
        <ele>114.2</ele>
        <time>2024-03-17T07:19:33Z</time>
      </trkpt>
      <trkpt lat="46.57585" lon="0.58131">
        <ele>114.2</ele>
        <time>2024-03-17T07:19:34Z</time>
      </trkpt>
      <trkpt lat="46.5758" lon="0.58135">
        <ele>114.2</ele>
        <time>2024-03-17T07:19:36Z</time>
      </trkpt>
      <trkpt lat="46.57578" lon="0.58138">
        <ele>114.2</ele>
        <time>2024-03-17T07:19:37Z</time>
      </trkpt>
      <trkpt lat="46.57576" lon="0.58142">
        <ele>114.2</ele>
        <time>2024-03-17T07:19:38Z</time>
      </trkpt>
      <trkpt lat="46.57572" lon="0.58149">
        <ele>114</ele>
        <time>2024-03-17T07:19:40Z</time>
      </trkpt>
      <trkpt lat="46.57563" lon="0.58155">
        <ele>114</ele>
        <time>2024-03-17T07:19:42Z</time>
      </trkpt>
      <trkpt lat="46.57554" lon="0.58159">
        <ele>114</ele>
        <time>2024-03-17T07:19:44Z</time>
      </trkpt>
      <trkpt lat="46.57547" lon="0.58159">
        <ele>113.6</ele>
        <time>2024-03-17T07:19:46Z</time>
      </trkpt>
      <trkpt lat="46.57539" lon="0.58162">
        <ele>113.4</ele>
        <time>2024-03-17T07:19:48Z</time>
      </trkpt>
      <trkpt lat="46.57537" lon="0.58166">
        <ele>113.4</ele>
        <time>2024-03-17T07:19:49Z</time>
      </trkpt>
      <trkpt lat="46.57535" lon="0.5817">
        <ele>113.4</ele>
        <time>2024-03-17T07:19:50Z</time>
      </trkpt>
      <trkpt lat="46.5753" lon="0.58183">
        <ele>113.4</ele>
        <time>2024-03-17T07:19:54Z</time>
      </trkpt>
      <trkpt lat="46.57529" lon="0.5819">
        <ele>113.2</ele>
        <time>2024-03-17T07:19:56Z</time>
      </trkpt>
      <trkpt lat="46.57527" lon="0.58195">
        <ele>113</ele>
        <time>2024-03-17T07:19:58Z</time>
      </trkpt>
      <trkpt lat="46.57526" lon="0.58199">
        <ele>113</ele>
        <time>2024-03-17T07:19:59Z</time>
      </trkpt>
      <trkpt lat="46.57523" lon="0.58207">
        <ele>112.8</ele>
        <time>2024-03-17T07:20:01Z</time>
      </trkpt>
      <trkpt lat="46.57521" lon="0.58217">
        <ele>112.8</ele>
        <time>2024-03-17T07:20:03Z</time>
      </trkpt>
      <trkpt lat="46.57518" lon="0.58226">
        <ele>112.4</ele>
        <time>2024-03-17T07:20:05Z</time>
      </trkpt>
      <trkpt lat="46.57516" lon="0.58234">
        <ele>112.4</ele>
        <time>2024-03-17T07:20:07Z</time>
      </trkpt>
      <trkpt lat="46.57513" lon="0.58243">
        <ele>112.2</ele>
        <time>2024-03-17T07:20:09Z</time>
      </trkpt>
      <trkpt lat="46.57507" lon="0.58255">
        <ele>112</ele>
        <time>2024-03-17T07:20:12Z</time>
      </trkpt>
      <trkpt lat="46.57501" lon="0.58264">
        <ele>112</ele>
        <time>2024-03-17T07:20:14Z</time>
      </trkpt>
      <trkpt lat="46.57491" lon="0.58276">
        <ele>112</ele>
        <time>2024-03-17T07:20:17Z</time>
      </trkpt>
      <trkpt lat="46.57488" lon="0.58282">
        <ele>111.8</ele>
        <time>2024-03-17T07:20:18Z</time>
      </trkpt>
      <trkpt lat="46.57484" lon="0.5829">
        <ele>111.8</ele>
        <time>2024-03-17T07:20:19Z</time>
      </trkpt>
      <trkpt lat="46.57472" lon="0.58314">
        <ele>111.6</ele>
        <time>2024-03-17T07:20:22Z</time>
      </trkpt>
      <trkpt lat="46.5747" lon="0.58323">
        <ele>111.6</ele>
        <time>2024-03-17T07:20:23Z</time>
      </trkpt>
      <trkpt lat="46.57464" lon="0.58343">
        <ele>111.6</ele>
        <time>2024-03-17T07:20:25Z</time>
      </trkpt>
      <trkpt lat="46.57456" lon="0.58353">
        <ele>111</ele>
        <time>2024-03-17T07:20:27Z</time>
      </trkpt>
      <trkpt lat="46.57448" lon="0.5836">
        <ele>110.6</ele>
        <time>2024-03-17T07:20:29Z</time>
      </trkpt>
      <trkpt lat="46.57444" lon="0.58365">
        <ele>110.4</ele>
        <time>2024-03-17T07:20:30Z</time>
      </trkpt>
      <trkpt lat="46.57439" lon="0.58368">
        <ele>110.4</ele>
        <time>2024-03-17T07:20:31Z</time>
      </trkpt>
      <trkpt lat="46.57428" lon="0.58375">
        <ele>110.4</ele>
        <time>2024-03-17T07:20:33Z</time>
      </trkpt>
      <trkpt lat="46.57417" lon="0.58381">
        <ele>110.4</ele>
        <time>2024-03-17T07:20:35Z</time>
      </trkpt>
      <trkpt lat="46.57406" lon="0.58384">
        <ele>110.4</ele>
        <time>2024-03-17T07:20:37Z</time>
      </trkpt>
      <trkpt lat="46.57396" lon="0.58387">
        <ele>110.4</ele>
        <time>2024-03-17T07:20:39Z</time>
      </trkpt>
      <trkpt lat="46.57385" lon="0.58388">
        <ele>110.6</ele>
        <time>2024-03-17T07:20:41Z</time>
      </trkpt>
      <trkpt lat="46.57375" lon="0.5839">
        <ele>110.6</ele>
        <time>2024-03-17T07:20:43Z</time>
      </trkpt>
      <trkpt lat="46.5737" lon="0.5839">
        <ele>110.6</ele>
        <time>2024-03-17T07:20:44Z</time>
      </trkpt>
      <trkpt lat="46.57367" lon="0.58392">
        <ele>110.4</ele>
        <time>2024-03-17T07:20:45Z</time>
      </trkpt>
      <trkpt lat="46.57361" lon="0.58398">
        <ele>109.8</ele>
        <time>2024-03-17T07:20:47Z</time>
      </trkpt>
      <trkpt lat="46.57359" lon="0.58398">
        <ele>109.6</ele>
        <time>2024-03-17T07:20:48Z</time>
      </trkpt>
      <trkpt lat="46.57357" lon="0.58399">
        <ele>109.6</ele>
        <time>2024-03-17T07:20:49Z</time>
      </trkpt>
      <trkpt lat="46.57354" lon="0.58403">
        <ele>109.4</ele>
        <time>2024-03-17T07:20:51Z</time>
      </trkpt>
      <trkpt lat="46.57342" lon="0.58415">
        <ele>109.2</ele>
        <time>2024-03-17T07:20:56Z</time>
      </trkpt>
      <trkpt lat="46.5733" lon="0.58435">
        <ele>108.8</ele>
        <time>2024-03-17T07:21:00Z</time>
      </trkpt>
      <trkpt lat="46.57322" lon="0.58443">
        <ele>108.6</ele>
        <time>2024-03-17T07:21:02Z</time>
      </trkpt>
      <trkpt lat="46.57317" lon="0.58453">
        <ele>108.6</ele>
        <time>2024-03-17T07:21:04Z</time>
      </trkpt>
      <trkpt lat="46.57315" lon="0.58459">
        <ele>108.6</ele>
        <time>2024-03-17T07:21:05Z</time>
      </trkpt>
      <trkpt lat="46.5731" lon="0.58472">
        <ele>108.2</ele>
        <time>2024-03-17T07:21:07Z</time>
      </trkpt>
      <trkpt lat="46.57309" lon="0.58478">
        <ele>108</ele>
        <time>2024-03-17T07:21:08Z</time>
      </trkpt>
      <trkpt lat="46.57309" lon="0.58484">
        <ele>108</ele>
        <time>2024-03-17T07:21:09Z</time>
      </trkpt>
      <trkpt lat="46.5731" lon="0.58496">
        <ele>107.8</ele>
        <time>2024-03-17T07:21:11Z</time>
      </trkpt>
      <trkpt lat="46.5731" lon="0.58502">
        <ele>107.6</ele>
        <time>2024-03-17T07:21:12Z</time>
      </trkpt>
      <trkpt lat="46.57308" lon="0.58508">
        <ele>107.2</ele>
        <time>2024-03-17T07:21:13Z</time>
      </trkpt>
      <trkpt lat="46.57303" lon="0.58523">
        <ele>106.2</ele>
        <time>2024-03-17T07:21:16Z</time>
      </trkpt>
      <trkpt lat="46.57302" lon="0.58527">
        <ele>106</ele>
        <time>2024-03-17T07:21:17Z</time>
      </trkpt>
      <trkpt lat="46.57301" lon="0.58541">
        <ele>105.4</ele>
        <time>2024-03-17T07:21:21Z</time>
      </trkpt>
      <trkpt lat="46.57299" lon="0.58545">
        <ele>105</ele>
        <time>2024-03-17T07:21:22Z</time>
      </trkpt>
      <trkpt lat="46.57297" lon="0.58552">
        <ele>104.2</ele>
        <time>2024-03-17T07:21:24Z</time>
      </trkpt>
      <trkpt lat="46.57297" lon="0.58556">
        <ele>104</ele>
        <time>2024-03-17T07:21:25Z</time>
      </trkpt>
      <trkpt lat="46.57299" lon="0.58558">
        <ele>104</ele>
        <time>2024-03-17T07:21:26Z</time>
      </trkpt>
      <trkpt lat="46.57304" lon="0.5856">
        <ele>104</ele>
        <time>2024-03-17T07:21:28Z</time>
      </trkpt>
      <trkpt lat="46.57329" lon="0.58571">
        <ele>104.4</ele>
        <time>2024-03-17T07:21:34Z</time>
      </trkpt>
      <trkpt lat="46.57347" lon="0.58582">
        <ele>103.8</ele>
        <time>2024-03-17T07:21:38Z</time>
      </trkpt>
      <trkpt lat="46.57351" lon="0.58585">
        <ele>103.6</ele>
        <time>2024-03-17T07:21:39Z</time>
      </trkpt>
      <trkpt lat="46.57358" lon="0.58593">
        <ele>103.4</ele>
        <time>2024-03-17T07:21:41Z</time>
      </trkpt>
      <trkpt lat="46.57376" lon="0.5862">
        <ele>103.2</ele>
        <time>2024-03-17T07:21:48Z</time>
      </trkpt>
      <trkpt lat="46.57374" lon="0.58641">
        <ele>103.4</ele>
        <time>2024-03-17T07:21:52Z</time>
      </trkpt>
      <trkpt lat="46.57368" lon="0.58664">
        <ele>104.8</ele>
        <time>2024-03-17T07:21:57Z</time>
      </trkpt>
      <trkpt lat="46.57366" lon="0.58673">
        <ele>106.2</ele>
        <time>2024-03-17T07:21:59Z</time>
      </trkpt>
      <trkpt lat="46.57364" lon="0.58678">
        <ele>106.6</ele>
        <time>2024-03-17T07:22:00Z</time>
      </trkpt>
      <trkpt lat="46.57362" lon="0.58687">
        <ele>107.6</ele>
        <time>2024-03-17T07:22:02Z</time>
      </trkpt>
      <trkpt lat="46.57358" lon="0.58699">
        <ele>108.8</ele>
        <time>2024-03-17T07:22:05Z</time>
      </trkpt>
      <trkpt lat="46.57353" lon="0.58717">
        <ele>110.2</ele>
        <time>2024-03-17T07:22:09Z</time>
      </trkpt>
      <trkpt lat="46.57349" lon="0.5873">
        <ele>111.4</ele>
        <time>2024-03-17T07:22:12Z</time>
      </trkpt>
      <trkpt lat="46.57341" lon="0.58756">
        <ele>112.4</ele>
        <time>2024-03-17T07:22:18Z</time>
      </trkpt>
      <trkpt lat="46.57339" lon="0.58761">
        <ele>113</ele>
        <time>2024-03-17T07:22:19Z</time>
      </trkpt>
      <trkpt lat="46.57338" lon="0.58765">
        <ele>113.4</ele>
        <time>2024-03-17T07:22:20Z</time>
      </trkpt>
      <trkpt lat="46.57333" lon="0.58784">
        <ele>114.8</ele>
        <time>2024-03-17T07:22:24Z</time>
      </trkpt>
      <trkpt lat="46.57326" lon="0.58809">
        <ele>115.6</ele>
        <time>2024-03-17T07:22:29Z</time>
      </trkpt>
      <trkpt lat="46.57321" lon="0.58827">
        <ele>115.8</ele>
        <time>2024-03-17T07:22:33Z</time>
      </trkpt>
      <trkpt lat="46.57313" lon="0.58855">
        <ele>116.8</ele>
        <time>2024-03-17T07:22:39Z</time>
      </trkpt>
      <trkpt lat="46.57312" lon="0.5886">
        <ele>117</ele>
        <time>2024-03-17T07:22:40Z</time>
      </trkpt>
      <trkpt lat="46.57301" lon="0.58898">
        <ele>117.6</ele>
        <time>2024-03-17T07:22:48Z</time>
      </trkpt>
      <trkpt lat="46.57295" lon="0.58921">
        <ele>118</ele>
        <time>2024-03-17T07:22:53Z</time>
      </trkpt>
      <trkpt lat="46.57291" lon="0.58939">
        <ele>118.2</ele>
        <time>2024-03-17T07:22:57Z</time>
      </trkpt>
      <trkpt lat="46.5729" lon="0.58962">
        <ele>118.8</ele>
        <time>2024-03-17T07:23:02Z</time>
      </trkpt>
      <trkpt lat="46.57297" lon="0.5898">
        <ele>118.8</ele>
        <time>2024-03-17T07:23:06Z</time>
      </trkpt>
      <trkpt lat="46.57299" lon="0.58984">
        <ele>119</ele>
        <time>2024-03-17T07:23:07Z</time>
      </trkpt>
      <trkpt lat="46.57312" lon="0.59011">
        <ele>119.2</ele>
        <time>2024-03-17T07:23:13Z</time>
      </trkpt>
      <trkpt lat="46.5733" lon="0.59032">
        <ele>120</ele>
        <time>2024-03-17T07:23:19Z</time>
      </trkpt>
      <trkpt lat="46.57333" lon="0.59035">
        <ele>120</ele>
        <time>2024-03-17T07:23:20Z</time>
      </trkpt>
      <trkpt lat="46.57366" lon="0.59077">
        <ele>120.6</ele>
        <time>2024-03-17T07:23:31Z</time>
      </trkpt>
      <trkpt lat="46.57396" lon="0.59115">
        <ele>121.2</ele>
        <time>2024-03-17T07:23:41Z</time>
      </trkpt>
      <trkpt lat="46.57431" lon="0.59163">
        <ele>121.2</ele>
        <time>2024-03-17T07:23:52Z</time>
      </trkpt>
      <trkpt lat="46.57459" lon="0.59201">
        <ele>122</ele>
        <time>2024-03-17T07:24:01Z</time>
      </trkpt>
      <trkpt lat="46.57471" lon="0.59218">
        <ele>122.2</ele>
        <time>2024-03-17T07:24:05Z</time>
      </trkpt>
      <trkpt lat="46.57474" lon="0.59222">
        <ele>122.2</ele>
        <time>2024-03-17T07:24:06Z</time>
      </trkpt>
      <trkpt lat="46.57483" lon="0.59235">
        <ele>122.6</ele>
        <time>2024-03-17T07:24:09Z</time>
      </trkpt>
      <trkpt lat="46.57502" lon="0.59258">
        <ele>122.8</ele>
        <time>2024-03-17T07:24:15Z</time>
      </trkpt>
      <trkpt lat="46.57506" lon="0.59259">
        <ele>122.8</ele>
        <time>2024-03-17T07:24:16Z</time>
      </trkpt>
      <trkpt lat="46.5751" lon="0.59258">
        <ele>122.6</ele>
        <time>2024-03-17T07:24:17Z</time>
      </trkpt>
      <trkpt lat="46.57517" lon="0.59254">
        <ele>122.6</ele>
        <time>2024-03-17T07:24:19Z</time>
      </trkpt>
      <trkpt lat="46.57533" lon="0.59236">
        <ele>122.2</ele>
        <time>2024-03-17T07:24:24Z</time>
      </trkpt>
      <trkpt lat="46.57551" lon="0.59214">
        <ele>122.2</ele>
        <time>2024-03-17T07:24:30Z</time>
      </trkpt>
      <trkpt lat="46.57554" lon="0.59213">
        <ele>122.2</ele>
        <time>2024-03-17T07:24:31Z</time>
      </trkpt>
      <trkpt lat="46.57558" lon="0.59215">
        <ele>122</ele>
        <time>2024-03-17T07:24:33Z</time>
      </trkpt>
      <trkpt lat="46.57559" lon="0.59215">
        <ele>121.8</ele>
        <time>2024-03-17T07:24:34Z</time>
      </trkpt>
      <trkpt lat="46.5756" lon="0.59212">
        <ele>121.8</ele>
        <time>2024-03-17T07:24:36Z</time>
      </trkpt>
      <trkpt lat="46.57564" lon="0.59203">
        <ele>121.6</ele>
        <time>2024-03-17T07:24:42Z</time>
      </trkpt>
      <trkpt lat="46.57565" lon="0.59201">
        <ele>121.4</ele>
        <time>2024-03-17T07:24:44Z</time>
      </trkpt>
      <trkpt lat="46.57567" lon="0.59198">
        <ele>121.2</ele>
        <time>2024-03-17T07:24:46Z</time>
      </trkpt>
      <trkpt lat="46.57568" lon="0.59196">
        <ele>121</ele>
        <time>2024-03-17T07:24:47Z</time>
      </trkpt>
      <trkpt lat="46.57573" lon="0.59188">
        <ele>120.8</ele>
        <time>2024-03-17T07:24:52Z</time>
      </trkpt>
      <trkpt lat="46.5758" lon="0.59173">
        <ele>121.2</ele>
        <time>2024-03-17T07:24:57Z</time>
      </trkpt>
      <trkpt lat="46.5759" lon="0.59163">
        <ele>120</ele>
        <time>2024-03-17T07:25:02Z</time>
      </trkpt>
      <trkpt lat="46.57593" lon="0.59162">
        <ele>119.8</ele>
        <time>2024-03-17T07:25:03Z</time>
      </trkpt>
      <trkpt lat="46.57604" lon="0.59155">
        <ele>119.6</ele>
        <time>2024-03-17T07:25:07Z</time>
      </trkpt>
      <trkpt lat="46.57613" lon="0.59144">
        <ele>119</ele>
        <time>2024-03-17T07:25:10Z</time>
      </trkpt>
      <trkpt lat="46.57617" lon="0.59141">
        <ele>118.8</ele>
        <time>2024-03-17T07:25:11Z</time>
      </trkpt>
      <trkpt lat="46.5762" lon="0.59141">
        <ele>118.8</ele>
        <time>2024-03-17T07:25:12Z</time>
      </trkpt>
      <trkpt lat="46.57633" lon="0.59145">
        <ele>118.8</ele>
        <time>2024-03-17T07:25:16Z</time>
      </trkpt>
      <trkpt lat="46.57636" lon="0.59145">
        <ele>118.8</ele>
        <time>2024-03-17T07:25:17Z</time>
      </trkpt>
      <trkpt lat="46.57643" lon="0.59133">
        <ele>118.8</ele>
        <time>2024-03-17T07:25:20Z</time>
      </trkpt>
      <trkpt lat="46.57647" lon="0.59121">
        <ele>118.2</ele>
        <time>2024-03-17T07:25:22Z</time>
      </trkpt>
      <trkpt lat="46.57651" lon="0.5911">
        <ele>118</ele>
        <time>2024-03-17T07:25:24Z</time>
      </trkpt>
      <trkpt lat="46.57653" lon="0.59107">
        <ele>117.8</ele>
        <time>2024-03-17T07:25:25Z</time>
      </trkpt>
      <trkpt lat="46.57655" lon="0.59105">
        <ele>117.4</ele>
        <time>2024-03-17T07:25:26Z</time>
      </trkpt>
      <trkpt lat="46.57661" lon="0.59104">
        <ele>116.8</ele>
        <time>2024-03-17T07:25:29Z</time>
      </trkpt>
      <trkpt lat="46.57664" lon="0.59105">
        <ele>116.8</ele>
        <time>2024-03-17T07:25:30Z</time>
      </trkpt>
      <trkpt lat="46.57667" lon="0.59102">
        <ele>116.8</ele>
        <time>2024-03-17T07:25:32Z</time>
      </trkpt>
      <trkpt lat="46.57671" lon="0.59097">
        <ele>116.6</ele>
        <time>2024-03-17T07:25:34Z</time>
      </trkpt>
      <trkpt lat="46.57678" lon="0.59085">
        <ele>115.6</ele>
        <time>2024-03-17T07:25:38Z</time>
      </trkpt>
      <trkpt lat="46.57681" lon="0.59082">
        <ele>115.6</ele>
        <time>2024-03-17T07:25:39Z</time>
      </trkpt>
      <trkpt lat="46.5769" lon="0.59076">
        <ele>114.6</ele>
        <time>2024-03-17T07:25:42Z</time>
      </trkpt>
      <trkpt lat="46.57692" lon="0.59073">
        <ele>114.4</ele>
        <time>2024-03-17T07:25:43Z</time>
      </trkpt>
      <trkpt lat="46.57695" lon="0.59068">
        <ele>114.4</ele>
        <time>2024-03-17T07:25:44Z</time>
      </trkpt>
      <trkpt lat="46.577" lon="0.59055">
        <ele>114.2</ele>
        <time>2024-03-17T07:25:46Z</time>
      </trkpt>
      <trkpt lat="46.57702" lon="0.59048">
        <ele>114</ele>
        <time>2024-03-17T07:25:47Z</time>
      </trkpt>
      <trkpt lat="46.57705" lon="0.59042">
        <ele>113.6</ele>
        <time>2024-03-17T07:25:48Z</time>
      </trkpt>
      <trkpt lat="46.57707" lon="0.59035">
        <ele>113.2</ele>
        <time>2024-03-17T07:25:49Z</time>
      </trkpt>
      <trkpt lat="46.57711" lon="0.5903">
        <ele>112.6</ele>
        <time>2024-03-17T07:25:50Z</time>
      </trkpt>
      <trkpt lat="46.57714" lon="0.59026">
        <ele>112.4</ele>
        <time>2024-03-17T07:25:51Z</time>
      </trkpt>
      <trkpt lat="46.57717" lon="0.59021">
        <ele>112</ele>
        <time>2024-03-17T07:25:52Z</time>
      </trkpt>
      <trkpt lat="46.57723" lon="0.59011">
        <ele>111</ele>
        <time>2024-03-17T07:25:54Z</time>
      </trkpt>
      <trkpt lat="46.57727" lon="0.59008">
        <ele>110.6</ele>
        <time>2024-03-17T07:25:55Z</time>
      </trkpt>
      <trkpt lat="46.57731" lon="0.59004">
        <ele>110.4</ele>
        <time>2024-03-17T07:25:56Z</time>
      </trkpt>
      <trkpt lat="46.57737" lon="0.58995">
        <ele>109.4</ele>
        <time>2024-03-17T07:25:58Z</time>
      </trkpt>
      <trkpt lat="46.57739" lon="0.58989">
        <ele>109</ele>
        <time>2024-03-17T07:25:59Z</time>
      </trkpt>
      <trkpt lat="46.57744" lon="0.58976">
        <ele>108.4</ele>
        <time>2024-03-17T07:26:01Z</time>
      </trkpt>
      <trkpt lat="46.57748" lon="0.58964">
        <ele>106.8</ele>
        <time>2024-03-17T07:26:03Z</time>
      </trkpt>
      <trkpt lat="46.57754" lon="0.5896">
        <ele>106.2</ele>
        <time>2024-03-17T07:26:05Z</time>
      </trkpt>
      <trkpt lat="46.57759" lon="0.58959">
        <ele>105.6</ele>
        <time>2024-03-17T07:26:06Z</time>
      </trkpt>
      <trkpt lat="46.57772" lon="0.58957">
        <ele>105</ele>
        <time>2024-03-17T07:26:09Z</time>
      </trkpt>
      <trkpt lat="46.57775" lon="0.58954">
        <ele>105</ele>
        <time>2024-03-17T07:26:10Z</time>
      </trkpt>
      <trkpt lat="46.57779" lon="0.5895">
        <ele>104.8</ele>
        <time>2024-03-17T07:26:11Z</time>
      </trkpt>
      <trkpt lat="46.5779" lon="0.58941">
        <ele>104.4</ele>
        <time>2024-03-17T07:26:14Z</time>
      </trkpt>
      <trkpt lat="46.57797" lon="0.58937">
        <ele>103</ele>
        <time>2024-03-17T07:26:16Z</time>
      </trkpt>
      <trkpt lat="46.57803" lon="0.58932">
        <ele>102.2</ele>
        <time>2024-03-17T07:26:18Z</time>
      </trkpt>
      <trkpt lat="46.57808" lon="0.58926">
        <ele>101.8</ele>
        <time>2024-03-17T07:26:20Z</time>
      </trkpt>
      <trkpt lat="46.57814" lon="0.58917">
        <ele>101</ele>
        <time>2024-03-17T07:26:23Z</time>
      </trkpt>
      <trkpt lat="46.57817" lon="0.58913">
        <ele>100.8</ele>
        <time>2024-03-17T07:26:24Z</time>
      </trkpt>
      <trkpt lat="46.57821" lon="0.58907">
        <ele>100.2</ele>
        <time>2024-03-17T07:26:26Z</time>
      </trkpt>
      <trkpt lat="46.57823" lon="0.58906">
        <ele>100</ele>
        <time>2024-03-17T07:26:27Z</time>
      </trkpt>
      <trkpt lat="46.57825" lon="0.58905">
        <ele>99.6</ele>
        <time>2024-03-17T07:26:28Z</time>
      </trkpt>
      <trkpt lat="46.57829" lon="0.58907">
        <ele>99</ele>
        <time>2024-03-17T07:26:30Z</time>
      </trkpt>
      <trkpt lat="46.57833" lon="0.58909">
        <ele>98.8</ele>
        <time>2024-03-17T07:26:32Z</time>
      </trkpt>
      <trkpt lat="46.57841" lon="0.58927">
        <ele>100.2</ele>
        <time>2024-03-17T07:26:37Z</time>
      </trkpt>
      <trkpt lat="46.57843" lon="0.58933">
        <ele>100.6</ele>
        <time>2024-03-17T07:26:38Z</time>
      </trkpt>
      <trkpt lat="46.57848" lon="0.58952">
        <ele>102</ele>
        <time>2024-03-17T07:26:42Z</time>
      </trkpt>
      <trkpt lat="46.57855" lon="0.58968">
        <ele>103.4</ele>
        <time>2024-03-17T07:26:46Z</time>
      </trkpt>
      <trkpt lat="46.57857" lon="0.58973">
        <ele>103.8</ele>
        <time>2024-03-17T07:26:47Z</time>
      </trkpt>
      <trkpt lat="46.57859" lon="0.58978">
        <ele>104.2</ele>
        <time>2024-03-17T07:26:48Z</time>
      </trkpt>
      <trkpt lat="46.5786" lon="0.58983">
        <ele>104.4</ele>
        <time>2024-03-17T07:26:49Z</time>
      </trkpt>
      <trkpt lat="46.57862" lon="0.58988">
        <ele>104.8</ele>
        <time>2024-03-17T07:26:50Z</time>
      </trkpt>
      <trkpt lat="46.57868" lon="0.59006">
        <ele>105.8</ele>
        <time>2024-03-17T07:26:54Z</time>
      </trkpt>
      <trkpt lat="46.57869" lon="0.5901">
        <ele>106</ele>
        <time>2024-03-17T07:26:55Z</time>
      </trkpt>
      <trkpt lat="46.57873" lon="0.59027">
        <ele>107</ele>
        <time>2024-03-17T07:26:59Z</time>
      </trkpt>
      <trkpt lat="46.57874" lon="0.59031">
        <ele>107</ele>
        <time>2024-03-17T07:27:00Z</time>
      </trkpt>
      <trkpt lat="46.57877" lon="0.59048">
        <ele>108</ele>
        <time>2024-03-17T07:27:05Z</time>
      </trkpt>
      <trkpt lat="46.57877" lon="0.59051">
        <ele>108.2</ele>
        <time>2024-03-17T07:27:06Z</time>
      </trkpt>
      <trkpt lat="46.57876" lon="0.59076">
        <ele>109.4</ele>
        <time>2024-03-17T07:27:12Z</time>
      </trkpt>
      <trkpt lat="46.57876" lon="0.5909">
        <ele>110.6</ele>
        <time>2024-03-17T07:27:16Z</time>
      </trkpt>
      <trkpt lat="46.57876" lon="0.59099">
        <ele>111.2</ele>
        <time>2024-03-17T07:27:19Z</time>
      </trkpt>
      <trkpt lat="46.57877" lon="0.59107">
        <ele>111.8</ele>
        <time>2024-03-17T07:27:22Z</time>
      </trkpt>
      <trkpt lat="46.57877" lon="0.59125">
        <ele>112.2</ele>
        <time>2024-03-17T07:27:27Z</time>
      </trkpt>
      <trkpt lat="46.57871" lon="0.5914">
        <ele>112.8</ele>
        <time>2024-03-17T07:27:31Z</time>
      </trkpt>
      <trkpt lat="46.5787" lon="0.59143">
        <ele>113</ele>
        <time>2024-03-17T07:27:32Z</time>
      </trkpt>
      <trkpt lat="46.5787" lon="0.59148">
        <ele>113.6</ele>
        <time>2024-03-17T07:27:34Z</time>
      </trkpt>
      <trkpt lat="46.57869" lon="0.59151">
        <ele>113.8</ele>
        <time>2024-03-17T07:27:35Z</time>
      </trkpt>
      <trkpt lat="46.57868" lon="0.59158">
        <ele>114.2</ele>
        <time>2024-03-17T07:27:37Z</time>
      </trkpt>
      <trkpt lat="46.57865" lon="0.59173">
        <ele>115</ele>
        <time>2024-03-17T07:27:41Z</time>
      </trkpt>
      <trkpt lat="46.57864" lon="0.59181">
        <ele>115.4</ele>
        <time>2024-03-17T07:27:43Z</time>
      </trkpt>
      <trkpt lat="46.57863" lon="0.59194">
        <ele>116.2</ele>
        <time>2024-03-17T07:27:47Z</time>
      </trkpt>
      <trkpt lat="46.57862" lon="0.59207">
        <ele>116.6</ele>
        <time>2024-03-17T07:27:50Z</time>
      </trkpt>
      <trkpt lat="46.57869" lon="0.59239">
        <ele>117</ele>
        <time>2024-03-17T07:27:57Z</time>
      </trkpt>
      <trkpt lat="46.57883" lon="0.59269">
        <ele>116.8</ele>
        <time>2024-03-17T07:28:04Z</time>
      </trkpt>
      <trkpt lat="46.57903" lon="0.59303">
        <ele>116.8</ele>
        <time>2024-03-17T07:28:11Z</time>
      </trkpt>
      <trkpt lat="46.57924" lon="0.59338">
        <ele>117</ele>
        <time>2024-03-17T07:28:18Z</time>
      </trkpt>
      <trkpt lat="46.57946" lon="0.59372">
        <ele>116.6</ele>
        <time>2024-03-17T07:28:25Z</time>
      </trkpt>
      <trkpt lat="46.57978" lon="0.59418">
        <ele>116.4</ele>
        <time>2024-03-17T07:28:35Z</time>
      </trkpt>
      <trkpt lat="46.57994" lon="0.59439">
        <ele>116</ele>
        <time>2024-03-17T07:28:40Z</time>
      </trkpt>
      <trkpt lat="46.57997" lon="0.59443">
        <ele>115.6</ele>
        <time>2024-03-17T07:28:41Z</time>
      </trkpt>
      <trkpt lat="46.58019" lon="0.59469">
        <ele>115.6</ele>
        <time>2024-03-17T07:28:47Z</time>
      </trkpt>
      <trkpt lat="46.58023" lon="0.59473">
        <ele>115.8</ele>
        <time>2024-03-17T07:28:48Z</time>
      </trkpt>
      <trkpt lat="46.58031" lon="0.5948">
        <ele>115.8</ele>
        <time>2024-03-17T07:28:50Z</time>
      </trkpt>
      <trkpt lat="46.58037" lon="0.59487">
        <ele>115.8</ele>
        <time>2024-03-17T07:28:52Z</time>
      </trkpt>
      <trkpt lat="46.58042" lon="0.59492">
        <ele>115.8</ele>
        <time>2024-03-17T07:28:54Z</time>
      </trkpt>
      <trkpt lat="46.58045" lon="0.59491">
        <ele>115.6</ele>
        <time>2024-03-17T07:28:56Z</time>
      </trkpt>
      <trkpt lat="46.5805" lon="0.59481">
        <ele>115.2</ele>
        <time>2024-03-17T07:28:59Z</time>
      </trkpt>
      <trkpt lat="46.58051" lon="0.59477">
        <ele>114.6</ele>
        <time>2024-03-17T07:29:00Z</time>
      </trkpt>
      <trkpt lat="46.58053" lon="0.59467">
        <ele>114.2</ele>
        <time>2024-03-17T07:29:02Z</time>
      </trkpt>
      <trkpt lat="46.58054" lon="0.59463">
        <ele>114.2</ele>
        <time>2024-03-17T07:29:03Z</time>
      </trkpt>
      <trkpt lat="46.58055" lon="0.59458">
        <ele>114</ele>
        <time>2024-03-17T07:29:04Z</time>
      </trkpt>
      <trkpt lat="46.58055" lon="0.59453">
        <ele>114</ele>
        <time>2024-03-17T07:29:05Z</time>
      </trkpt>
      <trkpt lat="46.58057" lon="0.59449">
        <ele>113.4</ele>
        <time>2024-03-17T07:29:06Z</time>
      </trkpt>
      <trkpt lat="46.58059" lon="0.59444">
        <ele>112.8</ele>
        <time>2024-03-17T07:29:07Z</time>
      </trkpt>
      <trkpt lat="46.58064" lon="0.59435">
        <ele>112.2</ele>
        <time>2024-03-17T07:29:09Z</time>
      </trkpt>
      <trkpt lat="46.58065" lon="0.59429">
        <ele>111.6</ele>
        <time>2024-03-17T07:29:10Z</time>
      </trkpt>
      <trkpt lat="46.58067" lon="0.59423">
        <ele>111.2</ele>
        <time>2024-03-17T07:29:11Z</time>
      </trkpt>
      <trkpt lat="46.58071" lon="0.59411">
        <ele>110.6</ele>
        <time>2024-03-17T07:29:13Z</time>
      </trkpt>
      <trkpt lat="46.58076" lon="0.59396">
        <ele>110.2</ele>
        <time>2024-03-17T07:29:15Z</time>
      </trkpt>
      <trkpt lat="46.58079" lon="0.59387">
        <ele>109.2</ele>
        <time>2024-03-17T07:29:16Z</time>
      </trkpt>
      <trkpt lat="46.5808" lon="0.5938">
        <ele>108.4</ele>
        <time>2024-03-17T07:29:17Z</time>
      </trkpt>
      <trkpt lat="46.58081" lon="0.59373">
        <ele>107.6</ele>
        <time>2024-03-17T07:29:18Z</time>
      </trkpt>
      <trkpt lat="46.58082" lon="0.59364">
        <ele>106.8</ele>
        <time>2024-03-17T07:29:20Z</time>
      </trkpt>
      <trkpt lat="46.58085" lon="0.59357">
        <ele>106.2</ele>
        <time>2024-03-17T07:29:22Z</time>
      </trkpt>
      <trkpt lat="46.58087" lon="0.5935">
        <ele>105.2</ele>
        <time>2024-03-17T07:29:24Z</time>
      </trkpt>
      <trkpt lat="46.58091" lon="0.59341">
        <ele>104</ele>
        <time>2024-03-17T07:29:26Z</time>
      </trkpt>
      <trkpt lat="46.58092" lon="0.59336">
        <ele>103.8</ele>
        <time>2024-03-17T07:29:27Z</time>
      </trkpt>
      <trkpt lat="46.58094" lon="0.59331">
        <ele>103.6</ele>
        <time>2024-03-17T07:29:28Z</time>
      </trkpt>
      <trkpt lat="46.58095" lon="0.59319">
        <ele>102.6</ele>
        <time>2024-03-17T07:29:30Z</time>
      </trkpt>
      <trkpt lat="46.58096" lon="0.59311">
        <ele>101.2</ele>
        <time>2024-03-17T07:29:32Z</time>
      </trkpt>
      <trkpt lat="46.58101" lon="0.59292">
        <ele>99.8</ele>
        <time>2024-03-17T07:29:36Z</time>
      </trkpt>
      <trkpt lat="46.58103" lon="0.59284">
        <ele>98.4</ele>
        <time>2024-03-17T07:29:38Z</time>
      </trkpt>
      <trkpt lat="46.58103" lon="0.59282">
        <ele>97.4</ele>
        <time>2024-03-17T07:29:39Z</time>
      </trkpt>
      <trkpt lat="46.58103" lon="0.59279">
        <ele>96.8</ele>
        <time>2024-03-17T07:29:40Z</time>
      </trkpt>
      <trkpt lat="46.58103" lon="0.59276">
        <ele>96.4</ele>
        <time>2024-03-17T07:29:41Z</time>
      </trkpt>
      <trkpt lat="46.58103" lon="0.59271">
        <ele>96</ele>
        <time>2024-03-17T07:29:42Z</time>
      </trkpt>
      <trkpt lat="46.58103" lon="0.59261">
        <ele>95.6</ele>
        <time>2024-03-17T07:29:44Z</time>
      </trkpt>
      <trkpt lat="46.58104" lon="0.59257">
        <ele>95.2</ele>
        <time>2024-03-17T07:29:45Z</time>
      </trkpt>
      <trkpt lat="46.58108" lon="0.59249">
        <ele>94</ele>
        <time>2024-03-17T07:29:47Z</time>
      </trkpt>
      <trkpt lat="46.58113" lon="0.59241">
        <ele>93</ele>
        <time>2024-03-17T07:29:49Z</time>
      </trkpt>
      <trkpt lat="46.58115" lon="0.59236">
        <ele>92.6</ele>
        <time>2024-03-17T07:29:50Z</time>
      </trkpt>
      <trkpt lat="46.58116" lon="0.59231">
        <ele>91.6</ele>
        <time>2024-03-17T07:29:51Z</time>
      </trkpt>
      <trkpt lat="46.58117" lon="0.59229">
        <ele>90.8</ele>
        <time>2024-03-17T07:29:52Z</time>
      </trkpt>
      <trkpt lat="46.58118" lon="0.59226">
        <ele>90.4</ele>
        <time>2024-03-17T07:29:53Z</time>
      </trkpt>
      <trkpt lat="46.58118" lon="0.59225">
        <ele>90</ele>
        <time>2024-03-17T07:29:54Z</time>
      </trkpt>
      <trkpt lat="46.58115" lon="0.5922">
        <ele>89.4</ele>
        <time>2024-03-17T07:29:57Z</time>
      </trkpt>
      <trkpt lat="46.58114" lon="0.59218">
        <ele>89.2</ele>
        <time>2024-03-17T07:29:58Z</time>
      </trkpt>
      <trkpt lat="46.58112" lon="0.59211">
        <ele>89.2</ele>
        <time>2024-03-17T07:30:03Z</time>
      </trkpt>
      <trkpt lat="46.58112" lon="0.5921">
        <ele>89.2</ele>
        <time>2024-03-17T07:30:05Z</time>
      </trkpt>
      <trkpt lat="46.58113" lon="0.59206">
        <ele>89.2</ele>
        <time>2024-03-17T07:30:21Z</time>
      </trkpt>
      <trkpt lat="46.58111" lon="0.59203">
        <ele>89</ele>
        <time>2024-03-17T07:30:37Z</time>
      </trkpt>
      <trkpt lat="46.58103" lon="0.59192">
        <ele>89</ele>
        <time>2024-03-17T07:30:43Z</time>
      </trkpt>
      <trkpt lat="46.58093" lon="0.59177">
        <ele>89.4</ele>
        <time>2024-03-17T07:30:48Z</time>
      </trkpt>
      <trkpt lat="46.58086" lon="0.59152">
        <ele>89.6</ele>
        <time>2024-03-17T07:30:54Z</time>
      </trkpt>
      <trkpt lat="46.58076" lon="0.59131">
        <ele>89.6</ele>
        <time>2024-03-17T07:31:00Z</time>
      </trkpt>
      <trkpt lat="46.58065" lon="0.59107">
        <ele>89.6</ele>
        <time>2024-03-17T07:31:07Z</time>
      </trkpt>
      <trkpt lat="46.58059" lon="0.59076">
        <ele>90.2</ele>
        <time>2024-03-17T07:31:14Z</time>
      </trkpt>
      <trkpt lat="46.58059" lon="0.59066">
        <ele>90.4</ele>
        <time>2024-03-17T07:31:16Z</time>
      </trkpt>
      <trkpt lat="46.58057" lon="0.5905">
        <ele>90.8</ele>
        <time>2024-03-17T07:31:19Z</time>
      </trkpt>
      <trkpt lat="46.58056" lon="0.59042">
        <ele>91.8</ele>
        <time>2024-03-17T07:31:21Z</time>
      </trkpt>
      <trkpt lat="46.58055" lon="0.5903">
        <ele>92.8</ele>
        <time>2024-03-17T07:31:24Z</time>
      </trkpt>
      <trkpt lat="46.58055" lon="0.59026">
        <ele>93</ele>
        <time>2024-03-17T07:31:25Z</time>
      </trkpt>
      <trkpt lat="46.58052" lon="0.59008">
        <ele>93.8</ele>
        <time>2024-03-17T07:31:29Z</time>
      </trkpt>
      <trkpt lat="46.58052" lon="0.58996">
        <ele>95</ele>
        <time>2024-03-17T07:31:33Z</time>
      </trkpt>
      <trkpt lat="46.58052" lon="0.58992">
        <ele>95.6</ele>
        <time>2024-03-17T07:31:34Z</time>
      </trkpt>
      <trkpt lat="46.58054" lon="0.58985">
        <ele>96.2</ele>
        <time>2024-03-17T07:31:36Z</time>
      </trkpt>
      <trkpt lat="46.58057" lon="0.58974">
        <ele>97.4</ele>
        <time>2024-03-17T07:31:39Z</time>
      </trkpt>
      <trkpt lat="46.58059" lon="0.58966">
        <ele>98</ele>
        <time>2024-03-17T07:31:41Z</time>
      </trkpt>
      <trkpt lat="46.58061" lon="0.58956">
        <ele>98.4</ele>
        <time>2024-03-17T07:31:44Z</time>
      </trkpt>
      <trkpt lat="46.58063" lon="0.58946">
        <ele>99.2</ele>
        <time>2024-03-17T07:31:47Z</time>
      </trkpt>
      <trkpt lat="46.58064" lon="0.58942">
        <ele>99.8</ele>
        <time>2024-03-17T07:31:48Z</time>
      </trkpt>
      <trkpt lat="46.58068" lon="0.58927">
        <ele>100.8</ele>
        <time>2024-03-17T07:31:52Z</time>
      </trkpt>
      <trkpt lat="46.5807" lon="0.58921">
        <ele>101.4</ele>
        <time>2024-03-17T07:31:54Z</time>
      </trkpt>
      <trkpt lat="46.58073" lon="0.58908">
        <ele>102.2</ele>
        <time>2024-03-17T07:31:59Z</time>
      </trkpt>
      <trkpt lat="46.58074" lon="0.58904">
        <ele>102.6</ele>
        <time>2024-03-17T07:32:01Z</time>
      </trkpt>
      <trkpt lat="46.58077" lon="0.58897">
        <ele>103.2</ele>
        <time>2024-03-17T07:32:04Z</time>
      </trkpt>
      <trkpt lat="46.58083" lon="0.58887">
        <ele>104.2</ele>
        <time>2024-03-17T07:32:08Z</time>
      </trkpt>
      <trkpt lat="46.58084" lon="0.58883">
        <ele>104.4</ele>
        <time>2024-03-17T07:32:09Z</time>
      </trkpt>
      <trkpt lat="46.58085" lon="0.5887">
        <ele>104.6</ele>
        <time>2024-03-17T07:32:13Z</time>
      </trkpt>
      <trkpt lat="46.58085" lon="0.5885">
        <ele>105.4</ele>
        <time>2024-03-17T07:32:18Z</time>
      </trkpt>
      <trkpt lat="46.58085" lon="0.58848">
        <ele>105.4</ele>
        <time>2024-03-17T07:32:19Z</time>
      </trkpt>
      <trkpt lat="46.58085" lon="0.58833">
        <ele>106.4</ele>
        <time>2024-03-17T07:32:23Z</time>
      </trkpt>
      <trkpt lat="46.58084" lon="0.58825">
        <ele>106.8</ele>
        <time>2024-03-17T07:32:25Z</time>
      </trkpt>
      <trkpt lat="46.58089" lon="0.58801">
        <ele>107.6</ele>
        <time>2024-03-17T07:32:30Z</time>
      </trkpt>
      <trkpt lat="46.5809" lon="0.58796">
        <ele>107.8</ele>
        <time>2024-03-17T07:32:31Z</time>
      </trkpt>
      <trkpt lat="46.58094" lon="0.58758">
        <ele>108.6</ele>
        <time>2024-03-17T07:32:38Z</time>
      </trkpt>
      <trkpt lat="46.58094" lon="0.58753">
        <ele>109</ele>
        <time>2024-03-17T07:32:39Z</time>
      </trkpt>
      <trkpt lat="46.58094" lon="0.58725">
        <ele>110</ele>
        <time>2024-03-17T07:32:45Z</time>
      </trkpt>
      <trkpt lat="46.58094" lon="0.58715">
        <ele>110.2</ele>
        <time>2024-03-17T07:32:47Z</time>
      </trkpt>
      <trkpt lat="46.58096" lon="0.58693">
        <ele>111.2</ele>
        <time>2024-03-17T07:32:52Z</time>
      </trkpt>
      <trkpt lat="46.58096" lon="0.58679">
        <ele>111.4</ele>
        <time>2024-03-17T07:32:55Z</time>
      </trkpt>
      <trkpt lat="46.58096" lon="0.5865">
        <ele>112.4</ele>
        <time>2024-03-17T07:33:01Z</time>
      </trkpt>
      <trkpt lat="46.58095" lon="0.58632">
        <ele>113</ele>
        <time>2024-03-17T07:33:05Z</time>
      </trkpt>
      <trkpt lat="46.58093" lon="0.58619">
        <ele>113.4</ele>
        <time>2024-03-17T07:33:08Z</time>
      </trkpt>
      <trkpt lat="46.58091" lon="0.586">
        <ele>114</ele>
        <time>2024-03-17T07:33:12Z</time>
      </trkpt>
      <trkpt lat="46.58089" lon="0.5859">
        <ele>114.6</ele>
        <time>2024-03-17T07:33:14Z</time>
      </trkpt>
      <trkpt lat="46.58085" lon="0.58563">
        <ele>115</ele>
        <time>2024-03-17T07:33:19Z</time>
      </trkpt>
      <trkpt lat="46.58079" lon="0.58526">
        <ele>115.6</ele>
        <time>2024-03-17T07:33:26Z</time>
      </trkpt>
      <trkpt lat="46.58077" lon="0.58521">
        <ele>115.6</ele>
        <time>2024-03-17T07:33:27Z</time>
      </trkpt>
      <trkpt lat="46.58076" lon="0.58504">
        <ele>115.6</ele>
        <time>2024-03-17T07:33:31Z</time>
      </trkpt>
      <trkpt lat="46.58077" lon="0.58503">
        <ele>115.6</ele>
        <time>2024-03-17T07:33:32Z</time>
      </trkpt>
      <trkpt lat="46.58083" lon="0.58511">
        <ele>115.4</ele>
        <time>2024-03-17T07:33:36Z</time>
      </trkpt>
      <trkpt lat="46.58093" lon="0.58529">
        <ele>115.6</ele>
        <time>2024-03-17T07:33:42Z</time>
      </trkpt>
      <trkpt lat="46.58101" lon="0.58545">
        <ele>115.6</ele>
        <time>2024-03-17T07:33:46Z</time>
      </trkpt>
      <trkpt lat="46.58108" lon="0.58558">
        <ele>115.4</ele>
        <time>2024-03-17T07:33:49Z</time>
      </trkpt>
      <trkpt lat="46.58124" lon="0.58591">
        <ele>115.4</ele>
        <time>2024-03-17T07:33:55Z</time>
      </trkpt>
      <trkpt lat="46.58135" lon="0.58613">
        <ele>115.2</ele>
        <time>2024-03-17T07:33:59Z</time>
      </trkpt>
      <trkpt lat="46.58138" lon="0.58617">
        <ele>115.2</ele>
        <time>2024-03-17T07:34:00Z</time>
      </trkpt>
      <trkpt lat="46.58142" lon="0.58622">
        <ele>114.2</ele>
        <time>2024-03-17T07:34:02Z</time>
      </trkpt>
      <trkpt lat="46.58145" lon="0.58627">
        <ele>113.8</ele>
        <time>2024-03-17T07:34:04Z</time>
      </trkpt>
      <trkpt lat="46.58158" lon="0.58643">
        <ele>113.8</ele>
        <time>2024-03-17T07:34:09Z</time>
      </trkpt>
      <trkpt lat="46.58176" lon="0.58658">
        <ele>113.4</ele>
        <time>2024-03-17T07:34:16Z</time>
      </trkpt>
      <trkpt lat="46.58198" lon="0.58669">
        <ele>114.6</ele>
        <time>2024-03-17T07:34:23Z</time>
      </trkpt>
      <trkpt lat="46.58209" lon="0.58672">
        <ele>115.2</ele>
        <time>2024-03-17T07:34:26Z</time>
      </trkpt>
      <trkpt lat="46.58213" lon="0.58673">
        <ele>115.2</ele>
        <time>2024-03-17T07:34:27Z</time>
      </trkpt>
      <trkpt lat="46.5822" lon="0.58676">
        <ele>115.4</ele>
        <time>2024-03-17T07:34:29Z</time>
      </trkpt>
      <trkpt lat="46.5824" lon="0.58687">
        <ele>115.4</ele>
        <time>2024-03-17T07:34:34Z</time>
      </trkpt>
      <trkpt lat="46.58244" lon="0.5869">
        <ele>115.4</ele>
        <time>2024-03-17T07:34:35Z</time>
      </trkpt>
      <trkpt lat="46.58264" lon="0.58701">
        <ele>115.4</ele>
        <time>2024-03-17T07:34:40Z</time>
      </trkpt>
      <trkpt lat="46.58284" lon="0.58718">
        <ele>115.2</ele>
        <time>2024-03-17T07:34:46Z</time>
      </trkpt>
      <trkpt lat="46.58288" lon="0.58722">
        <ele>115.2</ele>
        <time>2024-03-17T07:34:47Z</time>
      </trkpt>
      <trkpt lat="46.58306" lon="0.58738">
        <ele>115</ele>
        <time>2024-03-17T07:34:51Z</time>
      </trkpt>
      <trkpt lat="46.58335" lon="0.58765">
        <ele>114.6</ele>
        <time>2024-03-17T07:34:57Z</time>
      </trkpt>
      <trkpt lat="46.58361" lon="0.58795">
        <ele>114.4</ele>
        <time>2024-03-17T07:35:03Z</time>
      </trkpt>
      <trkpt lat="46.58368" lon="0.58807">
        <ele>114</ele>
        <time>2024-03-17T07:35:05Z</time>
      </trkpt>
      <trkpt lat="46.58388" lon="0.58836">
        <ele>113.4</ele>
        <time>2024-03-17T07:35:10Z</time>
      </trkpt>
      <trkpt lat="46.58399" lon="0.58852">
        <ele>113</ele>
        <time>2024-03-17T07:35:13Z</time>
      </trkpt>
      <trkpt lat="46.58407" lon="0.58863">
        <ele>112.8</ele>
        <time>2024-03-17T07:35:15Z</time>
      </trkpt>
      <trkpt lat="46.58412" lon="0.58868">
        <ele>112.6</ele>
        <time>2024-03-17T07:35:16Z</time>
      </trkpt>
      <trkpt lat="46.58429" lon="0.58892">
        <ele>112.2</ele>
        <time>2024-03-17T07:35:20Z</time>
      </trkpt>
      <trkpt lat="46.58433" lon="0.58898">
        <ele>112</ele>
        <time>2024-03-17T07:35:21Z</time>
      </trkpt>
      <trkpt lat="46.58441" lon="0.58909">
        <ele>111.8</ele>
        <time>2024-03-17T07:35:23Z</time>
      </trkpt>
      <trkpt lat="46.58451" lon="0.58923">
        <ele>111.2</ele>
        <time>2024-03-17T07:35:26Z</time>
      </trkpt>
      <trkpt lat="46.58456" lon="0.58931">
        <ele>110.6</ele>
        <time>2024-03-17T07:35:28Z</time>
      </trkpt>
      <trkpt lat="46.58461" lon="0.58938">
        <ele>110</ele>
        <time>2024-03-17T07:35:31Z</time>
      </trkpt>
      <trkpt lat="46.58462" lon="0.58941">
        <ele>109.6</ele>
        <time>2024-03-17T07:35:32Z</time>
      </trkpt>
      <trkpt lat="46.58464" lon="0.58945">
        <ele>109.4</ele>
        <time>2024-03-17T07:35:35Z</time>
      </trkpt>
      <trkpt lat="46.58465" lon="0.58945">
        <ele>109.4</ele>
        <time>2024-03-17T07:35:36Z</time>
      </trkpt>
      <trkpt lat="46.58465" lon="0.58946">
        <ele>109.4</ele>
        <time>2024-03-17T07:35:37Z</time>
      </trkpt>
      <trkpt lat="46.58472" lon="0.58957">
        <ele>109.4</ele>
        <time>2024-03-17T07:35:44Z</time>
      </trkpt>
      <trkpt lat="46.58483" lon="0.58971">
        <ele>108.8</ele>
        <time>2024-03-17T07:35:51Z</time>
      </trkpt>
      <trkpt lat="46.58489" lon="0.58984">
        <ele>108.8</ele>
        <time>2024-03-17T07:35:58Z</time>
      </trkpt>
      <trkpt lat="46.58494" lon="0.58987">
        <ele>108.6</ele>
        <time>2024-03-17T07:36:00Z</time>
      </trkpt>
      <trkpt lat="46.58504" lon="0.58998">
        <ele>108.4</ele>
        <time>2024-03-17T07:36:05Z</time>
      </trkpt>
      <trkpt lat="46.58518" lon="0.59011">
        <ele>107.8</ele>
        <time>2024-03-17T07:36:12Z</time>
      </trkpt>
      <trkpt lat="46.58525" lon="0.59018">
        <ele>107.6</ele>
        <time>2024-03-17T07:36:16Z</time>
      </trkpt>
      <trkpt lat="46.58533" lon="0.59025">
        <ele>107</ele>
        <time>2024-03-17T07:36:20Z</time>
      </trkpt>
      <trkpt lat="46.58548" lon="0.59034">
        <ele>107</ele>
        <time>2024-03-17T07:36:26Z</time>
      </trkpt>
      <trkpt lat="46.58551" lon="0.59035">
        <ele>107</ele>
        <time>2024-03-17T07:36:27Z</time>
      </trkpt>
      <trkpt lat="46.58558" lon="0.59037">
        <ele>106.4</ele>
        <time>2024-03-17T07:36:29Z</time>
      </trkpt>
      <trkpt lat="46.58566" lon="0.59039">
        <ele>105.8</ele>
        <time>2024-03-17T07:36:31Z</time>
      </trkpt>
      <trkpt lat="46.5858" lon="0.59038">
        <ele>105.4</ele>
        <time>2024-03-17T07:36:34Z</time>
      </trkpt>
      <trkpt lat="46.58596" lon="0.59038">
        <ele>104.2</ele>
        <time>2024-03-17T07:36:38Z</time>
      </trkpt>
      <trkpt lat="46.58624" lon="0.59032">
        <ele>104.8</ele>
        <time>2024-03-17T07:36:45Z</time>
      </trkpt>
      <trkpt lat="46.58647" lon="0.59031">
        <ele>105</ele>
        <time>2024-03-17T07:36:52Z</time>
      </trkpt>
      <trkpt lat="46.58652" lon="0.5904">
        <ele>105.2</ele>
        <time>2024-03-17T07:36:55Z</time>
      </trkpt>
      <trkpt lat="46.58653" lon="0.59048">
        <ele>105.6</ele>
        <time>2024-03-17T07:36:57Z</time>
      </trkpt>
      <trkpt lat="46.58662" lon="0.59084">
        <ele>106</ele>
        <time>2024-03-17T07:37:05Z</time>
      </trkpt>
      <trkpt lat="46.58667" lon="0.5911">
        <ele>106</ele>
        <time>2024-03-17T07:37:11Z</time>
      </trkpt>
      <trkpt lat="46.58667" lon="0.59142">
        <ele>105.6</ele>
        <time>2024-03-17T07:37:17Z</time>
      </trkpt>
      <trkpt lat="46.58666" lon="0.59149">
        <ele>105</ele>
        <time>2024-03-17T07:37:18Z</time>
      </trkpt>
      <trkpt lat="46.58662" lon="0.59175">
        <ele>104.2</ele>
        <time>2024-03-17T07:37:21Z</time>
      </trkpt>
      <trkpt lat="46.58657" lon="0.59195">
        <ele>102.8</ele>
        <time>2024-03-17T07:37:23Z</time>
      </trkpt>
      <trkpt lat="46.58646" lon="0.59227">
        <ele>101.6</ele>
        <time>2024-03-17T07:37:26Z</time>
      </trkpt>
      <trkpt lat="46.58638" lon="0.59247">
        <ele>100.8</ele>
        <time>2024-03-17T07:37:28Z</time>
      </trkpt>
      <trkpt lat="46.58635" lon="0.59255">
        <ele>100.2</ele>
        <time>2024-03-17T07:37:29Z</time>
      </trkpt>
      <trkpt lat="46.58629" lon="0.59267">
        <ele>98.8</ele>
        <time>2024-03-17T07:37:31Z</time>
      </trkpt>
      <trkpt lat="46.58626" lon="0.59272">
        <ele>98.2</ele>
        <time>2024-03-17T07:37:32Z</time>
      </trkpt>
      <trkpt lat="46.58622" lon="0.59276">
        <ele>97.8</ele>
        <time>2024-03-17T07:37:33Z</time>
      </trkpt>
      <trkpt lat="46.58617" lon="0.59283">
        <ele>97.2</ele>
        <time>2024-03-17T07:37:36Z</time>
      </trkpt>
      <trkpt lat="46.58615" lon="0.59283">
        <ele>97.2</ele>
        <time>2024-03-17T07:37:37Z</time>
      </trkpt>
      <trkpt lat="46.58612" lon="0.59279">
        <ele>96.8</ele>
        <time>2024-03-17T07:37:40Z</time>
      </trkpt>
      <trkpt lat="46.58611" lon="0.59277">
        <ele>96.6</ele>
        <time>2024-03-17T07:37:41Z</time>
      </trkpt>
      <trkpt lat="46.58609" lon="0.59274">
        <ele>96.8</ele>
        <time>2024-03-17T07:37:43Z</time>
      </trkpt>
      <trkpt lat="46.58607" lon="0.5927">
        <ele>98</ele>
        <time>2024-03-17T07:37:46Z</time>
      </trkpt>
      <trkpt lat="46.58606" lon="0.59268">
        <ele>98.8</ele>
        <time>2024-03-17T07:37:49Z</time>
      </trkpt>
      <trkpt lat="46.58605" lon="0.59268">
        <ele>99.2</ele>
        <time>2024-03-17T07:37:51Z</time>
      </trkpt>
      <trkpt lat="46.58604" lon="0.59267">
        <ele>99.8</ele>
        <time>2024-03-17T07:37:56Z</time>
      </trkpt>
      <trkpt lat="46.58603" lon="0.59264">
        <ele>100.2</ele>
        <time>2024-03-17T07:38:00Z</time>
      </trkpt>
      <trkpt lat="46.586" lon="0.59261">
        <ele>101.4</ele>
        <time>2024-03-17T07:38:05Z</time>
      </trkpt>
      <trkpt lat="46.58598" lon="0.59259">
        <ele>102.4</ele>
        <time>2024-03-17T07:38:09Z</time>
      </trkpt>
      <trkpt lat="46.58594" lon="0.59256">
        <ele>103.6</ele>
        <time>2024-03-17T07:38:15Z</time>
      </trkpt>
      <trkpt lat="46.58592" lon="0.59254">
        <ele>104.2</ele>
        <time>2024-03-17T07:38:17Z</time>
      </trkpt>
      <trkpt lat="46.58589" lon="0.59252">
        <ele>104.4</ele>
        <time>2024-03-17T07:38:21Z</time>
      </trkpt>
      <trkpt lat="46.58587" lon="0.59249">
        <ele>104.8</ele>
        <time>2024-03-17T07:38:23Z</time>
      </trkpt>
      <trkpt lat="46.58583" lon="0.59243">
        <ele>105.4</ele>
        <time>2024-03-17T07:38:29Z</time>
      </trkpt>
      <trkpt lat="46.58582" lon="0.59242">
        <ele>105.6</ele>
        <time>2024-03-17T07:38:32Z</time>
      </trkpt>
      <trkpt lat="46.58582" lon="0.5924">
        <ele>105.6</ele>
        <time>2024-03-17T07:38:33Z</time>
      </trkpt>
      <trkpt lat="46.5858" lon="0.59238">
        <ele>105.8</ele>
        <time>2024-03-17T07:38:35Z</time>
      </trkpt>
      <trkpt lat="46.58577" lon="0.59237">
        <ele>106.2</ele>
        <time>2024-03-17T07:38:38Z</time>
      </trkpt>
      <trkpt lat="46.58569" lon="0.59236">
        <ele>106.2</ele>
        <time>2024-03-17T07:38:42Z</time>
      </trkpt>
      <trkpt lat="46.58564" lon="0.59235">
        <ele>106.6</ele>
        <time>2024-03-17T07:38:45Z</time>
      </trkpt>
      <trkpt lat="46.58562" lon="0.59237">
        <ele>106.8</ele>
        <time>2024-03-17T07:38:47Z</time>
      </trkpt>
      <trkpt lat="46.58558" lon="0.59252">
        <ele>106.2</ele>
        <time>2024-03-17T07:38:52Z</time>
      </trkpt>
      <trkpt lat="46.58556" lon="0.59268">
        <ele>105.2</ele>
        <time>2024-03-17T07:38:57Z</time>
      </trkpt>
      <trkpt lat="46.58554" lon="0.59273">
        <ele>104.8</ele>
        <time>2024-03-17T07:38:59Z</time>
      </trkpt>
      <trkpt lat="46.5855" lon="0.5928">
        <ele>104.6</ele>
        <time>2024-03-17T07:39:02Z</time>
      </trkpt>
      <trkpt lat="46.58548" lon="0.59289">
        <ele>103.6</ele>
        <time>2024-03-17T07:39:06Z</time>
      </trkpt>
      <trkpt lat="46.58545" lon="0.59299">
        <ele>102.8</ele>
        <time>2024-03-17T07:39:09Z</time>
      </trkpt>
      <trkpt lat="46.58544" lon="0.59302">
        <ele>102.6</ele>
        <time>2024-03-17T07:39:10Z</time>
      </trkpt>
      <trkpt lat="46.58542" lon="0.59305">
        <ele>102.4</ele>
        <time>2024-03-17T07:39:11Z</time>
      </trkpt>
      <trkpt lat="46.58539" lon="0.59314">
        <ele>101.6</ele>
        <time>2024-03-17T07:39:14Z</time>
      </trkpt>
      <trkpt lat="46.58537" lon="0.59317">
        <ele>101.4</ele>
        <time>2024-03-17T07:39:15Z</time>
      </trkpt>
      <trkpt lat="46.58536" lon="0.5932">
        <ele>101.2</ele>
        <time>2024-03-17T07:39:16Z</time>
      </trkpt>
      <trkpt lat="46.58533" lon="0.5933">
        <ele>100.6</ele>
        <time>2024-03-17T07:39:19Z</time>
      </trkpt>
      <trkpt lat="46.58529" lon="0.59344">
        <ele>100.4</ele>
        <time>2024-03-17T07:39:24Z</time>
      </trkpt>
      <trkpt lat="46.58529" lon="0.59348">
        <ele>100</ele>
        <time>2024-03-17T07:39:25Z</time>
      </trkpt>
      <trkpt lat="46.58526" lon="0.59359">
        <ele>99</ele>
        <time>2024-03-17T07:39:29Z</time>
      </trkpt>
      <trkpt lat="46.58525" lon="0.59361">
        <ele>98.6</ele>
        <time>2024-03-17T07:39:30Z</time>
      </trkpt>
      <trkpt lat="46.58524" lon="0.59366">
        <ele>97.6</ele>
        <time>2024-03-17T07:39:32Z</time>
      </trkpt>
      <trkpt lat="46.58522" lon="0.59372">
        <ele>96.4</ele>
        <time>2024-03-17T07:39:36Z</time>
      </trkpt>
      <trkpt lat="46.5852" lon="0.59379">
        <ele>95.8</ele>
        <time>2024-03-17T07:39:39Z</time>
      </trkpt>
      <trkpt lat="46.5852" lon="0.59384">
        <ele>95.2</ele>
        <time>2024-03-17T07:39:41Z</time>
      </trkpt>
      <trkpt lat="46.58519" lon="0.59392">
        <ele>94</ele>
        <time>2024-03-17T07:39:44Z</time>
      </trkpt>
      <trkpt lat="46.58519" lon="0.59399">
        <ele>92.8</ele>
        <time>2024-03-17T07:39:47Z</time>
      </trkpt>
      <trkpt lat="46.58519" lon="0.59407">
        <ele>91.4</ele>
        <time>2024-03-17T07:39:50Z</time>
      </trkpt>
      <trkpt lat="46.5852" lon="0.5941">
        <ele>90.2</ele>
        <time>2024-03-17T07:39:51Z</time>
      </trkpt>
      <trkpt lat="46.58519" lon="0.59416">
        <ele>89</ele>
        <time>2024-03-17T07:39:53Z</time>
      </trkpt>
      <trkpt lat="46.58519" lon="0.59423">
        <ele>87.4</ele>
        <time>2024-03-17T07:39:56Z</time>
      </trkpt>
      <trkpt lat="46.58518" lon="0.59429">
        <ele>86.4</ele>
        <time>2024-03-17T07:39:58Z</time>
      </trkpt>
      <trkpt lat="46.58515" lon="0.59437">
        <ele>85.8</ele>
        <time>2024-03-17T07:40:00Z</time>
      </trkpt>
      <trkpt lat="46.58514" lon="0.59444">
        <ele>85.2</ele>
        <time>2024-03-17T07:40:02Z</time>
      </trkpt>
      <trkpt lat="46.58513" lon="0.59457">
        <ele>85.2</ele>
        <time>2024-03-17T07:40:06Z</time>
      </trkpt>
      <trkpt lat="46.58513" lon="0.5946">
        <ele>85.4</ele>
        <time>2024-03-17T07:40:07Z</time>
      </trkpt>
      <trkpt lat="46.58514" lon="0.59462">
        <ele>85.4</ele>
        <time>2024-03-17T07:40:08Z</time>
      </trkpt>
      <trkpt lat="46.58516" lon="0.59473">
        <ele>86.4</ele>
        <time>2024-03-17T07:40:13Z</time>
      </trkpt>
      <trkpt lat="46.58516" lon="0.59476">
        <ele>87</ele>
        <time>2024-03-17T07:40:15Z</time>
      </trkpt>
      <trkpt lat="46.58517" lon="0.59479">
        <ele>87.6</ele>
        <time>2024-03-17T07:40:17Z</time>
      </trkpt>
      <trkpt lat="46.58518" lon="0.5948">
        <ele>88</ele>
        <time>2024-03-17T07:40:18Z</time>
      </trkpt>
      <trkpt lat="46.58519" lon="0.59482">
        <ele>88.6</ele>
        <time>2024-03-17T07:40:21Z</time>
      </trkpt>
      <trkpt lat="46.58522" lon="0.59483">
        <ele>89.4</ele>
        <time>2024-03-17T07:40:24Z</time>
      </trkpt>
      <trkpt lat="46.58523" lon="0.59483">
        <ele>89.8</ele>
        <time>2024-03-17T07:40:25Z</time>
      </trkpt>
      <trkpt lat="46.58526" lon="0.59486">
        <ele>90.8</ele>
        <time>2024-03-17T07:40:30Z</time>
      </trkpt>
      <trkpt lat="46.58531" lon="0.59485">
        <ele>92.2</ele>
        <time>2024-03-17T07:40:36Z</time>
      </trkpt>
      <trkpt lat="46.58534" lon="0.59485">
        <ele>93.2</ele>
        <time>2024-03-17T07:40:40Z</time>
      </trkpt>
      <trkpt lat="46.58535" lon="0.59486">
        <ele>93.4</ele>
        <time>2024-03-17T07:40:41Z</time>
      </trkpt>
      <trkpt lat="46.58538" lon="0.59492">
        <ele>94</ele>
        <time>2024-03-17T07:40:49Z</time>
      </trkpt>
      <trkpt lat="46.58538" lon="0.59498">
        <ele>94.4</ele>
        <time>2024-03-17T07:40:54Z</time>
      </trkpt>
      <trkpt lat="46.58538" lon="0.595">
        <ele>94.6</ele>
        <time>2024-03-17T07:40:56Z</time>
      </trkpt>
      <trkpt lat="46.58538" lon="0.59502">
        <ele>94.6</ele>
        <time>2024-03-17T07:40:58Z</time>
      </trkpt>
      <trkpt lat="46.58538" lon="0.59506">
        <ele>93.6</ele>
        <time>2024-03-17T07:41:01Z</time>
      </trkpt>
      <trkpt lat="46.58537" lon="0.59507">
        <ele>93.4</ele>
        <time>2024-03-17T07:41:02Z</time>
      </trkpt>
      <trkpt lat="46.58536" lon="0.59511">
        <ele>92.2</ele>
        <time>2024-03-17T07:41:07Z</time>
      </trkpt>
      <trkpt lat="46.58536" lon="0.59517">
        <ele>91.2</ele>
        <time>2024-03-17T07:41:14Z</time>
      </trkpt>
      <trkpt lat="46.58537" lon="0.59522">
        <ele>90.8</ele>
        <time>2024-03-17T07:41:17Z</time>
      </trkpt>
      <trkpt lat="46.58539" lon="0.59526">
        <ele>90.4</ele>
        <time>2024-03-17T07:41:21Z</time>
      </trkpt>
      <trkpt lat="46.5854" lon="0.59529">
        <ele>90.6</ele>
        <time>2024-03-17T07:41:23Z</time>
      </trkpt>
      <trkpt lat="46.58546" lon="0.59537">
        <ele>92.4</ele>
        <time>2024-03-17T07:41:31Z</time>
      </trkpt>
      <trkpt lat="46.58548" lon="0.59537">
        <ele>93.6</ele>
        <time>2024-03-17T07:41:33Z</time>
      </trkpt>
      <trkpt lat="46.58551" lon="0.5954">
        <ele>94</ele>
        <time>2024-03-17T07:41:35Z</time>
      </trkpt>
      <trkpt lat="46.58555" lon="0.59551">
        <ele>92.4</ele>
        <time>2024-03-17T07:41:42Z</time>
      </trkpt>
      <trkpt lat="46.58558" lon="0.59556">
        <ele>92.2</ele>
        <time>2024-03-17T07:41:44Z</time>
      </trkpt>
      <trkpt lat="46.5857" lon="0.59576">
        <ele>92.4</ele>
        <time>2024-03-17T07:41:54Z</time>
      </trkpt>
      <trkpt lat="46.58576" lon="0.59583">
        <ele>93</ele>
        <time>2024-03-17T07:41:59Z</time>
      </trkpt>
      <trkpt lat="46.58577" lon="0.59585">
        <ele>93</ele>
        <time>2024-03-17T07:42:00Z</time>
      </trkpt>
      <trkpt lat="46.58584" lon="0.596">
        <ele>92.8</ele>
        <time>2024-03-17T07:42:07Z</time>
      </trkpt>
      <trkpt lat="46.58589" lon="0.59613">
        <ele>91.4</ele>
        <time>2024-03-17T07:42:12Z</time>
      </trkpt>
      <trkpt lat="46.58592" lon="0.59617">
        <ele>91.2</ele>
        <time>2024-03-17T07:42:13Z</time>
      </trkpt>
      <trkpt lat="46.586" lon="0.59634">
        <ele>90.6</ele>
        <time>2024-03-17T07:42:18Z</time>
      </trkpt>
      <trkpt lat="46.58601" lon="0.59638">
        <ele>90.2</ele>
        <time>2024-03-17T07:42:19Z</time>
      </trkpt>
      <trkpt lat="46.58602" lon="0.59644">
        <ele>89.8</ele>
        <time>2024-03-17T07:42:21Z</time>
      </trkpt>
      <trkpt lat="46.58604" lon="0.59649">
        <ele>89</ele>
        <time>2024-03-17T07:42:23Z</time>
      </trkpt>
      <trkpt lat="46.58609" lon="0.59662">
        <ele>88</ele>
        <time>2024-03-17T07:42:28Z</time>
      </trkpt>
      <trkpt lat="46.58616" lon="0.59676">
        <ele>88</ele>
        <time>2024-03-17T07:42:34Z</time>
      </trkpt>
      <trkpt lat="46.58616" lon="0.59686">
        <ele>88.4</ele>
        <time>2024-03-17T07:42:38Z</time>
      </trkpt>
      <trkpt lat="46.58614" lon="0.59692">
        <ele>87.2</ele>
        <time>2024-03-17T07:42:41Z</time>
      </trkpt>
      <trkpt lat="46.58615" lon="0.59696">
        <ele>86.8</ele>
        <time>2024-03-17T07:42:42Z</time>
      </trkpt>
      <trkpt lat="46.58616" lon="0.59701">
        <ele>86.2</ele>
        <time>2024-03-17T07:42:43Z</time>
      </trkpt>
      <trkpt lat="46.58618" lon="0.59707">
        <ele>86</ele>
        <time>2024-03-17T07:42:45Z</time>
      </trkpt>
      <trkpt lat="46.58621" lon="0.59721">
        <ele>86.8</ele>
        <time>2024-03-17T07:42:49Z</time>
      </trkpt>
      <trkpt lat="46.58625" lon="0.59743">
        <ele>86.8</ele>
        <time>2024-03-17T07:42:56Z</time>
      </trkpt>
      <trkpt lat="46.58629" lon="0.59753">
        <ele>86.8</ele>
        <time>2024-03-17T07:43:00Z</time>
      </trkpt>
      <trkpt lat="46.58629" lon="0.59754">
        <ele>87.2</ele>
        <time>2024-03-17T07:43:01Z</time>
      </trkpt>
      <trkpt lat="46.58629" lon="0.59756">
        <ele>88</ele>
        <time>2024-03-17T07:43:02Z</time>
      </trkpt>
      <trkpt lat="46.58631" lon="0.59757">
        <ele>89.2</ele>
        <time>2024-03-17T07:43:04Z</time>
      </trkpt>
      <trkpt lat="46.58635" lon="0.59762">
        <ele>90.2</ele>
        <time>2024-03-17T07:43:09Z</time>
      </trkpt>
      <trkpt lat="46.58636" lon="0.59764">
        <ele>90.8</ele>
        <time>2024-03-17T07:43:11Z</time>
      </trkpt>
      <trkpt lat="46.58637" lon="0.59765">
        <ele>91.4</ele>
        <time>2024-03-17T07:43:13Z</time>
      </trkpt>
      <trkpt lat="46.58641" lon="0.59778">
        <ele>91.2</ele>
        <time>2024-03-17T07:43:21Z</time>
      </trkpt>
      <trkpt lat="46.58639" lon="0.59785">
        <ele>90.2</ele>
        <time>2024-03-17T07:43:25Z</time>
      </trkpt>
      <trkpt lat="46.58639" lon="0.59789">
        <ele>88.6</ele>
        <time>2024-03-17T07:43:27Z</time>
      </trkpt>
      <trkpt lat="46.58639" lon="0.59793">
        <ele>87.2</ele>
        <time>2024-03-17T07:43:29Z</time>
      </trkpt>
      <trkpt lat="46.58639" lon="0.59801">
        <ele>85.8</ele>
        <time>2024-03-17T07:43:32Z</time>
      </trkpt>
      <trkpt lat="46.58642" lon="0.59805">
        <ele>85.2</ele>
        <time>2024-03-17T07:43:34Z</time>
      </trkpt>
      <trkpt lat="46.58644" lon="0.59807">
        <ele>85</ele>
        <time>2024-03-17T07:43:35Z</time>
      </trkpt>
      <trkpt lat="46.58645" lon="0.5981">
        <ele>84.8</ele>
        <time>2024-03-17T07:43:36Z</time>
      </trkpt>
      <trkpt lat="46.58649" lon="0.59822">
        <ele>83.8</ele>
        <time>2024-03-17T07:43:40Z</time>
      </trkpt>
      <trkpt lat="46.5865" lon="0.59824">
        <ele>83.6</ele>
        <time>2024-03-17T07:43:41Z</time>
      </trkpt>
      <trkpt lat="46.58647" lon="0.5983">
        <ele>83</ele>
        <time>2024-03-17T07:43:43Z</time>
      </trkpt>
      <trkpt lat="46.58642" lon="0.59833">
        <ele>82.2</ele>
        <time>2024-03-17T07:43:45Z</time>
      </trkpt>
      <trkpt lat="46.58631" lon="0.59838">
        <ele>81.2</ele>
        <time>2024-03-17T07:43:48Z</time>
      </trkpt>
      <trkpt lat="46.58626" lon="0.5984">
        <ele>81</ele>
        <time>2024-03-17T07:43:49Z</time>
      </trkpt>
      <trkpt lat="46.58622" lon="0.5984">
        <ele>80.4</ele>
        <time>2024-03-17T07:43:50Z</time>
      </trkpt>
      <trkpt lat="46.58617" lon="0.59841">
        <ele>79.2</ele>
        <time>2024-03-17T07:43:51Z</time>
      </trkpt>
      <trkpt lat="46.58608" lon="0.5984">
        <ele>78</ele>
        <time>2024-03-17T07:43:53Z</time>
      </trkpt>
      <trkpt lat="46.58595" lon="0.5984">
        <ele>77</ele>
        <time>2024-03-17T07:43:56Z</time>
      </trkpt>
      <trkpt lat="46.58589" lon="0.59841">
        <ele>76.8</ele>
        <time>2024-03-17T07:43:58Z</time>
      </trkpt>
      <trkpt lat="46.58584" lon="0.59842">
        <ele>77.2</ele>
        <time>2024-03-17T07:44:01Z</time>
      </trkpt>
      <trkpt lat="46.58579" lon="0.5984">
        <ele>78</ele>
        <time>2024-03-17T07:44:04Z</time>
      </trkpt>
      <trkpt lat="46.58572" lon="0.59828">
        <ele>78.4</ele>
        <time>2024-03-17T07:44:09Z</time>
      </trkpt>
      <trkpt lat="46.58569" lon="0.5981">
        <ele>78.8</ele>
        <time>2024-03-17T07:44:14Z</time>
      </trkpt>
      <trkpt lat="46.58567" lon="0.59795">
        <ele>79</ele>
        <time>2024-03-17T07:44:17Z</time>
      </trkpt>
      <trkpt lat="46.58568" lon="0.59782">
        <ele>78.8</ele>
        <time>2024-03-17T07:44:19Z</time>
      </trkpt>
      <trkpt lat="46.58569" lon="0.59751">
        <ele>78.4</ele>
        <time>2024-03-17T07:44:23Z</time>
      </trkpt>
      <trkpt lat="46.58567" lon="0.59736">
        <ele>78</ele>
        <time>2024-03-17T07:44:25Z</time>
      </trkpt>
      <trkpt lat="46.58566" lon="0.59729">
        <ele>77.8</ele>
        <time>2024-03-17T07:44:26Z</time>
      </trkpt>
      <trkpt lat="46.58563" lon="0.59716">
        <ele>77.6</ele>
        <time>2024-03-17T07:44:28Z</time>
      </trkpt>
      <trkpt lat="46.58557" lon="0.59705">
        <ele>77.8</ele>
        <time>2024-03-17T07:44:30Z</time>
      </trkpt>
      <trkpt lat="46.58554" lon="0.597">
        <ele>77.8</ele>
        <time>2024-03-17T07:44:31Z</time>
      </trkpt>
      <trkpt lat="46.58543" lon="0.59678">
        <ele>78.4</ele>
        <time>2024-03-17T07:44:35Z</time>
      </trkpt>
      <trkpt lat="46.58526" lon="0.59642">
        <ele>78.8</ele>
        <time>2024-03-17T07:44:42Z</time>
      </trkpt>
      <trkpt lat="46.58509" lon="0.59601">
        <ele>79</ele>
        <time>2024-03-17T07:44:49Z</time>
      </trkpt>
      <trkpt lat="46.58506" lon="0.59596">
        <ele>79.2</ele>
        <time>2024-03-17T07:44:50Z</time>
      </trkpt>
      <trkpt lat="46.58504" lon="0.59589">
        <ele>79.2</ele>
        <time>2024-03-17T07:44:51Z</time>
      </trkpt>
      <trkpt lat="46.58498" lon="0.59566">
        <ele>79.4</ele>
        <time>2024-03-17T07:44:55Z</time>
      </trkpt>
      <trkpt lat="46.58491" lon="0.59536">
        <ele>80.4</ele>
        <time>2024-03-17T07:45:01Z</time>
      </trkpt>
      <trkpt lat="46.58488" lon="0.59523">
        <ele>81</ele>
        <time>2024-03-17T07:45:04Z</time>
      </trkpt>
      <trkpt lat="46.58483" lon="0.59505">
        <ele>81.4</ele>
        <time>2024-03-17T07:45:09Z</time>
      </trkpt>
      <trkpt lat="46.58481" lon="0.59503">
        <ele>81.6</ele>
        <time>2024-03-17T07:45:10Z</time>
      </trkpt>
      <trkpt lat="46.58472" lon="0.59509">
        <ele>82.2</ele>
        <time>2024-03-17T07:45:14Z</time>
      </trkpt>
      <trkpt lat="46.58462" lon="0.5953">
        <ele>82</ele>
        <time>2024-03-17T07:45:20Z</time>
      </trkpt>
      <trkpt lat="46.58459" lon="0.59543">
        <ele>82.6</ele>
        <time>2024-03-17T07:45:24Z</time>
      </trkpt>
      <trkpt lat="46.58459" lon="0.59546">
        <ele>82.8</ele>
        <time>2024-03-17T07:45:25Z</time>
      </trkpt>
      <trkpt lat="46.58458" lon="0.59559">
        <ele>83.8</ele>
        <time>2024-03-17T07:45:29Z</time>
      </trkpt>
      <trkpt lat="46.58459" lon="0.59565">
        <ele>84.2</ele>
        <time>2024-03-17T07:45:31Z</time>
      </trkpt>
      <trkpt lat="46.58459" lon="0.5957">
        <ele>85</ele>
        <time>2024-03-17T07:45:33Z</time>
      </trkpt>
      <trkpt lat="46.5846" lon="0.59582">
        <ele>86</ele>
        <time>2024-03-17T07:45:38Z</time>
      </trkpt>
      <trkpt lat="46.5846" lon="0.59584">
        <ele>86.2</ele>
        <time>2024-03-17T07:45:39Z</time>
      </trkpt>
      <trkpt lat="46.5846" lon="0.59592">
        <ele>87.2</ele>
        <time>2024-03-17T07:45:42Z</time>
      </trkpt>
      <trkpt lat="46.58461" lon="0.596">
        <ele>87.8</ele>
        <time>2024-03-17T07:45:45Z</time>
      </trkpt>
      <trkpt lat="46.58461" lon="0.59602">
        <ele>88.2</ele>
        <time>2024-03-17T07:45:46Z</time>
      </trkpt>
      <trkpt lat="46.58463" lon="0.59611">
        <ele>89.6</ele>
        <time>2024-03-17T07:45:50Z</time>
      </trkpt>
      <trkpt lat="46.58463" lon="0.59619">
        <ele>90.6</ele>
        <time>2024-03-17T07:45:54Z</time>
      </trkpt>
      <trkpt lat="46.58465" lon="0.59622">
        <ele>91</ele>
        <time>2024-03-17T07:45:57Z</time>
      </trkpt>
      <trkpt lat="46.58466" lon="0.59629">
        <ele>91.6</ele>
        <time>2024-03-17T07:46:00Z</time>
      </trkpt>
      <trkpt lat="46.58467" lon="0.59633">
        <ele>91.8</ele>
        <time>2024-03-17T07:46:02Z</time>
      </trkpt>
      <trkpt lat="46.58467" lon="0.59641">
        <ele>92.6</ele>
        <time>2024-03-17T07:46:05Z</time>
      </trkpt>
      <trkpt lat="46.58469" lon="0.59652">
        <ele>93.8</ele>
        <time>2024-03-17T07:46:10Z</time>
      </trkpt>
      <trkpt lat="46.58468" lon="0.59662">
        <ele>94.8</ele>
        <time>2024-03-17T07:46:14Z</time>
      </trkpt>
      <trkpt lat="46.58469" lon="0.59669">
        <ele>95.2</ele>
        <time>2024-03-17T07:46:18Z</time>
      </trkpt>
      <trkpt lat="46.58469" lon="0.59677">
        <ele>96</ele>
        <time>2024-03-17T07:46:22Z</time>
      </trkpt>
      <trkpt lat="46.58469" lon="0.59686">
        <ele>96.8</ele>
        <time>2024-03-17T07:46:26Z</time>
      </trkpt>
      <trkpt lat="46.58469" lon="0.59692">
        <ele>97.2</ele>
        <time>2024-03-17T07:46:29Z</time>
      </trkpt>
      <trkpt lat="46.58468" lon="0.59699">
        <ele>97.8</ele>
        <time>2024-03-17T07:46:32Z</time>
      </trkpt>
      <trkpt lat="46.58467" lon="0.59703">
        <ele>98.2</ele>
        <time>2024-03-17T07:46:34Z</time>
      </trkpt>
      <trkpt lat="46.58465" lon="0.59717">
        <ele>98.8</ele>
        <time>2024-03-17T07:46:40Z</time>
      </trkpt>
      <trkpt lat="46.58464" lon="0.59727">
        <ele>99.2</ele>
        <time>2024-03-17T07:46:44Z</time>
      </trkpt>
      <trkpt lat="46.58463" lon="0.59736">
        <ele>99.8</ele>
        <time>2024-03-17T07:46:48Z</time>
      </trkpt>
      <trkpt lat="46.58461" lon="0.59749">
        <ele>100.4</ele>
        <time>2024-03-17T07:46:52Z</time>
      </trkpt>
      <trkpt lat="46.5846" lon="0.59757">
        <ele>100.8</ele>
        <time>2024-03-17T07:46:55Z</time>
      </trkpt>
      <trkpt lat="46.58459" lon="0.59766">
        <ele>101.4</ele>
        <time>2024-03-17T07:46:59Z</time>
      </trkpt>
      <trkpt lat="46.58458" lon="0.59774">
        <ele>101.8</ele>
        <time>2024-03-17T07:47:02Z</time>
      </trkpt>
      <trkpt lat="46.58457" lon="0.59792">
        <ele>102.4</ele>
        <time>2024-03-17T07:47:08Z</time>
      </trkpt>
      <trkpt lat="46.58456" lon="0.59795">
        <ele>102.8</ele>
        <time>2024-03-17T07:47:09Z</time>
      </trkpt>
      <trkpt lat="46.58454" lon="0.59821">
        <ele>103.4</ele>
        <time>2024-03-17T07:47:16Z</time>
      </trkpt>
      <trkpt lat="46.58452" lon="0.59854">
        <ele>104.4</ele>
        <time>2024-03-17T07:47:23Z</time>
      </trkpt>
      <trkpt lat="46.58452" lon="0.59859">
        <ele>104.6</ele>
        <time>2024-03-17T07:47:24Z</time>
      </trkpt>
      <trkpt lat="46.58453" lon="0.59886">
        <ele>105.4</ele>
        <time>2024-03-17T07:47:31Z</time>
      </trkpt>
      <trkpt lat="46.58453" lon="0.59894">
        <ele>105.6</ele>
        <time>2024-03-17T07:47:33Z</time>
      </trkpt>
      <trkpt lat="46.58453" lon="0.59908">
        <ele>106.2</ele>
        <time>2024-03-17T07:47:37Z</time>
      </trkpt>
      <trkpt lat="46.58453" lon="0.59928">
        <ele>106.6</ele>
        <time>2024-03-17T07:47:42Z</time>
      </trkpt>
      <trkpt lat="46.58452" lon="0.5993">
        <ele>106.6</ele>
        <time>2024-03-17T07:47:43Z</time>
      </trkpt>
      <trkpt lat="46.58452" lon="0.59948">
        <ele>107.2</ele>
        <time>2024-03-17T07:47:49Z</time>
      </trkpt>
      <trkpt lat="46.58454" lon="0.59951">
        <ele>107.2</ele>
        <time>2024-03-17T07:47:51Z</time>
      </trkpt>
      <trkpt lat="46.5846" lon="0.59949">
        <ele>106.4</ele>
        <time>2024-03-17T07:47:54Z</time>
      </trkpt>
      <trkpt lat="46.58465" lon="0.59947">
        <ele>106</ele>
        <time>2024-03-17T07:47:56Z</time>
      </trkpt>
      <trkpt lat="46.58469" lon="0.59946">
        <ele>105.6</ele>
        <time>2024-03-17T07:47:58Z</time>
      </trkpt>
      <trkpt lat="46.5847" lon="0.59947">
        <ele>105</ele>
        <time>2024-03-17T07:47:59Z</time>
      </trkpt>
      <trkpt lat="46.58478" lon="0.59948">
        <ele>104.4</ele>
        <time>2024-03-17T07:48:02Z</time>
      </trkpt>
      <trkpt lat="46.58481" lon="0.59948">
        <ele>104.2</ele>
        <time>2024-03-17T07:48:03Z</time>
      </trkpt>
      <trkpt lat="46.58484" lon="0.5995">
        <ele>104</ele>
        <time>2024-03-17T07:48:04Z</time>
      </trkpt>
      <trkpt lat="46.58488" lon="0.59951">
        <ele>104</ele>
        <time>2024-03-17T07:48:05Z</time>
      </trkpt>
      <trkpt lat="46.58496" lon="0.59952">
        <ele>103.4</ele>
        <time>2024-03-17T07:48:07Z</time>
      </trkpt>
      <trkpt lat="46.58499" lon="0.59954">
        <ele>103.4</ele>
        <time>2024-03-17T07:48:08Z</time>
      </trkpt>
      <trkpt lat="46.58501" lon="0.59956">
        <ele>103</ele>
        <time>2024-03-17T07:48:09Z</time>
      </trkpt>
      <trkpt lat="46.58505" lon="0.59961">
        <ele>102.4</ele>
        <time>2024-03-17T07:48:11Z</time>
      </trkpt>
      <trkpt lat="46.58507" lon="0.59964">
        <ele>102</ele>
        <time>2024-03-17T07:48:12Z</time>
      </trkpt>
      <trkpt lat="46.58508" lon="0.59967">
        <ele>101.8</ele>
        <time>2024-03-17T07:48:13Z</time>
      </trkpt>
      <trkpt lat="46.58511" lon="0.59972">
        <ele>101.6</ele>
        <time>2024-03-17T07:48:15Z</time>
      </trkpt>
      <trkpt lat="46.58515" lon="0.59976">
        <ele>101.4</ele>
        <time>2024-03-17T07:48:17Z</time>
      </trkpt>
      <trkpt lat="46.58517" lon="0.59976">
        <ele>101.2</ele>
        <time>2024-03-17T07:48:18Z</time>
      </trkpt>
      <trkpt lat="46.5852" lon="0.59976">
        <ele>100.8</ele>
        <time>2024-03-17T07:48:20Z</time>
      </trkpt>
      <trkpt lat="46.58522" lon="0.59977">
        <ele>100.6</ele>
        <time>2024-03-17T07:48:21Z</time>
      </trkpt>
      <trkpt lat="46.58527" lon="0.5998">
        <ele>100.4</ele>
        <time>2024-03-17T07:48:23Z</time>
      </trkpt>
      <trkpt lat="46.58531" lon="0.59982">
        <ele>100.2</ele>
        <time>2024-03-17T07:48:25Z</time>
      </trkpt>
      <trkpt lat="46.58541" lon="0.59984">
        <ele>99.8</ele>
        <time>2024-03-17T07:48:28Z</time>
      </trkpt>
      <trkpt lat="46.58545" lon="0.59984">
        <ele>99.8</ele>
        <time>2024-03-17T07:48:29Z</time>
      </trkpt>
      <trkpt lat="46.5855" lon="0.59985">
        <ele>98.6</ele>
        <time>2024-03-17T07:48:31Z</time>
      </trkpt>
      <trkpt lat="46.58555" lon="0.59986">
        <ele>98</ele>
        <time>2024-03-17T07:48:33Z</time>
      </trkpt>
      <trkpt lat="46.58557" lon="0.59986">
        <ele>97.6</ele>
        <time>2024-03-17T07:48:34Z</time>
      </trkpt>
      <trkpt lat="46.58559" lon="0.59984">
        <ele>97.2</ele>
        <time>2024-03-17T07:48:35Z</time>
      </trkpt>
      <trkpt lat="46.5856" lon="0.59982">
        <ele>97</ele>
        <time>2024-03-17T07:48:36Z</time>
      </trkpt>
      <trkpt lat="46.58563" lon="0.59981">
        <ele>96.8</ele>
        <time>2024-03-17T07:48:37Z</time>
      </trkpt>
      <trkpt lat="46.58568" lon="0.5998">
        <ele>95.8</ele>
        <time>2024-03-17T07:48:39Z</time>
      </trkpt>
      <trkpt lat="46.58573" lon="0.59982">
        <ele>94.4</ele>
        <time>2024-03-17T07:48:41Z</time>
      </trkpt>
      <trkpt lat="46.58582" lon="0.59986">
        <ele>92.8</ele>
        <time>2024-03-17T07:48:44Z</time>
      </trkpt>
      <trkpt lat="46.58584" lon="0.59987">
        <ele>92.2</ele>
        <time>2024-03-17T07:48:45Z</time>
      </trkpt>
      <trkpt lat="46.58586" lon="0.59989">
        <ele>92</ele>
        <time>2024-03-17T07:48:46Z</time>
      </trkpt>
      <trkpt lat="46.58589" lon="0.59992">
        <ele>91.8</ele>
        <time>2024-03-17T07:48:48Z</time>
      </trkpt>
      <trkpt lat="46.58591" lon="0.59993">
        <ele>91.6</ele>
        <time>2024-03-17T07:48:49Z</time>
      </trkpt>
      <trkpt lat="46.58596" lon="0.59998">
        <ele>91.6</ele>
        <time>2024-03-17T07:48:51Z</time>
      </trkpt>
      <trkpt lat="46.58606" lon="0.60002">
        <ele>92</ele>
        <time>2024-03-17T07:48:55Z</time>
      </trkpt>
      <trkpt lat="46.58612" lon="0.60007">
        <ele>92</ele>
        <time>2024-03-17T07:49:00Z</time>
      </trkpt>
      <trkpt lat="46.58616" lon="0.6001">
        <ele>91.8</ele>
        <time>2024-03-17T07:49:02Z</time>
      </trkpt>
      <trkpt lat="46.58628" lon="0.60021">
        <ele>91.2</ele>
        <time>2024-03-17T07:49:08Z</time>
      </trkpt>
      <trkpt lat="46.58633" lon="0.60028">
        <ele>90.8</ele>
        <time>2024-03-17T07:49:11Z</time>
      </trkpt>
      <trkpt lat="46.58636" lon="0.6003">
        <ele>90.6</ele>
        <time>2024-03-17T07:49:12Z</time>
      </trkpt>
      <trkpt lat="46.58638" lon="0.60031">
        <ele>90.6</ele>
        <time>2024-03-17T07:49:13Z</time>
      </trkpt>
      <trkpt lat="46.58645" lon="0.60033">
        <ele>89.2</ele>
        <time>2024-03-17T07:49:16Z</time>
      </trkpt>
      <trkpt lat="46.5865" lon="0.60035">
        <ele>88</ele>
        <time>2024-03-17T07:49:18Z</time>
      </trkpt>
      <trkpt lat="46.58652" lon="0.60035">
        <ele>87</ele>
        <time>2024-03-17T07:49:19Z</time>
      </trkpt>
      <trkpt lat="46.58656" lon="0.60035">
        <ele>86.4</ele>
        <time>2024-03-17T07:49:20Z</time>
      </trkpt>
      <trkpt lat="46.58661" lon="0.60034">
        <ele>85</ele>
        <time>2024-03-17T07:49:22Z</time>
      </trkpt>
      <trkpt lat="46.58666" lon="0.60035">
        <ele>83.6</ele>
        <time>2024-03-17T07:49:24Z</time>
      </trkpt>
      <trkpt lat="46.58668" lon="0.60035">
        <ele>83</ele>
        <time>2024-03-17T07:49:25Z</time>
      </trkpt>
      <trkpt lat="46.5867" lon="0.60036">
        <ele>82.2</ele>
        <time>2024-03-17T07:49:26Z</time>
      </trkpt>
      <trkpt lat="46.58673" lon="0.60037">
        <ele>81.2</ele>
        <time>2024-03-17T07:49:28Z</time>
      </trkpt>
      <trkpt lat="46.58679" lon="0.60036">
        <ele>80</ele>
        <time>2024-03-17T07:49:30Z</time>
      </trkpt>
      <trkpt lat="46.58683" lon="0.60035">
        <ele>79</ele>
        <time>2024-03-17T07:49:31Z</time>
      </trkpt>
      <trkpt lat="46.5869" lon="0.6003">
        <ele>77.4</ele>
        <time>2024-03-17T07:49:33Z</time>
      </trkpt>
      <trkpt lat="46.58693" lon="0.60028">
        <ele>76.4</ele>
        <time>2024-03-17T07:49:34Z</time>
      </trkpt>
      <trkpt lat="46.58695" lon="0.60029">
        <ele>74.8</ele>
        <time>2024-03-17T07:49:35Z</time>
      </trkpt>
      <trkpt lat="46.58698" lon="0.60035">
        <ele>73</ele>
        <time>2024-03-17T07:49:37Z</time>
      </trkpt>
      <trkpt lat="46.58706" lon="0.60043">
        <ele>72.4</ele>
        <time>2024-03-17T07:49:40Z</time>
      </trkpt>
      <trkpt lat="46.58719" lon="0.60059">
        <ele>72</ele>
        <time>2024-03-17T07:49:45Z</time>
      </trkpt>
      <trkpt lat="46.58721" lon="0.60063">
        <ele>71.8</ele>
        <time>2024-03-17T07:49:46Z</time>
      </trkpt>
      <trkpt lat="46.58726" lon="0.6007">
        <ele>71.8</ele>
        <time>2024-03-17T07:49:48Z</time>
      </trkpt>
      <trkpt lat="46.58733" lon="0.60076">
        <ele>71.6</ele>
        <time>2024-03-17T07:49:50Z</time>
      </trkpt>
      <trkpt lat="46.58735" lon="0.6008">
        <ele>71.6</ele>
        <time>2024-03-17T07:49:51Z</time>
      </trkpt>
      <trkpt lat="46.58753" lon="0.60093">
        <ele>71.4</ele>
        <time>2024-03-17T07:49:56Z</time>
      </trkpt>
      <trkpt lat="46.58753" lon="0.60094">
        <ele>71.6</ele>
        <time>2024-03-17T07:49:57Z</time>
      </trkpt>
      <trkpt lat="46.58756" lon="0.60099">
        <ele>72.4</ele>
        <time>2024-03-17T07:50:01Z</time>
      </trkpt>
      <trkpt lat="46.58756" lon="0.60099">
        <ele>73.2</ele>
        <time>2024-03-17T07:50:02Z</time>
      </trkpt>
      <trkpt lat="46.58754" lon="0.60107">
        <ele>74.4</ele>
        <time>2024-03-17T07:50:06Z</time>
      </trkpt>
      <trkpt lat="46.58754" lon="0.60113">
        <ele>75.4</ele>
        <time>2024-03-17T07:50:09Z</time>
      </trkpt>
      <trkpt lat="46.58754" lon="0.60118">
        <ele>76.4</ele>
        <time>2024-03-17T07:50:12Z</time>
      </trkpt>
      <trkpt lat="46.58755" lon="0.60119">
        <ele>76.8</ele>
        <time>2024-03-17T07:50:13Z</time>
      </trkpt>
      <trkpt lat="46.58758" lon="0.60128">
        <ele>77.8</ele>
        <time>2024-03-17T07:50:18Z</time>
      </trkpt>
      <trkpt lat="46.58759" lon="0.60134">
        <ele>79</ele>
        <time>2024-03-17T07:50:22Z</time>
      </trkpt>
      <trkpt lat="46.58759" lon="0.60138">
        <ele>80</ele>
        <time>2024-03-17T07:50:25Z</time>
      </trkpt>
      <trkpt lat="46.58759" lon="0.60141">
        <ele>80.2</ele>
        <time>2024-03-17T07:50:27Z</time>
      </trkpt>
      <trkpt lat="46.58758" lon="0.60144">
        <ele>80.8</ele>
        <time>2024-03-17T07:50:29Z</time>
      </trkpt>
      <trkpt lat="46.58758" lon="0.60146">
        <ele>81</ele>
        <time>2024-03-17T07:50:30Z</time>
      </trkpt>
      <trkpt lat="46.58758" lon="0.60148">
        <ele>81.2</ele>
        <time>2024-03-17T07:50:31Z</time>
      </trkpt>
      <trkpt lat="46.58757" lon="0.60152">
        <ele>82.4</ele>
        <time>2024-03-17T07:50:34Z</time>
      </trkpt>
      <trkpt lat="46.58757" lon="0.60153">
        <ele>82.6</ele>
        <time>2024-03-17T07:50:35Z</time>
      </trkpt>
      <trkpt lat="46.58757" lon="0.60155">
        <ele>83</ele>
        <time>2024-03-17T07:50:36Z</time>
      </trkpt>
      <trkpt lat="46.58758" lon="0.6016">
        <ele>83.4</ele>
        <time>2024-03-17T07:50:39Z</time>
      </trkpt>
      <trkpt lat="46.58759" lon="0.60169">
        <ele>84.4</ele>
        <time>2024-03-17T07:50:44Z</time>
      </trkpt>
      <trkpt lat="46.58759" lon="0.6017">
        <ele>84.4</ele>
        <time>2024-03-17T07:50:45Z</time>
      </trkpt>
      <trkpt lat="46.58763" lon="0.60177">
        <ele>85.2</ele>
        <time>2024-03-17T07:50:49Z</time>
      </trkpt>
      <trkpt lat="46.58764" lon="0.60179">
        <ele>85.4</ele>
        <time>2024-03-17T07:50:50Z</time>
      </trkpt>
      <trkpt lat="46.58771" lon="0.60187">
        <ele>86.6</ele>
        <time>2024-03-17T07:50:57Z</time>
      </trkpt>
      <trkpt lat="46.58773" lon="0.60189">
        <ele>86.6</ele>
        <time>2024-03-17T07:50:59Z</time>
      </trkpt>
      <trkpt lat="46.58781" lon="0.60199">
        <ele>87.6</ele>
        <time>2024-03-17T07:51:06Z</time>
      </trkpt>
      <trkpt lat="46.58785" lon="0.60202">
        <ele>88.4</ele>
        <time>2024-03-17T07:51:10Z</time>
      </trkpt>
      <trkpt lat="46.58787" lon="0.60205">
        <ele>88.8</ele>
        <time>2024-03-17T07:51:12Z</time>
      </trkpt>
      <trkpt lat="46.58792" lon="0.60213">
        <ele>90.2</ele>
        <time>2024-03-17T07:51:17Z</time>
      </trkpt>
      <trkpt lat="46.58794" lon="0.60216">
        <ele>90.6</ele>
        <time>2024-03-17T07:51:19Z</time>
      </trkpt>
      <trkpt lat="46.58794" lon="0.60216">
        <ele>91.4</ele>
        <time>2024-03-17T07:51:23Z</time>
      </trkpt>
      <trkpt lat="46.58805" lon="0.60237">
        <ele>92.6</ele>
        <time>2024-03-17T07:51:30Z</time>
      </trkpt>
      <trkpt lat="46.58811" lon="0.60245">
        <ele>93.8</ele>
        <time>2024-03-17T07:51:35Z</time>
      </trkpt>
      <trkpt lat="46.58814" lon="0.60254">
        <ele>94.2</ele>
        <time>2024-03-17T07:51:39Z</time>
      </trkpt>
      <trkpt lat="46.58823" lon="0.60266">
        <ele>94.4</ele>
        <time>2024-03-17T07:51:44Z</time>
      </trkpt>
      <trkpt lat="46.58831" lon="0.60279">
        <ele>94</ele>
        <time>2024-03-17T07:51:50Z</time>
      </trkpt>
      <trkpt lat="46.58836" lon="0.60277">
        <ele>93.6</ele>
        <time>2024-03-17T07:51:53Z</time>
      </trkpt>
      <trkpt lat="46.58839" lon="0.60276">
        <ele>93.4</ele>
        <time>2024-03-17T07:51:54Z</time>
      </trkpt>
      <trkpt lat="46.58851" lon="0.60272">
        <ele>92</ele>
        <time>2024-03-17T07:51:58Z</time>
      </trkpt>
      <trkpt lat="46.58853" lon="0.60271">
        <ele>91.6</ele>
        <time>2024-03-17T07:51:59Z</time>
      </trkpt>
      <trkpt lat="46.58856" lon="0.60271">
        <ele>90.8</ele>
        <time>2024-03-17T07:52:01Z</time>
      </trkpt>
      <trkpt lat="46.5886" lon="0.60273">
        <ele>90.4</ele>
        <time>2024-03-17T07:52:03Z</time>
      </trkpt>
      <trkpt lat="46.58873" lon="0.60279">
        <ele>89.6</ele>
        <time>2024-03-17T07:52:08Z</time>
      </trkpt>
      <trkpt lat="46.58882" lon="0.60287">
        <ele>88.6</ele>
        <time>2024-03-17T07:52:12Z</time>
      </trkpt>
      <trkpt lat="46.58886" lon="0.60288">
        <ele>88.4</ele>
        <time>2024-03-17T07:52:13Z</time>
      </trkpt>
      <trkpt lat="46.58897" lon="0.60289">
        <ele>87.6</ele>
        <time>2024-03-17T07:52:16Z</time>
      </trkpt>
      <trkpt lat="46.589" lon="0.60289">
        <ele>87</ele>
        <time>2024-03-17T07:52:17Z</time>
      </trkpt>
      <trkpt lat="46.58903" lon="0.6029">
        <ele>86.6</ele>
        <time>2024-03-17T07:52:18Z</time>
      </trkpt>
      <trkpt lat="46.58907" lon="0.6029">
        <ele>86</ele>
        <time>2024-03-17T07:52:19Z</time>
      </trkpt>
      <trkpt lat="46.58914" lon="0.60285">
        <ele>85.2</ele>
        <time>2024-03-17T07:52:21Z</time>
      </trkpt>
      <trkpt lat="46.58916" lon="0.60284">
        <ele>85</ele>
        <time>2024-03-17T07:52:22Z</time>
      </trkpt>
      <trkpt lat="46.58922" lon="0.60285">
        <ele>84.6</ele>
        <time>2024-03-17T07:52:24Z</time>
      </trkpt>
      <trkpt lat="46.58934" lon="0.60287">
        <ele>83.8</ele>
        <time>2024-03-17T07:52:27Z</time>
      </trkpt>
      <trkpt lat="46.58938" lon="0.60288">
        <ele>83.4</ele>
        <time>2024-03-17T07:52:28Z</time>
      </trkpt>
      <trkpt lat="46.58946" lon="0.60286">
        <ele>82</ele>
        <time>2024-03-17T07:52:30Z</time>
      </trkpt>
      <trkpt lat="46.58946" lon="0.60286">
        <ele>80.6</ele>
        <time>2024-03-17T07:52:31Z</time>
      </trkpt>
      <trkpt lat="46.58954" lon="0.60283">
        <ele>80</ele>
        <time>2024-03-17T07:52:33Z</time>
      </trkpt>
      <trkpt lat="46.58956" lon="0.60284">
        <ele>79.6</ele>
        <time>2024-03-17T07:52:34Z</time>
      </trkpt>
      <trkpt lat="46.58965" lon="0.6029">
        <ele>78.6</ele>
        <time>2024-03-17T07:52:38Z</time>
      </trkpt>
      <trkpt lat="46.58966" lon="0.60292">
        <ele>78.6</ele>
        <time>2024-03-17T07:52:39Z</time>
      </trkpt>
      <trkpt lat="46.58966" lon="0.60294">
        <ele>78.4</ele>
        <time>2024-03-17T07:52:40Z</time>
      </trkpt>
      <trkpt lat="46.58965" lon="0.60302">
        <ele>78.6</ele>
        <time>2024-03-17T07:52:44Z</time>
      </trkpt>
      <trkpt lat="46.58962" lon="0.60316">
        <ele>79.2</ele>
        <time>2024-03-17T07:52:48Z</time>
      </trkpt>
      <trkpt lat="46.58962" lon="0.60322">
        <ele>79.4</ele>
        <time>2024-03-17T07:52:50Z</time>
      </trkpt>
      <trkpt lat="46.58964" lon="0.60329">
        <ele>79</ele>
        <time>2024-03-17T07:52:52Z</time>
      </trkpt>
      <trkpt lat="46.58967" lon="0.60339">
        <ele>78</ele>
        <time>2024-03-17T07:52:56Z</time>
      </trkpt>
      <trkpt lat="46.58969" lon="0.60341">
        <ele>77.8</ele>
        <time>2024-03-17T07:52:57Z</time>
      </trkpt>
      <trkpt lat="46.58969" lon="0.60343">
        <ele>77.6</ele>
        <time>2024-03-17T07:52:58Z</time>
      </trkpt>
      <trkpt lat="46.5897" lon="0.60345">
        <ele>77</ele>
        <time>2024-03-17T07:52:59Z</time>
      </trkpt>
      <trkpt lat="46.58973" lon="0.60349">
        <ele>75.8</ele>
        <time>2024-03-17T07:53:02Z</time>
      </trkpt>
      <trkpt lat="46.58977" lon="0.60349">
        <ele>75.4</ele>
        <time>2024-03-17T07:53:04Z</time>
      </trkpt>
      <trkpt lat="46.58984" lon="0.60349">
        <ele>74</ele>
        <time>2024-03-17T07:53:07Z</time>
      </trkpt>
      <trkpt lat="46.5899" lon="0.60349">
        <ele>72.8</ele>
        <time>2024-03-17T07:53:09Z</time>
      </trkpt>
      <trkpt lat="46.59001" lon="0.6035">
        <ele>71.4</ele>
        <time>2024-03-17T07:53:12Z</time>
      </trkpt>
      <trkpt lat="46.59006" lon="0.60349">
        <ele>70.8</ele>
        <time>2024-03-17T07:53:13Z</time>
      </trkpt>
      <trkpt lat="46.5901" lon="0.60349">
        <ele>69.8</ele>
        <time>2024-03-17T07:53:14Z</time>
      </trkpt>
      <trkpt lat="46.59015" lon="0.60349">
        <ele>69.2</ele>
        <time>2024-03-17T07:53:15Z</time>
      </trkpt>
      <trkpt lat="46.59028" lon="0.6035">
        <ele>68.6</ele>
        <time>2024-03-17T07:53:17Z</time>
      </trkpt>
      <trkpt lat="46.59041" lon="0.60351">
        <ele>68.2</ele>
        <time>2024-03-17T07:53:19Z</time>
      </trkpt>
      <trkpt lat="46.5906" lon="0.60349">
        <ele>67.6</ele>
        <time>2024-03-17T07:53:22Z</time>
      </trkpt>
      <trkpt lat="46.59066" lon="0.60348">
        <ele>67.4</ele>
        <time>2024-03-17T07:53:23Z</time>
      </trkpt>
      <trkpt lat="46.59079" lon="0.60349">
        <ele>67</ele>
        <time>2024-03-17T07:53:25Z</time>
      </trkpt>
      <trkpt lat="46.59097" lon="0.60355">
        <ele>66.4</ele>
        <time>2024-03-17T07:53:28Z</time>
      </trkpt>
      <trkpt lat="46.59108" lon="0.60358">
        <ele>66</ele>
        <time>2024-03-17T07:53:30Z</time>
      </trkpt>
      <trkpt lat="46.59129" lon="0.60357">
        <ele>65.8</ele>
        <time>2024-03-17T07:53:33Z</time>
      </trkpt>
      <trkpt lat="46.59176" lon="0.60352">
        <ele>66</ele>
        <time>2024-03-17T07:53:39Z</time>
      </trkpt>
      <trkpt lat="46.59204" lon="0.60351">
        <ele>65.4</ele>
        <time>2024-03-17T07:53:43Z</time>
      </trkpt>
      <trkpt lat="46.59207" lon="0.60348">
        <ele>64.8</ele>
        <time>2024-03-17T07:53:44Z</time>
      </trkpt>
      <trkpt lat="46.59208" lon="0.60344">
        <ele>64.4</ele>
        <time>2024-03-17T07:53:45Z</time>
      </trkpt>
      <trkpt lat="46.59209" lon="0.6034">
        <ele>64.2</ele>
        <time>2024-03-17T07:53:46Z</time>
      </trkpt>
      <trkpt lat="46.59203" lon="0.60329">
        <ele>64.2</ele>
        <time>2024-03-17T07:53:50Z</time>
      </trkpt>
      <trkpt lat="46.59193" lon="0.60317">
        <ele>65.8</ele>
        <time>2024-03-17T07:53:56Z</time>
      </trkpt>
      <trkpt lat="46.59192" lon="0.60316">
        <ele>66</ele>
        <time>2024-03-17T07:53:57Z</time>
      </trkpt>
      <trkpt lat="46.59186" lon="0.60308">
        <ele>67</ele>
        <time>2024-03-17T07:54:02Z</time>
      </trkpt>
      <trkpt lat="46.59183" lon="0.60307">
        <ele>67.4</ele>
        <time>2024-03-17T07:54:04Z</time>
      </trkpt>
      <trkpt lat="46.59182" lon="0.60305">
        <ele>67.6</ele>
        <time>2024-03-17T07:54:05Z</time>
      </trkpt>
      <trkpt lat="46.59182" lon="0.60302">
        <ele>68.2</ele>
        <time>2024-03-17T07:54:07Z</time>
      </trkpt>
      <trkpt lat="46.59182" lon="0.60302">
        <ele>68.4</ele>
        <time>2024-03-17T07:54:08Z</time>
      </trkpt>
      <trkpt lat="46.59183" lon="0.60303">
        <ele>69.2</ele>
        <time>2024-03-17T07:54:11Z</time>
      </trkpt>
      <trkpt lat="46.59184" lon="0.60304">
        <ele>69.6</ele>
        <time>2024-03-17T07:54:12Z</time>
      </trkpt>
      <trkpt lat="46.59184" lon="0.60305">
        <ele>69.6</ele>
        <time>2024-03-17T07:54:13Z</time>
      </trkpt>
      <trkpt lat="46.59189" lon="0.60309">
        <ele>70.4</ele>
        <time>2024-03-17T07:54:18Z</time>
      </trkpt>
      <trkpt lat="46.5919" lon="0.60309">
        <ele>70.6</ele>
        <time>2024-03-17T07:54:19Z</time>
      </trkpt>
      <trkpt lat="46.59193" lon="0.6031">
        <ele>71.4</ele>
        <time>2024-03-17T07:54:21Z</time>
      </trkpt>
      <trkpt lat="46.59203" lon="0.6031">
        <ele>72.4</ele>
        <time>2024-03-17T07:54:27Z</time>
      </trkpt>
      <trkpt lat="46.59209" lon="0.6031">
        <ele>73.6</ele>
        <time>2024-03-17T07:54:30Z</time>
      </trkpt>
      <trkpt lat="46.59212" lon="0.60311">
        <ele>74.2</ele>
        <time>2024-03-17T07:54:32Z</time>
      </trkpt>
      <trkpt lat="46.59214" lon="0.60311">
        <ele>74.6</ele>
        <time>2024-03-17T07:54:33Z</time>
      </trkpt>
      <trkpt lat="46.59215" lon="0.60312">
        <ele>74.8</ele>
        <time>2024-03-17T07:54:34Z</time>
      </trkpt>
      <trkpt lat="46.59221" lon="0.60314">
        <ele>75.8</ele>
        <time>2024-03-17T07:54:38Z</time>
      </trkpt>
      <trkpt lat="46.59227" lon="0.60315">
        <ele>76.6</ele>
        <time>2024-03-17T07:54:41Z</time>
      </trkpt>
      <trkpt lat="46.59229" lon="0.60315">
        <ele>76.8</ele>
        <time>2024-03-17T07:54:42Z</time>
      </trkpt>
      <trkpt lat="46.59243" lon="0.60318">
        <ele>77.8</ele>
        <time>2024-03-17T07:54:49Z</time>
      </trkpt>
      <trkpt lat="46.59253" lon="0.60319">
        <ele>79</ele>
        <time>2024-03-17T07:54:54Z</time>
      </trkpt>
      <trkpt lat="46.59258" lon="0.60318">
        <ele>79.8</ele>
        <time>2024-03-17T07:54:56Z</time>
      </trkpt>
      <trkpt lat="46.59261" lon="0.60317">
        <ele>80</ele>
        <time>2024-03-17T07:54:57Z</time>
      </trkpt>
      <trkpt lat="46.59275" lon="0.60312">
        <ele>81.2</ele>
        <time>2024-03-17T07:55:03Z</time>
      </trkpt>
      <trkpt lat="46.59282" lon="0.60308">
        <ele>82.4</ele>
        <time>2024-03-17T07:55:07Z</time>
      </trkpt>
      <trkpt lat="46.59286" lon="0.60305">
        <ele>83.4</ele>
        <time>2024-03-17T07:55:10Z</time>
      </trkpt>
      <trkpt lat="46.59288" lon="0.60304">
        <ele>83.6</ele>
        <time>2024-03-17T07:55:11Z</time>
      </trkpt>
      <trkpt lat="46.59296" lon="0.60299">
        <ele>84.6</ele>
        <time>2024-03-17T07:55:16Z</time>
      </trkpt>
      <trkpt lat="46.59302" lon="0.60294">
        <ele>85.2</ele>
        <time>2024-03-17T07:55:19Z</time>
      </trkpt>
      <trkpt lat="46.59306" lon="0.60291">
        <ele>85.6</ele>
        <time>2024-03-17T07:55:22Z</time>
      </trkpt>
      <trkpt lat="46.59312" lon="0.60285">
        <ele>86.8</ele>
        <time>2024-03-17T07:55:26Z</time>
      </trkpt>
      <trkpt lat="46.59325" lon="0.60271">
        <ele>87.6</ele>
        <time>2024-03-17T07:55:32Z</time>
      </trkpt>
      <trkpt lat="46.59329" lon="0.60266">
        <ele>87.8</ele>
        <time>2024-03-17T07:55:34Z</time>
      </trkpt>
      <trkpt lat="46.59339" lon="0.60251">
        <ele>88.6</ele>
        <time>2024-03-17T07:55:39Z</time>
      </trkpt>
      <trkpt lat="46.59354" lon="0.60231">
        <ele>88.8</ele>
        <time>2024-03-17T07:55:45Z</time>
      </trkpt>
      <trkpt lat="46.59378" lon="0.60201">
        <ele>87.8</ele>
        <time>2024-03-17T07:55:52Z</time>
      </trkpt>
      <trkpt lat="46.59382" lon="0.60196">
        <ele>87.8</ele>
        <time>2024-03-17T07:55:53Z</time>
      </trkpt>
      <trkpt lat="46.59391" lon="0.60175">
        <ele>87</ele>
        <time>2024-03-17T07:55:56Z</time>
      </trkpt>
      <trkpt lat="46.59394" lon="0.60167">
        <ele>86.6</ele>
        <time>2024-03-17T07:55:57Z</time>
      </trkpt>
      <trkpt lat="46.594" lon="0.60151">
        <ele>85.2</ele>
        <time>2024-03-17T07:55:59Z</time>
      </trkpt>
      <trkpt lat="46.59407" lon="0.60142">
        <ele>84.6</ele>
        <time>2024-03-17T07:56:01Z</time>
      </trkpt>
      <trkpt lat="46.59411" lon="0.6014">
        <ele>84.2</ele>
        <time>2024-03-17T07:56:02Z</time>
      </trkpt>
      <trkpt lat="46.59419" lon="0.60136">
        <ele>84.4</ele>
        <time>2024-03-17T07:56:05Z</time>
      </trkpt>
      <trkpt lat="46.59435" lon="0.6013">
        <ele>85.4</ele>
        <time>2024-03-17T07:56:10Z</time>
      </trkpt>
      <trkpt lat="46.59441" lon="0.60128">
        <ele>85.8</ele>
        <time>2024-03-17T07:56:12Z</time>
      </trkpt>
      <trkpt lat="46.59453" lon="0.60116">
        <ele>86.6</ele>
        <time>2024-03-17T07:56:16Z</time>
      </trkpt>
      <trkpt lat="46.59456" lon="0.60112">
        <ele>86.8</ele>
        <time>2024-03-17T07:56:17Z</time>
      </trkpt>
      <trkpt lat="46.59467" lon="0.60091">
        <ele>87.8</ele>
        <time>2024-03-17T07:56:21Z</time>
      </trkpt>
      <trkpt lat="46.59474" lon="0.60075">
        <ele>88.2</ele>
        <time>2024-03-17T07:56:24Z</time>
      </trkpt>
      <trkpt lat="46.5948" lon="0.60064">
        <ele>88.8</ele>
        <time>2024-03-17T07:56:26Z</time>
      </trkpt>
      <trkpt lat="46.59493" lon="0.60039">
        <ele>89.6</ele>
        <time>2024-03-17T07:56:31Z</time>
      </trkpt>
      <trkpt lat="46.59507" lon="0.60026">
        <ele>89.8</ele>
        <time>2024-03-17T07:56:35Z</time>
      </trkpt>
      <trkpt lat="46.5951" lon="0.60023">
        <ele>89.8</ele>
        <time>2024-03-17T07:56:36Z</time>
      </trkpt>
      <trkpt lat="46.59514" lon="0.60019">
        <ele>89.8</ele>
        <time>2024-03-17T07:56:37Z</time>
      </trkpt>
      <trkpt lat="46.59526" lon="0.6">
        <ele>90</ele>
        <time>2024-03-17T07:56:41Z</time>
      </trkpt>
      <trkpt lat="46.59532" lon="0.59991">
        <ele>90</ele>
        <time>2024-03-17T07:56:43Z</time>
      </trkpt>
      <trkpt lat="46.59542" lon="0.59981">
        <ele>90.2</ele>
        <time>2024-03-17T07:56:46Z</time>
      </trkpt>
      <trkpt lat="46.59567" lon="0.59964">
        <ele>89.8</ele>
        <time>2024-03-17T07:56:51Z</time>
      </trkpt>
      <trkpt lat="46.59598" lon="0.59941">
        <ele>89</ele>
        <time>2024-03-17T07:56:56Z</time>
      </trkpt>
      <trkpt lat="46.59604" lon="0.59933">
        <ele>88.8</ele>
        <time>2024-03-17T07:56:57Z</time>
      </trkpt>
      <trkpt lat="46.59609" lon="0.59924">
        <ele>88.4</ele>
        <time>2024-03-17T07:56:58Z</time>
      </trkpt>
      <trkpt lat="46.59612" lon="0.59914">
        <ele>88</ele>
        <time>2024-03-17T07:56:59Z</time>
      </trkpt>
      <trkpt lat="46.59613" lon="0.59903">
        <ele>87.8</ele>
        <time>2024-03-17T07:57:00Z</time>
      </trkpt>
      <trkpt lat="46.59613" lon="0.59891">
        <ele>87.4</ele>
        <time>2024-03-17T07:57:01Z</time>
      </trkpt>
      <trkpt lat="46.59613" lon="0.5988">
        <ele>87</ele>
        <time>2024-03-17T07:57:02Z</time>
      </trkpt>
      <trkpt lat="46.59613" lon="0.5987">
        <ele>86.2</ele>
        <time>2024-03-17T07:57:03Z</time>
      </trkpt>
      <trkpt lat="46.59612" lon="0.59861">
        <ele>85.2</ele>
        <time>2024-03-17T07:57:04Z</time>
      </trkpt>
      <trkpt lat="46.59612" lon="0.59855">
        <ele>84.6</ele>
        <time>2024-03-17T07:57:05Z</time>
      </trkpt>
      <trkpt lat="46.59614" lon="0.59849">
        <ele>83.8</ele>
        <time>2024-03-17T07:57:06Z</time>
      </trkpt>
      <trkpt lat="46.59617" lon="0.59845">
        <ele>83.2</ele>
        <time>2024-03-17T07:57:07Z</time>
      </trkpt>
      <trkpt lat="46.59622" lon="0.59841">
        <ele>82.6</ele>
        <time>2024-03-17T07:57:08Z</time>
      </trkpt>
      <trkpt lat="46.59627" lon="0.59837">
        <ele>81.8</ele>
        <time>2024-03-17T07:57:09Z</time>
      </trkpt>
      <trkpt lat="46.59631" lon="0.59835">
        <ele>80.6</ele>
        <time>2024-03-17T07:57:10Z</time>
      </trkpt>
      <trkpt lat="46.59636" lon="0.59836">
        <ele>80</ele>
        <time>2024-03-17T07:57:11Z</time>
      </trkpt>
      <trkpt lat="46.5964" lon="0.59839">
        <ele>79.6</ele>
        <time>2024-03-17T07:57:12Z</time>
      </trkpt>
      <trkpt lat="46.59643" lon="0.59844">
        <ele>79.2</ele>
        <time>2024-03-17T07:57:13Z</time>
      </trkpt>
      <trkpt lat="46.59646" lon="0.5985">
        <ele>78.8</ele>
        <time>2024-03-17T07:57:14Z</time>
      </trkpt>
      <trkpt lat="46.59649" lon="0.59856">
        <ele>78.6</ele>
        <time>2024-03-17T07:57:15Z</time>
      </trkpt>
      <trkpt lat="46.59656" lon="0.59869">
        <ele>78.2</ele>
        <time>2024-03-17T07:57:17Z</time>
      </trkpt>
      <trkpt lat="46.59665" lon="0.59883">
        <ele>77.4</ele>
        <time>2024-03-17T07:57:19Z</time>
      </trkpt>
      <trkpt lat="46.59675" lon="0.599">
        <ele>76.2</ele>
        <time>2024-03-17T07:57:21Z</time>
      </trkpt>
      <trkpt lat="46.59691" lon="0.59929">
        <ele>75.2</ele>
        <time>2024-03-17T07:57:24Z</time>
      </trkpt>
      <trkpt lat="46.59701" lon="0.5995">
        <ele>74</ele>
        <time>2024-03-17T07:57:26Z</time>
      </trkpt>
      <trkpt lat="46.59704" lon="0.59962">
        <ele>73</ele>
        <time>2024-03-17T07:57:27Z</time>
      </trkpt>
      <trkpt lat="46.59706" lon="0.59972">
        <ele>71.8</ele>
        <time>2024-03-17T07:57:28Z</time>
      </trkpt>
      <trkpt lat="46.5971" lon="0.59986">
        <ele>70.6</ele>
        <time>2024-03-17T07:57:29Z</time>
      </trkpt>
      <trkpt lat="46.5971" lon="0.59986">
        <ele>69.8</ele>
        <time>2024-03-17T07:57:30Z</time>
      </trkpt>
      <trkpt lat="46.59714" lon="0.5999">
        <ele>68.8</ele>
        <time>2024-03-17T07:57:31Z</time>
      </trkpt>
      <trkpt lat="46.59724" lon="0.59991">
        <ele>67.8</ele>
        <time>2024-03-17T07:57:33Z</time>
      </trkpt>
      <trkpt lat="46.59746" lon="0.59986">
        <ele>66.4</ele>
        <time>2024-03-17T07:57:36Z</time>
      </trkpt>
      <trkpt lat="46.59754" lon="0.59983">
        <ele>66.2</ele>
        <time>2024-03-17T07:57:37Z</time>
      </trkpt>
      <trkpt lat="46.59771" lon="0.59975">
        <ele>65.2</ele>
        <time>2024-03-17T07:57:39Z</time>
      </trkpt>
      <trkpt lat="46.5979" lon="0.59966">
        <ele>64.4</ele>
        <time>2024-03-17T07:57:41Z</time>
      </trkpt>
      <trkpt lat="46.59798" lon="0.59961">
        <ele>64.2</ele>
        <time>2024-03-17T07:57:42Z</time>
      </trkpt>
      <trkpt lat="46.59831" lon="0.59943">
        <ele>63.4</ele>
        <time>2024-03-17T07:57:46Z</time>
      </trkpt>
      <trkpt lat="46.59838" lon="0.59938">
        <ele>63</ele>
        <time>2024-03-17T07:57:47Z</time>
      </trkpt>
      <trkpt lat="46.59844" lon="0.59932">
        <ele>62.8</ele>
        <time>2024-03-17T07:57:48Z</time>
      </trkpt>
      <trkpt lat="46.59862" lon="0.59915">
        <ele>62.2</ele>
        <time>2024-03-17T07:57:51Z</time>
      </trkpt>
      <trkpt lat="46.59877" lon="0.599">
        <ele>62</ele>
        <time>2024-03-17T07:57:54Z</time>
      </trkpt>
      <trkpt lat="46.59891" lon="0.59889">
        <ele>62</ele>
        <time>2024-03-17T07:57:57Z</time>
      </trkpt>
      <trkpt lat="46.59917" lon="0.5987">
        <ele>62</ele>
        <time>2024-03-17T07:58:02Z</time>
      </trkpt>
      <trkpt lat="46.59935" lon="0.59857">
        <ele>61.8</ele>
        <time>2024-03-17T07:58:06Z</time>
      </trkpt>
      <trkpt lat="46.5994" lon="0.59855">
        <ele>61.8</ele>
        <time>2024-03-17T07:58:07Z</time>
      </trkpt>
      <trkpt lat="46.59977" lon="0.59839">
        <ele>61.8</ele>
        <time>2024-03-17T07:58:13Z</time>
      </trkpt>
      <trkpt lat="46.60006" lon="0.5982">
        <ele>62</ele>
        <time>2024-03-17T07:58:18Z</time>
      </trkpt>
      <trkpt lat="46.60046" lon="0.59791">
        <ele>62.6</ele>
        <time>2024-03-17T07:58:26Z</time>
      </trkpt>
      <trkpt lat="46.60072" lon="0.59769">
        <ele>62.4</ele>
        <time>2024-03-17T07:58:32Z</time>
      </trkpt>
      <trkpt lat="46.60075" lon="0.59766">
        <ele>62.4</ele>
        <time>2024-03-17T07:58:33Z</time>
      </trkpt>
      <trkpt lat="46.60087" lon="0.59754">
        <ele>62.4</ele>
        <time>2024-03-17T07:58:37Z</time>
      </trkpt>
      <trkpt lat="46.60107" lon="0.59732">
        <ele>61.6</ele>
        <time>2024-03-17T07:58:43Z</time>
      </trkpt>
      <trkpt lat="46.60132" lon="0.59711">
        <ele>61.2</ele>
        <time>2024-03-17T07:58:49Z</time>
      </trkpt>
      <trkpt lat="46.60141" lon="0.59701">
        <ele>61</ele>
        <time>2024-03-17T07:58:52Z</time>
      </trkpt>
      <trkpt lat="46.60144" lon="0.59697">
        <ele>61</ele>
        <time>2024-03-17T07:58:53Z</time>
      </trkpt>
      <trkpt lat="46.60155" lon="0.59687">
        <ele>62.2</ele>
        <time>2024-03-17T07:58:58Z</time>
      </trkpt>
      <trkpt lat="46.60169" lon="0.59676">
        <ele>62.6</ele>
        <time>2024-03-17T07:59:03Z</time>
      </trkpt>
      <trkpt lat="46.60173" lon="0.59673">
        <ele>62.6</ele>
        <time>2024-03-17T07:59:04Z</time>
      </trkpt>
      <trkpt lat="46.60193" lon="0.59653">
        <ele>62.4</ele>
        <time>2024-03-17T07:59:10Z</time>
      </trkpt>
      <trkpt lat="46.60211" lon="0.59639">
        <ele>62.6</ele>
        <time>2024-03-17T07:59:14Z</time>
      </trkpt>
      <trkpt lat="46.60216" lon="0.59634">
        <ele>62.4</ele>
        <time>2024-03-17T07:59:15Z</time>
      </trkpt>
      <trkpt lat="46.6023" lon="0.59621">
        <ele>62.4</ele>
        <time>2024-03-17T07:59:18Z</time>
      </trkpt>
      <trkpt lat="46.60245" lon="0.59608">
        <ele>62.6</ele>
        <time>2024-03-17T07:59:21Z</time>
      </trkpt>
      <trkpt lat="46.6025" lon="0.59603">
        <ele>62.6</ele>
        <time>2024-03-17T07:59:22Z</time>
      </trkpt>
      <trkpt lat="46.60263" lon="0.59588">
        <ele>62.6</ele>
        <time>2024-03-17T07:59:25Z</time>
      </trkpt>
      <trkpt lat="46.60275" lon="0.59575">
        <ele>62.2</ele>
        <time>2024-03-17T07:59:29Z</time>
      </trkpt>
      <trkpt lat="46.60283" lon="0.59565">
        <ele>62</ele>
        <time>2024-03-17T07:59:34Z</time>
      </trkpt>
      <trkpt lat="46.60289" lon="0.5956">
        <ele>62.4</ele>
        <time>2024-03-17T07:59:38Z</time>
      </trkpt>
      <trkpt lat="46.60291" lon="0.5956">
        <ele>63</ele>
        <time>2024-03-17T07:59:39Z</time>
      </trkpt>
      <trkpt lat="46.60293" lon="0.5956">
        <ele>63.4</ele>
        <time>2024-03-17T07:59:40Z</time>
      </trkpt>
      <trkpt lat="46.60299" lon="0.59562">
        <ele>64</ele>
        <time>2024-03-17T07:59:42Z</time>
      </trkpt>
      <trkpt lat="46.60307" lon="0.5956">
        <ele>64.8</ele>
        <time>2024-03-17T07:59:45Z</time>
      </trkpt>
      <trkpt lat="46.60309" lon="0.59559">
        <ele>65.2</ele>
        <time>2024-03-17T07:59:46Z</time>
      </trkpt>
      <trkpt lat="46.60324" lon="0.59549">
        <ele>65.8</ele>
        <time>2024-03-17T07:59:51Z</time>
      </trkpt>
      <trkpt lat="46.60332" lon="0.59543">
        <ele>66.2</ele>
        <time>2024-03-17T07:59:54Z</time>
      </trkpt>
      <trkpt lat="46.60339" lon="0.5954">
        <ele>66.2</ele>
        <time>2024-03-17T07:59:56Z</time>
      </trkpt>
      <trkpt lat="46.60344" lon="0.59537">
        <ele>65.8</ele>
        <time>2024-03-17T07:59:58Z</time>
      </trkpt>
      <trkpt lat="46.60352" lon="0.59532">
        <ele>65.8</ele>
        <time>2024-03-17T08:00:01Z</time>
      </trkpt>
      <trkpt lat="46.60357" lon="0.59529">
        <ele>65.8</ele>
        <time>2024-03-17T08:00:02Z</time>
      </trkpt>
      <trkpt lat="46.60368" lon="0.5953">
        <ele>65.2</ele>
        <time>2024-03-17T08:00:04Z</time>
      </trkpt>
      <trkpt lat="46.60375" lon="0.59531">
        <ele>64.6</ele>
        <time>2024-03-17T08:00:05Z</time>
      </trkpt>
      <trkpt lat="46.60381" lon="0.59534">
        <ele>64.2</ele>
        <time>2024-03-17T08:00:06Z</time>
      </trkpt>
      <trkpt lat="46.60392" lon="0.59541">
        <ele>63.4</ele>
        <time>2024-03-17T08:00:08Z</time>
      </trkpt>
      <trkpt lat="46.60398" lon="0.59543">
        <ele>62.6</ele>
        <time>2024-03-17T08:00:11Z</time>
      </trkpt>
      <trkpt lat="46.60399" lon="0.59543">
        <ele>62.2</ele>
        <time>2024-03-17T08:00:12Z</time>
      </trkpt>
      <trkpt lat="46.604" lon="0.59543">
        <ele>62</ele>
        <time>2024-03-17T08:00:13Z</time>
      </trkpt>
      <trkpt lat="46.60405" lon="0.59544">
        <ele>61.6</ele>
        <time>2024-03-17T08:00:24Z</time>
      </trkpt>
      <trkpt lat="46.60404" lon="0.59544">
        <ele>61.8</ele>
        <time>2024-03-17T08:00:34Z</time>
      </trkpt>
      <trkpt lat="46.60408" lon="0.59554">
        <ele>61.4</ele>
        <time>2024-03-17T08:00:39Z</time>
      </trkpt>
      <trkpt lat="46.60416" lon="0.59574">
        <ele>61.6</ele>
        <time>2024-03-17T08:00:43Z</time>
      </trkpt>
      <trkpt lat="46.60423" lon="0.59579">
        <ele>61.6</ele>
        <time>2024-03-17T08:00:45Z</time>
      </trkpt>
      <trkpt lat="46.60427" lon="0.59577">
        <ele>61.6</ele>
        <time>2024-03-17T08:00:46Z</time>
      </trkpt>
      <trkpt lat="46.60429" lon="0.59573">
        <ele>61.4</ele>
        <time>2024-03-17T08:00:47Z</time>
      </trkpt>
      <trkpt lat="46.60435" lon="0.59574">
        <ele>61.2</ele>
        <time>2024-03-17T08:00:49Z</time>
      </trkpt>
      <trkpt lat="46.60446" lon="0.59591">
        <ele>61</ele>
        <time>2024-03-17T08:00:53Z</time>
      </trkpt>
      <trkpt lat="46.60449" lon="0.59596">
        <ele>61</ele>
        <time>2024-03-17T08:00:54Z</time>
      </trkpt>
      <trkpt lat="46.60455" lon="0.59608">
        <ele>60.8</ele>
        <time>2024-03-17T08:00:56Z</time>
      </trkpt>
      <trkpt lat="46.60455" lon="0.59614">
        <ele>60.8</ele>
        <time>2024-03-17T08:00:57Z</time>
      </trkpt>
      <trkpt lat="46.60456" lon="0.59627">
        <ele>60.6</ele>
        <time>2024-03-17T08:00:59Z</time>
      </trkpt>
      <trkpt lat="46.60462" lon="0.59647">
        <ele>60.2</ele>
        <time>2024-03-17T08:01:02Z</time>
      </trkpt>
      <trkpt lat="46.60467" lon="0.5966">
        <ele>60</ele>
        <time>2024-03-17T08:01:04Z</time>
      </trkpt>
      <trkpt lat="46.60475" lon="0.59683">
        <ele>59.4</ele>
        <time>2024-03-17T08:01:08Z</time>
      </trkpt>
      <trkpt lat="46.60476" lon="0.59687">
        <ele>59.2</ele>
        <time>2024-03-17T08:01:09Z</time>
      </trkpt>
      <trkpt lat="46.60476" lon="0.59693">
        <ele>59</ele>
        <time>2024-03-17T08:01:11Z</time>
      </trkpt>
      <trkpt lat="46.60475" lon="0.59698">
        <ele>58.8</ele>
        <time>2024-03-17T08:01:13Z</time>
      </trkpt>
      <trkpt lat="46.60473" lon="0.59692">
        <ele>59</ele>
        <time>2024-03-17T08:01:16Z</time>
      </trkpt>
      <trkpt lat="46.60475" lon="0.59689">
        <ele>59</ele>
        <time>2024-03-17T08:01:17Z</time>
      </trkpt>
      <trkpt lat="46.60482" lon="0.59683">
        <ele>59</ele>
        <time>2024-03-17T08:01:19Z</time>
      </trkpt>
      <trkpt lat="46.60505" lon="0.59667">
        <ele>59</ele>
        <time>2024-03-17T08:01:24Z</time>
      </trkpt>
      <trkpt lat="46.6051" lon="0.59655">
        <ele>59</ele>
        <time>2024-03-17T08:01:26Z</time>
      </trkpt>
      <trkpt lat="46.60512" lon="0.59649">
        <ele>59.2</ele>
        <time>2024-03-17T08:01:27Z</time>
      </trkpt>
      <trkpt lat="46.60515" lon="0.59644">
        <ele>59.2</ele>
        <time>2024-03-17T08:01:28Z</time>
      </trkpt>
      <trkpt lat="46.60524" lon="0.59639">
        <ele>59.4</ele>
        <time>2024-03-17T08:01:30Z</time>
      </trkpt>
      <trkpt lat="46.60528" lon="0.59638">
        <ele>59.4</ele>
        <time>2024-03-17T08:01:31Z</time>
      </trkpt>
      <trkpt lat="46.60546" lon="0.59633">
        <ele>59.4</ele>
        <time>2024-03-17T08:01:36Z</time>
      </trkpt>
      <trkpt lat="46.60569" lon="0.59621">
        <ele>59</ele>
        <time>2024-03-17T08:01:42Z</time>
      </trkpt>
      <trkpt lat="46.60596" lon="0.59605">
        <ele>58.8</ele>
        <time>2024-03-17T08:01:48Z</time>
      </trkpt>
      <trkpt lat="46.60626" lon="0.59584">
        <ele>59.2</ele>
        <time>2024-03-17T08:01:53Z</time>
      </trkpt>
      <trkpt lat="46.60651" lon="0.59568">
        <ele>59</ele>
        <time>2024-03-17T08:01:58Z</time>
      </trkpt>
      <trkpt lat="46.60682" lon="0.59548">
        <ele>58.6</ele>
        <time>2024-03-17T08:02:05Z</time>
      </trkpt>
      <trkpt lat="46.60714" lon="0.59526">
        <ele>58.6</ele>
        <time>2024-03-17T08:02:12Z</time>
      </trkpt>
      <trkpt lat="46.60739" lon="0.59511">
        <ele>58.4</ele>
        <time>2024-03-17T08:02:17Z</time>
      </trkpt>
      <trkpt lat="46.60744" lon="0.5951">
        <ele>58.4</ele>
        <time>2024-03-17T08:02:18Z</time>
      </trkpt>
      <trkpt lat="46.60778" lon="0.59511">
        <ele>58.4</ele>
        <time>2024-03-17T08:02:24Z</time>
      </trkpt>
      <trkpt lat="46.60788" lon="0.5951">
        <ele>58.2</ele>
        <time>2024-03-17T08:02:26Z</time>
      </trkpt>
      <trkpt lat="46.60796" lon="0.59502">
        <ele>58.2</ele>
        <time>2024-03-17T08:02:28Z</time>
      </trkpt>
      <trkpt lat="46.60801" lon="0.5949">
        <ele>58.2</ele>
        <time>2024-03-17T08:02:30Z</time>
      </trkpt>
      <trkpt lat="46.60803" lon="0.59477">
        <ele>58.2</ele>
        <time>2024-03-17T08:02:32Z</time>
      </trkpt>
      <trkpt lat="46.60812" lon="0.59412">
        <ele>59.2</ele>
        <time>2024-03-17T08:02:42Z</time>
      </trkpt>
      <trkpt lat="46.6082" lon="0.59393">
        <ele>59.6</ele>
        <time>2024-03-17T08:02:46Z</time>
      </trkpt>
      <trkpt lat="46.60835" lon="0.59371">
        <ele>60</ele>
        <time>2024-03-17T08:02:51Z</time>
      </trkpt>
      <trkpt lat="46.60842" lon="0.59361">
        <ele>60</ele>
        <time>2024-03-17T08:02:53Z</time>
      </trkpt>
      <trkpt lat="46.6086" lon="0.59341">
        <ele>60.2</ele>
        <time>2024-03-17T08:02:58Z</time>
      </trkpt>
      <trkpt lat="46.6089" lon="0.59312">
        <ele>60.6</ele>
        <time>2024-03-17T08:03:06Z</time>
      </trkpt>
      <trkpt lat="46.60918" lon="0.59285">
        <ele>60.8</ele>
        <time>2024-03-17T08:03:13Z</time>
      </trkpt>
      <trkpt lat="46.60947" lon="0.59259">
        <ele>61.2</ele>
        <time>2024-03-17T08:03:20Z</time>
      </trkpt>
      <trkpt lat="46.60956" lon="0.59252">
        <ele>61.2</ele>
        <time>2024-03-17T08:03:22Z</time>
      </trkpt>
      <trkpt lat="46.60985" lon="0.59231">
        <ele>62</ele>
        <time>2024-03-17T08:03:29Z</time>
      </trkpt>
      <trkpt lat="46.61008" lon="0.59219">
        <ele>62.2</ele>
        <time>2024-03-17T08:03:34Z</time>
      </trkpt>
      <trkpt lat="46.61017" lon="0.59214">
        <ele>62.4</ele>
        <time>2024-03-17T08:03:36Z</time>
      </trkpt>
      <trkpt lat="46.61049" lon="0.59191">
        <ele>62.2</ele>
        <time>2024-03-17T08:03:43Z</time>
      </trkpt>
      <trkpt lat="46.61077" lon="0.59171">
        <ele>62.6</ele>
        <time>2024-03-17T08:03:49Z</time>
      </trkpt>
      <trkpt lat="46.61106" lon="0.59151">
        <ele>62.8</ele>
        <time>2024-03-17T08:03:55Z</time>
      </trkpt>
      <trkpt lat="46.61146" lon="0.59126">
        <ele>62.6</ele>
        <time>2024-03-17T08:04:03Z</time>
      </trkpt>
      <trkpt lat="46.61171" lon="0.59115">
        <ele>63.2</ele>
        <time>2024-03-17T08:04:08Z</time>
      </trkpt>
      <trkpt lat="46.61178" lon="0.59114">
        <ele>63.2</ele>
        <time>2024-03-17T08:04:09Z</time>
      </trkpt>
      <trkpt lat="46.61221" lon="0.59108">
        <ele>62.8</ele>
        <time>2024-03-17T08:04:15Z</time>
      </trkpt>
      <trkpt lat="46.61278" lon="0.59102">
        <ele>62.2</ele>
        <time>2024-03-17T08:04:24Z</time>
      </trkpt>
      <trkpt lat="46.61316" lon="0.59095">
        <ele>62.4</ele>
        <time>2024-03-17T08:04:31Z</time>
      </trkpt>
      <trkpt lat="46.6133" lon="0.59099">
        <ele>62.6</ele>
        <time>2024-03-17T08:04:34Z</time>
      </trkpt>
      <trkpt lat="46.61335" lon="0.59101">
        <ele>62.4</ele>
        <time>2024-03-17T08:04:35Z</time>
      </trkpt>
      <trkpt lat="46.61361" lon="0.59108">
        <ele>61.6</ele>
        <time>2024-03-17T08:04:39Z</time>
      </trkpt>
      <trkpt lat="46.61376" lon="0.59111">
        <ele>61</ele>
        <time>2024-03-17T08:04:41Z</time>
      </trkpt>
      <trkpt lat="46.61383" lon="0.59111">
        <ele>60.4</ele>
        <time>2024-03-17T08:04:42Z</time>
      </trkpt>
      <trkpt lat="46.6139" lon="0.5911">
        <ele>60</ele>
        <time>2024-03-17T08:04:43Z</time>
      </trkpt>
      <trkpt lat="46.61396" lon="0.59109">
        <ele>59.6</ele>
        <time>2024-03-17T08:04:44Z</time>
      </trkpt>
      <trkpt lat="46.61414" lon="0.59105">
        <ele>58.8</ele>
        <time>2024-03-17T08:04:47Z</time>
      </trkpt>
      <trkpt lat="46.61431" lon="0.59101">
        <ele>58.6</ele>
        <time>2024-03-17T08:04:50Z</time>
      </trkpt>
      <trkpt lat="46.61452" lon="0.59098">
        <ele>58.2</ele>
        <time>2024-03-17T08:04:54Z</time>
      </trkpt>
      <trkpt lat="46.61462" lon="0.59097">
        <ele>58</ele>
        <time>2024-03-17T08:04:56Z</time>
      </trkpt>
      <trkpt lat="46.61491" lon="0.59091">
        <ele>58.4</ele>
        <time>2024-03-17T08:05:02Z</time>
      </trkpt>
      <trkpt lat="46.61521" lon="0.59082">
        <ele>59</ele>
        <time>2024-03-17T08:05:09Z</time>
      </trkpt>
      <trkpt lat="46.61532" lon="0.59078">
        <ele>60</ele>
        <time>2024-03-17T08:05:12Z</time>
      </trkpt>
      <trkpt lat="46.61536" lon="0.59077">
        <ele>60.2</ele>
        <time>2024-03-17T08:05:13Z</time>
      </trkpt>
      <trkpt lat="46.6154" lon="0.59076">
        <ele>60.4</ele>
        <time>2024-03-17T08:05:14Z</time>
      </trkpt>
      <trkpt lat="46.61543" lon="0.59075">
        <ele>60.6</ele>
        <time>2024-03-17T08:05:15Z</time>
      </trkpt>
      <trkpt lat="46.61549" lon="0.59072">
        <ele>61</ele>
        <time>2024-03-17T08:05:17Z</time>
      </trkpt>
      <trkpt lat="46.61552" lon="0.5907">
        <ele>61.4</ele>
        <time>2024-03-17T08:05:19Z</time>
      </trkpt>
      <trkpt lat="46.61565" lon="0.59069">
        <ele>61.4</ele>
        <time>2024-03-17T08:05:24Z</time>
      </trkpt>
      <trkpt lat="46.61581" lon="0.59068">
        <ele>61.2</ele>
        <time>2024-03-17T08:05:29Z</time>
      </trkpt>
      <trkpt lat="46.61593" lon="0.59066">
        <ele>62.4</ele>
        <time>2024-03-17T08:05:33Z</time>
      </trkpt>
      <trkpt lat="46.61598" lon="0.59066">
        <ele>62.8</ele>
        <time>2024-03-17T08:05:35Z</time>
      </trkpt>
      <trkpt lat="46.61613" lon="0.59065">
        <ele>62.2</ele>
        <time>2024-03-17T08:05:41Z</time>
      </trkpt>
      <trkpt lat="46.61615" lon="0.59065">
        <ele>61.4</ele>
        <time>2024-03-17T08:05:42Z</time>
      </trkpt>
      <trkpt lat="46.61621" lon="0.59066">
        <ele>60.2</ele>
        <time>2024-03-17T08:05:44Z</time>
      </trkpt>
      <trkpt lat="46.61624" lon="0.59066">
        <ele>60</ele>
        <time>2024-03-17T08:05:45Z</time>
      </trkpt>
      <trkpt lat="46.61628" lon="0.59064">
        <ele>60</ele>
        <time>2024-03-17T08:05:46Z</time>
      </trkpt>
      <trkpt lat="46.61632" lon="0.59064">
        <ele>59.8</ele>
        <time>2024-03-17T08:05:47Z</time>
      </trkpt>
      <trkpt lat="46.61639" lon="0.59064">
        <ele>59.4</ele>
        <time>2024-03-17T08:05:49Z</time>
      </trkpt>
      <trkpt lat="46.61646" lon="0.59063">
        <ele>59.2</ele>
        <time>2024-03-17T08:05:51Z</time>
      </trkpt>
      <trkpt lat="46.6165" lon="0.59063">
        <ele>59.2</ele>
        <time>2024-03-17T08:05:52Z</time>
      </trkpt>
      <trkpt lat="46.61654" lon="0.59064">
        <ele>59</ele>
        <time>2024-03-17T08:05:53Z</time>
      </trkpt>
      <trkpt lat="46.61666" lon="0.59066">
        <ele>58.4</ele>
        <time>2024-03-17T08:05:56Z</time>
      </trkpt>
      <trkpt lat="46.61671" lon="0.59064">
        <ele>58.2</ele>
        <time>2024-03-17T08:05:57Z</time>
      </trkpt>
      <trkpt lat="46.61677" lon="0.59066">
        <ele>57.8</ele>
        <time>2024-03-17T08:05:58Z</time>
      </trkpt>
      <trkpt lat="46.61682" lon="0.59065">
        <ele>57.6</ele>
        <time>2024-03-17T08:06:00Z</time>
      </trkpt>
      <trkpt lat="46.61684" lon="0.59065">
        <ele>57.6</ele>
        <time>2024-03-17T08:06:01Z</time>
      </trkpt>
      <trkpt lat="46.61699" lon="0.59062">
        <ele>58.8</ele>
        <time>2024-03-17T08:06:06Z</time>
      </trkpt>
      <trkpt lat="46.61704" lon="0.59063">
        <ele>59</ele>
        <time>2024-03-17T08:06:07Z</time>
      </trkpt>
      <trkpt lat="46.61723" lon="0.59061">
        <ele>59.2</ele>
        <time>2024-03-17T08:06:11Z</time>
      </trkpt>
      <trkpt lat="46.61758" lon="0.59061">
        <ele>59</ele>
        <time>2024-03-17T08:06:17Z</time>
      </trkpt>
      <trkpt lat="46.61786" lon="0.59058">
        <ele>59</ele>
        <time>2024-03-17T08:06:22Z</time>
      </trkpt>
      <trkpt lat="46.61794" lon="0.59057">
        <ele>58.6</ele>
        <time>2024-03-17T08:06:24Z</time>
      </trkpt>
      <trkpt lat="46.61796" lon="0.59053">
        <ele>58.6</ele>
        <time>2024-03-17T08:06:26Z</time>
      </trkpt>
      <trkpt lat="46.61794" lon="0.59047">
        <ele>58.6</ele>
        <time>2024-03-17T08:06:29Z</time>
      </trkpt>
      <trkpt lat="46.61792" lon="0.59035">
        <ele>59.6</ele>
        <time>2024-03-17T08:06:34Z</time>
      </trkpt>
      <trkpt lat="46.61785" lon="0.59025">
        <ele>59.8</ele>
        <time>2024-03-17T08:06:39Z</time>
      </trkpt>
      <trkpt lat="46.61784" lon="0.59023">
        <ele>60</ele>
        <time>2024-03-17T08:06:40Z</time>
      </trkpt>
      <trkpt lat="46.6178" lon="0.59014">
        <ele>61.2</ele>
        <time>2024-03-17T08:06:44Z</time>
      </trkpt>
      <trkpt lat="46.61779" lon="0.59012">
        <ele>61.4</ele>
        <time>2024-03-17T08:06:45Z</time>
      </trkpt>
      <trkpt lat="46.61774" lon="0.59007">
        <ele>62.2</ele>
        <time>2024-03-17T08:06:48Z</time>
      </trkpt>
      <trkpt lat="46.6177" lon="0.59">
        <ele>63</ele>
        <time>2024-03-17T08:06:52Z</time>
      </trkpt>
      <trkpt lat="46.61766" lon="0.58994">
        <ele>63.2</ele>
        <time>2024-03-17T08:06:56Z</time>
      </trkpt>
      <trkpt lat="46.61761" lon="0.58989">
        <ele>64.4</ele>
        <time>2024-03-17T08:07:00Z</time>
      </trkpt>
      <trkpt lat="46.61752" lon="0.58978">
        <ele>65.4</ele>
        <time>2024-03-17T08:07:07Z</time>
      </trkpt>
      <trkpt lat="46.61745" lon="0.5897">
        <ele>66.4</ele>
        <time>2024-03-17T08:07:12Z</time>
      </trkpt>
      <trkpt lat="46.61744" lon="0.58969">
        <ele>66.4</ele>
        <time>2024-03-17T08:07:13Z</time>
      </trkpt>
      <trkpt lat="46.61743" lon="0.58967">
        <ele>66.6</ele>
        <time>2024-03-17T08:07:14Z</time>
      </trkpt>
      <trkpt lat="46.61736" lon="0.58955">
        <ele>67.4</ele>
        <time>2024-03-17T08:07:20Z</time>
      </trkpt>
      <trkpt lat="46.61733" lon="0.58951">
        <ele>67.6</ele>
        <time>2024-03-17T08:07:22Z</time>
      </trkpt>
      <trkpt lat="46.61726" lon="0.58939">
        <ele>68.6</ele>
        <time>2024-03-17T08:07:26Z</time>
      </trkpt>
      <trkpt lat="46.61724" lon="0.58933">
        <ele>68.8</ele>
        <time>2024-03-17T08:07:28Z</time>
      </trkpt>
      <trkpt lat="46.6172" lon="0.58911">
        <ele>69.2</ele>
        <time>2024-03-17T08:07:34Z</time>
      </trkpt>
      <trkpt lat="46.61719" lon="0.58908">
        <ele>69.2</ele>
        <time>2024-03-17T08:07:35Z</time>
      </trkpt>
      <trkpt lat="46.61718" lon="0.58896">
        <ele>69.4</ele>
        <time>2024-03-17T08:07:39Z</time>
      </trkpt>
      <trkpt lat="46.61718" lon="0.58889">
        <ele>69.6</ele>
        <time>2024-03-17T08:07:41Z</time>
      </trkpt>
      <trkpt lat="46.6172" lon="0.58875">
        <ele>70.2</ele>
        <time>2024-03-17T08:07:45Z</time>
      </trkpt>
      <trkpt lat="46.61718" lon="0.58859">
        <ele>70.6</ele>
        <time>2024-03-17T08:07:50Z</time>
      </trkpt>
      <trkpt lat="46.61717" lon="0.58856">
        <ele>70.6</ele>
        <time>2024-03-17T08:07:51Z</time>
      </trkpt>
      <trkpt lat="46.61717" lon="0.58853">
        <ele>70.8</ele>
        <time>2024-03-17T08:07:52Z</time>
      </trkpt>
      <trkpt lat="46.61719" lon="0.58841">
        <ele>71.4</ele>
        <time>2024-03-17T08:07:56Z</time>
      </trkpt>
      <trkpt lat="46.61718" lon="0.58835">
        <ele>71.8</ele>
        <time>2024-03-17T08:07:58Z</time>
      </trkpt>
      <trkpt lat="46.61717" lon="0.58818">
        <ele>72.4</ele>
        <time>2024-03-17T08:08:03Z</time>
      </trkpt>
      <trkpt lat="46.61719" lon="0.58803">
        <ele>72.8</ele>
        <time>2024-03-17T08:08:08Z</time>
      </trkpt>
      <trkpt lat="46.61719" lon="0.58796">
        <ele>73</ele>
        <time>2024-03-17T08:08:10Z</time>
      </trkpt>
      <trkpt lat="46.61721" lon="0.58782">
        <ele>73.2</ele>
        <time>2024-03-17T08:08:14Z</time>
      </trkpt>
      <trkpt lat="46.61728" lon="0.58758">
        <ele>73.6</ele>
        <time>2024-03-17T08:08:20Z</time>
      </trkpt>
      <trkpt lat="46.61731" lon="0.58752">
        <ele>74</ele>
        <time>2024-03-17T08:08:22Z</time>
      </trkpt>
      <trkpt lat="46.61735" lon="0.5874">
        <ele>74.2</ele>
        <time>2024-03-17T08:08:26Z</time>
      </trkpt>
      <trkpt lat="46.61744" lon="0.5872">
        <ele>74.4</ele>
        <time>2024-03-17T08:08:32Z</time>
      </trkpt>
      <trkpt lat="46.61755" lon="0.58695">
        <ele>75.2</ele>
        <time>2024-03-17T08:08:40Z</time>
      </trkpt>
      <trkpt lat="46.61761" lon="0.58679">
        <ele>75.8</ele>
        <time>2024-03-17T08:08:47Z</time>
      </trkpt>
      <trkpt lat="46.61766" lon="0.58663">
        <ele>75</ele>
        <time>2024-03-17T08:08:50Z</time>
      </trkpt>
      <trkpt lat="46.61767" lon="0.58659">
        <ele>74.8</ele>
        <time>2024-03-17T08:08:51Z</time>
      </trkpt>
      <trkpt lat="46.61771" lon="0.58644">
        <ele>74.6</ele>
        <time>2024-03-17T08:08:55Z</time>
      </trkpt>
      <trkpt lat="46.61775" lon="0.5864">
        <ele>74.6</ele>
        <time>2024-03-17T08:08:57Z</time>
      </trkpt>
      <trkpt lat="46.61789" lon="0.58627">
        <ele>75.2</ele>
        <time>2024-03-17T08:09:03Z</time>
      </trkpt>
      <trkpt lat="46.61796" lon="0.58617">
        <ele>76.4</ele>
        <time>2024-03-17T08:09:08Z</time>
      </trkpt>
      <trkpt lat="46.61798" lon="0.58615">
        <ele>76.6</ele>
        <time>2024-03-17T08:09:09Z</time>
      </trkpt>
      <trkpt lat="46.618" lon="0.5861">
        <ele>77.4</ele>
        <time>2024-03-17T08:09:11Z</time>
      </trkpt>
      <trkpt lat="46.61806" lon="0.58596">
        <ele>78.4</ele>
        <time>2024-03-17T08:09:15Z</time>
      </trkpt>
      <trkpt lat="46.6181" lon="0.58576">
        <ele>78.6</ele>
        <time>2024-03-17T08:09:20Z</time>
      </trkpt>
      <trkpt lat="46.61815" lon="0.58547">
        <ele>78.6</ele>
        <time>2024-03-17T08:09:26Z</time>
      </trkpt>
      <trkpt lat="46.61823" lon="0.5852">
        <ele>78.8</ele>
        <time>2024-03-17T08:09:32Z</time>
      </trkpt>
      <trkpt lat="46.61823" lon="0.585">
        <ele>79.2</ele>
        <time>2024-03-17T08:09:37Z</time>
      </trkpt>
      <trkpt lat="46.61823" lon="0.5849">
        <ele>79.4</ele>
        <time>2024-03-17T08:09:39Z</time>
      </trkpt>
      <trkpt lat="46.61826" lon="0.58467">
        <ele>79.8</ele>
        <time>2024-03-17T08:09:44Z</time>
      </trkpt>
      <trkpt lat="46.61826" lon="0.58446">
        <ele>80.6</ele>
        <time>2024-03-17T08:09:49Z</time>
      </trkpt>
      <trkpt lat="46.61826" lon="0.58442">
        <ele>80.6</ele>
        <time>2024-03-17T08:09:50Z</time>
      </trkpt>
      <trkpt lat="46.61835" lon="0.58418">
        <ele>80.6</ele>
        <time>2024-03-17T08:09:56Z</time>
      </trkpt>
      <trkpt lat="46.61841" lon="0.58396">
        <ele>81.2</ele>
        <time>2024-03-17T08:10:01Z</time>
      </trkpt>
      <trkpt lat="46.61846" lon="0.58379">
        <ele>81.6</ele>
        <time>2024-03-17T08:10:05Z</time>
      </trkpt>
      <trkpt lat="46.61847" lon="0.58375">
        <ele>81.8</ele>
        <time>2024-03-17T08:10:06Z</time>
      </trkpt>
      <trkpt lat="46.61853" lon="0.58349">
        <ele>82.4</ele>
        <time>2024-03-17T08:10:13Z</time>
      </trkpt>
      <trkpt lat="46.61853" lon="0.5834">
        <ele>82.8</ele>
        <time>2024-03-17T08:10:15Z</time>
      </trkpt>
      <trkpt lat="46.61856" lon="0.58328">
        <ele>83</ele>
        <time>2024-03-17T08:10:18Z</time>
      </trkpt>
      <trkpt lat="46.61861" lon="0.58312">
        <ele>82.4</ele>
        <time>2024-03-17T08:10:22Z</time>
      </trkpt>
      <trkpt lat="46.61863" lon="0.58303">
        <ele>82.4</ele>
        <time>2024-03-17T08:10:24Z</time>
      </trkpt>
      <trkpt lat="46.61868" lon="0.58289">
        <ele>83.4</ele>
        <time>2024-03-17T08:10:29Z</time>
      </trkpt>
      <trkpt lat="46.61869" lon="0.58287">
        <ele>83.8</ele>
        <time>2024-03-17T08:10:30Z</time>
      </trkpt>
      <trkpt lat="46.61871" lon="0.58281">
        <ele>84.8</ele>
        <time>2024-03-17T08:10:33Z</time>
      </trkpt>
      <trkpt lat="46.61871" lon="0.58279">
        <ele>85.4</ele>
        <time>2024-03-17T08:10:34Z</time>
      </trkpt>
      <trkpt lat="46.61871" lon="0.58277">
        <ele>85.8</ele>
        <time>2024-03-17T08:10:35Z</time>
      </trkpt>
      <trkpt lat="46.61873" lon="0.58275">
        <ele>86.6</ele>
        <time>2024-03-17T08:10:36Z</time>
      </trkpt>
      <trkpt lat="46.61877" lon="0.58271">
        <ele>87.6</ele>
        <time>2024-03-17T08:10:39Z</time>
      </trkpt>
      <trkpt lat="46.61879" lon="0.5827">
        <ele>87.8</ele>
        <time>2024-03-17T08:10:40Z</time>
      </trkpt>
      <trkpt lat="46.61882" lon="0.58269">
        <ele>88.6</ele>
        <time>2024-03-17T08:10:42Z</time>
      </trkpt>
      <trkpt lat="46.61884" lon="0.58269">
        <ele>89</ele>
        <time>2024-03-17T08:10:43Z</time>
      </trkpt>
      <trkpt lat="46.61889" lon="0.5827">
        <ele>89.6</ele>
        <time>2024-03-17T08:10:46Z</time>
      </trkpt>
      <trkpt lat="46.61897" lon="0.58271">
        <ele>90.2</ele>
        <time>2024-03-17T08:10:50Z</time>
      </trkpt>
      <trkpt lat="46.61908" lon="0.58272">
        <ele>91</ele>
        <time>2024-03-17T08:10:56Z</time>
      </trkpt>
      <trkpt lat="46.61911" lon="0.58273">
        <ele>91.4</ele>
        <time>2024-03-17T08:10:58Z</time>
      </trkpt>
      <trkpt lat="46.61919" lon="0.58277">
        <ele>92.4</ele>
        <time>2024-03-17T08:11:03Z</time>
      </trkpt>
      <trkpt lat="46.61925" lon="0.58283">
        <ele>93.2</ele>
        <time>2024-03-17T08:11:07Z</time>
      </trkpt>
      <trkpt lat="46.61926" lon="0.58286">
        <ele>93.4</ele>
        <time>2024-03-17T08:11:09Z</time>
      </trkpt>
      <trkpt lat="46.6193" lon="0.58298">
        <ele>94.6</ele>
        <time>2024-03-17T08:11:16Z</time>
      </trkpt>
      <trkpt lat="46.61935" lon="0.58315">
        <ele>95.8</ele>
        <time>2024-03-17T08:11:24Z</time>
      </trkpt>
      <trkpt lat="46.61936" lon="0.58322">
        <ele>96.2</ele>
        <time>2024-03-17T08:11:27Z</time>
      </trkpt>
      <trkpt lat="46.61938" lon="0.58335">
        <ele>97</ele>
        <time>2024-03-17T08:11:32Z</time>
      </trkpt>
      <trkpt lat="46.61938" lon="0.58338">
        <ele>97</ele>
        <time>2024-03-17T08:11:33Z</time>
      </trkpt>
      <trkpt lat="46.61937" lon="0.58358">
        <ele>97.6</ele>
        <time>2024-03-17T08:11:40Z</time>
      </trkpt>
      <trkpt lat="46.61937" lon="0.58376">
        <ele>97.8</ele>
        <time>2024-03-17T08:11:46Z</time>
      </trkpt>
      <trkpt lat="46.61937" lon="0.58391">
        <ele>98</ele>
        <time>2024-03-17T08:11:50Z</time>
      </trkpt>
      <trkpt lat="46.61938" lon="0.58403">
        <ele>98.2</ele>
        <time>2024-03-17T08:11:53Z</time>
      </trkpt>
      <trkpt lat="46.6194" lon="0.58424">
        <ele>99</ele>
        <time>2024-03-17T08:11:59Z</time>
      </trkpt>
      <trkpt lat="46.61937" lon="0.58447">
        <ele>99.6</ele>
        <time>2024-03-17T08:12:05Z</time>
      </trkpt>
      <trkpt lat="46.61929" lon="0.58478">
        <ele>99.8</ele>
        <time>2024-03-17T08:12:13Z</time>
      </trkpt>
      <trkpt lat="46.6192" lon="0.58503">
        <ele>99.8</ele>
        <time>2024-03-17T08:12:19Z</time>
      </trkpt>
      <trkpt lat="46.61913" lon="0.5853">
        <ele>100</ele>
        <time>2024-03-17T08:12:25Z</time>
      </trkpt>
      <trkpt lat="46.61907" lon="0.58558">
        <ele>100.4</ele>
        <time>2024-03-17T08:12:31Z</time>
      </trkpt>
      <trkpt lat="46.61903" lon="0.58592">
        <ele>100.6</ele>
        <time>2024-03-17T08:12:38Z</time>
      </trkpt>
      <trkpt lat="46.61899" lon="0.58622">
        <ele>100.4</ele>
        <time>2024-03-17T08:12:44Z</time>
      </trkpt>
      <trkpt lat="46.61892" lon="0.58658">
        <ele>100.2</ele>
        <time>2024-03-17T08:12:50Z</time>
      </trkpt>
      <trkpt lat="46.6189" lon="0.58667">
        <ele>100</ele>
        <time>2024-03-17T08:12:52Z</time>
      </trkpt>
      <trkpt lat="46.61888" lon="0.58679">
        <ele>99.8</ele>
        <time>2024-03-17T08:12:54Z</time>
      </trkpt>
      <trkpt lat="46.61883" lon="0.58723">
        <ele>99.6</ele>
        <time>2024-03-17T08:13:00Z</time>
      </trkpt>
      <trkpt lat="46.61878" lon="0.58751">
        <ele>98.8</ele>
        <time>2024-03-17T08:13:04Z</time>
      </trkpt>
      <trkpt lat="46.61876" lon="0.5876">
        <ele>98.6</ele>
        <time>2024-03-17T08:13:05Z</time>
      </trkpt>
      <trkpt lat="46.61874" lon="0.58769">
        <ele>97.8</ele>
        <time>2024-03-17T08:13:06Z</time>
      </trkpt>
      <trkpt lat="46.61872" lon="0.58781">
        <ele>97</ele>
        <time>2024-03-17T08:13:08Z</time>
      </trkpt>
      <trkpt lat="46.61872" lon="0.58786">
        <ele>96.6</ele>
        <time>2024-03-17T08:13:09Z</time>
      </trkpt>
      <trkpt lat="46.61873" lon="0.58791">
        <ele>96.2</ele>
        <time>2024-03-17T08:13:10Z</time>
      </trkpt>
      <trkpt lat="46.61875" lon="0.58807">
        <ele>95.4</ele>
        <time>2024-03-17T08:13:13Z</time>
      </trkpt>
      <trkpt lat="46.61877" lon="0.58813">
        <ele>95</ele>
        <time>2024-03-17T08:13:14Z</time>
      </trkpt>
      <trkpt lat="46.6188" lon="0.58826">
        <ele>94.4</ele>
        <time>2024-03-17T08:13:16Z</time>
      </trkpt>
      <trkpt lat="46.61881" lon="0.58833">
        <ele>93.8</ele>
        <time>2024-03-17T08:13:17Z</time>
      </trkpt>
      <trkpt lat="46.61882" lon="0.58839">
        <ele>93.2</ele>
        <time>2024-03-17T08:13:18Z</time>
      </trkpt>
      <trkpt lat="46.61884" lon="0.58844">
        <ele>92.2</ele>
        <time>2024-03-17T08:13:19Z</time>
      </trkpt>
      <trkpt lat="46.61885" lon="0.5885">
        <ele>91.6</ele>
        <time>2024-03-17T08:13:20Z</time>
      </trkpt>
      <trkpt lat="46.61887" lon="0.58861">
        <ele>90.4</ele>
        <time>2024-03-17T08:13:22Z</time>
      </trkpt>
      <trkpt lat="46.61888" lon="0.58864">
        <ele>89</ele>
        <time>2024-03-17T08:13:23Z</time>
      </trkpt>
      <trkpt lat="46.6189" lon="0.58867">
        <ele>87</ele>
        <time>2024-03-17T08:13:24Z</time>
      </trkpt>
      <trkpt lat="46.61893" lon="0.58872">
        <ele>86</ele>
        <time>2024-03-17T08:13:25Z</time>
      </trkpt>
      <trkpt lat="46.61894" lon="0.58876">
        <ele>85</ele>
        <time>2024-03-17T08:13:26Z</time>
      </trkpt>
      <trkpt lat="46.61897" lon="0.58879">
        <ele>84.4</ele>
        <time>2024-03-17T08:13:27Z</time>
      </trkpt>
      <trkpt lat="46.61899" lon="0.58883">
        <ele>83.2</ele>
        <time>2024-03-17T08:13:28Z</time>
      </trkpt>
      <trkpt lat="46.61901" lon="0.58887">
        <ele>82.2</ele>
        <time>2024-03-17T08:13:29Z</time>
      </trkpt>
      <trkpt lat="46.61901" lon="0.58891">
        <ele>81.6</ele>
        <time>2024-03-17T08:13:30Z</time>
      </trkpt>
      <trkpt lat="46.61904" lon="0.58897">
        <ele>79.4</ele>
        <time>2024-03-17T08:13:32Z</time>
      </trkpt>
      <trkpt lat="46.61906" lon="0.58901">
        <ele>78.8</ele>
        <time>2024-03-17T08:13:33Z</time>
      </trkpt>
      <trkpt lat="46.61908" lon="0.58904">
        <ele>78.2</ele>
        <time>2024-03-17T08:13:34Z</time>
      </trkpt>
      <trkpt lat="46.61912" lon="0.58908">
        <ele>77.8</ele>
        <time>2024-03-17T08:13:35Z</time>
      </trkpt>
      <trkpt lat="46.61917" lon="0.58918">
        <ele>76.8</ele>
        <time>2024-03-17T08:13:37Z</time>
      </trkpt>
      <trkpt lat="46.6192" lon="0.58926">
        <ele>75.8</ele>
        <time>2024-03-17T08:13:39Z</time>
      </trkpt>
      <trkpt lat="46.6192" lon="0.58926">
        <ele>75.4</ele>
        <time>2024-03-17T08:13:40Z</time>
      </trkpt>
      <trkpt lat="46.61931" lon="0.58944">
        <ele>75</ele>
        <time>2024-03-17T08:13:42Z</time>
      </trkpt>
      <trkpt lat="46.61946" lon="0.58963">
        <ele>73.4</ele>
        <time>2024-03-17T08:13:45Z</time>
      </trkpt>
      <trkpt lat="46.61956" lon="0.58972">
        <ele>72.2</ele>
        <time>2024-03-17T08:13:47Z</time>
      </trkpt>
      <trkpt lat="46.61962" lon="0.58977">
        <ele>72</ele>
        <time>2024-03-17T08:13:48Z</time>
      </trkpt>
      <trkpt lat="46.61967" lon="0.5898">
        <ele>71.8</ele>
        <time>2024-03-17T08:13:49Z</time>
      </trkpt>
      <trkpt lat="46.61997" lon="0.5899">
        <ele>72.2</ele>
        <time>2024-03-17T08:13:54Z</time>
      </trkpt>
      <trkpt lat="46.62047" lon="0.5899">
        <ele>73.4</ele>
        <time>2024-03-17T08:14:01Z</time>
      </trkpt>
      <trkpt lat="46.62087" lon="0.58988">
        <ele>73.8</ele>
        <time>2024-03-17T08:14:08Z</time>
      </trkpt>
      <trkpt lat="46.62117" lon="0.58995">
        <ele>73.6</ele>
        <time>2024-03-17T08:14:14Z</time>
      </trkpt>
      <trkpt lat="46.62152" lon="0.59005">
        <ele>73.6</ele>
        <time>2024-03-17T08:14:21Z</time>
      </trkpt>
      <trkpt lat="46.62209" lon="0.59013">
        <ele>73.2</ele>
        <time>2024-03-17T08:14:32Z</time>
      </trkpt>
      <trkpt lat="46.62256" lon="0.59017">
        <ele>72.4</ele>
        <time>2024-03-17T08:14:41Z</time>
      </trkpt>
      <trkpt lat="46.62261" lon="0.59017">
        <ele>72.4</ele>
        <time>2024-03-17T08:14:42Z</time>
      </trkpt>
      <trkpt lat="46.62292" lon="0.59015">
        <ele>71.4</ele>
        <time>2024-03-17T08:14:48Z</time>
      </trkpt>
      <trkpt lat="46.62298" lon="0.59015">
        <ele>71</ele>
        <time>2024-03-17T08:14:49Z</time>
      </trkpt>
      <trkpt lat="46.62324" lon="0.59008">
        <ele>70.4</ele>
        <time>2024-03-17T08:14:54Z</time>
      </trkpt>
      <trkpt lat="46.62343" lon="0.59">
        <ele>70</ele>
        <time>2024-03-17T08:14:58Z</time>
      </trkpt>
      <trkpt lat="46.62362" lon="0.58992">
        <ele>69.4</ele>
        <time>2024-03-17T08:15:02Z</time>
      </trkpt>
      <trkpt lat="46.62392" lon="0.58982">
        <ele>69.4</ele>
        <time>2024-03-17T08:15:08Z</time>
      </trkpt>
      <trkpt lat="46.62397" lon="0.5898">
        <ele>69.4</ele>
        <time>2024-03-17T08:15:09Z</time>
      </trkpt>
      <trkpt lat="46.62401" lon="0.58977">
        <ele>69.4</ele>
        <time>2024-03-17T08:15:10Z</time>
      </trkpt>
      <trkpt lat="46.62413" lon="0.58965">
        <ele>70</ele>
        <time>2024-03-17T08:15:14Z</time>
      </trkpt>
      <trkpt lat="46.62418" lon="0.58959">
        <ele>70.4</ele>
        <time>2024-03-17T08:15:16Z</time>
      </trkpt>
      <trkpt lat="46.62427" lon="0.58956">
        <ele>70.4</ele>
        <time>2024-03-17T08:15:18Z</time>
      </trkpt>
      <trkpt lat="46.62443" lon="0.58958">
        <ele>70.2</ele>
        <time>2024-03-17T08:15:21Z</time>
      </trkpt>
      <trkpt lat="46.62449" lon="0.58957">
        <ele>70</ele>
        <time>2024-03-17T08:15:22Z</time>
      </trkpt>
      <trkpt lat="46.62454" lon="0.58955">
        <ele>69.8</ele>
        <time>2024-03-17T08:15:23Z</time>
      </trkpt>
      <trkpt lat="46.62463" lon="0.58948">
        <ele>69.2</ele>
        <time>2024-03-17T08:15:25Z</time>
      </trkpt>
      <trkpt lat="46.62467" lon="0.58944">
        <ele>69.2</ele>
        <time>2024-03-17T08:15:26Z</time>
      </trkpt>
      <trkpt lat="46.6247" lon="0.58941">
        <ele>69</ele>
        <time>2024-03-17T08:15:27Z</time>
      </trkpt>
      <trkpt lat="46.62482" lon="0.5893">
        <ele>69.4</ele>
        <time>2024-03-17T08:15:31Z</time>
      </trkpt>
      <trkpt lat="46.62483" lon="0.5891">
        <ele>70</ele>
        <time>2024-03-17T08:15:35Z</time>
      </trkpt>
      <trkpt lat="46.62485" lon="0.58906">
        <ele>70.2</ele>
        <time>2024-03-17T08:15:36Z</time>
      </trkpt>
      <trkpt lat="46.62492" lon="0.58902">
        <ele>71</ele>
        <time>2024-03-17T08:15:38Z</time>
      </trkpt>
      <trkpt lat="46.62496" lon="0.58901">
        <ele>71.2</ele>
        <time>2024-03-17T08:15:39Z</time>
      </trkpt>
      <trkpt lat="46.6252" lon="0.5889">
        <ele>71</ele>
        <time>2024-03-17T08:15:45Z</time>
      </trkpt>
      <trkpt lat="46.62554" lon="0.58873">
        <ele>70.4</ele>
        <time>2024-03-17T08:15:51Z</time>
      </trkpt>
      <trkpt lat="46.62566" lon="0.58864">
        <ele>69.8</ele>
        <time>2024-03-17T08:15:53Z</time>
      </trkpt>
      <trkpt lat="46.62591" lon="0.58844">
        <ele>69</ele>
        <time>2024-03-17T08:15:57Z</time>
      </trkpt>
      <trkpt lat="46.62603" lon="0.58835">
        <ele>68.8</ele>
        <time>2024-03-17T08:15:59Z</time>
      </trkpt>
      <trkpt lat="46.62634" lon="0.58818">
        <ele>69.2</ele>
        <time>2024-03-17T08:16:04Z</time>
      </trkpt>
      <trkpt lat="46.62672" lon="0.58799">
        <ele>69.4</ele>
        <time>2024-03-17T08:16:10Z</time>
      </trkpt>
      <trkpt lat="46.62723" lon="0.58779">
        <ele>68.4</ele>
        <time>2024-03-17T08:16:18Z</time>
      </trkpt>
      <trkpt lat="46.62728" lon="0.58778">
        <ele>68.2</ele>
        <time>2024-03-17T08:16:19Z</time>
      </trkpt>
      <trkpt lat="46.62736" lon="0.58786">
        <ele>68</ele>
        <time>2024-03-17T08:16:21Z</time>
      </trkpt>
      <trkpt lat="46.62743" lon="0.58799">
        <ele>67.8</ele>
        <time>2024-03-17T08:16:23Z</time>
      </trkpt>
      <trkpt lat="46.62754" lon="0.58819">
        <ele>66.8</ele>
        <time>2024-03-17T08:16:26Z</time>
      </trkpt>
      <trkpt lat="46.62758" lon="0.58827">
        <ele>66.2</ele>
        <time>2024-03-17T08:16:27Z</time>
      </trkpt>
      <trkpt lat="46.62763" lon="0.58836">
        <ele>65.2</ele>
        <time>2024-03-17T08:16:28Z</time>
      </trkpt>
      <trkpt lat="46.62773" lon="0.58855">
        <ele>63.8</ele>
        <time>2024-03-17T08:16:30Z</time>
      </trkpt>
      <trkpt lat="46.62782" lon="0.58878">
        <ele>62.4</ele>
        <time>2024-03-17T08:16:32Z</time>
      </trkpt>
      <trkpt lat="46.62789" lon="0.58904">
        <ele>61</ele>
        <time>2024-03-17T08:16:34Z</time>
      </trkpt>
      <trkpt lat="46.62793" lon="0.58917">
        <ele>60</ele>
        <time>2024-03-17T08:16:35Z</time>
      </trkpt>
      <trkpt lat="46.62799" lon="0.58943">
        <ele>58.6</ele>
        <time>2024-03-17T08:16:37Z</time>
      </trkpt>
      <trkpt lat="46.62804" lon="0.58967">
        <ele>57.2</ele>
        <time>2024-03-17T08:16:39Z</time>
      </trkpt>
      <trkpt lat="46.62806" lon="0.58979">
        <ele>56.8</ele>
        <time>2024-03-17T08:16:40Z</time>
      </trkpt>
      <trkpt lat="46.6281" lon="0.58998">
        <ele>56.2</ele>
        <time>2024-03-17T08:16:42Z</time>
      </trkpt>
      <trkpt lat="46.62813" lon="0.59007">
        <ele>55.8</ele>
        <time>2024-03-17T08:16:43Z</time>
      </trkpt>
      <trkpt lat="46.62816" lon="0.59013">
        <ele>55.8</ele>
        <time>2024-03-17T08:16:44Z</time>
      </trkpt>
      <trkpt lat="46.6282" lon="0.59018">
        <ele>55.8</ele>
        <time>2024-03-17T08:16:45Z</time>
      </trkpt>
      <trkpt lat="46.62841" lon="0.5902">
        <ele>55</ele>
        <time>2024-03-17T08:16:49Z</time>
      </trkpt>
      <trkpt lat="46.62882" lon="0.5902">
        <ele>55.2</ele>
        <time>2024-03-17T08:16:55Z</time>
      </trkpt>
      <trkpt lat="46.62934" lon="0.59023">
        <ele>54.6</ele>
        <time>2024-03-17T08:17:03Z</time>
      </trkpt>
      <trkpt lat="46.62947" lon="0.59023">
        <ele>54</ele>
        <time>2024-03-17T08:17:05Z</time>
      </trkpt>
      <trkpt lat="46.62984" lon="0.59023">
        <ele>53.8</ele>
        <time>2024-03-17T08:17:11Z</time>
      </trkpt>
      <trkpt lat="46.63003" lon="0.5902">
        <ele>53.8</ele>
        <time>2024-03-17T08:17:14Z</time>
      </trkpt>
      <trkpt lat="46.63016" lon="0.59015">
        <ele>54</ele>
        <time>2024-03-17T08:17:16Z</time>
      </trkpt>
      <trkpt lat="46.63054" lon="0.59007">
        <ele>54.2</ele>
        <time>2024-03-17T08:17:22Z</time>
      </trkpt>
      <trkpt lat="46.63066" lon="0.59002">
        <ele>54.4</ele>
        <time>2024-03-17T08:17:24Z</time>
      </trkpt>
      <trkpt lat="46.6308" lon="0.58991">
        <ele>54.4</ele>
        <time>2024-03-17T08:17:27Z</time>
      </trkpt>
      <trkpt lat="46.63108" lon="0.58966">
        <ele>54.4</ele>
        <time>2024-03-17T08:17:33Z</time>
      </trkpt>
      <trkpt lat="46.63136" lon="0.58934">
        <ele>54.2</ele>
        <time>2024-03-17T08:17:39Z</time>
      </trkpt>
      <trkpt lat="46.63172" lon="0.58892">
        <ele>53.4</ele>
        <time>2024-03-17T08:17:47Z</time>
      </trkpt>
      <trkpt lat="46.63178" lon="0.58884">
        <ele>53.4</ele>
        <time>2024-03-17T08:17:49Z</time>
      </trkpt>
      <trkpt lat="46.6318" lon="0.58877">
        <ele>53.4</ele>
        <time>2024-03-17T08:17:51Z</time>
      </trkpt>
      <trkpt lat="46.63175" lon="0.58855">
        <ele>53.6</ele>
        <time>2024-03-17T08:17:56Z</time>
      </trkpt>
      <trkpt lat="46.63164" lon="0.58811">
        <ele>55</ele>
        <time>2024-03-17T08:18:04Z</time>
      </trkpt>
      <trkpt lat="46.63154" lon="0.58773">
        <ele>56.2</ele>
        <time>2024-03-17T08:18:12Z</time>
      </trkpt>
      <trkpt lat="46.63153" lon="0.58769">
        <ele>56.4</ele>
        <time>2024-03-17T08:18:13Z</time>
      </trkpt>
      <trkpt lat="46.63152" lon="0.5876">
        <ele>57.2</ele>
        <time>2024-03-17T08:18:16Z</time>
      </trkpt>
      <trkpt lat="46.63152" lon="0.58753">
        <ele>58.4</ele>
        <time>2024-03-17T08:18:19Z</time>
      </trkpt>
      <trkpt lat="46.63153" lon="0.5875">
        <ele>58.8</ele>
        <time>2024-03-17T08:18:20Z</time>
      </trkpt>
      <trkpt lat="46.63153" lon="0.58746">
        <ele>59.6</ele>
        <time>2024-03-17T08:18:22Z</time>
      </trkpt>
      <trkpt lat="46.63156" lon="0.58738">
        <ele>60.8</ele>
        <time>2024-03-17T08:18:26Z</time>
      </trkpt>
      <trkpt lat="46.63161" lon="0.58735">
        <ele>62</ele>
        <time>2024-03-17T08:18:29Z</time>
      </trkpt>
      <trkpt lat="46.63166" lon="0.58735">
        <ele>62.4</ele>
        <time>2024-03-17T08:18:31Z</time>
      </trkpt>
      <trkpt lat="46.63178" lon="0.58733">
        <ele>63</ele>
        <time>2024-03-17T08:18:35Z</time>
      </trkpt>
      <trkpt lat="46.63192" lon="0.58728">
        <ele>63.4</ele>
        <time>2024-03-17T08:18:40Z</time>
      </trkpt>
      <trkpt lat="46.63201" lon="0.58717">
        <ele>64</ele>
        <time>2024-03-17T08:18:44Z</time>
      </trkpt>
      <trkpt lat="46.63203" lon="0.58716">
        <ele>64.2</ele>
        <time>2024-03-17T08:18:45Z</time>
      </trkpt>
      <trkpt lat="46.6322" lon="0.58712">
        <ele>64.2</ele>
        <time>2024-03-17T08:18:50Z</time>
      </trkpt>
      <trkpt lat="46.63245" lon="0.58699">
        <ele>63.8</ele>
        <time>2024-03-17T08:18:56Z</time>
      </trkpt>
      <trkpt lat="46.63266" lon="0.58684">
        <ele>63.4</ele>
        <time>2024-03-17T08:19:01Z</time>
      </trkpt>
      <trkpt lat="46.63276" lon="0.58679">
        <ele>63.6</ele>
        <time>2024-03-17T08:19:03Z</time>
      </trkpt>
      <trkpt lat="46.63301" lon="0.58671">
        <ele>64</ele>
        <time>2024-03-17T08:19:08Z</time>
      </trkpt>
      <trkpt lat="46.63329" lon="0.58661">
        <ele>64.4</ele>
        <time>2024-03-17T08:19:14Z</time>
      </trkpt>
      <trkpt lat="46.63367" lon="0.58643">
        <ele>64</ele>
        <time>2024-03-17T08:19:21Z</time>
      </trkpt>
      <trkpt lat="46.63394" lon="0.58628">
        <ele>64.2</ele>
        <time>2024-03-17T08:19:26Z</time>
      </trkpt>
      <trkpt lat="46.63424" lon="0.58615">
        <ele>63.4</ele>
        <time>2024-03-17T08:19:32Z</time>
      </trkpt>
      <trkpt lat="46.63453" lon="0.58601">
        <ele>64.2</ele>
        <time>2024-03-17T08:19:38Z</time>
      </trkpt>
      <trkpt lat="46.63458" lon="0.58598">
        <ele>64.6</ele>
        <time>2024-03-17T08:19:39Z</time>
      </trkpt>
      <trkpt lat="46.6349" lon="0.58585">
        <ele>64.8</ele>
        <time>2024-03-17T08:19:45Z</time>
      </trkpt>
      <trkpt lat="46.63507" lon="0.5858">
        <ele>65.2</ele>
        <time>2024-03-17T08:19:48Z</time>
      </trkpt>
      <trkpt lat="46.63533" lon="0.58572">
        <ele>66</ele>
        <time>2024-03-17T08:19:53Z</time>
      </trkpt>
      <trkpt lat="46.63575" lon="0.58558">
        <ele>64.8</ele>
        <time>2024-03-17T08:20:01Z</time>
      </trkpt>
      <trkpt lat="46.63606" lon="0.58547">
        <ele>64.4</ele>
        <time>2024-03-17T08:20:07Z</time>
      </trkpt>
      <trkpt lat="46.6361" lon="0.58544">
        <ele>64.6</ele>
        <time>2024-03-17T08:20:08Z</time>
      </trkpt>
      <trkpt lat="46.63612" lon="0.58539">
        <ele>64.8</ele>
        <time>2024-03-17T08:20:09Z</time>
      </trkpt>
      <trkpt lat="46.63612" lon="0.58526">
        <ele>65</ele>
        <time>2024-03-17T08:20:11Z</time>
      </trkpt>
      <trkpt lat="46.63606" lon="0.58476">
        <ele>65.8</ele>
        <time>2024-03-17T08:20:19Z</time>
      </trkpt>
      <trkpt lat="46.63604" lon="0.58458">
        <ele>66.4</ele>
        <time>2024-03-17T08:20:22Z</time>
      </trkpt>
      <trkpt lat="46.63601" lon="0.58426">
        <ele>67.6</ele>
        <time>2024-03-17T08:20:27Z</time>
      </trkpt>
      <trkpt lat="46.636" lon="0.58415">
        <ele>68</ele>
        <time>2024-03-17T08:20:29Z</time>
      </trkpt>
      <trkpt lat="46.63599" lon="0.584">
        <ele>68.6</ele>
        <time>2024-03-17T08:20:32Z</time>
      </trkpt>
      <trkpt lat="46.63596" lon="0.58378">
        <ele>69.8</ele>
        <time>2024-03-17T08:20:37Z</time>
      </trkpt>
      <trkpt lat="46.63595" lon="0.58367">
        <ele>71</ele>
        <time>2024-03-17T08:20:40Z</time>
      </trkpt>
      <trkpt lat="46.63594" lon="0.58353">
        <ele>72.2</ele>
        <time>2024-03-17T08:20:44Z</time>
      </trkpt>
      <trkpt lat="46.63593" lon="0.58344">
        <ele>73.2</ele>
        <time>2024-03-17T08:20:47Z</time>
      </trkpt>
      <trkpt lat="46.63593" lon="0.58334">
        <ele>74</ele>
        <time>2024-03-17T08:20:51Z</time>
      </trkpt>
      <trkpt lat="46.63593" lon="0.58329">
        <ele>74.2</ele>
        <time>2024-03-17T08:20:53Z</time>
      </trkpt>
      <trkpt lat="46.63593" lon="0.58325">
        <ele>75.4</ele>
        <time>2024-03-17T08:20:55Z</time>
      </trkpt>
      <trkpt lat="46.63593" lon="0.58318">
        <ele>76.2</ele>
        <time>2024-03-17T08:20:58Z</time>
      </trkpt>
      <trkpt lat="46.63593" lon="0.58318">
        <ele>76.6</ele>
        <time>2024-03-17T08:20:59Z</time>
      </trkpt>
      <trkpt lat="46.63593" lon="0.58308">
        <ele>77.6</ele>
        <time>2024-03-17T08:21:03Z</time>
      </trkpt>
      <trkpt lat="46.63593" lon="0.583">
        <ele>78.8</ele>
        <time>2024-03-17T08:21:07Z</time>
      </trkpt>
      <trkpt lat="46.63591" lon="0.58288">
        <ele>80</ele>
        <time>2024-03-17T08:21:12Z</time>
      </trkpt>
      <trkpt lat="46.63591" lon="0.58282">
        <ele>80.2</ele>
        <time>2024-03-17T08:21:14Z</time>
      </trkpt>
      <trkpt lat="46.63591" lon="0.58277">
        <ele>81</ele>
        <time>2024-03-17T08:21:16Z</time>
      </trkpt>
      <trkpt lat="46.63589" lon="0.58265">
        <ele>82</ele>
        <time>2024-03-17T08:21:21Z</time>
      </trkpt>
      <trkpt lat="46.63581" lon="0.58253">
        <ele>82.6</ele>
        <time>2024-03-17T08:21:27Z</time>
      </trkpt>
      <trkpt lat="46.63577" lon="0.58245">
        <ele>83</ele>
        <time>2024-03-17T08:21:30Z</time>
      </trkpt>
      <trkpt lat="46.63575" lon="0.58237">
        <ele>83.8</ele>
        <time>2024-03-17T08:21:33Z</time>
      </trkpt>
      <trkpt lat="46.63574" lon="0.58232">
        <ele>84</ele>
        <time>2024-03-17T08:21:35Z</time>
      </trkpt>
      <trkpt lat="46.63572" lon="0.58219">
        <ele>85.2</ele>
        <time>2024-03-17T08:21:40Z</time>
      </trkpt>
      <trkpt lat="46.63571" lon="0.58213">
        <ele>85.6</ele>
        <time>2024-03-17T08:21:42Z</time>
      </trkpt>
      <trkpt lat="46.6357" lon="0.58205">
        <ele>86.6</ele>
        <time>2024-03-17T08:21:45Z</time>
      </trkpt>
      <trkpt lat="46.63572" lon="0.58196">
        <ele>87.6</ele>
        <time>2024-03-17T08:21:49Z</time>
      </trkpt>
      <trkpt lat="46.63574" lon="0.58195">
        <ele>87.8</ele>
        <time>2024-03-17T08:21:50Z</time>
      </trkpt>
      <trkpt lat="46.63579" lon="0.5819">
        <ele>88.6</ele>
        <time>2024-03-17T08:21:53Z</time>
      </trkpt>
      <trkpt lat="46.63583" lon="0.58189">
        <ele>89</ele>
        <time>2024-03-17T08:21:55Z</time>
      </trkpt>
      <trkpt lat="46.63596" lon="0.58185">
        <ele>89.8</ele>
        <time>2024-03-17T08:22:01Z</time>
      </trkpt>
      <trkpt lat="46.63598" lon="0.58184">
        <ele>90</ele>
        <time>2024-03-17T08:22:02Z</time>
      </trkpt>
      <trkpt lat="46.63614" lon="0.58179">
        <ele>90.8</ele>
        <time>2024-03-17T08:22:08Z</time>
      </trkpt>
      <trkpt lat="46.63619" lon="0.58177">
        <ele>91.2</ele>
        <time>2024-03-17T08:22:10Z</time>
      </trkpt>
      <trkpt lat="46.6363" lon="0.58169">
        <ele>92</ele>
        <time>2024-03-17T08:22:14Z</time>
      </trkpt>
      <trkpt lat="46.63635" lon="0.58163">
        <ele>92.4</ele>
        <time>2024-03-17T08:22:16Z</time>
      </trkpt>
      <trkpt lat="46.63637" lon="0.5815">
        <ele>93</ele>
        <time>2024-03-17T08:22:19Z</time>
      </trkpt>
      <trkpt lat="46.63637" lon="0.58145">
        <ele>93.2</ele>
        <time>2024-03-17T08:22:20Z</time>
      </trkpt>
      <trkpt lat="46.63635" lon="0.58106">
        <ele>94.2</ele>
        <time>2024-03-17T08:22:27Z</time>
      </trkpt>
      <trkpt lat="46.63632" lon="0.58075">
        <ele>94.6</ele>
        <time>2024-03-17T08:22:33Z</time>
      </trkpt>
      <trkpt lat="46.63627" lon="0.58035">
        <ele>95</ele>
        <time>2024-03-17T08:22:41Z</time>
      </trkpt>
      <trkpt lat="46.63626" lon="0.58019">
        <ele>95.2</ele>
        <time>2024-03-17T08:22:44Z</time>
      </trkpt>
      <trkpt lat="46.63624" lon="0.57997">
        <ele>95.6</ele>
        <time>2024-03-17T08:22:48Z</time>
      </trkpt>
      <trkpt lat="46.63619" lon="0.57949">
        <ele>96.2</ele>
        <time>2024-03-17T08:22:56Z</time>
      </trkpt>
      <trkpt lat="46.63618" lon="0.57937">
        <ele>96.2</ele>
        <time>2024-03-17T08:22:58Z</time>
      </trkpt>
      <trkpt lat="46.63616" lon="0.57898">
        <ele>96.6</ele>
        <time>2024-03-17T08:23:04Z</time>
      </trkpt>
      <trkpt lat="46.63612" lon="0.57836">
        <ele>97.2</ele>
        <time>2024-03-17T08:23:14Z</time>
      </trkpt>
      <trkpt lat="46.63611" lon="0.5783">
        <ele>97.4</ele>
        <time>2024-03-17T08:23:15Z</time>
      </trkpt>
      <trkpt lat="46.63608" lon="0.57788">
        <ele>98.4</ele>
        <time>2024-03-17T08:23:22Z</time>
      </trkpt>
      <trkpt lat="46.63607" lon="0.57782">
        <ele>98.6</ele>
        <time>2024-03-17T08:23:23Z</time>
      </trkpt>
      <trkpt lat="46.63604" lon="0.57728">
        <ele>99.2</ele>
        <time>2024-03-17T08:23:33Z</time>
      </trkpt>
      <trkpt lat="46.63603" lon="0.57712">
        <ele>99.6</ele>
        <time>2024-03-17T08:23:36Z</time>
      </trkpt>
      <trkpt lat="46.63599" lon="0.57672">
        <ele>100.6</ele>
        <time>2024-03-17T08:23:44Z</time>
      </trkpt>
      <trkpt lat="46.63599" lon="0.57667">
        <ele>100.8</ele>
        <time>2024-03-17T08:23:45Z</time>
      </trkpt>
      <trkpt lat="46.63595" lon="0.57627">
        <ele>101.8</ele>
        <time>2024-03-17T08:23:53Z</time>
      </trkpt>
      <trkpt lat="46.63593" lon="0.57587">
        <ele>102.8</ele>
        <time>2024-03-17T08:24:01Z</time>
      </trkpt>
      <trkpt lat="46.63592" lon="0.57577">
        <ele>103.2</ele>
        <time>2024-03-17T08:24:03Z</time>
      </trkpt>
      <trkpt lat="46.63591" lon="0.57557">
        <ele>104</ele>
        <time>2024-03-17T08:24:07Z</time>
      </trkpt>
      <trkpt lat="46.63589" lon="0.57532">
        <ele>104.2</ele>
        <time>2024-03-17T08:24:12Z</time>
      </trkpt>
      <trkpt lat="46.63585" lon="0.57495">
        <ele>104</ele>
        <time>2024-03-17T08:24:20Z</time>
      </trkpt>
      <trkpt lat="46.63574" lon="0.57486">
        <ele>105</ele>
        <time>2024-03-17T08:24:24Z</time>
      </trkpt>
      <trkpt lat="46.63571" lon="0.57485">
        <ele>105.4</ele>
        <time>2024-03-17T08:24:25Z</time>
      </trkpt>
      <trkpt lat="46.63539" lon="0.57475">
        <ele>105.8</ele>
        <time>2024-03-17T08:24:33Z</time>
      </trkpt>
      <trkpt lat="46.63508" lon="0.57466">
        <ele>105.8</ele>
        <time>2024-03-17T08:24:41Z</time>
      </trkpt>
      <trkpt lat="46.63469" lon="0.57455">
        <ele>105.6</ele>
        <time>2024-03-17T08:24:50Z</time>
      </trkpt>
      <trkpt lat="46.63433" lon="0.57444">
        <ele>105.8</ele>
        <time>2024-03-17T08:24:58Z</time>
      </trkpt>
      <trkpt lat="46.63401" lon="0.57429">
        <ele>106</ele>
        <time>2024-03-17T08:25:05Z</time>
      </trkpt>
      <trkpt lat="46.63396" lon="0.57427">
        <ele>106</ele>
        <time>2024-03-17T08:25:06Z</time>
      </trkpt>
      <trkpt lat="46.63356" lon="0.57403">
        <ele>105.8</ele>
        <time>2024-03-17T08:25:15Z</time>
      </trkpt>
      <trkpt lat="46.63312" lon="0.57375">
        <ele>105.4</ele>
        <time>2024-03-17T08:25:24Z</time>
      </trkpt>
      <trkpt lat="46.63297" lon="0.57366">
        <ele>105</ele>
        <time>2024-03-17T08:25:27Z</time>
      </trkpt>
      <trkpt lat="46.63272" lon="0.57349">
        <ele>104.4</ele>
        <time>2024-03-17T08:25:32Z</time>
      </trkpt>
      <trkpt lat="46.63259" lon="0.5734">
        <ele>104.2</ele>
        <time>2024-03-17T08:25:35Z</time>
      </trkpt>
      <trkpt lat="46.63253" lon="0.57331">
        <ele>104.2</ele>
        <time>2024-03-17T08:25:37Z</time>
      </trkpt>
      <trkpt lat="46.63252" lon="0.57325">
        <ele>104</ele>
        <time>2024-03-17T08:25:38Z</time>
      </trkpt>
      <trkpt lat="46.63252" lon="0.5732">
        <ele>103.4</ele>
        <time>2024-03-17T08:25:39Z</time>
      </trkpt>
      <trkpt lat="46.63254" lon="0.57315">
        <ele>102.8</ele>
        <time>2024-03-17T08:25:40Z</time>
      </trkpt>
      <trkpt lat="46.63267" lon="0.573">
        <ele>101.6</ele>
        <time>2024-03-17T08:25:44Z</time>
      </trkpt>
      <trkpt lat="46.63287" lon="0.57285">
        <ele>100.6</ele>
        <time>2024-03-17T08:25:48Z</time>
      </trkpt>
      <trkpt lat="46.63304" lon="0.57273">
        <ele>99.4</ele>
        <time>2024-03-17T08:25:51Z</time>
      </trkpt>
      <trkpt lat="46.63322" lon="0.57266">
        <ele>98.4</ele>
        <time>2024-03-17T08:25:54Z</time>
      </trkpt>
      <trkpt lat="46.63335" lon="0.57262">
        <ele>97.6</ele>
        <time>2024-03-17T08:25:56Z</time>
      </trkpt>
      <trkpt lat="46.63341" lon="0.57261">
        <ele>97</ele>
        <time>2024-03-17T08:25:57Z</time>
      </trkpt>
      <trkpt lat="46.63353" lon="0.57259">
        <ele>96</ele>
        <time>2024-03-17T08:25:59Z</time>
      </trkpt>
      <trkpt lat="46.63358" lon="0.5726">
        <ele>95.6</ele>
        <time>2024-03-17T08:26:00Z</time>
      </trkpt>
      <trkpt lat="46.63362" lon="0.57262">
        <ele>95</ele>
        <time>2024-03-17T08:26:01Z</time>
      </trkpt>
      <trkpt lat="46.63369" lon="0.57267">
        <ele>94.6</ele>
        <time>2024-03-17T08:26:03Z</time>
      </trkpt>
      <trkpt lat="46.63372" lon="0.57269">
        <ele>94.6</ele>
        <time>2024-03-17T08:26:04Z</time>
      </trkpt>
      <trkpt lat="46.63382" lon="0.57279">
        <ele>94.6</ele>
        <time>2024-03-17T08:26:08Z</time>
      </trkpt>
      <trkpt lat="46.63386" lon="0.57281">
        <ele>94.2</ele>
        <time>2024-03-17T08:26:09Z</time>
      </trkpt>
      <trkpt lat="46.63393" lon="0.57285">
        <ele>93.2</ele>
        <time>2024-03-17T08:26:11Z</time>
      </trkpt>
      <trkpt lat="46.63397" lon="0.57285">
        <ele>93</ele>
        <time>2024-03-17T08:26:12Z</time>
      </trkpt>
      <trkpt lat="46.63412" lon="0.57284">
        <ele>92.8</ele>
        <time>2024-03-17T08:26:16Z</time>
      </trkpt>
      <trkpt lat="46.63416" lon="0.57282">
        <ele>92.8</ele>
        <time>2024-03-17T08:26:17Z</time>
      </trkpt>
      <trkpt lat="46.63419" lon="0.5728">
        <ele>93</ele>
        <time>2024-03-17T08:26:18Z</time>
      </trkpt>
      <trkpt lat="46.63423" lon="0.57274">
        <ele>93.2</ele>
        <time>2024-03-17T08:26:20Z</time>
      </trkpt>
      <trkpt lat="46.63425" lon="0.57271">
        <ele>93</ele>
        <time>2024-03-17T08:26:21Z</time>
      </trkpt>
      <trkpt lat="46.63439" lon="0.57255">
        <ele>92</ele>
        <time>2024-03-17T08:26:25Z</time>
      </trkpt>
      <trkpt lat="46.63443" lon="0.57251">
        <ele>92</ele>
        <time>2024-03-17T08:26:26Z</time>
      </trkpt>
      <trkpt lat="46.63447" lon="0.57248">
        <ele>92.2</ele>
        <time>2024-03-17T08:26:27Z</time>
      </trkpt>
      <trkpt lat="46.63457" lon="0.57242">
        <ele>92.6</ele>
        <time>2024-03-17T08:26:29Z</time>
      </trkpt>
      <trkpt lat="46.63466" lon="0.57237">
        <ele>92.6</ele>
        <time>2024-03-17T08:26:31Z</time>
      </trkpt>
      <trkpt lat="46.63496" lon="0.5722">
        <ele>91.6</ele>
        <time>2024-03-17T08:26:38Z</time>
      </trkpt>
      <trkpt lat="46.63511" lon="0.57212">
        <ele>91.4</ele>
        <time>2024-03-17T08:26:41Z</time>
      </trkpt>
      <trkpt lat="46.63522" lon="0.57208">
        <ele>90.8</ele>
        <time>2024-03-17T08:26:43Z</time>
      </trkpt>
      <trkpt lat="46.63542" lon="0.5721">
        <ele>90.8</ele>
        <time>2024-03-17T08:26:47Z</time>
      </trkpt>
      <trkpt lat="46.63549" lon="0.57211">
        <ele>90.6</ele>
        <time>2024-03-17T08:26:48Z</time>
      </trkpt>
      <trkpt lat="46.63589" lon="0.5722">
        <ele>90.4</ele>
        <time>2024-03-17T08:26:55Z</time>
      </trkpt>
      <trkpt lat="46.63619" lon="0.5723">
        <ele>89.6</ele>
        <time>2024-03-17T08:27:01Z</time>
      </trkpt>
      <trkpt lat="46.63651" lon="0.57236">
        <ele>89.8</ele>
        <time>2024-03-17T08:27:07Z</time>
      </trkpt>
      <trkpt lat="46.63682" lon="0.57243">
        <ele>89.2</ele>
        <time>2024-03-17T08:27:13Z</time>
      </trkpt>
      <trkpt lat="46.63706" lon="0.5725">
        <ele>88.4</ele>
        <time>2024-03-17T08:27:18Z</time>
      </trkpt>
      <trkpt lat="46.63712" lon="0.57251">
        <ele>88.4</ele>
        <time>2024-03-17T08:27:19Z</time>
      </trkpt>
      <trkpt lat="46.63723" lon="0.57253">
        <ele>88</ele>
        <time>2024-03-17T08:27:21Z</time>
      </trkpt>
      <trkpt lat="46.63739" lon="0.57257">
        <ele>87.4</ele>
        <time>2024-03-17T08:27:25Z</time>
      </trkpt>
      <trkpt lat="46.63751" lon="0.57262">
        <ele>87</ele>
        <time>2024-03-17T08:27:30Z</time>
      </trkpt>
      <trkpt lat="46.63761" lon="0.5727">
        <ele>87.2</ele>
        <time>2024-03-17T08:27:35Z</time>
      </trkpt>
      <trkpt lat="46.63774" lon="0.57289">
        <ele>87</ele>
        <time>2024-03-17T08:27:42Z</time>
      </trkpt>
      <trkpt lat="46.63785" lon="0.573">
        <ele>87.2</ele>
        <time>2024-03-17T08:27:46Z</time>
      </trkpt>
      <trkpt lat="46.63788" lon="0.57305">
        <ele>86.8</ele>
        <time>2024-03-17T08:27:48Z</time>
      </trkpt>
      <trkpt lat="46.63791" lon="0.57308">
        <ele>86.8</ele>
        <time>2024-03-17T08:27:49Z</time>
      </trkpt>
      <trkpt lat="46.63803" lon="0.57322">
        <ele>86.4</ele>
        <time>2024-03-17T08:27:55Z</time>
      </trkpt>
      <trkpt lat="46.63824" lon="0.57339">
        <ele>86.4</ele>
        <time>2024-03-17T08:28:01Z</time>
      </trkpt>
      <trkpt lat="46.6384" lon="0.57351">
        <ele>86.8</ele>
        <time>2024-03-17T08:28:06Z</time>
      </trkpt>
      <trkpt lat="46.63846" lon="0.57353">
        <ele>86.6</ele>
        <time>2024-03-17T08:28:08Z</time>
      </trkpt>
      <trkpt lat="46.63854" lon="0.57356">
        <ele>86.6</ele>
        <time>2024-03-17T08:28:10Z</time>
      </trkpt>
      <trkpt lat="46.63862" lon="0.57357">
        <ele>86.8</ele>
        <time>2024-03-17T08:28:12Z</time>
      </trkpt>
      <trkpt lat="46.6388" lon="0.57363">
        <ele>86.6</ele>
        <time>2024-03-17T08:28:16Z</time>
      </trkpt>
      <trkpt lat="46.63887" lon="0.57366">
        <ele>86.6</ele>
        <time>2024-03-17T08:28:18Z</time>
      </trkpt>
      <trkpt lat="46.63899" lon="0.5737">
        <ele>86.4</ele>
        <time>2024-03-17T08:28:21Z</time>
      </trkpt>
      <trkpt lat="46.63909" lon="0.57372">
        <ele>86.4</ele>
        <time>2024-03-17T08:28:24Z</time>
      </trkpt>
      <trkpt lat="46.63939" lon="0.57373">
        <ele>85.8</ele>
        <time>2024-03-17T08:28:30Z</time>
      </trkpt>
      <trkpt lat="46.63945" lon="0.57373">
        <ele>85.6</ele>
        <time>2024-03-17T08:28:31Z</time>
      </trkpt>
      <trkpt lat="46.63956" lon="0.57374">
        <ele>85.4</ele>
        <time>2024-03-17T08:28:33Z</time>
      </trkpt>
      <trkpt lat="46.63978" lon="0.57377">
        <ele>85.4</ele>
        <time>2024-03-17T08:28:37Z</time>
      </trkpt>
      <trkpt lat="46.63988" lon="0.57381">
        <ele>85.4</ele>
        <time>2024-03-17T08:28:39Z</time>
      </trkpt>
      <trkpt lat="46.64002" lon="0.57389">
        <ele>85</ele>
        <time>2024-03-17T08:28:42Z</time>
      </trkpt>
      <trkpt lat="46.64006" lon="0.57391">
        <ele>85.2</ele>
        <time>2024-03-17T08:28:43Z</time>
      </trkpt>
      <trkpt lat="46.64021" lon="0.57399">
        <ele>85</ele>
        <time>2024-03-17T08:28:46Z</time>
      </trkpt>
      <trkpt lat="46.64029" lon="0.57399">
        <ele>84.8</ele>
        <time>2024-03-17T08:28:48Z</time>
      </trkpt>
      <trkpt lat="46.64033" lon="0.57401">
        <ele>84.2</ele>
        <time>2024-03-17T08:28:49Z</time>
      </trkpt>
      <trkpt lat="46.64036" lon="0.57403">
        <ele>83.8</ele>
        <time>2024-03-17T08:28:50Z</time>
      </trkpt>
      <trkpt lat="46.64038" lon="0.57405">
        <ele>83.4</ele>
        <time>2024-03-17T08:28:51Z</time>
      </trkpt>
      <trkpt lat="46.64043" lon="0.57407">
        <ele>83.2</ele>
        <time>2024-03-17T08:28:52Z</time>
      </trkpt>
      <trkpt lat="46.64055" lon="0.57411">
        <ele>82.8</ele>
        <time>2024-03-17T08:28:55Z</time>
      </trkpt>
      <trkpt lat="46.64061" lon="0.57419">
        <ele>82.2</ele>
        <time>2024-03-17T08:28:58Z</time>
      </trkpt>
      <trkpt lat="46.64067" lon="0.57429">
        <ele>82.2</ele>
        <time>2024-03-17T08:29:00Z</time>
      </trkpt>
      <trkpt lat="46.64078" lon="0.57438">
        <ele>82</ele>
        <time>2024-03-17T08:29:02Z</time>
      </trkpt>
      <trkpt lat="46.6409" lon="0.57457">
        <ele>81.6</ele>
        <time>2024-03-17T08:29:07Z</time>
      </trkpt>
      <trkpt lat="46.64094" lon="0.57463">
        <ele>81.4</ele>
        <time>2024-03-17T08:29:09Z</time>
      </trkpt>
      <trkpt lat="46.64102" lon="0.57473">
        <ele>81.2</ele>
        <time>2024-03-17T08:29:11Z</time>
      </trkpt>
      <trkpt lat="46.64107" lon="0.57478">
        <ele>81</ele>
        <time>2024-03-17T08:29:12Z</time>
      </trkpt>
      <trkpt lat="46.6411" lon="0.57482">
        <ele>81</ele>
        <time>2024-03-17T08:29:13Z</time>
      </trkpt>
      <trkpt lat="46.64117" lon="0.57494">
        <ele>80.6</ele>
        <time>2024-03-17T08:29:15Z</time>
      </trkpt>
      <trkpt lat="46.6412" lon="0.57499">
        <ele>80.4</ele>
        <time>2024-03-17T08:29:16Z</time>
      </trkpt>
      <trkpt lat="46.64125" lon="0.57511">
        <ele>80</ele>
        <time>2024-03-17T08:29:19Z</time>
      </trkpt>
      <trkpt lat="46.64128" lon="0.5752">
        <ele>80</ele>
        <time>2024-03-17T08:29:21Z</time>
      </trkpt>
      <trkpt lat="46.64129" lon="0.57525">
        <ele>80</ele>
        <time>2024-03-17T08:29:22Z</time>
      </trkpt>
      <trkpt lat="46.64132" lon="0.57533">
        <ele>79.8</ele>
        <time>2024-03-17T08:29:24Z</time>
      </trkpt>
      <trkpt lat="46.64141" lon="0.57541">
        <ele>80</ele>
        <time>2024-03-17T08:29:26Z</time>
      </trkpt>
      <trkpt lat="46.64158" lon="0.57554">
        <ele>80</ele>
        <time>2024-03-17T08:29:31Z</time>
      </trkpt>
      <trkpt lat="46.64167" lon="0.57558">
        <ele>79.8</ele>
        <time>2024-03-17T08:29:33Z</time>
      </trkpt>
      <trkpt lat="46.64172" lon="0.57559">
        <ele>79.8</ele>
        <time>2024-03-17T08:29:35Z</time>
      </trkpt>
      <trkpt lat="46.64174" lon="0.5756">
        <ele>79.8</ele>
        <time>2024-03-17T08:29:36Z</time>
      </trkpt>
      <trkpt lat="46.64181" lon="0.57568">
        <ele>79.4</ele>
        <time>2024-03-17T08:29:39Z</time>
      </trkpt>
      <trkpt lat="46.64184" lon="0.5757">
        <ele>79.2</ele>
        <time>2024-03-17T08:29:40Z</time>
      </trkpt>
      <trkpt lat="46.64189" lon="0.57573">
        <ele>79.2</ele>
        <time>2024-03-17T08:29:41Z</time>
      </trkpt>
      <trkpt lat="46.64197" lon="0.57576">
        <ele>79</ele>
        <time>2024-03-17T08:29:43Z</time>
      </trkpt>
      <trkpt lat="46.64202" lon="0.5758">
        <ele>79</ele>
        <time>2024-03-17T08:29:45Z</time>
      </trkpt>
      <trkpt lat="46.64206" lon="0.57585">
        <ele>79</ele>
        <time>2024-03-17T08:29:47Z</time>
      </trkpt>
      <trkpt lat="46.64216" lon="0.5759">
        <ele>79</ele>
        <time>2024-03-17T08:29:50Z</time>
      </trkpt>
      <trkpt lat="46.64232" lon="0.57595">
        <ele>77.8</ele>
        <time>2024-03-17T08:29:54Z</time>
      </trkpt>
      <trkpt lat="46.64235" lon="0.57595">
        <ele>77.8</ele>
        <time>2024-03-17T08:29:55Z</time>
      </trkpt>
      <trkpt lat="46.64246" lon="0.576">
        <ele>77</ele>
        <time>2024-03-17T08:30:00Z</time>
      </trkpt>
      <trkpt lat="46.64247" lon="0.57602">
        <ele>77</ele>
        <time>2024-03-17T08:30:01Z</time>
      </trkpt>
      <trkpt lat="46.64247" lon="0.57604">
        <ele>76.8</ele>
        <time>2024-03-17T08:30:02Z</time>
      </trkpt>
      <trkpt lat="46.64252" lon="0.57611">
        <ele>76.6</ele>
        <time>2024-03-17T08:30:06Z</time>
      </trkpt>
      <trkpt lat="46.64261" lon="0.57621">
        <ele>76.2</ele>
        <time>2024-03-17T08:30:12Z</time>
      </trkpt>
      <trkpt lat="46.64263" lon="0.57624">
        <ele>76.2</ele>
        <time>2024-03-17T08:30:13Z</time>
      </trkpt>
      <trkpt lat="46.64272" lon="0.57634">
        <ele>76</ele>
        <time>2024-03-17T08:30:18Z</time>
      </trkpt>
      <trkpt lat="46.64274" lon="0.57636">
        <ele>75.8</ele>
        <time>2024-03-17T08:30:19Z</time>
      </trkpt>
      <trkpt lat="46.6428" lon="0.57647">
        <ele>75.6</ele>
        <time>2024-03-17T08:30:23Z</time>
      </trkpt>
      <trkpt lat="46.64282" lon="0.57649">
        <ele>75.6</ele>
        <time>2024-03-17T08:30:24Z</time>
      </trkpt>
      <trkpt lat="46.64285" lon="0.57653">
        <ele>75.6</ele>
        <time>2024-03-17T08:30:25Z</time>
      </trkpt>
      <trkpt lat="46.64296" lon="0.57665">
        <ele>75.6</ele>
        <time>2024-03-17T08:30:29Z</time>
      </trkpt>
      <trkpt lat="46.64306" lon="0.57679">
        <ele>74.6</ele>
        <time>2024-03-17T08:30:34Z</time>
      </trkpt>
      <trkpt lat="46.6431" lon="0.57684">
        <ele>74.4</ele>
        <time>2024-03-17T08:30:35Z</time>
      </trkpt>
      <trkpt lat="46.64319" lon="0.57701">
        <ele>74</ele>
        <time>2024-03-17T08:30:41Z</time>
      </trkpt>
      <trkpt lat="46.64323" lon="0.57715">
        <ele>74</ele>
        <time>2024-03-17T08:30:45Z</time>
      </trkpt>
      <trkpt lat="46.64324" lon="0.57718">
        <ele>73.8</ele>
        <time>2024-03-17T08:30:47Z</time>
      </trkpt>
      <trkpt lat="46.64328" lon="0.5773">
        <ele>73.8</ele>
        <time>2024-03-17T08:30:52Z</time>
      </trkpt>
      <trkpt lat="46.64328" lon="0.57745">
        <ele>73.8</ele>
        <time>2024-03-17T08:30:56Z</time>
      </trkpt>
      <trkpt lat="46.64335" lon="0.57772">
        <ele>73.6</ele>
        <time>2024-03-17T08:31:02Z</time>
      </trkpt>
      <trkpt lat="46.64336" lon="0.57783">
        <ele>73.6</ele>
        <time>2024-03-17T08:31:04Z</time>
      </trkpt>
      <trkpt lat="46.64335" lon="0.57796">
        <ele>73.4</ele>
        <time>2024-03-17T08:31:07Z</time>
      </trkpt>
      <trkpt lat="46.64342" lon="0.57817">
        <ele>73</ele>
        <time>2024-03-17T08:31:12Z</time>
      </trkpt>
      <trkpt lat="46.64343" lon="0.57824">
        <ele>72.4</ele>
        <time>2024-03-17T08:31:14Z</time>
      </trkpt>
      <trkpt lat="46.64352" lon="0.57851">
        <ele>71.6</ele>
        <time>2024-03-17T08:31:20Z</time>
      </trkpt>
      <trkpt lat="46.64357" lon="0.57859">
        <ele>71.6</ele>
        <time>2024-03-17T08:31:22Z</time>
      </trkpt>
      <trkpt lat="46.64361" lon="0.57869">
        <ele>71.4</ele>
        <time>2024-03-17T08:31:25Z</time>
      </trkpt>
      <trkpt lat="46.64375" lon="0.5789">
        <ele>71.4</ele>
        <time>2024-03-17T08:31:30Z</time>
      </trkpt>
      <trkpt lat="46.64394" lon="0.57912">
        <ele>70.8</ele>
        <time>2024-03-17T08:31:35Z</time>
      </trkpt>
      <trkpt lat="46.64399" lon="0.57918">
        <ele>70</ele>
        <time>2024-03-17T08:31:37Z</time>
      </trkpt>
      <trkpt lat="46.64408" lon="0.57928">
        <ele>69.2</ele>
        <time>2024-03-17T08:31:41Z</time>
      </trkpt>
      <trkpt lat="46.6441" lon="0.5793">
        <ele>69.2</ele>
        <time>2024-03-17T08:31:42Z</time>
      </trkpt>
      <trkpt lat="46.64415" lon="0.57935">
        <ele>68.8</ele>
        <time>2024-03-17T08:31:44Z</time>
      </trkpt>
      <trkpt lat="46.64419" lon="0.57942">
        <ele>68.4</ele>
        <time>2024-03-17T08:31:47Z</time>
      </trkpt>
      <trkpt lat="46.64421" lon="0.57946">
        <ele>68.4</ele>
        <time>2024-03-17T08:31:49Z</time>
      </trkpt>
      <trkpt lat="46.64431" lon="0.57954">
        <ele>68.4</ele>
        <time>2024-03-17T08:31:53Z</time>
      </trkpt>
      <trkpt lat="46.64445" lon="0.57965">
        <ele>68</ele>
        <time>2024-03-17T08:32:00Z</time>
      </trkpt>
      <trkpt lat="46.64447" lon="0.57967">
        <ele>67.8</ele>
        <time>2024-03-17T08:32:01Z</time>
      </trkpt>
      <trkpt lat="46.6445" lon="0.57969">
        <ele>67.6</ele>
        <time>2024-03-17T08:32:02Z</time>
      </trkpt>
      <trkpt lat="46.64458" lon="0.57973">
        <ele>67.6</ele>
        <time>2024-03-17T08:32:05Z</time>
      </trkpt>
      <trkpt lat="46.64468" lon="0.57982">
        <ele>67.2</ele>
        <time>2024-03-17T08:32:11Z</time>
      </trkpt>
      <trkpt lat="46.6447" lon="0.57986">
        <ele>67.2</ele>
        <time>2024-03-17T08:32:13Z</time>
      </trkpt>
      <trkpt lat="46.64471" lon="0.57993">
        <ele>68.2</ele>
        <time>2024-03-17T08:32:17Z</time>
      </trkpt>
      <trkpt lat="46.64472" lon="0.57996">
        <ele>68.2</ele>
        <time>2024-03-17T08:32:19Z</time>
      </trkpt>
      <trkpt lat="46.64474" lon="0.58001">
        <ele>68.2</ele>
        <time>2024-03-17T08:32:23Z</time>
      </trkpt>
      <trkpt lat="46.64475" lon="0.58007">
        <ele>68.8</ele>
        <time>2024-03-17T08:32:27Z</time>
      </trkpt>
      <trkpt lat="46.64479" lon="0.58012">
        <ele>69</ele>
        <time>2024-03-17T08:32:30Z</time>
      </trkpt>
      <trkpt lat="46.64482" lon="0.58014">
        <ele>69</ele>
        <time>2024-03-17T08:32:31Z</time>
      </trkpt>
      <trkpt lat="46.645" lon="0.58021">
        <ele>68.6</ele>
        <time>2024-03-17T08:32:36Z</time>
      </trkpt>
      <trkpt lat="46.64501" lon="0.58023">
        <ele>68.4</ele>
        <time>2024-03-17T08:32:37Z</time>
      </trkpt>
      <trkpt lat="46.64502" lon="0.58033">
        <ele>68.2</ele>
        <time>2024-03-17T08:32:39Z</time>
      </trkpt>
      <trkpt lat="46.64503" lon="0.58049">
        <ele>67.6</ele>
        <time>2024-03-17T08:32:42Z</time>
      </trkpt>
      <trkpt lat="46.64504" lon="0.58068">
        <ele>67</ele>
        <time>2024-03-17T08:32:45Z</time>
      </trkpt>
      <trkpt lat="46.64504" lon="0.58075">
        <ele>66.8</ele>
        <time>2024-03-17T08:32:46Z</time>
      </trkpt>
      <trkpt lat="46.64508" lon="0.58094">
        <ele>66.4</ele>
        <time>2024-03-17T08:32:49Z</time>
      </trkpt>
      <trkpt lat="46.64513" lon="0.58118">
        <ele>65.2</ele>
        <time>2024-03-17T08:32:53Z</time>
      </trkpt>
      <trkpt lat="46.64511" lon="0.58142">
        <ele>64.6</ele>
        <time>2024-03-17T08:32:57Z</time>
      </trkpt>
      <trkpt lat="46.64508" lon="0.58155">
        <ele>64.2</ele>
        <time>2024-03-17T08:32:59Z</time>
      </trkpt>
      <trkpt lat="46.64504" lon="0.58186">
        <ele>63.8</ele>
        <time>2024-03-17T08:33:03Z</time>
      </trkpt>
      <trkpt lat="46.64503" lon="0.58195">
        <ele>63.6</ele>
        <time>2024-03-17T08:33:04Z</time>
      </trkpt>
      <trkpt lat="46.64503" lon="0.58205">
        <ele>63.4</ele>
        <time>2024-03-17T08:33:05Z</time>
      </trkpt>
      <trkpt lat="46.64503" lon="0.58216">
        <ele>63.2</ele>
        <time>2024-03-17T08:33:06Z</time>
      </trkpt>
      <trkpt lat="46.64502" lon="0.58248">
        <ele>62.6</ele>
        <time>2024-03-17T08:33:09Z</time>
      </trkpt>
      <trkpt lat="46.64503" lon="0.58258">
        <ele>62.4</ele>
        <time>2024-03-17T08:33:10Z</time>
      </trkpt>
      <trkpt lat="46.64508" lon="0.58286">
        <ele>62</ele>
        <time>2024-03-17T08:33:13Z</time>
      </trkpt>
      <trkpt lat="46.6451" lon="0.58295">
        <ele>62</ele>
        <time>2024-03-17T08:33:14Z</time>
      </trkpt>
      <trkpt lat="46.64522" lon="0.58362">
        <ele>61.8</ele>
        <time>2024-03-17T08:33:21Z</time>
      </trkpt>
      <trkpt lat="46.64533" lon="0.58444">
        <ele>61.8</ele>
        <time>2024-03-17T08:33:30Z</time>
      </trkpt>
      <trkpt lat="46.64539" lon="0.58501">
        <ele>61.8</ele>
        <time>2024-03-17T08:33:36Z</time>
      </trkpt>
      <trkpt lat="46.64545" lon="0.58553">
        <ele>61</ele>
        <time>2024-03-17T08:33:41Z</time>
      </trkpt>
      <trkpt lat="46.64549" lon="0.58585">
        <ele>60.2</ele>
        <time>2024-03-17T08:33:44Z</time>
      </trkpt>
      <trkpt lat="46.64551" lon="0.58595">
        <ele>60</ele>
        <time>2024-03-17T08:33:45Z</time>
      </trkpt>
      <trkpt lat="46.64561" lon="0.58668">
        <ele>58.8</ele>
        <time>2024-03-17T08:33:52Z</time>
      </trkpt>
      <trkpt lat="46.64567" lon="0.58725">
        <ele>58</ele>
        <time>2024-03-17T08:33:58Z</time>
      </trkpt>
      <trkpt lat="46.64567" lon="0.58733">
        <ele>57.8</ele>
        <time>2024-03-17T08:33:59Z</time>
      </trkpt>
      <trkpt lat="46.64565" lon="0.58747">
        <ele>57.8</ele>
        <time>2024-03-17T08:34:01Z</time>
      </trkpt>
      <trkpt lat="46.64562" lon="0.58752">
        <ele>57.6</ele>
        <time>2024-03-17T08:34:02Z</time>
      </trkpt>
      <trkpt lat="46.64558" lon="0.58756">
        <ele>57.4</ele>
        <time>2024-03-17T08:34:03Z</time>
      </trkpt>
      <trkpt lat="46.64547" lon="0.5876">
        <ele>57.6</ele>
        <time>2024-03-17T08:34:05Z</time>
      </trkpt>
      <trkpt lat="46.64504" lon="0.58773">
        <ele>58</ele>
        <time>2024-03-17T08:34:12Z</time>
      </trkpt>
      <trkpt lat="46.64462" lon="0.5879">
        <ele>58.2</ele>
        <time>2024-03-17T08:34:19Z</time>
      </trkpt>
      <trkpt lat="46.64457" lon="0.58791">
        <ele>58.4</ele>
        <time>2024-03-17T08:34:20Z</time>
      </trkpt>
      <trkpt lat="46.64444" lon="0.58791">
        <ele>58.4</ele>
        <time>2024-03-17T08:34:23Z</time>
      </trkpt>
      <trkpt lat="46.6444" lon="0.58798">
        <ele>58.4</ele>
        <time>2024-03-17T08:34:25Z</time>
      </trkpt>
      <trkpt lat="46.6444" lon="0.58803">
        <ele>58.4</ele>
        <time>2024-03-17T08:34:26Z</time>
      </trkpt>
      <trkpt lat="46.64443" lon="0.58834">
        <ele>57.4</ele>
        <time>2024-03-17T08:34:32Z</time>
      </trkpt>
      <trkpt lat="46.64448" lon="0.58853">
        <ele>57.2</ele>
        <time>2024-03-17T08:34:36Z</time>
      </trkpt>
      <trkpt lat="46.64457" lon="0.58892">
        <ele>57.8</ele>
        <time>2024-03-17T08:34:42Z</time>
      </trkpt>
      <trkpt lat="46.64462" lon="0.58906">
        <ele>57.6</ele>
        <time>2024-03-17T08:34:44Z</time>
      </trkpt>
      <trkpt lat="46.64472" lon="0.5893">
        <ele>57.6</ele>
        <time>2024-03-17T08:34:48Z</time>
      </trkpt>
      <trkpt lat="46.64476" lon="0.58944">
        <ele>57.8</ele>
        <time>2024-03-17T08:34:50Z</time>
      </trkpt>
      <trkpt lat="46.6448" lon="0.58965">
        <ele>57.8</ele>
        <time>2024-03-17T08:34:53Z</time>
      </trkpt>
      <trkpt lat="46.64487" lon="0.59008">
        <ele>58.8</ele>
        <time>2024-03-17T08:35:00Z</time>
      </trkpt>
      <trkpt lat="46.64488" lon="0.59012">
        <ele>59.4</ele>
        <time>2024-03-17T08:35:01Z</time>
      </trkpt>
      <trkpt lat="46.64493" lon="0.59018">
        <ele>60.8</ele>
        <time>2024-03-17T08:35:04Z</time>
      </trkpt>
      <trkpt lat="46.64498" lon="0.59021">
        <ele>61</ele>
        <time>2024-03-17T08:35:05Z</time>
      </trkpt>
      <trkpt lat="46.64501" lon="0.59022">
        <ele>61.8</ele>
        <time>2024-03-17T08:35:07Z</time>
      </trkpt>
      <trkpt lat="46.64508" lon="0.59023">
        <ele>62.4</ele>
        <time>2024-03-17T08:35:09Z</time>
      </trkpt>
      <trkpt lat="46.64515" lon="0.59025">
        <ele>63.2</ele>
        <time>2024-03-17T08:35:11Z</time>
      </trkpt>
      <trkpt lat="46.64525" lon="0.59027">
        <ele>64.4</ele>
        <time>2024-03-17T08:35:14Z</time>
      </trkpt>
      <trkpt lat="46.64528" lon="0.59028">
        <ele>64.6</ele>
        <time>2024-03-17T08:35:15Z</time>
      </trkpt>
      <trkpt lat="46.64536" lon="0.59029">
        <ele>65.4</ele>
        <time>2024-03-17T08:35:18Z</time>
      </trkpt>
      <trkpt lat="46.64545" lon="0.59029">
        <ele>67.2</ele>
        <time>2024-03-17T08:35:22Z</time>
      </trkpt>
      <trkpt lat="46.64552" lon="0.59029">
        <ele>68.2</ele>
        <time>2024-03-17T08:35:25Z</time>
      </trkpt>
      <trkpt lat="46.64562" lon="0.59029">
        <ele>69.6</ele>
        <time>2024-03-17T08:35:29Z</time>
      </trkpt>
      <trkpt lat="46.64565" lon="0.5903">
        <ele>69.8</ele>
        <time>2024-03-17T08:35:30Z</time>
      </trkpt>
      <trkpt lat="46.64572" lon="0.59027">
        <ele>71</ele>
        <time>2024-03-17T08:35:33Z</time>
      </trkpt>
      <trkpt lat="46.64578" lon="0.59022">
        <ele>72</ele>
        <time>2024-03-17T08:35:36Z</time>
      </trkpt>
      <trkpt lat="46.6458" lon="0.59021">
        <ele>72.2</ele>
        <time>2024-03-17T08:35:37Z</time>
      </trkpt>
      <trkpt lat="46.64586" lon="0.5902">
        <ele>73.2</ele>
        <time>2024-03-17T08:35:39Z</time>
      </trkpt>
      <trkpt lat="46.64587" lon="0.59022">
        <ele>73.4</ele>
        <time>2024-03-17T08:35:40Z</time>
      </trkpt>
      <trkpt lat="46.64588" lon="0.59024">
        <ele>73.6</ele>
        <time>2024-03-17T08:35:41Z</time>
      </trkpt>
      <trkpt lat="46.64583" lon="0.59028">
        <ele>74.2</ele>
        <time>2024-03-17T08:35:44Z</time>
      </trkpt>
      <trkpt lat="46.64581" lon="0.59029">
        <ele>74.4</ele>
        <time>2024-03-17T08:35:45Z</time>
      </trkpt>
      <trkpt lat="46.64573" lon="0.59035">
        <ele>75.4</ele>
        <time>2024-03-17T08:35:49Z</time>
      </trkpt>
      <trkpt lat="46.64564" lon="0.59041">
        <ele>76.2</ele>
        <time>2024-03-17T08:35:53Z</time>
      </trkpt>
      <trkpt lat="46.64561" lon="0.59043">
        <ele>76.6</ele>
        <time>2024-03-17T08:35:55Z</time>
      </trkpt>
      <trkpt lat="46.64554" lon="0.59046">
        <ele>77.6</ele>
        <time>2024-03-17T08:35:59Z</time>
      </trkpt>
      <trkpt lat="46.64552" lon="0.59047">
        <ele>77.8</ele>
        <time>2024-03-17T08:36:00Z</time>
      </trkpt>
      <trkpt lat="46.64544" lon="0.59053">
        <ele>78.8</ele>
        <time>2024-03-17T08:36:05Z</time>
      </trkpt>
      <trkpt lat="46.64539" lon="0.59058">
        <ele>79.2</ele>
        <time>2024-03-17T08:36:08Z</time>
      </trkpt>
      <trkpt lat="46.64532" lon="0.59064">
        <ele>80</ele>
        <time>2024-03-17T08:36:11Z</time>
      </trkpt>
      <trkpt lat="46.64526" lon="0.59072">
        <ele>80.6</ele>
        <time>2024-03-17T08:36:14Z</time>
      </trkpt>
      <trkpt lat="46.64522" lon="0.5908">
        <ele>81</ele>
        <time>2024-03-17T08:36:17Z</time>
      </trkpt>
      <trkpt lat="46.6452" lon="0.59087">
        <ele>81.4</ele>
        <time>2024-03-17T08:36:19Z</time>
      </trkpt>
      <trkpt lat="46.64517" lon="0.59099">
        <ele>82.4</ele>
        <time>2024-03-17T08:36:23Z</time>
      </trkpt>
      <trkpt lat="46.64516" lon="0.59107">
        <ele>83</ele>
        <time>2024-03-17T08:36:26Z</time>
      </trkpt>
      <trkpt lat="46.64514" lon="0.59113">
        <ele>83.6</ele>
        <time>2024-03-17T08:36:28Z</time>
      </trkpt>
      <trkpt lat="46.64509" lon="0.5913">
        <ele>84.6</ele>
        <time>2024-03-17T08:36:33Z</time>
      </trkpt>
      <trkpt lat="46.64504" lon="0.5915">
        <ele>85.6</ele>
        <time>2024-03-17T08:36:39Z</time>
      </trkpt>
      <trkpt lat="46.64498" lon="0.59173">
        <ele>86.4</ele>
        <time>2024-03-17T08:36:45Z</time>
      </trkpt>
      <trkpt lat="46.64498" lon="0.59178">
        <ele>86.6</ele>
        <time>2024-03-17T08:36:46Z</time>
      </trkpt>
      <trkpt lat="46.64499" lon="0.59202">
        <ele>87.4</ele>
        <time>2024-03-17T08:36:51Z</time>
      </trkpt>
      <trkpt lat="46.64501" lon="0.59221">
        <ele>87.6</ele>
        <time>2024-03-17T08:36:55Z</time>
      </trkpt>
      <trkpt lat="46.64506" lon="0.59239">
        <ele>88.2</ele>
        <time>2024-03-17T08:36:59Z</time>
      </trkpt>
      <trkpt lat="46.64509" lon="0.59257">
        <ele>88.6</ele>
        <time>2024-03-17T08:37:04Z</time>
      </trkpt>
      <trkpt lat="46.64506" lon="0.59263">
        <ele>88.8</ele>
        <time>2024-03-17T08:37:06Z</time>
      </trkpt>
      <trkpt lat="46.64503" lon="0.59264">
        <ele>89</ele>
        <time>2024-03-17T08:37:08Z</time>
      </trkpt>
      <trkpt lat="46.645" lon="0.59263">
        <ele>89</ele>
        <time>2024-03-17T08:37:11Z</time>
      </trkpt>
      <trkpt lat="46.645" lon="0.59262">
        <ele>89.2</ele>
        <time>2024-03-17T08:37:12Z</time>
      </trkpt>
      <trkpt lat="46.64501" lon="0.5926">
        <ele>89.4</ele>
        <time>2024-03-17T08:37:14Z</time>
      </trkpt>
      <trkpt lat="46.64502" lon="0.5926">
        <ele>89.6</ele>
        <time>2024-03-17T08:37:20Z</time>
      </trkpt>
      <trkpt lat="46.64497" lon="0.59266">
        <ele>89.6</ele>
        <time>2024-03-17T08:37:31Z</time>
      </trkpt>
      <trkpt lat="46.64496" lon="0.59266">
        <ele>89.8</ele>
        <time>2024-03-17T08:37:33Z</time>
      </trkpt>
      <trkpt lat="46.64494" lon="0.59265">
        <ele>89</ele>
        <time>2024-03-17T08:37:41Z</time>
      </trkpt>
      <trkpt lat="46.64494" lon="0.59264">
        <ele>89</ele>
        <time>2024-03-17T08:37:56Z</time>
      </trkpt>
      <trkpt lat="46.64495" lon="0.59264">
        <ele>89</ele>
        <time>2024-03-17T08:38:15Z</time>
      </trkpt>
      <trkpt lat="46.64495" lon="0.59264">
        <ele>88.8</ele>
        <time>2024-03-17T08:38:17Z</time>
      </trkpt>
      <trkpt lat="46.64495" lon="0.59263">
        <ele>89</ele>
        <time>2024-03-17T08:38:32Z</time>
      </trkpt>
      <trkpt lat="46.64497" lon="0.59264">
        <ele>89</ele>
        <time>2024-03-17T08:38:50Z</time>
      </trkpt>
      <trkpt lat="46.64498" lon="0.59266">
        <ele>89</ele>
        <time>2024-03-17T08:39:07Z</time>
      </trkpt>
      <trkpt lat="46.64499" lon="0.59266">
        <ele>89</ele>
        <time>2024-03-17T08:39:27Z</time>
      </trkpt>
      <trkpt lat="46.645" lon="0.59266">
        <ele>89</ele>
        <time>2024-03-17T08:39:41Z</time>
      </trkpt>
      <trkpt lat="46.64499" lon="0.59267">
        <ele>89</ele>
        <time>2024-03-17T08:39:58Z</time>
      </trkpt>
      <trkpt lat="46.645" lon="0.59268">
        <ele>89</ele>
        <time>2024-03-17T08:40:12Z</time>
      </trkpt>
      <trkpt lat="46.645" lon="0.59269">
        <ele>89</ele>
        <time>2024-03-17T08:40:29Z</time>
      </trkpt>
      <trkpt lat="46.645" lon="0.59269">
        <ele>89</ele>
        <time>2024-03-17T08:40:44Z</time>
      </trkpt>
      <trkpt lat="46.645" lon="0.59269">
        <ele>89</ele>
        <time>2024-03-17T08:40:45Z</time>
      </trkpt>
      <trkpt lat="46.645" lon="0.59269">
        <ele>89</ele>
        <time>2024-03-17T08:40:57Z</time>
      </trkpt>
      <trkpt lat="46.645" lon="0.59269">
        <ele>89</ele>
        <time>2024-03-17T08:41:16Z</time>
      </trkpt>
      <trkpt lat="46.64498" lon="0.59269">
        <ele>89</ele>
        <time>2024-03-17T08:41:32Z</time>
      </trkpt>
      <trkpt lat="46.64498" lon="0.59268">
        <ele>89</ele>
        <time>2024-03-17T08:41:52Z</time>
      </trkpt>
      <trkpt lat="46.64498" lon="0.59267">
        <ele>89</ele>
        <time>2024-03-17T08:42:08Z</time>
      </trkpt>
      <trkpt lat="46.64498" lon="0.59267">
        <ele>89</ele>
        <time>2024-03-17T08:42:29Z</time>
      </trkpt>
      <trkpt lat="46.64498" lon="0.59266">
        <ele>89</ele>
        <time>2024-03-17T08:42:49Z</time>
      </trkpt>
      <trkpt lat="46.64498" lon="0.59265">
        <ele>89</ele>
        <time>2024-03-17T08:43:08Z</time>
      </trkpt>
      <trkpt lat="46.64497" lon="0.59264">
        <ele>89</ele>
        <time>2024-03-17T08:43:28Z</time>
      </trkpt>
      <trkpt lat="46.64496" lon="0.5927">
        <ele>89</ele>
        <time>2024-03-17T08:43:42Z</time>
      </trkpt>
      <trkpt lat="46.64496" lon="0.5927">
        <ele>89</ele>
        <time>2024-03-17T08:43:59Z</time>
      </trkpt>
      <trkpt lat="46.64495" lon="0.59271">
        <ele>89</ele>
        <time>2024-03-17T08:44:09Z</time>
      </trkpt>
      <trkpt lat="46.64496" lon="0.59272">
        <ele>89</ele>
        <time>2024-03-17T08:44:18Z</time>
      </trkpt>
      <trkpt lat="46.64493" lon="0.59273">
        <ele>89</ele>
        <time>2024-03-17T08:44:38Z</time>
      </trkpt>
      <trkpt lat="46.64494" lon="0.59273">
        <ele>89</ele>
        <time>2024-03-17T08:44:55Z</time>
      </trkpt>
      <trkpt lat="46.64494" lon="0.59273">
        <ele>89</ele>
        <time>2024-03-17T08:45:13Z</time>
      </trkpt>
      <trkpt lat="46.64493" lon="0.59271">
        <ele>89</ele>
        <time>2024-03-17T08:45:32Z</time>
      </trkpt>
      <trkpt lat="46.64493" lon="0.5927">
        <ele>89</ele>
        <time>2024-03-17T08:45:50Z</time>
      </trkpt>
      <trkpt lat="46.64492" lon="0.59269">
        <ele>89</ele>
        <time>2024-03-17T08:46:09Z</time>
      </trkpt>
      <trkpt lat="46.64491" lon="0.59269">
        <ele>89</ele>
        <time>2024-03-17T08:46:24Z</time>
      </trkpt>
      <trkpt lat="46.64491" lon="0.59268">
        <ele>89</ele>
        <time>2024-03-17T08:46:42Z</time>
      </trkpt>
      <trkpt lat="46.64492" lon="0.59267">
        <ele>89</ele>
        <time>2024-03-17T08:46:56Z</time>
      </trkpt>
      <trkpt lat="46.64491" lon="0.59267">
        <ele>89</ele>
        <time>2024-03-17T08:47:16Z</time>
      </trkpt>
      <trkpt lat="46.64491" lon="0.59266">
        <ele>89</ele>
        <time>2024-03-17T08:47:32Z</time>
      </trkpt>
      <trkpt lat="46.64492" lon="0.59264">
        <ele>89</ele>
        <time>2024-03-17T08:47:37Z</time>
      </trkpt>
      <trkpt lat="46.64494" lon="0.59258">
        <ele>89</ele>
        <time>2024-03-17T08:47:51Z</time>
      </trkpt>
      <trkpt lat="46.645" lon="0.59263">
        <ele>89</ele>
        <time>2024-03-17T08:48:01Z</time>
      </trkpt>
      <trkpt lat="46.64504" lon="0.59268">
        <ele>89</ele>
        <time>2024-03-17T08:48:13Z</time>
      </trkpt>
      <trkpt lat="46.64515" lon="0.59277">
        <ele>89</ele>
        <time>2024-03-17T08:48:22Z</time>
      </trkpt>
      <trkpt lat="46.64522" lon="0.59298">
        <ele>89.4</ele>
        <time>2024-03-17T08:48:28Z</time>
      </trkpt>
      <trkpt lat="46.64519" lon="0.59317">
        <ele>90.2</ele>
        <time>2024-03-17T08:48:32Z</time>
      </trkpt>
      <trkpt lat="46.6451" lon="0.59334">
        <ele>90.8</ele>
        <time>2024-03-17T08:48:37Z</time>
      </trkpt>
      <trkpt lat="46.64508" lon="0.59337">
        <ele>91</ele>
        <time>2024-03-17T08:48:38Z</time>
      </trkpt>
      <trkpt lat="46.64497" lon="0.59351">
        <ele>92.2</ele>
        <time>2024-03-17T08:48:43Z</time>
      </trkpt>
      <trkpt lat="46.64494" lon="0.59353">
        <ele>92.4</ele>
        <time>2024-03-17T08:48:44Z</time>
      </trkpt>
      <trkpt lat="46.64482" lon="0.59363">
        <ele>93.2</ele>
        <time>2024-03-17T08:48:49Z</time>
      </trkpt>
      <trkpt lat="46.64476" lon="0.59369">
        <ele>94</ele>
        <time>2024-03-17T08:48:52Z</time>
      </trkpt>
      <trkpt lat="46.64473" lon="0.59373">
        <ele>94.2</ele>
        <time>2024-03-17T08:48:54Z</time>
      </trkpt>
      <trkpt lat="46.64462" lon="0.59385">
        <ele>95.2</ele>
        <time>2024-03-17T08:48:59Z</time>
      </trkpt>
      <trkpt lat="46.6446" lon="0.59388">
        <ele>95.4</ele>
        <time>2024-03-17T08:49:00Z</time>
      </trkpt>
      <trkpt lat="46.64443" lon="0.59402">
        <ele>96.4</ele>
        <time>2024-03-17T08:49:07Z</time>
      </trkpt>
      <trkpt lat="46.6444" lon="0.59404">
        <ele>96.8</ele>
        <time>2024-03-17T08:49:08Z</time>
      </trkpt>
      <trkpt lat="46.6443" lon="0.5941">
        <ele>97.4</ele>
        <time>2024-03-17T08:49:11Z</time>
      </trkpt>
      <trkpt lat="46.64418" lon="0.59418">
        <ele>98</ele>
        <time>2024-03-17T08:49:15Z</time>
      </trkpt>
      <trkpt lat="46.64405" lon="0.59425">
        <ele>98.8</ele>
        <time>2024-03-17T08:49:19Z</time>
      </trkpt>
      <trkpt lat="46.64391" lon="0.59431">
        <ele>99.2</ele>
        <time>2024-03-17T08:49:23Z</time>
      </trkpt>
      <trkpt lat="46.64376" lon="0.59439">
        <ele>99.8</ele>
        <time>2024-03-17T08:49:27Z</time>
      </trkpt>
      <trkpt lat="46.64368" lon="0.59442">
        <ele>100</ele>
        <time>2024-03-17T08:49:29Z</time>
      </trkpt>
      <trkpt lat="46.64364" lon="0.59444">
        <ele>100.2</ele>
        <time>2024-03-17T08:49:30Z</time>
      </trkpt>
      <trkpt lat="46.64347" lon="0.59451">
        <ele>100.4</ele>
        <time>2024-03-17T08:49:34Z</time>
      </trkpt>
      <trkpt lat="46.6434" lon="0.59453">
        <ele>100.4</ele>
        <time>2024-03-17T08:49:36Z</time>
      </trkpt>
      <trkpt lat="46.64327" lon="0.59457">
        <ele>100.4</ele>
        <time>2024-03-17T08:49:40Z</time>
      </trkpt>
      <trkpt lat="46.64325" lon="0.59459">
        <ele>100.4</ele>
        <time>2024-03-17T08:49:41Z</time>
      </trkpt>
      <trkpt lat="46.64322" lon="0.59471">
        <ele>100.6</ele>
        <time>2024-03-17T08:49:44Z</time>
      </trkpt>
      <trkpt lat="46.64317" lon="0.59494">
        <ele>100.8</ele>
        <time>2024-03-17T08:49:49Z</time>
      </trkpt>
      <trkpt lat="46.64313" lon="0.59508">
        <ele>101.4</ele>
        <time>2024-03-17T08:49:52Z</time>
      </trkpt>
      <trkpt lat="46.64308" lon="0.5953">
        <ele>102</ele>
        <time>2024-03-17T08:49:56Z</time>
      </trkpt>
      <trkpt lat="46.64302" lon="0.59556">
        <ele>102.4</ele>
        <time>2024-03-17T08:50:01Z</time>
      </trkpt>
      <trkpt lat="46.64294" lon="0.59589">
        <ele>103</ele>
        <time>2024-03-17T08:50:07Z</time>
      </trkpt>
      <trkpt lat="46.6429" lon="0.59604">
        <ele>104.2</ele>
        <time>2024-03-17T08:50:10Z</time>
      </trkpt>
      <trkpt lat="46.64289" lon="0.59609">
        <ele>104.4</ele>
        <time>2024-03-17T08:50:11Z</time>
      </trkpt>
      <trkpt lat="46.64286" lon="0.59624">
        <ele>105.2</ele>
        <time>2024-03-17T08:50:14Z</time>
      </trkpt>
      <trkpt lat="46.64281" lon="0.59643">
        <ele>106.2</ele>
        <time>2024-03-17T08:50:18Z</time>
      </trkpt>
      <trkpt lat="46.6428" lon="0.59648">
        <ele>106.4</ele>
        <time>2024-03-17T08:50:19Z</time>
      </trkpt>
      <trkpt lat="46.64271" lon="0.59684">
        <ele>107.6</ele>
        <time>2024-03-17T08:50:27Z</time>
      </trkpt>
      <trkpt lat="46.64269" lon="0.59693">
        <ele>108.2</ele>
        <time>2024-03-17T08:50:29Z</time>
      </trkpt>
      <trkpt lat="46.64266" lon="0.59712">
        <ele>108.8</ele>
        <time>2024-03-17T08:50:33Z</time>
      </trkpt>
      <trkpt lat="46.64264" lon="0.5973">
        <ele>109.2</ele>
        <time>2024-03-17T08:50:37Z</time>
      </trkpt>
      <trkpt lat="46.64264" lon="0.59739">
        <ele>109.8</ele>
        <time>2024-03-17T08:50:39Z</time>
      </trkpt>
      <trkpt lat="46.64266" lon="0.59756">
        <ele>111</ele>
        <time>2024-03-17T08:50:43Z</time>
      </trkpt>
      <trkpt lat="46.64267" lon="0.5976">
        <ele>111.4</ele>
        <time>2024-03-17T08:50:44Z</time>
      </trkpt>
      <trkpt lat="46.64272" lon="0.59781">
        <ele>112.2</ele>
        <time>2024-03-17T08:50:50Z</time>
      </trkpt>
      <trkpt lat="46.64273" lon="0.59785">
        <ele>112.6</ele>
        <time>2024-03-17T08:50:51Z</time>
      </trkpt>
      <trkpt lat="46.64274" lon="0.59792">
        <ele>113.2</ele>
        <time>2024-03-17T08:50:53Z</time>
      </trkpt>
      <trkpt lat="46.64279" lon="0.59817">
        <ele>114</ele>
        <time>2024-03-17T08:51:00Z</time>
      </trkpt>
      <trkpt lat="46.6428" lon="0.59824">
        <ele>114.4</ele>
        <time>2024-03-17T08:51:02Z</time>
      </trkpt>
      <trkpt lat="46.64283" lon="0.59837">
        <ele>115.6</ele>
        <time>2024-03-17T08:51:07Z</time>
      </trkpt>
      <trkpt lat="46.64285" lon="0.59851">
        <ele>116.6</ele>
        <time>2024-03-17T08:51:12Z</time>
      </trkpt>
      <trkpt lat="46.64287" lon="0.59861">
        <ele>117.4</ele>
        <time>2024-03-17T08:51:15Z</time>
      </trkpt>
      <trkpt lat="46.64287" lon="0.59865">
        <ele>117.8</ele>
        <time>2024-03-17T08:51:16Z</time>
      </trkpt>
      <trkpt lat="46.64288" lon="0.59879">
        <ele>119</ele>
        <time>2024-03-17T08:51:20Z</time>
      </trkpt>
      <trkpt lat="46.64289" lon="0.59886">
        <ele>119.4</ele>
        <time>2024-03-17T08:51:22Z</time>
      </trkpt>
      <trkpt lat="46.64292" lon="0.59904">
        <ele>120</ele>
        <time>2024-03-17T08:51:27Z</time>
      </trkpt>
      <trkpt lat="46.64293" lon="0.59915">
        <ele>120.4</ele>
        <time>2024-03-17T08:51:30Z</time>
      </trkpt>
      <trkpt lat="46.64295" lon="0.59929">
        <ele>121.2</ele>
        <time>2024-03-17T08:51:34Z</time>
      </trkpt>
      <trkpt lat="46.643" lon="0.59954">
        <ele>122.2</ele>
        <time>2024-03-17T08:51:41Z</time>
      </trkpt>
      <trkpt lat="46.64301" lon="0.59962">
        <ele>122.6</ele>
        <time>2024-03-17T08:51:43Z</time>
      </trkpt>
      <trkpt lat="46.64304" lon="0.59979">
        <ele>123.4</ele>
        <time>2024-03-17T08:51:47Z</time>
      </trkpt>
      <trkpt lat="46.64306" lon="0.59995">
        <ele>124</ele>
        <time>2024-03-17T08:51:51Z</time>
      </trkpt>
      <trkpt lat="46.6431" lon="0.60017">
        <ele>124.6</ele>
        <time>2024-03-17T08:51:56Z</time>
      </trkpt>
      <trkpt lat="46.64312" lon="0.60032">
        <ele>124.8</ele>
        <time>2024-03-17T08:51:59Z</time>
      </trkpt>
      <trkpt lat="46.6432" lon="0.60082">
        <ele>125.6</ele>
        <time>2024-03-17T08:52:08Z</time>
      </trkpt>
      <trkpt lat="46.64318" lon="0.60094">
        <ele>125.8</ele>
        <time>2024-03-17T08:52:10Z</time>
      </trkpt>
      <trkpt lat="46.64314" lon="0.60104">
        <ele>126</ele>
        <time>2024-03-17T08:52:12Z</time>
      </trkpt>
      <trkpt lat="46.64292" lon="0.60146">
        <ele>125.2</ele>
        <time>2024-03-17T08:52:20Z</time>
      </trkpt>
      <trkpt lat="46.64267" lon="0.60189">
        <ele>125.2</ele>
        <time>2024-03-17T08:52:27Z</time>
      </trkpt>
      <trkpt lat="46.64246" lon="0.60226">
        <ele>124.2</ele>
        <time>2024-03-17T08:52:32Z</time>
      </trkpt>
      <trkpt lat="46.6423" lon="0.60256">
        <ele>123.2</ele>
        <time>2024-03-17T08:52:36Z</time>
      </trkpt>
      <trkpt lat="46.64226" lon="0.60263">
        <ele>123.2</ele>
        <time>2024-03-17T08:52:37Z</time>
      </trkpt>
      <trkpt lat="46.64211" lon="0.6029">
        <ele>122</ele>
        <time>2024-03-17T08:52:41Z</time>
      </trkpt>
      <trkpt lat="46.64208" lon="0.60295">
        <ele>121.8</ele>
        <time>2024-03-17T08:52:42Z</time>
      </trkpt>
      <trkpt lat="46.64187" lon="0.6033">
        <ele>121.6</ele>
        <time>2024-03-17T08:52:49Z</time>
      </trkpt>
      <trkpt lat="46.64181" lon="0.6034">
        <ele>121.6</ele>
        <time>2024-03-17T08:52:50Z</time>
      </trkpt>
      <trkpt lat="46.64168" lon="0.60361">
        <ele>121.2</ele>
        <time>2024-03-17T08:52:55Z</time>
      </trkpt>
      <trkpt lat="46.6416" lon="0.60374">
        <ele>121</ele>
        <time>2024-03-17T08:52:57Z</time>
      </trkpt>
      <trkpt lat="46.64143" lon="0.60402">
        <ele>120.4</ele>
        <time>2024-03-17T08:53:01Z</time>
      </trkpt>
      <trkpt lat="46.64134" lon="0.60417">
        <ele>119.8</ele>
        <time>2024-03-17T08:53:03Z</time>
      </trkpt>
      <trkpt lat="46.64119" lon="0.60438">
        <ele>119.4</ele>
        <time>2024-03-17T08:53:06Z</time>
      </trkpt>
      <trkpt lat="46.64095" lon="0.60467">
        <ele>118.4</ele>
        <time>2024-03-17T08:53:10Z</time>
      </trkpt>
      <trkpt lat="46.64089" lon="0.60475">
        <ele>117.2</ele>
        <time>2024-03-17T08:53:11Z</time>
      </trkpt>
      <trkpt lat="46.64083" lon="0.60483">
        <ele>116.2</ele>
        <time>2024-03-17T08:53:12Z</time>
      </trkpt>
      <trkpt lat="46.64076" lon="0.60491">
        <ele>115.4</ele>
        <time>2024-03-17T08:53:13Z</time>
      </trkpt>
      <trkpt lat="46.64071" lon="0.60497">
        <ele>115.2</ele>
        <time>2024-03-17T08:53:14Z</time>
      </trkpt>
      <trkpt lat="46.64067" lon="0.60504">
        <ele>114.8</ele>
        <time>2024-03-17T08:53:15Z</time>
      </trkpt>
      <trkpt lat="46.64065" lon="0.60511">
        <ele>114.2</ele>
        <time>2024-03-17T08:53:16Z</time>
      </trkpt>
      <trkpt lat="46.64065" lon="0.60517">
        <ele>113.8</ele>
        <time>2024-03-17T08:53:17Z</time>
      </trkpt>
      <trkpt lat="46.64068" lon="0.60538">
        <ele>112.6</ele>
        <time>2024-03-17T08:53:20Z</time>
      </trkpt>
      <trkpt lat="46.64077" lon="0.6057">
        <ele>112.2</ele>
        <time>2024-03-17T08:53:24Z</time>
      </trkpt>
      <trkpt lat="46.64083" lon="0.60601">
        <ele>112.6</ele>
        <time>2024-03-17T08:53:28Z</time>
      </trkpt>
      <trkpt lat="46.64084" lon="0.6061">
        <ele>112.6</ele>
        <time>2024-03-17T08:53:29Z</time>
      </trkpt>
      <trkpt lat="46.64086" lon="0.60653">
        <ele>112.4</ele>
        <time>2024-03-17T08:53:34Z</time>
      </trkpt>
      <trkpt lat="46.64087" lon="0.60668">
        <ele>111.4</ele>
        <time>2024-03-17T08:53:36Z</time>
      </trkpt>
      <trkpt lat="46.64088" lon="0.60682">
        <ele>110</ele>
        <time>2024-03-17T08:53:38Z</time>
      </trkpt>
      <trkpt lat="46.64089" lon="0.60695">
        <ele>109.6</ele>
        <time>2024-03-17T08:53:40Z</time>
      </trkpt>
      <trkpt lat="46.6409" lon="0.60724">
        <ele>109</ele>
        <time>2024-03-17T08:53:44Z</time>
      </trkpt>
      <trkpt lat="46.64091" lon="0.6074">
        <ele>108.2</ele>
        <time>2024-03-17T08:53:46Z</time>
      </trkpt>
      <trkpt lat="46.64092" lon="0.60749">
        <ele>108</ele>
        <time>2024-03-17T08:53:47Z</time>
      </trkpt>
      <trkpt lat="46.64095" lon="0.60765">
        <ele>106.8</ele>
        <time>2024-03-17T08:53:49Z</time>
      </trkpt>
      <trkpt lat="46.64097" lon="0.60771">
        <ele>106.4</ele>
        <time>2024-03-17T08:53:50Z</time>
      </trkpt>
      <trkpt lat="46.64099" lon="0.60777">
        <ele>106.2</ele>
        <time>2024-03-17T08:53:51Z</time>
      </trkpt>
      <trkpt lat="46.64099" lon="0.60777">
        <ele>105.8</ele>
        <time>2024-03-17T08:53:53Z</time>
      </trkpt>
      <trkpt lat="46.64105" lon="0.60793">
        <ele>105.6</ele>
        <time>2024-03-17T08:53:54Z</time>
      </trkpt>
      <trkpt lat="46.64106" lon="0.60802">
        <ele>105.6</ele>
        <time>2024-03-17T08:53:56Z</time>
      </trkpt>
      <trkpt lat="46.64105" lon="0.6081">
        <ele>105</ele>
        <time>2024-03-17T08:53:58Z</time>
      </trkpt>
      <trkpt lat="46.64099" lon="0.60822">
        <ele>105.4</ele>
        <time>2024-03-17T08:54:01Z</time>
      </trkpt>
      <trkpt lat="46.64096" lon="0.60829">
        <ele>105.8</ele>
        <time>2024-03-17T08:54:03Z</time>
      </trkpt>
      <trkpt lat="46.64087" lon="0.60842">
        <ele>106.6</ele>
        <time>2024-03-17T08:54:06Z</time>
      </trkpt>
      <trkpt lat="46.64085" lon="0.60846">
        <ele>107</ele>
        <time>2024-03-17T08:54:07Z</time>
      </trkpt>
      <trkpt lat="46.64081" lon="0.60851">
        <ele>107.4</ele>
        <time>2024-03-17T08:54:08Z</time>
      </trkpt>
      <trkpt lat="46.6407" lon="0.60863">
        <ele>108.2</ele>
        <time>2024-03-17T08:54:11Z</time>
      </trkpt>
      <trkpt lat="46.64063" lon="0.60871">
        <ele>108.6</ele>
        <time>2024-03-17T08:54:14Z</time>
      </trkpt>
      <trkpt lat="46.64058" lon="0.60878">
        <ele>109.2</ele>
        <time>2024-03-17T08:54:17Z</time>
      </trkpt>
      <trkpt lat="46.64055" lon="0.60882">
        <ele>109.6</ele>
        <time>2024-03-17T08:54:19Z</time>
      </trkpt>
      <trkpt lat="46.64044" lon="0.60884">
        <ele>110.2</ele>
        <time>2024-03-17T08:54:24Z</time>
      </trkpt>
      <trkpt lat="46.64039" lon="0.60879">
        <ele>110.4</ele>
        <time>2024-03-17T08:54:26Z</time>
      </trkpt>
      <trkpt lat="46.64027" lon="0.60868">
        <ele>110.2</ele>
        <time>2024-03-17T08:54:29Z</time>
      </trkpt>
      <trkpt lat="46.6402" lon="0.60858">
        <ele>108.8</ele>
        <time>2024-03-17T08:54:31Z</time>
      </trkpt>
      <trkpt lat="46.64015" lon="0.60845">
        <ele>107.6</ele>
        <time>2024-03-17T08:54:33Z</time>
      </trkpt>
      <trkpt lat="46.64014" lon="0.60839">
        <ele>107</ele>
        <time>2024-03-17T08:54:34Z</time>
      </trkpt>
      <trkpt lat="46.64011" lon="0.60834">
        <ele>106.6</ele>
        <time>2024-03-17T08:54:35Z</time>
      </trkpt>
      <trkpt lat="46.64008" lon="0.60827">
        <ele>106.2</ele>
        <time>2024-03-17T08:54:36Z</time>
      </trkpt>
      <trkpt lat="46.64001" lon="0.60816">
        <ele>105.4</ele>
        <time>2024-03-17T08:54:38Z</time>
      </trkpt>
      <trkpt lat="46.63995" lon="0.60811">
        <ele>105.2</ele>
        <time>2024-03-17T08:54:39Z</time>
      </trkpt>
      <trkpt lat="46.63985" lon="0.60804">
        <ele>105.2</ele>
        <time>2024-03-17T08:54:41Z</time>
      </trkpt>
      <trkpt lat="46.63972" lon="0.608">
        <ele>105.4</ele>
        <time>2024-03-17T08:54:43Z</time>
      </trkpt>
      <trkpt lat="46.63961" lon="0.608">
        <ele>106.4</ele>
        <time>2024-03-17T08:54:45Z</time>
      </trkpt>
      <trkpt lat="46.63945" lon="0.60792">
        <ele>107</ele>
        <time>2024-03-17T08:54:48Z</time>
      </trkpt>
      <trkpt lat="46.63939" lon="0.60788">
        <ele>107.2</ele>
        <time>2024-03-17T08:54:49Z</time>
      </trkpt>
      <trkpt lat="46.63929" lon="0.60783">
        <ele>107.6</ele>
        <time>2024-03-17T08:54:51Z</time>
      </trkpt>
      <trkpt lat="46.63913" lon="0.60779">
        <ele>107.8</ele>
        <time>2024-03-17T08:54:54Z</time>
      </trkpt>
      <trkpt lat="46.63902" lon="0.60778">
        <ele>107.8</ele>
        <time>2024-03-17T08:54:56Z</time>
      </trkpt>
      <trkpt lat="46.63885" lon="0.60784">
        <ele>107.6</ele>
        <time>2024-03-17T08:54:59Z</time>
      </trkpt>
      <trkpt lat="46.63873" lon="0.60786">
        <ele>107.4</ele>
        <time>2024-03-17T08:55:00Z</time>
      </trkpt>
      <trkpt lat="46.63861" lon="0.60787">
        <ele>106.4</ele>
        <time>2024-03-17T08:55:03Z</time>
      </trkpt>
      <trkpt lat="46.63854" lon="0.60788">
        <ele>106.2</ele>
        <time>2024-03-17T08:55:04Z</time>
      </trkpt>
      <trkpt lat="46.63837" lon="0.608">
        <ele>105.4</ele>
        <time>2024-03-17T08:55:07Z</time>
      </trkpt>
      <trkpt lat="46.63832" lon="0.60805">
        <ele>105.2</ele>
        <time>2024-03-17T08:55:08Z</time>
      </trkpt>
      <trkpt lat="46.63809" lon="0.60827">
        <ele>104.4</ele>
        <time>2024-03-17T08:55:13Z</time>
      </trkpt>
      <trkpt lat="46.63788" lon="0.60847">
        <ele>103.4</ele>
        <time>2024-03-17T08:55:17Z</time>
      </trkpt>
      <trkpt lat="46.63781" lon="0.60852">
        <ele>102.6</ele>
        <time>2024-03-17T08:55:18Z</time>
      </trkpt>
      <trkpt lat="46.63769" lon="0.6086">
        <ele>101.4</ele>
        <time>2024-03-17T08:55:20Z</time>
      </trkpt>
      <trkpt lat="46.63763" lon="0.60861">
        <ele>100.8</ele>
        <time>2024-03-17T08:55:21Z</time>
      </trkpt>
      <trkpt lat="46.63757" lon="0.60861">
        <ele>100.2</ele>
        <time>2024-03-17T08:55:22Z</time>
      </trkpt>
      <trkpt lat="46.63753" lon="0.60862">
        <ele>100</ele>
        <time>2024-03-17T08:55:23Z</time>
      </trkpt>
      <trkpt lat="46.63749" lon="0.60864">
        <ele>98.8</ele>
        <time>2024-03-17T08:55:24Z</time>
      </trkpt>
      <trkpt lat="46.63747" lon="0.60866">
        <ele>98</ele>
        <time>2024-03-17T08:55:25Z</time>
      </trkpt>
      <trkpt lat="46.63745" lon="0.60869">
        <ele>97.6</ele>
        <time>2024-03-17T08:55:26Z</time>
      </trkpt>
      <trkpt lat="46.63744" lon="0.60872">
        <ele>97.6</ele>
        <time>2024-03-17T08:55:27Z</time>
      </trkpt>
      <trkpt lat="46.63744" lon="0.60877">
        <ele>98</ele>
        <time>2024-03-17T08:55:29Z</time>
      </trkpt>
      <trkpt lat="46.63743" lon="0.6089">
        <ele>98.8</ele>
        <time>2024-03-17T08:55:34Z</time>
      </trkpt>
      <trkpt lat="46.63742" lon="0.60892">
        <ele>98.8</ele>
        <time>2024-03-17T08:55:35Z</time>
      </trkpt>
      <trkpt lat="46.63738" lon="0.60898">
        <ele>100</ele>
        <time>2024-03-17T08:55:38Z</time>
      </trkpt>
      <trkpt lat="46.63736" lon="0.609">
        <ele>100.2</ele>
        <time>2024-03-17T08:55:39Z</time>
      </trkpt>
      <trkpt lat="46.63732" lon="0.60899">
        <ele>101.6</ele>
        <time>2024-03-17T08:55:41Z</time>
      </trkpt>
      <trkpt lat="46.63728" lon="0.60898">
        <ele>102.6</ele>
        <time>2024-03-17T08:55:44Z</time>
      </trkpt>
      <trkpt lat="46.63727" lon="0.60897">
        <ele>102.8</ele>
        <time>2024-03-17T08:55:45Z</time>
      </trkpt>
      <trkpt lat="46.63722" lon="0.60894">
        <ele>103.8</ele>
        <time>2024-03-17T08:55:49Z</time>
      </trkpt>
      <trkpt lat="46.63717" lon="0.6089">
        <ele>104.4</ele>
        <time>2024-03-17T08:55:52Z</time>
      </trkpt>
      <trkpt lat="46.63711" lon="0.60889">
        <ele>104.8</ele>
        <time>2024-03-17T08:55:55Z</time>
      </trkpt>
      <trkpt lat="46.63707" lon="0.60889">
        <ele>105.6</ele>
        <time>2024-03-17T08:55:58Z</time>
      </trkpt>
      <trkpt lat="46.63703" lon="0.60886">
        <ele>105.8</ele>
        <time>2024-03-17T08:56:01Z</time>
      </trkpt>
      <trkpt lat="46.63697" lon="0.60882">
        <ele>106</ele>
        <time>2024-03-17T08:56:05Z</time>
      </trkpt>
      <trkpt lat="46.63686" lon="0.60876">
        <ele>107</ele>
        <time>2024-03-17T08:56:11Z</time>
      </trkpt>
      <trkpt lat="46.6367" lon="0.60868">
        <ele>107.8</ele>
        <time>2024-03-17T08:56:18Z</time>
      </trkpt>
      <trkpt lat="46.63664" lon="0.60866">
        <ele>108</ele>
        <time>2024-03-17T08:56:20Z</time>
      </trkpt>
      <trkpt lat="46.63653" lon="0.60864">
        <ele>108.2</ele>
        <time>2024-03-17T08:56:24Z</time>
      </trkpt>
      <trkpt lat="46.63635" lon="0.60865">
        <ele>109</ele>
        <time>2024-03-17T08:56:29Z</time>
      </trkpt>
      <trkpt lat="46.63632" lon="0.60865">
        <ele>109</ele>
        <time>2024-03-17T08:56:30Z</time>
      </trkpt>
      <trkpt lat="46.63614" lon="0.60871">
        <ele>109.2</ele>
        <time>2024-03-17T08:56:35Z</time>
      </trkpt>
      <trkpt lat="46.63594" lon="0.60884">
        <ele>109.4</ele>
        <time>2024-03-17T08:56:41Z</time>
      </trkpt>
      <trkpt lat="46.63585" lon="0.60889">
        <ele>110.2</ele>
        <time>2024-03-17T08:56:44Z</time>
      </trkpt>
      <trkpt lat="46.63575" lon="0.60899">
        <ele>111</ele>
        <time>2024-03-17T08:56:47Z</time>
      </trkpt>
      <trkpt lat="46.63568" lon="0.60905">
        <ele>111.4</ele>
        <time>2024-03-17T08:56:49Z</time>
      </trkpt>
      <trkpt lat="46.63566" lon="0.60908">
        <ele>111.4</ele>
        <time>2024-03-17T08:56:50Z</time>
      </trkpt>
      <trkpt lat="46.63556" lon="0.60916">
        <ele>111.6</ele>
        <time>2024-03-17T08:56:53Z</time>
      </trkpt>
      <trkpt lat="46.63548" lon="0.60922">
        <ele>111.4</ele>
        <time>2024-03-17T08:56:55Z</time>
      </trkpt>
      <trkpt lat="46.63538" lon="0.60933">
        <ele>111.2</ele>
        <time>2024-03-17T08:56:58Z</time>
      </trkpt>
      <trkpt lat="46.63522" lon="0.60952">
        <ele>110.4</ele>
        <time>2024-03-17T08:57:03Z</time>
      </trkpt>
      <trkpt lat="46.63516" lon="0.6096">
        <ele>110.4</ele>
        <time>2024-03-17T08:57:05Z</time>
      </trkpt>
      <trkpt lat="46.63513" lon="0.60964">
        <ele>110.6</ele>
        <time>2024-03-17T08:57:06Z</time>
      </trkpt>
      <trkpt lat="46.63511" lon="0.60969">
        <ele>110.6</ele>
        <time>2024-03-17T08:57:07Z</time>
      </trkpt>
      <trkpt lat="46.63504" lon="0.60991">
        <ele>111.4</ele>
        <time>2024-03-17T08:57:11Z</time>
      </trkpt>
      <trkpt lat="46.635" lon="0.6101">
        <ele>111.4</ele>
        <time>2024-03-17T08:57:15Z</time>
      </trkpt>
      <trkpt lat="46.63496" lon="0.61021">
        <ele>111.4</ele>
        <time>2024-03-17T08:57:17Z</time>
      </trkpt>
      <trkpt lat="46.63483" lon="0.61036">
        <ele>111.4</ele>
        <time>2024-03-17T08:57:20Z</time>
      </trkpt>
      <trkpt lat="46.63475" lon="0.6105">
        <ele>111.2</ele>
        <time>2024-03-17T08:57:22Z</time>
      </trkpt>
      <trkpt lat="46.6347" lon="0.61063">
        <ele>110.8</ele>
        <time>2024-03-17T08:57:24Z</time>
      </trkpt>
      <trkpt lat="46.63468" lon="0.6107">
        <ele>110.6</ele>
        <time>2024-03-17T08:57:25Z</time>
      </trkpt>
      <trkpt lat="46.63463" lon="0.61085">
        <ele>110.2</ele>
        <time>2024-03-17T08:57:27Z</time>
      </trkpt>
      <trkpt lat="46.63463" lon="0.61099">
        <ele>109.6</ele>
        <time>2024-03-17T08:57:29Z</time>
      </trkpt>
      <trkpt lat="46.6347" lon="0.61139">
        <ele>109.4</ele>
        <time>2024-03-17T08:57:34Z</time>
      </trkpt>
      <trkpt lat="46.63475" lon="0.61168">
        <ele>109.6</ele>
        <time>2024-03-17T08:57:38Z</time>
      </trkpt>
      <trkpt lat="46.63477" lon="0.61182">
        <ele>109.4</ele>
        <time>2024-03-17T08:57:40Z</time>
      </trkpt>
      <trkpt lat="46.63478" lon="0.61188">
        <ele>109.2</ele>
        <time>2024-03-17T08:57:41Z</time>
      </trkpt>
      <trkpt lat="46.6348" lon="0.61199">
        <ele>109</ele>
        <time>2024-03-17T08:57:43Z</time>
      </trkpt>
      <trkpt lat="46.63481" lon="0.61208">
        <ele>108.4</ele>
        <time>2024-03-17T08:57:45Z</time>
      </trkpt>
      <trkpt lat="46.63481" lon="0.61213">
        <ele>108</ele>
        <time>2024-03-17T08:57:46Z</time>
      </trkpt>
      <trkpt lat="46.6348" lon="0.61218">
        <ele>107.6</ele>
        <time>2024-03-17T08:57:47Z</time>
      </trkpt>
      <trkpt lat="46.63479" lon="0.61223">
        <ele>107.2</ele>
        <time>2024-03-17T08:57:48Z</time>
      </trkpt>
      <trkpt lat="46.63477" lon="0.61225">
        <ele>106.8</ele>
        <time>2024-03-17T08:57:49Z</time>
      </trkpt>
      <trkpt lat="46.63471" lon="0.61229">
        <ele>106.2</ele>
        <time>2024-03-17T08:57:51Z</time>
      </trkpt>
      <trkpt lat="46.63464" lon="0.61233">
        <ele>106</ele>
        <time>2024-03-17T08:57:53Z</time>
      </trkpt>
      <trkpt lat="46.63456" lon="0.61233">
        <ele>106</ele>
        <time>2024-03-17T08:57:55Z</time>
      </trkpt>
      <trkpt lat="46.63454" lon="0.61234">
        <ele>106</ele>
        <time>2024-03-17T08:57:56Z</time>
      </trkpt>
      <trkpt lat="46.63449" lon="0.61233">
        <ele>106.2</ele>
        <time>2024-03-17T08:57:58Z</time>
      </trkpt>
      <trkpt lat="46.63443" lon="0.61233">
        <ele>106.4</ele>
        <time>2024-03-17T08:58:01Z</time>
      </trkpt>
      <trkpt lat="46.63442" lon="0.61233">
        <ele>106.4</ele>
        <time>2024-03-17T08:58:02Z</time>
      </trkpt>
      <trkpt lat="46.63429" lon="0.61232">
        <ele>107.2</ele>
        <time>2024-03-17T08:58:09Z</time>
      </trkpt>
      <trkpt lat="46.63421" lon="0.61232">
        <ele>107.8</ele>
        <time>2024-03-17T08:58:13Z</time>
      </trkpt>
      <trkpt lat="46.63416" lon="0.61233">
        <ele>108.6</ele>
        <time>2024-03-17T08:58:16Z</time>
      </trkpt>
      <trkpt lat="46.63412" lon="0.61233">
        <ele>109</ele>
        <time>2024-03-17T08:58:19Z</time>
      </trkpt>
      <trkpt lat="46.63407" lon="0.61232">
        <ele>109.6</ele>
        <time>2024-03-17T08:58:23Z</time>
      </trkpt>
      <trkpt lat="46.63395" lon="0.61228">
        <ele>109.8</ele>
        <time>2024-03-17T08:58:29Z</time>
      </trkpt>
      <trkpt lat="46.63391" lon="0.61224">
        <ele>110</ele>
        <time>2024-03-17T08:58:31Z</time>
      </trkpt>
      <trkpt lat="46.63386" lon="0.61215">
        <ele>110.2</ele>
        <time>2024-03-17T08:58:34Z</time>
      </trkpt>
      <trkpt lat="46.63382" lon="0.6121">
        <ele>110.4</ele>
        <time>2024-03-17T08:58:36Z</time>
      </trkpt>
      <trkpt lat="46.6337" lon="0.61196">
        <ele>110.2</ele>
        <time>2024-03-17T08:58:40Z</time>
      </trkpt>
      <trkpt lat="46.63364" lon="0.6119">
        <ele>110.2</ele>
        <time>2024-03-17T08:58:42Z</time>
      </trkpt>
      <trkpt lat="46.63343" lon="0.61173">
        <ele>109.8</ele>
        <time>2024-03-17T08:58:47Z</time>
      </trkpt>
      <trkpt lat="46.63337" lon="0.61164">
        <ele>109.2</ele>
        <time>2024-03-17T08:58:49Z</time>
      </trkpt>
      <trkpt lat="46.63334" lon="0.61156">
        <ele>109</ele>
        <time>2024-03-17T08:58:51Z</time>
      </trkpt>
      <trkpt lat="46.63333" lon="0.61153">
        <ele>109</ele>
        <time>2024-03-17T08:58:52Z</time>
      </trkpt>
      <trkpt lat="46.63334" lon="0.61145">
        <ele>108.8</ele>
        <time>2024-03-17T08:58:54Z</time>
      </trkpt>
      <trkpt lat="46.63336" lon="0.61135">
        <ele>108.6</ele>
        <time>2024-03-17T08:58:56Z</time>
      </trkpt>
      <trkpt lat="46.63336" lon="0.61127">
        <ele>108.6</ele>
        <time>2024-03-17T08:58:58Z</time>
      </trkpt>
      <trkpt lat="46.63338" lon="0.61113">
        <ele>108.6</ele>
        <time>2024-03-17T08:59:01Z</time>
      </trkpt>
      <trkpt lat="46.6334" lon="0.61103">
        <ele>108.6</ele>
        <time>2024-03-17T08:59:03Z</time>
      </trkpt>
      <trkpt lat="46.63344" lon="0.61079">
        <ele>108.8</ele>
        <time>2024-03-17T08:59:07Z</time>
      </trkpt>
      <trkpt lat="46.63349" lon="0.61062">
        <ele>108.8</ele>
        <time>2024-03-17T08:59:10Z</time>
      </trkpt>
      <trkpt lat="46.63353" lon="0.6105">
        <ele>108.6</ele>
        <time>2024-03-17T08:59:12Z</time>
      </trkpt>
      <trkpt lat="46.63354" lon="0.61044">
        <ele>108.4</ele>
        <time>2024-03-17T08:59:13Z</time>
      </trkpt>
      <trkpt lat="46.63355" lon="0.61039">
        <ele>108.4</ele>
        <time>2024-03-17T08:59:14Z</time>
      </trkpt>
      <trkpt lat="46.63359" lon="0.61009">
        <ele>108.2</ele>
        <time>2024-03-17T08:59:18Z</time>
      </trkpt>
      <trkpt lat="46.63359" lon="0.60999">
        <ele>107.8</ele>
        <time>2024-03-17T08:59:19Z</time>
      </trkpt>
      <trkpt lat="46.63363" lon="0.60971">
        <ele>107.6</ele>
        <time>2024-03-17T08:59:22Z</time>
      </trkpt>
      <trkpt lat="46.63365" lon="0.60952">
        <ele>107.2</ele>
        <time>2024-03-17T08:59:24Z</time>
      </trkpt>
      <trkpt lat="46.63367" lon="0.60936">
        <ele>106.8</ele>
        <time>2024-03-17T08:59:26Z</time>
      </trkpt>
      <trkpt lat="46.63368" lon="0.60927">
        <ele>106.6</ele>
        <time>2024-03-17T08:59:27Z</time>
      </trkpt>
      <trkpt lat="46.63374" lon="0.60888">
        <ele>106.2</ele>
        <time>2024-03-17T08:59:31Z</time>
      </trkpt>
      <trkpt lat="46.63376" lon="0.60879">
        <ele>106.2</ele>
        <time>2024-03-17T08:59:32Z</time>
      </trkpt>
      <trkpt lat="46.63379" lon="0.60871">
        <ele>104.6</ele>
        <time>2024-03-17T08:59:33Z</time>
      </trkpt>
      <trkpt lat="46.63381" lon="0.60863">
        <ele>103</ele>
        <time>2024-03-17T08:59:34Z</time>
      </trkpt>
      <trkpt lat="46.63382" lon="0.60854">
        <ele>101.8</ele>
        <time>2024-03-17T08:59:35Z</time>
      </trkpt>
      <trkpt lat="46.63384" lon="0.60846">
        <ele>100.8</ele>
        <time>2024-03-17T08:59:36Z</time>
      </trkpt>
      <trkpt lat="46.63385" lon="0.60835">
        <ele>100</ele>
        <time>2024-03-17T08:59:37Z</time>
      </trkpt>
      <trkpt lat="46.63387" lon="0.60827">
        <ele>99.6</ele>
        <time>2024-03-17T08:59:38Z</time>
      </trkpt>
      <trkpt lat="46.63388" lon="0.60819">
        <ele>98.4</ele>
        <time>2024-03-17T08:59:39Z</time>
      </trkpt>
      <trkpt lat="46.63389" lon="0.60812">
        <ele>97</ele>
        <time>2024-03-17T08:59:40Z</time>
      </trkpt>
      <trkpt lat="46.63391" lon="0.60807">
        <ele>96</ele>
        <time>2024-03-17T08:59:41Z</time>
      </trkpt>
      <trkpt lat="46.63392" lon="0.60802">
        <ele>95.2</ele>
        <time>2024-03-17T08:59:42Z</time>
      </trkpt>
      <trkpt lat="46.63393" lon="0.60797">
        <ele>94.4</ele>
        <time>2024-03-17T08:59:43Z</time>
      </trkpt>
      <trkpt lat="46.63395" lon="0.60783">
        <ele>93.4</ele>
        <time>2024-03-17T08:59:46Z</time>
      </trkpt>
      <trkpt lat="46.63397" lon="0.60767">
        <ele>91.4</ele>
        <time>2024-03-17T08:59:49Z</time>
      </trkpt>
      <trkpt lat="46.63399" lon="0.60759">
        <ele>90.8</ele>
        <time>2024-03-17T08:59:50Z</time>
      </trkpt>
      <trkpt lat="46.63401" lon="0.60751">
        <ele>90.4</ele>
        <time>2024-03-17T08:59:51Z</time>
      </trkpt>
      <trkpt lat="46.63408" lon="0.60723">
        <ele>88.6</ele>
        <time>2024-03-17T08:59:54Z</time>
      </trkpt>
      <trkpt lat="46.63412" lon="0.60706">
        <ele>87.4</ele>
        <time>2024-03-17T08:59:56Z</time>
      </trkpt>
      <trkpt lat="46.63413" lon="0.60681">
        <ele>86.6</ele>
        <time>2024-03-17T08:59:59Z</time>
      </trkpt>
      <trkpt lat="46.63413" lon="0.60672">
        <ele>86.2</ele>
        <time>2024-03-17T09:00:00Z</time>
      </trkpt>
      <trkpt lat="46.63411" lon="0.60639">
        <ele>85.2</ele>
        <time>2024-03-17T09:00:04Z</time>
      </trkpt>
      <trkpt lat="46.6341" lon="0.60622">
        <ele>85</ele>
        <time>2024-03-17T09:00:06Z</time>
      </trkpt>
      <trkpt lat="46.63407" lon="0.60584">
        <ele>83.2</ele>
        <time>2024-03-17T09:00:10Z</time>
      </trkpt>
      <trkpt lat="46.63404" lon="0.60557">
        <ele>82</ele>
        <time>2024-03-17T09:00:13Z</time>
      </trkpt>
      <trkpt lat="46.63398" lon="0.6054">
        <ele>81.8</ele>
        <time>2024-03-17T09:00:15Z</time>
      </trkpt>
      <trkpt lat="46.63388" lon="0.60523">
        <ele>81.6</ele>
        <time>2024-03-17T09:00:18Z</time>
      </trkpt>
      <trkpt lat="46.6338" lon="0.60517">
        <ele>81.6</ele>
        <time>2024-03-17T09:00:20Z</time>
      </trkpt>
      <trkpt lat="46.63372" lon="0.60511">
        <ele>82.2</ele>
        <time>2024-03-17T09:00:22Z</time>
      </trkpt>
      <trkpt lat="46.63359" lon="0.60497">
        <ele>81.4</ele>
        <time>2024-03-17T09:00:26Z</time>
      </trkpt>
      <trkpt lat="46.63355" lon="0.60493">
        <ele>81</ele>
        <time>2024-03-17T09:00:27Z</time>
      </trkpt>
      <trkpt lat="46.63343" lon="0.60478">
        <ele>79.4</ele>
        <time>2024-03-17T09:00:30Z</time>
      </trkpt>
      <trkpt lat="46.63335" lon="0.60467">
        <ele>79</ele>
        <time>2024-03-17T09:00:32Z</time>
      </trkpt>
      <trkpt lat="46.63316" lon="0.60437">
        <ele>77.2</ele>
        <time>2024-03-17T09:00:37Z</time>
      </trkpt>
      <trkpt lat="46.63313" lon="0.6043">
        <ele>76.4</ele>
        <time>2024-03-17T09:00:38Z</time>
      </trkpt>
      <trkpt lat="46.63308" lon="0.60422">
        <ele>76</ele>
        <time>2024-03-17T09:00:39Z</time>
      </trkpt>
      <trkpt lat="46.63299" lon="0.60396">
        <ele>75.2</ele>
        <time>2024-03-17T09:00:42Z</time>
      </trkpt>
      <trkpt lat="46.63298" lon="0.60389">
        <ele>75</ele>
        <time>2024-03-17T09:00:43Z</time>
      </trkpt>
      <trkpt lat="46.63297" lon="0.60375">
        <ele>75</ele>
        <time>2024-03-17T09:00:45Z</time>
      </trkpt>
      <trkpt lat="46.63293" lon="0.60351">
        <ele>74.8</ele>
        <time>2024-03-17T09:00:48Z</time>
      </trkpt>
      <trkpt lat="46.63288" lon="0.60328">
        <ele>73.6</ele>
        <time>2024-03-17T09:00:51Z</time>
      </trkpt>
      <trkpt lat="46.63284" lon="0.60315">
        <ele>73.2</ele>
        <time>2024-03-17T09:00:53Z</time>
      </trkpt>
      <trkpt lat="46.63276" lon="0.60303">
        <ele>73.2</ele>
        <time>2024-03-17T09:00:55Z</time>
      </trkpt>
      <trkpt lat="46.63267" lon="0.60293">
        <ele>73.2</ele>
        <time>2024-03-17T09:00:57Z</time>
      </trkpt>
      <trkpt lat="46.63257" lon="0.6028">
        <ele>73.2</ele>
        <time>2024-03-17T09:00:59Z</time>
      </trkpt>
      <trkpt lat="46.63243" lon="0.60261">
        <ele>72.8</ele>
        <time>2024-03-17T09:01:02Z</time>
      </trkpt>
      <trkpt lat="46.63237" lon="0.60254">
        <ele>72.4</ele>
        <time>2024-03-17T09:01:03Z</time>
      </trkpt>
      <trkpt lat="46.63202" lon="0.6021">
        <ele>71</ele>
        <time>2024-03-17T09:01:10Z</time>
      </trkpt>
      <trkpt lat="46.63194" lon="0.60196">
        <ele>70.4</ele>
        <time>2024-03-17T09:01:12Z</time>
      </trkpt>
      <trkpt lat="46.63189" lon="0.60181">
        <ele>69.8</ele>
        <time>2024-03-17T09:01:14Z</time>
      </trkpt>
      <trkpt lat="46.63187" lon="0.60173">
        <ele>69.6</ele>
        <time>2024-03-17T09:01:15Z</time>
      </trkpt>
      <trkpt lat="46.63174" lon="0.60131">
        <ele>69.6</ele>
        <time>2024-03-17T09:01:20Z</time>
      </trkpt>
      <trkpt lat="46.63163" lon="0.60085">
        <ele>69</ele>
        <time>2024-03-17T09:01:24Z</time>
      </trkpt>
      <trkpt lat="46.63161" lon="0.60073">
        <ele>68.6</ele>
        <time>2024-03-17T09:01:25Z</time>
      </trkpt>
      <trkpt lat="46.63156" lon="0.60021">
        <ele>67.6</ele>
        <time>2024-03-17T09:01:29Z</time>
      </trkpt>
      <trkpt lat="46.63152" lon="0.59996">
        <ele>67.4</ele>
        <time>2024-03-17T09:01:31Z</time>
      </trkpt>
      <trkpt lat="46.63139" lon="0.59957">
        <ele>66.8</ele>
        <time>2024-03-17T09:01:34Z</time>
      </trkpt>
      <trkpt lat="46.63129" lon="0.59933">
        <ele>66.2</ele>
        <time>2024-03-17T09:01:36Z</time>
      </trkpt>
      <trkpt lat="46.63116" lon="0.59898">
        <ele>65</ele>
        <time>2024-03-17T09:01:39Z</time>
      </trkpt>
      <trkpt lat="46.63111" lon="0.59888">
        <ele>64.6</ele>
        <time>2024-03-17T09:01:40Z</time>
      </trkpt>
      <trkpt lat="46.63088" lon="0.5984">
        <ele>64</ele>
        <time>2024-03-17T09:01:44Z</time>
      </trkpt>
      <trkpt lat="46.63085" lon="0.59828">
        <ele>63.8</ele>
        <time>2024-03-17T09:01:45Z</time>
      </trkpt>
      <trkpt lat="46.63074" lon="0.59772">
        <ele>62.8</ele>
        <time>2024-03-17T09:01:50Z</time>
      </trkpt>
      <trkpt lat="46.6307" lon="0.59751">
        <ele>61.6</ele>
        <time>2024-03-17T09:01:52Z</time>
      </trkpt>
      <trkpt lat="46.63068" lon="0.59741">
        <ele>61</ele>
        <time>2024-03-17T09:01:53Z</time>
      </trkpt>
      <trkpt lat="46.63066" lon="0.59733">
        <ele>60.8</ele>
        <time>2024-03-17T09:01:54Z</time>
      </trkpt>
      <trkpt lat="46.63063" lon="0.59727">
        <ele>60.6</ele>
        <time>2024-03-17T09:01:55Z</time>
      </trkpt>
      <trkpt lat="46.6306" lon="0.59725">
        <ele>59.8</ele>
        <time>2024-03-17T09:01:56Z</time>
      </trkpt>
      <trkpt lat="46.63055" lon="0.59727">
        <ele>59.2</ele>
        <time>2024-03-17T09:01:58Z</time>
      </trkpt>
      <trkpt lat="46.63053" lon="0.59731">
        <ele>59</ele>
        <time>2024-03-17T09:01:59Z</time>
      </trkpt>
      <trkpt lat="46.63051" lon="0.59756">
        <ele>59</ele>
        <time>2024-03-17T09:02:04Z</time>
      </trkpt>
      <trkpt lat="46.63056" lon="0.59789">
        <ele>60.8</ele>
        <time>2024-03-17T09:02:10Z</time>
      </trkpt>
      <trkpt lat="46.63057" lon="0.59795">
        <ele>61</ele>
        <time>2024-03-17T09:02:11Z</time>
      </trkpt>
      <trkpt lat="46.63065" lon="0.59819">
        <ele>62.2</ele>
        <time>2024-03-17T09:02:15Z</time>
      </trkpt>
      <trkpt lat="46.63067" lon="0.59825">
        <ele>62.4</ele>
        <time>2024-03-17T09:02:16Z</time>
      </trkpt>
      <trkpt lat="46.63068" lon="0.59831">
        <ele>62.4</ele>
        <time>2024-03-17T09:02:17Z</time>
      </trkpt>
      <trkpt lat="46.63071" lon="0.5985">
        <ele>62.8</ele>
        <time>2024-03-17T09:02:21Z</time>
      </trkpt>
      <trkpt lat="46.63073" lon="0.59861">
        <ele>63</ele>
        <time>2024-03-17T09:02:23Z</time>
      </trkpt>
      <trkpt lat="46.63076" lon="0.59871">
        <ele>63.2</ele>
        <time>2024-03-17T09:02:25Z</time>
      </trkpt>
      <trkpt lat="46.63083" lon="0.59888">
        <ele>63.2</ele>
        <time>2024-03-17T09:02:28Z</time>
      </trkpt>
      <trkpt lat="46.63098" lon="0.59925">
        <ele>63.6</ele>
        <time>2024-03-17T09:02:35Z</time>
      </trkpt>
      <trkpt lat="46.63104" lon="0.59948">
        <ele>64.2</ele>
        <time>2024-03-17T09:02:40Z</time>
      </trkpt>
      <trkpt lat="46.63106" lon="0.59957">
        <ele>64.6</ele>
        <time>2024-03-17T09:02:42Z</time>
      </trkpt>
      <trkpt lat="46.63109" lon="0.59969">
        <ele>65.4</ele>
        <time>2024-03-17T09:02:45Z</time>
      </trkpt>
      <trkpt lat="46.63113" lon="0.59984">
        <ele>66.2</ele>
        <time>2024-03-17T09:02:49Z</time>
      </trkpt>
      <trkpt lat="46.63114" lon="0.59988">
        <ele>66.4</ele>
        <time>2024-03-17T09:02:50Z</time>
      </trkpt>
      <trkpt lat="46.63119" lon="0.60005">
        <ele>66.6</ele>
        <time>2024-03-17T09:02:54Z</time>
      </trkpt>
      <trkpt lat="46.63127" lon="0.60035">
        <ele>67.2</ele>
        <time>2024-03-17T09:03:01Z</time>
      </trkpt>
      <trkpt lat="46.63128" lon="0.60048">
        <ele>67.6</ele>
        <time>2024-03-17T09:03:04Z</time>
      </trkpt>
      <trkpt lat="46.63131" lon="0.6006">
        <ele>68</ele>
        <time>2024-03-17T09:03:07Z</time>
      </trkpt>
      <trkpt lat="46.63137" lon="0.60084">
        <ele>68.6</ele>
        <time>2024-03-17T09:03:14Z</time>
      </trkpt>
      <trkpt lat="46.6314" lon="0.60094">
        <ele>68.8</ele>
        <time>2024-03-17T09:03:17Z</time>
      </trkpt>
      <trkpt lat="46.63144" lon="0.60115">
        <ele>69.4</ele>
        <time>2024-03-17T09:03:22Z</time>
      </trkpt>
      <trkpt lat="46.63145" lon="0.60134">
        <ele>69.8</ele>
        <time>2024-03-17T09:03:26Z</time>
      </trkpt>
      <trkpt lat="46.63143" lon="0.6014">
        <ele>70.2</ele>
        <time>2024-03-17T09:03:27Z</time>
      </trkpt>
      <trkpt lat="46.63144" lon="0.60155">
        <ele>70.6</ele>
        <time>2024-03-17T09:03:31Z</time>
      </trkpt>
      <trkpt lat="46.63144" lon="0.60163">
        <ele>71</ele>
        <time>2024-03-17T09:03:33Z</time>
      </trkpt>
      <trkpt lat="46.63144" lon="0.60171">
        <ele>71</ele>
        <time>2024-03-17T09:03:35Z</time>
      </trkpt>
      <trkpt lat="46.63152" lon="0.60195">
        <ele>71.8</ele>
        <time>2024-03-17T09:03:41Z</time>
      </trkpt>
      <trkpt lat="46.63153" lon="0.60198">
        <ele>72</ele>
        <time>2024-03-17T09:03:42Z</time>
      </trkpt>
      <trkpt lat="46.63157" lon="0.60214">
        <ele>73.6</ele>
        <time>2024-03-17T09:03:48Z</time>
      </trkpt>
      <trkpt lat="46.63161" lon="0.60229">
        <ele>74.8</ele>
        <time>2024-03-17T09:03:53Z</time>
      </trkpt>
      <trkpt lat="46.63162" lon="0.60234">
        <ele>75.2</ele>
        <time>2024-03-17T09:03:55Z</time>
      </trkpt>
      <trkpt lat="46.63164" lon="0.60238">
        <ele>75.8</ele>
        <time>2024-03-17T09:03:57Z</time>
      </trkpt>
      <trkpt lat="46.63169" lon="0.60256">
        <ele>76.6</ele>
        <time>2024-03-17T09:04:03Z</time>
      </trkpt>
      <trkpt lat="46.6317" lon="0.60259">
        <ele>76.8</ele>
        <time>2024-03-17T09:04:04Z</time>
      </trkpt>
      <trkpt lat="46.63172" lon="0.60267">
        <ele>77.4</ele>
        <time>2024-03-17T09:04:08Z</time>
      </trkpt>
      <trkpt lat="46.63173" lon="0.60269">
        <ele>78</ele>
        <time>2024-03-17T09:04:09Z</time>
      </trkpt>
      <trkpt lat="46.63179" lon="0.60279">
        <ele>78.4</ele>
        <time>2024-03-17T09:04:14Z</time>
      </trkpt>
      <trkpt lat="46.63185" lon="0.60296">
        <ele>79</ele>
        <time>2024-03-17T09:04:20Z</time>
      </trkpt>
      <trkpt lat="46.63187" lon="0.60298">
        <ele>79.2</ele>
        <time>2024-03-17T09:04:21Z</time>
      </trkpt>
      <trkpt lat="46.6319" lon="0.60308">
        <ele>79.4</ele>
        <time>2024-03-17T09:04:25Z</time>
      </trkpt>
      <trkpt lat="46.63192" lon="0.60311">
        <ele>79.8</ele>
        <time>2024-03-17T09:04:27Z</time>
      </trkpt>
      <trkpt lat="46.63193" lon="0.60315">
        <ele>80.2</ele>
        <time>2024-03-17T09:04:29Z</time>
      </trkpt>
      <trkpt lat="46.63196" lon="0.60323">
        <ele>81.2</ele>
        <time>2024-03-17T09:04:33Z</time>
      </trkpt>
      <trkpt lat="46.63196" lon="0.60326">
        <ele>81.4</ele>
        <time>2024-03-17T09:04:34Z</time>
      </trkpt>
      <trkpt lat="46.63199" lon="0.60345">
        <ele>82.2</ele>
        <time>2024-03-17T09:04:43Z</time>
      </trkpt>
      <trkpt lat="46.63198" lon="0.60347">
        <ele>82.4</ele>
        <time>2024-03-17T09:04:44Z</time>
      </trkpt>
      <trkpt lat="46.63197" lon="0.60355">
        <ele>83.4</ele>
        <time>2024-03-17T09:04:48Z</time>
      </trkpt>
      <trkpt lat="46.63197" lon="0.6036">
        <ele>83.8</ele>
        <time>2024-03-17T09:04:50Z</time>
      </trkpt>
      <trkpt lat="46.63199" lon="0.60376">
        <ele>84.6</ele>
        <time>2024-03-17T09:04:57Z</time>
      </trkpt>
      <trkpt lat="46.63201" lon="0.60387">
        <ele>85.8</ele>
        <time>2024-03-17T09:05:03Z</time>
      </trkpt>
      <trkpt lat="46.63201" lon="0.60389">
        <ele>86</ele>
        <time>2024-03-17T09:05:04Z</time>
      </trkpt>
      <trkpt lat="46.63202" lon="0.60397">
        <ele>87</ele>
        <time>2024-03-17T09:05:09Z</time>
      </trkpt>
      <trkpt lat="46.63203" lon="0.60402">
        <ele>87.4</ele>
        <time>2024-03-17T09:05:12Z</time>
      </trkpt>
      <trkpt lat="46.63202" lon="0.60408">
        <ele>88.2</ele>
        <time>2024-03-17T09:05:15Z</time>
      </trkpt>
      <trkpt lat="46.63202" lon="0.60415">
        <ele>89.2</ele>
        <time>2024-03-17T09:05:19Z</time>
      </trkpt>
      <trkpt lat="46.632" lon="0.60428">
        <ele>90.4</ele>
        <time>2024-03-17T09:05:25Z</time>
      </trkpt>
      <trkpt lat="46.63199" lon="0.60436">
        <ele>91.2</ele>
        <time>2024-03-17T09:05:29Z</time>
      </trkpt>
      <trkpt lat="46.63199" lon="0.6044">
        <ele>91.4</ele>
        <time>2024-03-17T09:05:31Z</time>
      </trkpt>
      <trkpt lat="46.63196" lon="0.6045">
        <ele>92.2</ele>
        <time>2024-03-17T09:05:36Z</time>
      </trkpt>
      <trkpt lat="46.63195" lon="0.60454">
        <ele>92.6</ele>
        <time>2024-03-17T09:05:38Z</time>
      </trkpt>
      <trkpt lat="46.63194" lon="0.60463">
        <ele>93.4</ele>
        <time>2024-03-17T09:05:42Z</time>
      </trkpt>
      <trkpt lat="46.63193" lon="0.60468">
        <ele>93.6</ele>
        <time>2024-03-17T09:05:44Z</time>
      </trkpt>
      <trkpt lat="46.63192" lon="0.60483">
        <ele>94.6</ele>
        <time>2024-03-17T09:05:50Z</time>
      </trkpt>
      <trkpt lat="46.63191" lon="0.60503">
        <ele>95.6</ele>
        <time>2024-03-17T09:05:59Z</time>
      </trkpt>
      <trkpt lat="46.63191" lon="0.60506">
        <ele>95.8</ele>
        <time>2024-03-17T09:06:00Z</time>
      </trkpt>
      <trkpt lat="46.6319" lon="0.60519">
        <ele>96.4</ele>
        <time>2024-03-17T09:06:06Z</time>
      </trkpt>
      <trkpt lat="46.63188" lon="0.60523">
        <ele>96.8</ele>
        <time>2024-03-17T09:06:08Z</time>
      </trkpt>
      <trkpt lat="46.63187" lon="0.60526">
        <ele>97</ele>
        <time>2024-03-17T09:06:10Z</time>
      </trkpt>
      <trkpt lat="46.63184" lon="0.60532">
        <ele>97.2</ele>
        <time>2024-03-17T09:06:13Z</time>
      </trkpt>
      <trkpt lat="46.63182" lon="0.60537">
        <ele>97.8</ele>
        <time>2024-03-17T09:06:15Z</time>
      </trkpt>
      <trkpt lat="46.63178" lon="0.60543">
        <ele>98.6</ele>
        <time>2024-03-17T09:06:19Z</time>
      </trkpt>
      <trkpt lat="46.63178" lon="0.60544">
        <ele>98.8</ele>
        <time>2024-03-17T09:06:20Z</time>
      </trkpt>
      <trkpt lat="46.63175" lon="0.60549">
        <ele>99.2</ele>
        <time>2024-03-17T09:06:23Z</time>
      </trkpt>
      <trkpt lat="46.63171" lon="0.6056">
        <ele>99.6</ele>
        <time>2024-03-17T09:06:27Z</time>
      </trkpt>
      <trkpt lat="46.63168" lon="0.60567">
        <ele>100</ele>
        <time>2024-03-17T09:06:30Z</time>
      </trkpt>
      <trkpt lat="46.63166" lon="0.60579">
        <ele>101.2</ele>
        <time>2024-03-17T09:06:35Z</time>
      </trkpt>
      <trkpt lat="46.63165" lon="0.60585">
        <ele>101.4</ele>
        <time>2024-03-17T09:06:37Z</time>
      </trkpt>
      <trkpt lat="46.63165" lon="0.6059">
        <ele>101.8</ele>
        <time>2024-03-17T09:06:39Z</time>
      </trkpt>
      <trkpt lat="46.63165" lon="0.60596">
        <ele>102.2</ele>
        <time>2024-03-17T09:06:41Z</time>
      </trkpt>
      <trkpt lat="46.63166" lon="0.60601">
        <ele>102.6</ele>
        <time>2024-03-17T09:06:43Z</time>
      </trkpt>
      <trkpt lat="46.63168" lon="0.60612">
        <ele>103.2</ele>
        <time>2024-03-17T09:06:47Z</time>
      </trkpt>
      <trkpt lat="46.6317" lon="0.60623">
        <ele>103.8</ele>
        <time>2024-03-17T09:06:51Z</time>
      </trkpt>
      <trkpt lat="46.63174" lon="0.60637">
        <ele>104.4</ele>
        <time>2024-03-17T09:06:56Z</time>
      </trkpt>
      <trkpt lat="46.63177" lon="0.60642">
        <ele>104.8</ele>
        <time>2024-03-17T09:06:58Z</time>
      </trkpt>
      <trkpt lat="46.63183" lon="0.60662">
        <ele>105.2</ele>
        <time>2024-03-17T09:07:04Z</time>
      </trkpt>
      <trkpt lat="46.63185" lon="0.60671">
        <ele>105.4</ele>
        <time>2024-03-17T09:07:06Z</time>
      </trkpt>
      <trkpt lat="46.63184" lon="0.60686">
        <ele>106</ele>
        <time>2024-03-17T09:07:09Z</time>
      </trkpt>
      <trkpt lat="46.6318" lon="0.60711">
        <ele>106.2</ele>
        <time>2024-03-17T09:07:15Z</time>
      </trkpt>
      <trkpt lat="46.63177" lon="0.6072">
        <ele>106.6</ele>
        <time>2024-03-17T09:07:17Z</time>
      </trkpt>
      <trkpt lat="46.63175" lon="0.60733">
        <ele>106.6</ele>
        <time>2024-03-17T09:07:20Z</time>
      </trkpt>
      <trkpt lat="46.63172" lon="0.60764">
        <ele>107</ele>
        <time>2024-03-17T09:07:26Z</time>
      </trkpt>
      <trkpt lat="46.63168" lon="0.60783">
        <ele>106.8</ele>
        <time>2024-03-17T09:07:29Z</time>
      </trkpt>
      <trkpt lat="46.6317" lon="0.60794">
        <ele>106.4</ele>
        <time>2024-03-17T09:07:31Z</time>
      </trkpt>
      <trkpt lat="46.63171" lon="0.60808">
        <ele>105.8</ele>
        <time>2024-03-17T09:07:33Z</time>
      </trkpt>
      <trkpt lat="46.63174" lon="0.60814">
        <ele>105.4</ele>
        <time>2024-03-17T09:07:34Z</time>
      </trkpt>
      <trkpt lat="46.63176" lon="0.60821">
        <ele>105.2</ele>
        <time>2024-03-17T09:07:35Z</time>
      </trkpt>
      <trkpt lat="46.63179" lon="0.60826">
        <ele>104.8</ele>
        <time>2024-03-17T09:07:36Z</time>
      </trkpt>
      <trkpt lat="46.63186" lon="0.60833">
        <ele>104.4</ele>
        <time>2024-03-17T09:07:38Z</time>
      </trkpt>
      <trkpt lat="46.63189" lon="0.60836">
        <ele>104.2</ele>
        <time>2024-03-17T09:07:39Z</time>
      </trkpt>
      <trkpt lat="46.63192" lon="0.6084">
        <ele>104</ele>
        <time>2024-03-17T09:07:40Z</time>
      </trkpt>
      <trkpt lat="46.63194" lon="0.60846">
        <ele>102.2</ele>
        <time>2024-03-17T09:07:41Z</time>
      </trkpt>
      <trkpt lat="46.63196" lon="0.60851">
        <ele>100.8</ele>
        <time>2024-03-17T09:07:42Z</time>
      </trkpt>
      <trkpt lat="46.63196" lon="0.60857">
        <ele>100</ele>
        <time>2024-03-17T09:07:43Z</time>
      </trkpt>
      <trkpt lat="46.63197" lon="0.60862">
        <ele>99.4</ele>
        <time>2024-03-17T09:07:44Z</time>
      </trkpt>
      <trkpt lat="46.63199" lon="0.6087">
        <ele>98.4</ele>
        <time>2024-03-17T09:07:46Z</time>
      </trkpt>
      <trkpt lat="46.63199" lon="0.60875">
        <ele>98.2</ele>
        <time>2024-03-17T09:07:47Z</time>
      </trkpt>
      <trkpt lat="46.63197" lon="0.60899">
        <ele>98.6</ele>
        <time>2024-03-17T09:07:52Z</time>
      </trkpt>
      <trkpt lat="46.63196" lon="0.60919">
        <ele>98.6</ele>
        <time>2024-03-17T09:07:57Z</time>
      </trkpt>
      <trkpt lat="46.63197" lon="0.60937">
        <ele>99.4</ele>
        <time>2024-03-17T09:08:01Z</time>
      </trkpt>
      <trkpt lat="46.63196" lon="0.60947">
        <ele>99.6</ele>
        <time>2024-03-17T09:08:03Z</time>
      </trkpt>
      <trkpt lat="46.63194" lon="0.60971">
        <ele>100.4</ele>
        <time>2024-03-17T09:08:09Z</time>
      </trkpt>
      <trkpt lat="46.63193" lon="0.60995">
        <ele>100.6</ele>
        <time>2024-03-17T09:08:15Z</time>
      </trkpt>
      <trkpt lat="46.63199" lon="0.61024">
        <ele>101.2</ele>
        <time>2024-03-17T09:08:22Z</time>
      </trkpt>
      <trkpt lat="46.63202" lon="0.61037">
        <ele>101.6</ele>
        <time>2024-03-17T09:08:25Z</time>
      </trkpt>
      <trkpt lat="46.63204" lon="0.61053">
        <ele>101.8</ele>
        <time>2024-03-17T09:08:29Z</time>
      </trkpt>
      <trkpt lat="46.63205" lon="0.61071">
        <ele>102.4</ele>
        <time>2024-03-17T09:08:34Z</time>
      </trkpt>
      <trkpt lat="46.63204" lon="0.61074">
        <ele>102.6</ele>
        <time>2024-03-17T09:08:35Z</time>
      </trkpt>
      <trkpt lat="46.63203" lon="0.61076">
        <ele>102.6</ele>
        <time>2024-03-17T09:08:36Z</time>
      </trkpt>
      <trkpt lat="46.63199" lon="0.61081">
        <ele>102.6</ele>
        <time>2024-03-17T09:08:38Z</time>
      </trkpt>
      <trkpt lat="46.63197" lon="0.61082">
        <ele>102.8</ele>
        <time>2024-03-17T09:08:39Z</time>
      </trkpt>
      <trkpt lat="46.63192" lon="0.61087">
        <ele>103</ele>
        <time>2024-03-17T09:08:42Z</time>
      </trkpt>
      <trkpt lat="46.63192" lon="0.6109">
        <ele>102.8</ele>
        <time>2024-03-17T09:08:43Z</time>
      </trkpt>
      <trkpt lat="46.63196" lon="0.61104">
        <ele>102.6</ele>
        <time>2024-03-17T09:08:47Z</time>
      </trkpt>
      <trkpt lat="46.63198" lon="0.61127">
        <ele>102.8</ele>
        <time>2024-03-17T09:08:53Z</time>
      </trkpt>
      <trkpt lat="46.63198" lon="0.61133">
        <ele>103.6</ele>
        <time>2024-03-17T09:08:55Z</time>
      </trkpt>
      <trkpt lat="46.63197" lon="0.61135">
        <ele>103.8</ele>
        <time>2024-03-17T09:08:56Z</time>
      </trkpt>
      <trkpt lat="46.63194" lon="0.61142">
        <ele>104.4</ele>
        <time>2024-03-17T09:08:59Z</time>
      </trkpt>
      <trkpt lat="46.6319" lon="0.61148">
        <ele>104.4</ele>
        <time>2024-03-17T09:09:02Z</time>
      </trkpt>
      <trkpt lat="46.63186" lon="0.61155">
        <ele>104.4</ele>
        <time>2024-03-17T09:09:04Z</time>
      </trkpt>
      <trkpt lat="46.63179" lon="0.61174">
        <ele>104.6</ele>
        <time>2024-03-17T09:09:09Z</time>
      </trkpt>
      <trkpt lat="46.63175" lon="0.61185">
        <ele>104.8</ele>
        <time>2024-03-17T09:09:12Z</time>
      </trkpt>
      <trkpt lat="46.6317" lon="0.61197">
        <ele>105</ele>
        <time>2024-03-17T09:09:15Z</time>
      </trkpt>
      <trkpt lat="46.63162" lon="0.61224">
        <ele>104.8</ele>
        <time>2024-03-17T09:09:22Z</time>
      </trkpt>
      <trkpt lat="46.63156" lon="0.6125">
        <ele>105.2</ele>
        <time>2024-03-17T09:09:28Z</time>
      </trkpt>
      <trkpt lat="46.63149" lon="0.61271">
        <ele>105.6</ele>
        <time>2024-03-17T09:09:33Z</time>
      </trkpt>
      <trkpt lat="46.63136" lon="0.61293">
        <ele>105.8</ele>
        <time>2024-03-17T09:09:39Z</time>
      </trkpt>
      <trkpt lat="46.6312" lon="0.61317">
        <ele>106</ele>
        <time>2024-03-17T09:09:46Z</time>
      </trkpt>
      <trkpt lat="46.63105" lon="0.61328">
        <ele>105.8</ele>
        <time>2024-03-17T09:09:51Z</time>
      </trkpt>
      <trkpt lat="46.63096" lon="0.61339">
        <ele>105.8</ele>
        <time>2024-03-17T09:09:56Z</time>
      </trkpt>
      <trkpt lat="46.63095" lon="0.61339">
        <ele>105.8</ele>
        <time>2024-03-17T09:09:57Z</time>
      </trkpt>
      <trkpt lat="46.63092" lon="0.61341">
        <ele>105.8</ele>
        <time>2024-03-17T09:09:59Z</time>
      </trkpt>
      <trkpt lat="46.63089" lon="0.61344">
        <ele>106</ele>
        <time>2024-03-17T09:10:01Z</time>
      </trkpt>
      <trkpt lat="46.63087" lon="0.61347">
        <ele>106</ele>
        <time>2024-03-17T09:10:02Z</time>
      </trkpt>
      <trkpt lat="46.63085" lon="0.6135">
        <ele>106.2</ele>
        <time>2024-03-17T09:10:03Z</time>
      </trkpt>
      <trkpt lat="46.63081" lon="0.61353">
        <ele>106</ele>
        <time>2024-03-17T09:10:05Z</time>
      </trkpt>
      <trkpt lat="46.63077" lon="0.61356">
        <ele>106.2</ele>
        <time>2024-03-17T09:10:07Z</time>
      </trkpt>
      <trkpt lat="46.63071" lon="0.61363">
        <ele>107</ele>
        <time>2024-03-17T09:10:10Z</time>
      </trkpt>
      <trkpt lat="46.63067" lon="0.61368">
        <ele>107.4</ele>
        <time>2024-03-17T09:10:12Z</time>
      </trkpt>
      <trkpt lat="46.63056" lon="0.61381">
        <ele>107.8</ele>
        <time>2024-03-17T09:10:17Z</time>
      </trkpt>
      <trkpt lat="46.63053" lon="0.61381">
        <ele>108</ele>
        <time>2024-03-17T09:10:18Z</time>
      </trkpt>
      <trkpt lat="46.63045" lon="0.61382">
        <ele>108.8</ele>
        <time>2024-03-17T09:10:21Z</time>
      </trkpt>
      <trkpt lat="46.6304" lon="0.61386">
        <ele>108.8</ele>
        <time>2024-03-17T09:10:23Z</time>
      </trkpt>
      <trkpt lat="46.63034" lon="0.61389">
        <ele>109.2</ele>
        <time>2024-03-17T09:10:25Z</time>
      </trkpt>
      <trkpt lat="46.63024" lon="0.61395">
        <ele>110.2</ele>
        <time>2024-03-17T09:10:29Z</time>
      </trkpt>
      <trkpt lat="46.63012" lon="0.61391">
        <ele>111</ele>
        <time>2024-03-17T09:10:35Z</time>
      </trkpt>
      <trkpt lat="46.63007" lon="0.61389">
        <ele>111.4</ele>
        <time>2024-03-17T09:10:37Z</time>
      </trkpt>
      <trkpt lat="46.63" lon="0.61382">
        <ele>111.8</ele>
        <time>2024-03-17T09:10:41Z</time>
      </trkpt>
      <trkpt lat="46.62985" lon="0.61374">
        <ele>112.6</ele>
        <time>2024-03-17T09:10:47Z</time>
      </trkpt>
      <trkpt lat="46.6297" lon="0.61364">
        <ele>113.4</ele>
        <time>2024-03-17T09:10:52Z</time>
      </trkpt>
      <trkpt lat="46.62965" lon="0.6136">
        <ele>113.6</ele>
        <time>2024-03-17T09:10:54Z</time>
      </trkpt>
      <trkpt lat="46.62947" lon="0.61348">
        <ele>114</ele>
        <time>2024-03-17T09:11:00Z</time>
      </trkpt>
      <trkpt lat="46.6293" lon="0.61329">
        <ele>114.4</ele>
        <time>2024-03-17T09:11:06Z</time>
      </trkpt>
      <trkpt lat="46.62923" lon="0.61318">
        <ele>114.6</ele>
        <time>2024-03-17T09:11:09Z</time>
      </trkpt>
      <trkpt lat="46.62917" lon="0.61308">
        <ele>114.8</ele>
        <time>2024-03-17T09:11:12Z</time>
      </trkpt>
      <trkpt lat="46.62902" lon="0.61288">
        <ele>115.4</ele>
        <time>2024-03-17T09:11:19Z</time>
      </trkpt>
      <trkpt lat="46.62897" lon="0.61283">
        <ele>115.8</ele>
        <time>2024-03-17T09:11:22Z</time>
      </trkpt>
      <trkpt lat="46.62893" lon="0.61277">
        <ele>116.2</ele>
        <time>2024-03-17T09:11:25Z</time>
      </trkpt>
      <trkpt lat="46.62885" lon="0.61267">
        <ele>116.8</ele>
        <time>2024-03-17T09:11:29Z</time>
      </trkpt>
      <trkpt lat="46.62883" lon="0.61264">
        <ele>117</ele>
        <time>2024-03-17T09:11:30Z</time>
      </trkpt>
      <trkpt lat="46.62876" lon="0.61252">
        <ele>117.8</ele>
        <time>2024-03-17T09:11:34Z</time>
      </trkpt>
      <trkpt lat="46.62873" lon="0.61246">
        <ele>118</ele>
        <time>2024-03-17T09:11:36Z</time>
      </trkpt>
      <trkpt lat="46.62866" lon="0.61232">
        <ele>118.8</ele>
        <time>2024-03-17T09:11:41Z</time>
      </trkpt>
      <trkpt lat="46.62863" lon="0.61227">
        <ele>119.2</ele>
        <time>2024-03-17T09:11:43Z</time>
      </trkpt>
      <trkpt lat="46.62855" lon="0.61215">
        <ele>119.8</ele>
        <time>2024-03-17T09:11:47Z</time>
      </trkpt>
      <trkpt lat="46.62848" lon="0.61203">
        <ele>120.2</ele>
        <time>2024-03-17T09:11:51Z</time>
      </trkpt>
      <trkpt lat="46.62838" lon="0.61188">
        <ele>121</ele>
        <time>2024-03-17T09:11:57Z</time>
      </trkpt>
      <trkpt lat="46.62829" lon="0.61169">
        <ele>122</ele>
        <time>2024-03-17T09:12:04Z</time>
      </trkpt>
      <trkpt lat="46.62828" lon="0.61166">
        <ele>122.4</ele>
        <time>2024-03-17T09:12:05Z</time>
      </trkpt>
      <trkpt lat="46.62821" lon="0.61147">
        <ele>122.8</ele>
        <time>2024-03-17T09:12:10Z</time>
      </trkpt>
      <trkpt lat="46.62812" lon="0.6114">
        <ele>123</ele>
        <time>2024-03-17T09:12:13Z</time>
      </trkpt>
      <trkpt lat="46.62805" lon="0.61136">
        <ele>123</ele>
        <time>2024-03-17T09:12:15Z</time>
      </trkpt>
      <trkpt lat="46.62786" lon="0.61127">
        <ele>124.2</ele>
        <time>2024-03-17T09:12:20Z</time>
      </trkpt>
      <trkpt lat="46.62774" lon="0.61123">
        <ele>124.4</ele>
        <time>2024-03-17T09:12:23Z</time>
      </trkpt>
      <trkpt lat="46.62754" lon="0.61115">
        <ele>123.8</ele>
        <time>2024-03-17T09:12:29Z</time>
      </trkpt>
      <trkpt lat="46.62737" lon="0.61111">
        <ele>123.8</ele>
        <time>2024-03-17T09:12:35Z</time>
      </trkpt>
      <trkpt lat="46.62714" lon="0.61107">
        <ele>124.4</ele>
        <time>2024-03-17T09:12:42Z</time>
      </trkpt>
      <trkpt lat="46.62695" lon="0.61107">
        <ele>125</ele>
        <time>2024-03-17T09:12:48Z</time>
      </trkpt>
      <trkpt lat="46.62682" lon="0.61108">
        <ele>125.4</ele>
        <time>2024-03-17T09:12:53Z</time>
      </trkpt>
      <trkpt lat="46.62677" lon="0.61108">
        <ele>125.8</ele>
        <time>2024-03-17T09:12:55Z</time>
      </trkpt>
      <trkpt lat="46.62662" lon="0.61104">
        <ele>126.2</ele>
        <time>2024-03-17T09:13:00Z</time>
      </trkpt>
      <trkpt lat="46.62648" lon="0.61094">
        <ele>126</ele>
        <time>2024-03-17T09:13:06Z</time>
      </trkpt>
      <trkpt lat="46.62623" lon="0.6108">
        <ele>125.2</ele>
        <time>2024-03-17T09:13:12Z</time>
      </trkpt>
      <trkpt lat="46.62612" lon="0.61072">
        <ele>124.2</ele>
        <time>2024-03-17T09:13:14Z</time>
      </trkpt>
      <trkpt lat="46.62599" lon="0.61066">
        <ele>123.6</ele>
        <time>2024-03-17T09:13:16Z</time>
      </trkpt>
      <trkpt lat="46.6258" lon="0.6106">
        <ele>123</ele>
        <time>2024-03-17T09:13:19Z</time>
      </trkpt>
      <trkpt lat="46.62564" lon="0.61056">
        <ele>122.8</ele>
        <time>2024-03-17T09:13:21Z</time>
      </trkpt>
      <trkpt lat="46.62555" lon="0.61056">
        <ele>122.6</ele>
        <time>2024-03-17T09:13:22Z</time>
      </trkpt>
      <trkpt lat="46.62546" lon="0.61057">
        <ele>121.6</ele>
        <time>2024-03-17T09:13:23Z</time>
      </trkpt>
      <trkpt lat="46.62537" lon="0.6106">
        <ele>120.8</ele>
        <time>2024-03-17T09:13:24Z</time>
      </trkpt>
      <trkpt lat="46.62529" lon="0.61063">
        <ele>120.2</ele>
        <time>2024-03-17T09:13:25Z</time>
      </trkpt>
      <trkpt lat="46.62514" lon="0.6107">
        <ele>119</ele>
        <time>2024-03-17T09:13:27Z</time>
      </trkpt>
      <trkpt lat="46.62508" lon="0.61072">
        <ele>118.4</ele>
        <time>2024-03-17T09:13:28Z</time>
      </trkpt>
      <trkpt lat="46.62501" lon="0.6107">
        <ele>117.8</ele>
        <time>2024-03-17T09:13:29Z</time>
      </trkpt>
      <trkpt lat="46.62497" lon="0.61067">
        <ele>117.2</ele>
        <time>2024-03-17T09:13:30Z</time>
      </trkpt>
      <trkpt lat="46.62494" lon="0.61062">
        <ele>116.6</ele>
        <time>2024-03-17T09:13:31Z</time>
      </trkpt>
      <trkpt lat="46.62491" lon="0.61057">
        <ele>116</ele>
        <time>2024-03-17T09:13:32Z</time>
      </trkpt>
      <trkpt lat="46.6249" lon="0.6105">
        <ele>115.6</ele>
        <time>2024-03-17T09:13:33Z</time>
      </trkpt>
      <trkpt lat="46.62487" lon="0.61035">
        <ele>115.2</ele>
        <time>2024-03-17T09:13:35Z</time>
      </trkpt>
      <trkpt lat="46.62476" lon="0.60979">
        <ele>114.4</ele>
        <time>2024-03-17T09:13:41Z</time>
      </trkpt>
      <trkpt lat="46.62464" lon="0.60912">
        <ele>113.2</ele>
        <time>2024-03-17T09:13:47Z</time>
      </trkpt>
      <trkpt lat="46.62462" lon="0.60901">
        <ele>113</ele>
        <time>2024-03-17T09:13:48Z</time>
      </trkpt>
      <trkpt lat="46.62456" lon="0.60865">
        <ele>112</ele>
        <time>2024-03-17T09:13:51Z</time>
      </trkpt>
      <trkpt lat="46.62447" lon="0.60816">
        <ele>111.2</ele>
        <time>2024-03-17T09:13:55Z</time>
      </trkpt>
      <trkpt lat="46.62445" lon="0.60803">
        <ele>111</ele>
        <time>2024-03-17T09:13:56Z</time>
      </trkpt>
      <trkpt lat="46.62442" lon="0.60779">
        <ele>110</ele>
        <time>2024-03-17T09:13:58Z</time>
      </trkpt>
      <trkpt lat="46.62436" lon="0.60741">
        <ele>108.8</ele>
        <time>2024-03-17T09:14:01Z</time>
      </trkpt>
      <trkpt lat="46.62434" lon="0.60728">
        <ele>108</ele>
        <time>2024-03-17T09:14:02Z</time>
      </trkpt>
      <trkpt lat="46.62431" lon="0.60715">
        <ele>107.8</ele>
        <time>2024-03-17T09:14:03Z</time>
      </trkpt>
      <trkpt lat="46.62425" lon="0.60663">
        <ele>106.4</ele>
        <time>2024-03-17T09:14:07Z</time>
      </trkpt>
      <trkpt lat="46.6242" lon="0.60639">
        <ele>105.6</ele>
        <time>2024-03-17T09:14:09Z</time>
      </trkpt>
      <trkpt lat="46.62416" lon="0.60616">
        <ele>105.2</ele>
        <time>2024-03-17T09:14:11Z</time>
      </trkpt>
      <trkpt lat="46.62413" lon="0.60596">
        <ele>103.6</ele>
        <time>2024-03-17T09:14:13Z</time>
      </trkpt>
      <trkpt lat="46.62414" lon="0.6059">
        <ele>103</ele>
        <time>2024-03-17T09:14:14Z</time>
      </trkpt>
      <trkpt lat="46.62415" lon="0.60585">
        <ele>102.2</ele>
        <time>2024-03-17T09:14:15Z</time>
      </trkpt>
      <trkpt lat="46.62419" lon="0.60581">
        <ele>101</ele>
        <time>2024-03-17T09:14:17Z</time>
      </trkpt>
      <trkpt lat="46.62434" lon="0.60575">
        <ele>100.6</ele>
        <time>2024-03-17T09:14:22Z</time>
      </trkpt>
      <trkpt lat="46.62465" lon="0.60569">
        <ele>101</ele>
        <time>2024-03-17T09:14:28Z</time>
      </trkpt>
      <trkpt lat="46.62498" lon="0.60561">
        <ele>102</ele>
        <time>2024-03-17T09:14:34Z</time>
      </trkpt>
      <trkpt lat="46.62504" lon="0.60559">
        <ele>102</ele>
        <time>2024-03-17T09:14:35Z</time>
      </trkpt>
      <trkpt lat="46.62538" lon="0.60551">
        <ele>101.4</ele>
        <time>2024-03-17T09:14:40Z</time>
      </trkpt>
      <trkpt lat="46.62572" lon="0.60542">
        <ele>101</ele>
        <time>2024-03-17T09:14:45Z</time>
      </trkpt>
      <trkpt lat="46.62585" lon="0.60539">
        <ele>101</ele>
        <time>2024-03-17T09:14:47Z</time>
      </trkpt>
      <trkpt lat="46.62618" lon="0.60531">
        <ele>101.8</ele>
        <time>2024-03-17T09:14:53Z</time>
      </trkpt>
      <trkpt lat="46.62623" lon="0.6053">
        <ele>102.2</ele>
        <time>2024-03-17T09:14:54Z</time>
      </trkpt>
      <trkpt lat="46.6265" lon="0.60523">
        <ele>103.2</ele>
        <time>2024-03-17T09:15:00Z</time>
      </trkpt>
      <trkpt lat="46.62677" lon="0.60515">
        <ele>104.4</ele>
        <time>2024-03-17T09:15:06Z</time>
      </trkpt>
      <trkpt lat="46.62685" lon="0.60513">
        <ele>104.6</ele>
        <time>2024-03-17T09:15:08Z</time>
      </trkpt>
      <trkpt lat="46.62696" lon="0.6051">
        <ele>104.2</ele>
        <time>2024-03-17T09:15:11Z</time>
      </trkpt>
      <trkpt lat="46.62701" lon="0.60502">
        <ele>104</ele>
        <time>2024-03-17T09:15:13Z</time>
      </trkpt>
      <trkpt lat="46.62702" lon="0.60489">
        <ele>103.6</ele>
        <time>2024-03-17T09:15:15Z</time>
      </trkpt>
      <trkpt lat="46.627" lon="0.60481">
        <ele>103.6</ele>
        <time>2024-03-17T09:15:16Z</time>
      </trkpt>
      <trkpt lat="46.62699" lon="0.60473">
        <ele>103.2</ele>
        <time>2024-03-17T09:15:17Z</time>
      </trkpt>
      <trkpt lat="46.62696" lon="0.6044">
        <ele>103.2</ele>
        <time>2024-03-17T09:15:21Z</time>
      </trkpt>
      <trkpt lat="46.62693" lon="0.60387">
        <ele>102.2</ele>
        <time>2024-03-17T09:15:27Z</time>
      </trkpt>
      <trkpt lat="46.62689" lon="0.60358">
        <ele>101.6</ele>
        <time>2024-03-17T09:15:30Z</time>
      </trkpt>
      <trkpt lat="46.62686" lon="0.60349">
        <ele>101.6</ele>
        <time>2024-03-17T09:15:31Z</time>
      </trkpt>
      <trkpt lat="46.62669" lon="0.60313">
        <ele>101</ele>
        <time>2024-03-17T09:15:35Z</time>
      </trkpt>
      <trkpt lat="46.62662" lon="0.60295">
        <ele>100.8</ele>
        <time>2024-03-17T09:15:37Z</time>
      </trkpt>
      <trkpt lat="46.62641" lon="0.60263">
        <ele>100.4</ele>
        <time>2024-03-17T09:15:42Z</time>
      </trkpt>
      <trkpt lat="46.62621" lon="0.6024">
        <ele>101.2</ele>
        <time>2024-03-17T09:15:47Z</time>
      </trkpt>
      <trkpt lat="46.62616" lon="0.60237">
        <ele>101.6</ele>
        <time>2024-03-17T09:15:48Z</time>
      </trkpt>
      <trkpt lat="46.62607" lon="0.60231">
        <ele>102</ele>
        <time>2024-03-17T09:15:50Z</time>
      </trkpt>
      <trkpt lat="46.62602" lon="0.60228">
        <ele>102.2</ele>
        <time>2024-03-17T09:15:51Z</time>
      </trkpt>
      <trkpt lat="46.62598" lon="0.60227">
        <ele>102.2</ele>
        <time>2024-03-17T09:15:52Z</time>
      </trkpt>
      <trkpt lat="46.62588" lon="0.6023">
        <ele>102.2</ele>
        <time>2024-03-17T09:15:54Z</time>
      </trkpt>
      <trkpt lat="46.62572" lon="0.60244">
        <ele>101.6</ele>
        <time>2024-03-17T09:15:57Z</time>
      </trkpt>
      <trkpt lat="46.62566" lon="0.60247">
        <ele>101.2</ele>
        <time>2024-03-17T09:15:58Z</time>
      </trkpt>
      <trkpt lat="46.62559" lon="0.6025">
        <ele>100.8</ele>
        <time>2024-03-17T09:15:59Z</time>
      </trkpt>
      <trkpt lat="46.62544" lon="0.60249">
        <ele>99.8</ele>
        <time>2024-03-17T09:16:01Z</time>
      </trkpt>
      <trkpt lat="46.62537" lon="0.60245">
        <ele>99.4</ele>
        <time>2024-03-17T09:16:02Z</time>
      </trkpt>
      <trkpt lat="46.6252" lon="0.60232">
        <ele>98</ele>
        <time>2024-03-17T09:16:04Z</time>
      </trkpt>
      <trkpt lat="46.62505" lon="0.60213">
        <ele>96.2</ele>
        <time>2024-03-17T09:16:06Z</time>
      </trkpt>
      <trkpt lat="46.62499" lon="0.602">
        <ele>95</ele>
        <time>2024-03-17T09:16:07Z</time>
      </trkpt>
      <trkpt lat="46.62494" lon="0.60186">
        <ele>94</ele>
        <time>2024-03-17T09:16:08Z</time>
      </trkpt>
      <trkpt lat="46.62489" lon="0.60173">
        <ele>93</ele>
        <time>2024-03-17T09:16:09Z</time>
      </trkpt>
      <trkpt lat="46.62479" lon="0.60146">
        <ele>91.4</ele>
        <time>2024-03-17T09:16:11Z</time>
      </trkpt>
      <trkpt lat="46.62461" lon="0.60106">
        <ele>89.6</ele>
        <time>2024-03-17T09:16:14Z</time>
      </trkpt>
      <trkpt lat="46.62456" lon="0.60091">
        <ele>88.4</ele>
        <time>2024-03-17T09:16:15Z</time>
      </trkpt>
      <trkpt lat="46.62452" lon="0.60076">
        <ele>87.4</ele>
        <time>2024-03-17T09:16:16Z</time>
      </trkpt>
      <trkpt lat="46.62447" lon="0.60061">
        <ele>86.8</ele>
        <time>2024-03-17T09:16:17Z</time>
      </trkpt>
      <trkpt lat="46.62444" lon="0.60045">
        <ele>86.2</ele>
        <time>2024-03-17T09:16:18Z</time>
      </trkpt>
      <trkpt lat="46.6244" lon="0.60029">
        <ele>85.8</ele>
        <time>2024-03-17T09:16:19Z</time>
      </trkpt>
      <trkpt lat="46.62436" lon="0.60014">
        <ele>84.4</ele>
        <time>2024-03-17T09:16:20Z</time>
      </trkpt>
      <trkpt lat="46.62433" lon="0.6">
        <ele>83.4</ele>
        <time>2024-03-17T09:16:21Z</time>
      </trkpt>
      <trkpt lat="46.6243" lon="0.59986">
        <ele>81.4</ele>
        <time>2024-03-17T09:16:22Z</time>
      </trkpt>
      <trkpt lat="46.62428" lon="0.59973">
        <ele>79.6</ele>
        <time>2024-03-17T09:16:23Z</time>
      </trkpt>
      <trkpt lat="46.62425" lon="0.5996">
        <ele>77.8</ele>
        <time>2024-03-17T09:16:24Z</time>
      </trkpt>
      <trkpt lat="46.62422" lon="0.59947">
        <ele>76.4</ele>
        <time>2024-03-17T09:16:25Z</time>
      </trkpt>
      <trkpt lat="46.62419" lon="0.59934">
        <ele>74.4</ele>
        <time>2024-03-17T09:16:26Z</time>
      </trkpt>
      <trkpt lat="46.62416" lon="0.59923">
        <ele>72.8</ele>
        <time>2024-03-17T09:16:27Z</time>
      </trkpt>
      <trkpt lat="46.62413" lon="0.59914">
        <ele>71.6</ele>
        <time>2024-03-17T09:16:28Z</time>
      </trkpt>
      <trkpt lat="46.6241" lon="0.59907">
        <ele>69.4</ele>
        <time>2024-03-17T09:16:29Z</time>
      </trkpt>
      <trkpt lat="46.62407" lon="0.59902">
        <ele>68.2</ele>
        <time>2024-03-17T09:16:30Z</time>
      </trkpt>
      <trkpt lat="46.62404" lon="0.59901">
        <ele>66.8</ele>
        <time>2024-03-17T09:16:31Z</time>
      </trkpt>
      <trkpt lat="46.62402" lon="0.59901">
        <ele>66</ele>
        <time>2024-03-17T09:16:32Z</time>
      </trkpt>
      <trkpt lat="46.62401" lon="0.59901">
        <ele>65.2</ele>
        <time>2024-03-17T09:16:33Z</time>
      </trkpt>
      <trkpt lat="46.624" lon="0.59901">
        <ele>65</ele>
        <time>2024-03-17T09:16:34Z</time>
      </trkpt>
      <trkpt lat="46.624" lon="0.59902">
        <ele>64.8</ele>
        <time>2024-03-17T09:16:35Z</time>
      </trkpt>
      <trkpt lat="46.62399" lon="0.59904">
        <ele>65</ele>
        <time>2024-03-17T09:16:36Z</time>
      </trkpt>
      <trkpt lat="46.62399" lon="0.59916">
        <ele>66.6</ele>
        <time>2024-03-17T09:16:42Z</time>
      </trkpt>
      <trkpt lat="46.624" lon="0.59924">
        <ele>68</ele>
        <time>2024-03-17T09:16:46Z</time>
      </trkpt>
      <trkpt lat="46.624" lon="0.59932">
        <ele>69.2</ele>
        <time>2024-03-17T09:16:49Z</time>
      </trkpt>
      <trkpt lat="46.62401" lon="0.59937">
        <ele>69.8</ele>
        <time>2024-03-17T09:16:51Z</time>
      </trkpt>
      <trkpt lat="46.62402" lon="0.5994">
        <ele>70.2</ele>
        <time>2024-03-17T09:16:52Z</time>
      </trkpt>
      <trkpt lat="46.62405" lon="0.5995">
        <ele>71.2</ele>
        <time>2024-03-17T09:16:56Z</time>
      </trkpt>
      <trkpt lat="46.62407" lon="0.59955">
        <ele>71.6</ele>
        <time>2024-03-17T09:16:58Z</time>
      </trkpt>
      <trkpt lat="46.62408" lon="0.5996">
        <ele>72.2</ele>
        <time>2024-03-17T09:17:00Z</time>
      </trkpt>
      <trkpt lat="46.62412" lon="0.5997">
        <ele>73.4</ele>
        <time>2024-03-17T09:17:05Z</time>
      </trkpt>
      <trkpt lat="46.62413" lon="0.59974">
        <ele>73.8</ele>
        <time>2024-03-17T09:17:07Z</time>
      </trkpt>
      <trkpt lat="46.62414" lon="0.59978">
        <ele>74.6</ele>
        <time>2024-03-17T09:17:09Z</time>
      </trkpt>
      <trkpt lat="46.62415" lon="0.59984">
        <ele>75</ele>
        <time>2024-03-17T09:17:12Z</time>
      </trkpt>
      <trkpt lat="46.62415" lon="0.59988">
        <ele>75.6</ele>
        <time>2024-03-17T09:17:14Z</time>
      </trkpt>
      <trkpt lat="46.62416" lon="0.59994">
        <ele>76.2</ele>
        <time>2024-03-17T09:17:17Z</time>
      </trkpt>
      <trkpt lat="46.62416" lon="0.59997">
        <ele>76.6</ele>
        <time>2024-03-17T09:17:19Z</time>
      </trkpt>
      <trkpt lat="46.62416" lon="0.59999">
        <ele>77</ele>
        <time>2024-03-17T09:17:20Z</time>
      </trkpt>
      <trkpt lat="46.62416" lon="0.60009">
        <ele>77.8</ele>
        <time>2024-03-17T09:17:25Z</time>
      </trkpt>
      <trkpt lat="46.62415" lon="0.60013">
        <ele>78.2</ele>
        <time>2024-03-17T09:17:27Z</time>
      </trkpt>
      <trkpt lat="46.62415" lon="0.60017">
        <ele>78.4</ele>
        <time>2024-03-17T09:17:29Z</time>
      </trkpt>
      <trkpt lat="46.62415" lon="0.60021">
        <ele>78.8</ele>
        <time>2024-03-17T09:17:31Z</time>
      </trkpt>
      <trkpt lat="46.62414" lon="0.60028">
        <ele>79.8</ele>
        <time>2024-03-17T09:17:35Z</time>
      </trkpt>
      <trkpt lat="46.62414" lon="0.60029">
        <ele>80.2</ele>
        <time>2024-03-17T09:17:36Z</time>
      </trkpt>
      <trkpt lat="46.62412" lon="0.60038">
        <ele>81.4</ele>
        <time>2024-03-17T09:17:42Z</time>
      </trkpt>
      <trkpt lat="46.62412" lon="0.6004">
        <ele>81.6</ele>
        <time>2024-03-17T09:17:43Z</time>
      </trkpt>
      <trkpt lat="46.62409" lon="0.60049">
        <ele>82.6</ele>
        <time>2024-03-17T09:17:49Z</time>
      </trkpt>
      <trkpt lat="46.62407" lon="0.60055">
        <ele>83.8</ele>
        <time>2024-03-17T09:17:53Z</time>
      </trkpt>
      <trkpt lat="46.62404" lon="0.60063">
        <ele>85</ele>
        <time>2024-03-17T09:17:59Z</time>
      </trkpt>
      <trkpt lat="46.62401" lon="0.60068">
        <ele>85.6</ele>
        <time>2024-03-17T09:18:03Z</time>
      </trkpt>
      <trkpt lat="46.62399" lon="0.60072">
        <ele>86</ele>
        <time>2024-03-17T09:18:06Z</time>
      </trkpt>
      <trkpt lat="46.62395" lon="0.60074">
        <ele>87.2</ele>
        <time>2024-03-17T09:18:10Z</time>
      </trkpt>
      <trkpt lat="46.62394" lon="0.60075">
        <ele>87.6</ele>
        <time>2024-03-17T09:18:12Z</time>
      </trkpt>
      <trkpt lat="46.6239" lon="0.60079">
        <ele>88.2</ele>
        <time>2024-03-17T09:18:16Z</time>
      </trkpt>
      <trkpt lat="46.62388" lon="0.6008">
        <ele>88.2</ele>
        <time>2024-03-17T09:18:17Z</time>
      </trkpt>
      <trkpt lat="46.62384" lon="0.60082">
        <ele>88.6</ele>
        <time>2024-03-17T09:18:20Z</time>
      </trkpt>
      <trkpt lat="46.62377" lon="0.60087">
        <ele>89.4</ele>
        <time>2024-03-17T09:18:25Z</time>
      </trkpt>
      <trkpt lat="46.62374" lon="0.60089">
        <ele>89.6</ele>
        <time>2024-03-17T09:18:27Z</time>
      </trkpt>
      <trkpt lat="46.62367" lon="0.60097">
        <ele>90.4</ele>
        <time>2024-03-17T09:18:33Z</time>
      </trkpt>
      <trkpt lat="46.62363" lon="0.60103">
        <ele>91</ele>
        <time>2024-03-17T09:18:37Z</time>
      </trkpt>
      <trkpt lat="46.62361" lon="0.60105">
        <ele>91.4</ele>
        <time>2024-03-17T09:18:39Z</time>
      </trkpt>
      <trkpt lat="46.62354" lon="0.60116">
        <ele>92.6</ele>
        <time>2024-03-17T09:18:45Z</time>
      </trkpt>
      <trkpt lat="46.62353" lon="0.60118">
        <ele>92.6</ele>
        <time>2024-03-17T09:18:46Z</time>
      </trkpt>
      <trkpt lat="46.62348" lon="0.60134">
        <ele>93.6</ele>
        <time>2024-03-17T09:18:53Z</time>
      </trkpt>
      <trkpt lat="46.62343" lon="0.60155">
        <ele>94.8</ele>
        <time>2024-03-17T09:18:59Z</time>
      </trkpt>
      <trkpt lat="46.62341" lon="0.60157">
        <ele>94.8</ele>
        <time>2024-03-17T09:19:00Z</time>
      </trkpt>
      <trkpt lat="46.62321" lon="0.60172">
        <ele>94.8</ele>
        <time>2024-03-17T09:19:06Z</time>
      </trkpt>
      <trkpt lat="46.62304" lon="0.60181">
        <ele>93.6</ele>
        <time>2024-03-17T09:19:10Z</time>
      </trkpt>
      <trkpt lat="46.6229" lon="0.60189">
        <ele>93</ele>
        <time>2024-03-17T09:19:13Z</time>
      </trkpt>
      <trkpt lat="46.62252" lon="0.60207">
        <ele>93.4</ele>
        <time>2024-03-17T09:19:21Z</time>
      </trkpt>
      <trkpt lat="46.62226" lon="0.6022">
        <ele>94.2</ele>
        <time>2024-03-17T09:19:27Z</time>
      </trkpt>
      <trkpt lat="46.62218" lon="0.60226">
        <ele>94.8</ele>
        <time>2024-03-17T09:19:29Z</time>
      </trkpt>
      <trkpt lat="46.622" lon="0.60239">
        <ele>95.4</ele>
        <time>2024-03-17T09:19:33Z</time>
      </trkpt>
      <trkpt lat="46.62192" lon="0.60244">
        <ele>95.8</ele>
        <time>2024-03-17T09:19:35Z</time>
      </trkpt>
      <trkpt lat="46.62188" lon="0.60245">
        <ele>95.8</ele>
        <time>2024-03-17T09:19:36Z</time>
      </trkpt>
      <trkpt lat="46.62182" lon="0.60243">
        <ele>96.2</ele>
        <time>2024-03-17T09:19:38Z</time>
      </trkpt>
      <trkpt lat="46.62172" lon="0.60228">
        <ele>96</ele>
        <time>2024-03-17T09:19:43Z</time>
      </trkpt>
      <trkpt lat="46.62164" lon="0.60209">
        <ele>95.2</ele>
        <time>2024-03-17T09:19:48Z</time>
      </trkpt>
      <trkpt lat="46.62162" lon="0.60203">
        <ele>95.2</ele>
        <time>2024-03-17T09:19:49Z</time>
      </trkpt>
      <trkpt lat="46.6216" lon="0.60198">
        <ele>95</ele>
        <time>2024-03-17T09:19:50Z</time>
      </trkpt>
      <trkpt lat="46.62149" lon="0.60172">
        <ele>94.6</ele>
        <time>2024-03-17T09:19:54Z</time>
      </trkpt>
      <trkpt lat="46.62137" lon="0.60143">
        <ele>94.2</ele>
        <time>2024-03-17T09:19:58Z</time>
      </trkpt>
      <trkpt lat="46.62133" lon="0.60137">
        <ele>94</ele>
        <time>2024-03-17T09:19:59Z</time>
      </trkpt>
      <trkpt lat="46.62128" lon="0.60132">
        <ele>93.6</ele>
        <time>2024-03-17T09:20:00Z</time>
      </trkpt>
      <trkpt lat="46.62118" lon="0.60122">
        <ele>93.2</ele>
        <time>2024-03-17T09:20:01Z</time>
      </trkpt>
      <trkpt lat="46.62109" lon="0.60113">
        <ele>93.2</ele>
        <time>2024-03-17T09:20:04Z</time>
      </trkpt>
      <trkpt lat="46.62076" lon="0.60094">
        <ele>92.4</ele>
        <time>2024-03-17T09:20:09Z</time>
      </trkpt>
      <trkpt lat="46.62064" lon="0.60089">
        <ele>91.8</ele>
        <time>2024-03-17T09:20:11Z</time>
      </trkpt>
      <trkpt lat="46.62054" lon="0.6008">
        <ele>91.2</ele>
        <time>2024-03-17T09:20:13Z</time>
      </trkpt>
      <trkpt lat="46.62043" lon="0.6007">
        <ele>90.2</ele>
        <time>2024-03-17T09:20:15Z</time>
      </trkpt>
      <trkpt lat="46.62038" lon="0.60064">
        <ele>90</ele>
        <time>2024-03-17T09:20:16Z</time>
      </trkpt>
      <trkpt lat="46.62026" lon="0.60053">
        <ele>89</ele>
        <time>2024-03-17T09:20:18Z</time>
      </trkpt>
      <trkpt lat="46.62012" lon="0.60042">
        <ele>87.4</ele>
        <time>2024-03-17T09:20:20Z</time>
      </trkpt>
      <trkpt lat="46.61996" lon="0.60032">
        <ele>86.2</ele>
        <time>2024-03-17T09:20:22Z</time>
      </trkpt>
      <trkpt lat="46.61988" lon="0.60027">
        <ele>85</ele>
        <time>2024-03-17T09:20:23Z</time>
      </trkpt>
      <trkpt lat="46.6197" lon="0.60015">
        <ele>83.4</ele>
        <time>2024-03-17T09:20:25Z</time>
      </trkpt>
      <trkpt lat="46.61953" lon="0.60003">
        <ele>80.8</ele>
        <time>2024-03-17T09:20:27Z</time>
      </trkpt>
      <trkpt lat="46.61944" lon="0.59998">
        <ele>79.8</ele>
        <time>2024-03-17T09:20:28Z</time>
      </trkpt>
      <trkpt lat="46.61934" lon="0.59993">
        <ele>79</ele>
        <time>2024-03-17T09:20:29Z</time>
      </trkpt>
      <trkpt lat="46.61925" lon="0.5999">
        <ele>78.6</ele>
        <time>2024-03-17T09:20:30Z</time>
      </trkpt>
      <trkpt lat="46.61917" lon="0.59988">
        <ele>78</ele>
        <time>2024-03-17T09:20:31Z</time>
      </trkpt>
      <trkpt lat="46.61909" lon="0.59988">
        <ele>77.8</ele>
        <time>2024-03-17T09:20:32Z</time>
      </trkpt>
      <trkpt lat="46.6189" lon="0.59984">
        <ele>76.6</ele>
        <time>2024-03-17T09:20:34Z</time>
      </trkpt>
      <trkpt lat="46.61864" lon="0.59979">
        <ele>75.2</ele>
        <time>2024-03-17T09:20:37Z</time>
      </trkpt>
      <trkpt lat="46.61855" lon="0.59978">
        <ele>73.6</ele>
        <time>2024-03-17T09:20:38Z</time>
      </trkpt>
      <trkpt lat="46.61847" lon="0.59977">
        <ele>71.4</ele>
        <time>2024-03-17T09:20:39Z</time>
      </trkpt>
      <trkpt lat="46.61839" lon="0.59976">
        <ele>69.4</ele>
        <time>2024-03-17T09:20:40Z</time>
      </trkpt>
      <trkpt lat="46.61833" lon="0.59975">
        <ele>67.6</ele>
        <time>2024-03-17T09:20:41Z</time>
      </trkpt>
      <trkpt lat="46.61828" lon="0.59975">
        <ele>65.6</ele>
        <time>2024-03-17T09:20:42Z</time>
      </trkpt>
      <trkpt lat="46.61823" lon="0.59981">
        <ele>64</ele>
        <time>2024-03-17T09:20:44Z</time>
      </trkpt>
      <trkpt lat="46.61812" lon="0.60006">
        <ele>63.2</ele>
        <time>2024-03-17T09:20:50Z</time>
      </trkpt>
      <trkpt lat="46.618" lon="0.60022">
        <ele>64</ele>
        <time>2024-03-17T09:20:56Z</time>
      </trkpt>
      <trkpt lat="46.61793" lon="0.6003">
        <ele>65.2</ele>
        <time>2024-03-17T09:21:00Z</time>
      </trkpt>
      <trkpt lat="46.61788" lon="0.60039">
        <ele>66.4</ele>
        <time>2024-03-17T09:21:04Z</time>
      </trkpt>
      <trkpt lat="46.61783" lon="0.60047">
        <ele>67.6</ele>
        <time>2024-03-17T09:21:08Z</time>
      </trkpt>
      <trkpt lat="46.6178" lon="0.60051">
        <ele>68</ele>
        <time>2024-03-17T09:21:10Z</time>
      </trkpt>
      <trkpt lat="46.61777" lon="0.60055">
        <ele>68.8</ele>
        <time>2024-03-17T09:21:12Z</time>
      </trkpt>
      <trkpt lat="46.61768" lon="0.60066">
        <ele>69.6</ele>
        <time>2024-03-17T09:21:18Z</time>
      </trkpt>
      <trkpt lat="46.61764" lon="0.60071">
        <ele>70</ele>
        <time>2024-03-17T09:21:21Z</time>
      </trkpt>
      <trkpt lat="46.61762" lon="0.60074">
        <ele>70.4</ele>
        <time>2024-03-17T09:21:23Z</time>
      </trkpt>
      <trkpt lat="46.61763" lon="0.60078">
        <ele>70.6</ele>
        <time>2024-03-17T09:21:25Z</time>
      </trkpt>
      <trkpt lat="46.61764" lon="0.60082">
        <ele>71</ele>
        <time>2024-03-17T09:21:28Z</time>
      </trkpt>
      <trkpt lat="46.61765" lon="0.60082">
        <ele>71.2</ele>
        <time>2024-03-17T09:21:29Z</time>
      </trkpt>
      <trkpt lat="46.61767" lon="0.60084">
        <ele>71.6</ele>
        <time>2024-03-17T09:21:31Z</time>
      </trkpt>
      <trkpt lat="46.6177" lon="0.60087">
        <ele>72.2</ele>
        <time>2024-03-17T09:21:34Z</time>
      </trkpt>
      <trkpt lat="46.61774" lon="0.60092">
        <ele>72.8</ele>
        <time>2024-03-17T09:21:38Z</time>
      </trkpt>
      <trkpt lat="46.61776" lon="0.60093">
        <ele>73.2</ele>
        <time>2024-03-17T09:21:40Z</time>
      </trkpt>
      <trkpt lat="46.6178" lon="0.60098">
        <ele>74.2</ele>
        <time>2024-03-17T09:21:45Z</time>
      </trkpt>
      <trkpt lat="46.61781" lon="0.60099">
        <ele>74.4</ele>
        <time>2024-03-17T09:21:46Z</time>
      </trkpt>
      <trkpt lat="46.61786" lon="0.60106">
        <ele>75.4</ele>
        <time>2024-03-17T09:21:51Z</time>
      </trkpt>
      <trkpt lat="46.61788" lon="0.60106">
        <ele>75.6</ele>
        <time>2024-03-17T09:21:52Z</time>
      </trkpt>
      <trkpt lat="46.61792" lon="0.60108">
        <ele>76.4</ele>
        <time>2024-03-17T09:21:55Z</time>
      </trkpt>
      <trkpt lat="46.61797" lon="0.6011">
        <ele>77.2</ele>
        <time>2024-03-17T09:21:58Z</time>
      </trkpt>
      <trkpt lat="46.61803" lon="0.60116">
        <ele>77.4</ele>
        <time>2024-03-17T09:22:02Z</time>
      </trkpt>
      <trkpt lat="46.61804" lon="0.60119">
        <ele>77.8</ele>
        <time>2024-03-17T09:22:04Z</time>
      </trkpt>
      <trkpt lat="46.61806" lon="0.60126">
        <ele>78.6</ele>
        <time>2024-03-17T09:22:07Z</time>
      </trkpt>
      <trkpt lat="46.61808" lon="0.60133">
        <ele>79.2</ele>
        <time>2024-03-17T09:22:10Z</time>
      </trkpt>
      <trkpt lat="46.6181" lon="0.60145">
        <ele>79.8</ele>
        <time>2024-03-17T09:22:15Z</time>
      </trkpt>
      <trkpt lat="46.61811" lon="0.60149">
        <ele>80</ele>
        <time>2024-03-17T09:22:17Z</time>
      </trkpt>
      <trkpt lat="46.61814" lon="0.60164">
        <ele>81</ele>
        <time>2024-03-17T09:22:23Z</time>
      </trkpt>
      <trkpt lat="46.61815" lon="0.60169">
        <ele>81.2</ele>
        <time>2024-03-17T09:22:25Z</time>
      </trkpt>
      <trkpt lat="46.61818" lon="0.60193">
        <ele>82</ele>
        <time>2024-03-17T09:22:33Z</time>
      </trkpt>
      <trkpt lat="46.61819" lon="0.60196">
        <ele>82.2</ele>
        <time>2024-03-17T09:22:34Z</time>
      </trkpt>
      <trkpt lat="46.6182" lon="0.60208">
        <ele>81.8</ele>
        <time>2024-03-17T09:22:39Z</time>
      </trkpt>
      <trkpt lat="46.61821" lon="0.60209">
        <ele>81.8</ele>
        <time>2024-03-17T09:22:40Z</time>
      </trkpt>
      <trkpt lat="46.61821" lon="0.60217">
        <ele>81.6</ele>
        <time>2024-03-17T09:22:49Z</time>
      </trkpt>
      <trkpt lat="46.61827" lon="0.60231">
        <ele>81.6</ele>
        <time>2024-03-17T09:22:56Z</time>
      </trkpt>
      <trkpt lat="46.61841" lon="0.60253">
        <ele>82.2</ele>
        <time>2024-03-17T09:23:03Z</time>
      </trkpt>
      <trkpt lat="46.61854" lon="0.60269">
        <ele>81</ele>
        <time>2024-03-17T09:23:08Z</time>
      </trkpt>
      <trkpt lat="46.61857" lon="0.60273">
        <ele>80.6</ele>
        <time>2024-03-17T09:23:09Z</time>
      </trkpt>
      <trkpt lat="46.61868" lon="0.60289">
        <ele>79.8</ele>
        <time>2024-03-17T09:23:12Z</time>
      </trkpt>
      <trkpt lat="46.61873" lon="0.60294">
        <ele>79.6</ele>
        <time>2024-03-17T09:23:13Z</time>
      </trkpt>
      <trkpt lat="46.61878" lon="0.603">
        <ele>79.4</ele>
        <time>2024-03-17T09:23:14Z</time>
      </trkpt>
      <trkpt lat="46.61889" lon="0.60313">
        <ele>78.6</ele>
        <time>2024-03-17T09:23:16Z</time>
      </trkpt>
      <trkpt lat="46.61909" lon="0.60338">
        <ele>77.6</ele>
        <time>2024-03-17T09:23:20Z</time>
      </trkpt>
      <trkpt lat="46.61917" lon="0.60349">
        <ele>77.2</ele>
        <time>2024-03-17T09:23:22Z</time>
      </trkpt>
      <trkpt lat="46.61929" lon="0.6036">
        <ele>76.8</ele>
        <time>2024-03-17T09:23:25Z</time>
      </trkpt>
      <trkpt lat="46.61942" lon="0.60375">
        <ele>77.6</ele>
        <time>2024-03-17T09:23:30Z</time>
      </trkpt>
      <trkpt lat="46.61959" lon="0.60389">
        <ele>77.8</ele>
        <time>2024-03-17T09:23:36Z</time>
      </trkpt>
      <trkpt lat="46.61973" lon="0.60402">
        <ele>78.8</ele>
        <time>2024-03-17T09:23:42Z</time>
      </trkpt>
      <trkpt lat="46.61992" lon="0.60423">
        <ele>79.4</ele>
        <time>2024-03-17T09:23:48Z</time>
      </trkpt>
      <trkpt lat="46.61998" lon="0.60431">
        <ele>79.8</ele>
        <time>2024-03-17T09:23:50Z</time>
      </trkpt>
      <trkpt lat="46.62008" lon="0.60443">
        <ele>80</ele>
        <time>2024-03-17T09:23:54Z</time>
      </trkpt>
      <trkpt lat="46.62024" lon="0.60467">
        <ele>79.8</ele>
        <time>2024-03-17T09:24:01Z</time>
      </trkpt>
      <trkpt lat="46.62031" lon="0.60479">
        <ele>80.4</ele>
        <time>2024-03-17T09:24:06Z</time>
      </trkpt>
      <trkpt lat="46.62034" lon="0.60483">
        <ele>80.8</ele>
        <time>2024-03-17T09:24:08Z</time>
      </trkpt>
      <trkpt lat="46.62037" lon="0.6049">
        <ele>81.4</ele>
        <time>2024-03-17T09:24:11Z</time>
      </trkpt>
      <trkpt lat="46.62043" lon="0.60495">
        <ele>82</ele>
        <time>2024-03-17T09:24:14Z</time>
      </trkpt>
      <trkpt lat="46.62049" lon="0.60508">
        <ele>83</ele>
        <time>2024-03-17T09:24:18Z</time>
      </trkpt>
      <trkpt lat="46.62051" lon="0.60516">
        <ele>84</ele>
        <time>2024-03-17T09:24:20Z</time>
      </trkpt>
      <trkpt lat="46.62052" lon="0.6052">
        <ele>84.4</ele>
        <time>2024-03-17T09:24:21Z</time>
      </trkpt>
      <trkpt lat="46.62061" lon="0.60535">
        <ele>85.4</ele>
        <time>2024-03-17T09:24:25Z</time>
      </trkpt>
      <trkpt lat="46.62062" lon="0.60538">
        <ele>85.8</ele>
        <time>2024-03-17T09:24:26Z</time>
      </trkpt>
      <trkpt lat="46.62067" lon="0.60548">
        <ele>86.6</ele>
        <time>2024-03-17T09:24:29Z</time>
      </trkpt>
      <trkpt lat="46.62074" lon="0.60559">
        <ele>87.4</ele>
        <time>2024-03-17T09:24:33Z</time>
      </trkpt>
      <trkpt lat="46.62077" lon="0.60565">
        <ele>87.8</ele>
        <time>2024-03-17T09:24:35Z</time>
      </trkpt>
      <trkpt lat="46.62082" lon="0.6058">
        <ele>89.2</ele>
        <time>2024-03-17T09:24:40Z</time>
      </trkpt>
      <trkpt lat="46.62083" lon="0.60583">
        <ele>89.4</ele>
        <time>2024-03-17T09:24:41Z</time>
      </trkpt>
      <trkpt lat="46.62087" lon="0.60598">
        <ele>90.2</ele>
        <time>2024-03-17T09:24:47Z</time>
      </trkpt>
      <trkpt lat="46.62088" lon="0.60601">
        <ele>90.4</ele>
        <time>2024-03-17T09:24:48Z</time>
      </trkpt>
      <trkpt lat="46.62092" lon="0.60614">
        <ele>91.2</ele>
        <time>2024-03-17T09:24:53Z</time>
      </trkpt>
      <trkpt lat="46.62094" lon="0.60619">
        <ele>91.6</ele>
        <time>2024-03-17T09:24:55Z</time>
      </trkpt>
      <trkpt lat="46.62098" lon="0.60632">
        <ele>92.4</ele>
        <time>2024-03-17T09:25:00Z</time>
      </trkpt>
      <trkpt lat="46.62099" lon="0.60637">
        <ele>92.6</ele>
        <time>2024-03-17T09:25:02Z</time>
      </trkpt>
      <trkpt lat="46.62103" lon="0.60653">
        <ele>93.6</ele>
        <time>2024-03-17T09:25:08Z</time>
      </trkpt>
      <trkpt lat="46.62107" lon="0.60678">
        <ele>93.4</ele>
        <time>2024-03-17T09:25:15Z</time>
      </trkpt>
      <trkpt lat="46.62107" lon="0.607">
        <ele>93.6</ele>
        <time>2024-03-17T09:25:20Z</time>
      </trkpt>
      <trkpt lat="46.6211" lon="0.60733">
        <ele>93.2</ele>
        <time>2024-03-17T09:25:26Z</time>
      </trkpt>
      <trkpt lat="46.6211" lon="0.60739">
        <ele>93.2</ele>
        <time>2024-03-17T09:25:27Z</time>
      </trkpt>
      <trkpt lat="46.62108" lon="0.60769">
        <ele>93.2</ele>
        <time>2024-03-17T09:25:33Z</time>
      </trkpt>
      <trkpt lat="46.62108" lon="0.60793">
        <ele>94.8</ele>
        <time>2024-03-17T09:25:40Z</time>
      </trkpt>
      <trkpt lat="46.62108" lon="0.60809">
        <ele>96</ele>
        <time>2024-03-17T09:25:45Z</time>
      </trkpt>
      <trkpt lat="46.62106" lon="0.60816">
        <ele>96.4</ele>
        <time>2024-03-17T09:25:47Z</time>
      </trkpt>
      <trkpt lat="46.62106" lon="0.6083">
        <ele>97</ele>
        <time>2024-03-17T09:25:52Z</time>
      </trkpt>
      <trkpt lat="46.62106" lon="0.60836">
        <ele>97.4</ele>
        <time>2024-03-17T09:25:54Z</time>
      </trkpt>
      <trkpt lat="46.62106" lon="0.6085">
        <ele>98.2</ele>
        <time>2024-03-17T09:25:59Z</time>
      </trkpt>
      <trkpt lat="46.62106" lon="0.60856">
        <ele>98.6</ele>
        <time>2024-03-17T09:26:01Z</time>
      </trkpt>
      <trkpt lat="46.62106" lon="0.60867">
        <ele>99.4</ele>
        <time>2024-03-17T09:26:05Z</time>
      </trkpt>
      <trkpt lat="46.62106" lon="0.60882">
        <ele>100</ele>
        <time>2024-03-17T09:26:10Z</time>
      </trkpt>
      <trkpt lat="46.62105" lon="0.60897">
        <ele>100.4</ele>
        <time>2024-03-17T09:26:14Z</time>
      </trkpt>
      <trkpt lat="46.62105" lon="0.60903">
        <ele>100.6</ele>
        <time>2024-03-17T09:26:16Z</time>
      </trkpt>
      <trkpt lat="46.62106" lon="0.60919">
        <ele>101.4</ele>
        <time>2024-03-17T09:26:21Z</time>
      </trkpt>
      <trkpt lat="46.62107" lon="0.60926">
        <ele>101.6</ele>
        <time>2024-03-17T09:26:23Z</time>
      </trkpt>
      <trkpt lat="46.62106" lon="0.60936">
        <ele>101.6</ele>
        <time>2024-03-17T09:26:26Z</time>
      </trkpt>
      <trkpt lat="46.62103" lon="0.60939">
        <ele>101.6</ele>
        <time>2024-03-17T09:26:27Z</time>
      </trkpt>
      <trkpt lat="46.62092" lon="0.60951">
        <ele>101</ele>
        <time>2024-03-17T09:26:30Z</time>
      </trkpt>
      <trkpt lat="46.62088" lon="0.60957">
        <ele>100.8</ele>
        <time>2024-03-17T09:26:31Z</time>
      </trkpt>
      <trkpt lat="46.62084" lon="0.60964">
        <ele>100.6</ele>
        <time>2024-03-17T09:26:32Z</time>
      </trkpt>
      <trkpt lat="46.62079" lon="0.60981">
        <ele>100.4</ele>
        <time>2024-03-17T09:26:34Z</time>
      </trkpt>
      <trkpt lat="46.62078" lon="0.6099">
        <ele>100</ele>
        <time>2024-03-17T09:26:35Z</time>
      </trkpt>
      <trkpt lat="46.62072" lon="0.61025">
        <ele>99.2</ele>
        <time>2024-03-17T09:26:38Z</time>
      </trkpt>
      <trkpt lat="46.62068" lon="0.61035">
        <ele>99.2</ele>
        <time>2024-03-17T09:26:39Z</time>
      </trkpt>
      <trkpt lat="46.62056" lon="0.61045">
        <ele>97.6</ele>
        <time>2024-03-17T09:26:41Z</time>
      </trkpt>
      <trkpt lat="46.62042" lon="0.61046">
        <ele>96.8</ele>
        <time>2024-03-17T09:26:43Z</time>
      </trkpt>
      <trkpt lat="46.6203" lon="0.61045">
        <ele>96.6</ele>
        <time>2024-03-17T09:26:45Z</time>
      </trkpt>
      <trkpt lat="46.62009" lon="0.61045">
        <ele>97</ele>
        <time>2024-03-17T09:26:50Z</time>
      </trkpt>
      <trkpt lat="46.61998" lon="0.61047">
        <ele>97.6</ele>
        <time>2024-03-17T09:26:53Z</time>
      </trkpt>
      <trkpt lat="46.61987" lon="0.6105">
        <ele>98.8</ele>
        <time>2024-03-17T09:26:56Z</time>
      </trkpt>
      <trkpt lat="46.61972" lon="0.61056">
        <ele>100</ele>
        <time>2024-03-17T09:27:00Z</time>
      </trkpt>
      <trkpt lat="46.61958" lon="0.61064">
        <ele>101.2</ele>
        <time>2024-03-17T09:27:04Z</time>
      </trkpt>
      <trkpt lat="46.61954" lon="0.61066">
        <ele>101.4</ele>
        <time>2024-03-17T09:27:05Z</time>
      </trkpt>
      <trkpt lat="46.61943" lon="0.61072">
        <ele>102.4</ele>
        <time>2024-03-17T09:27:08Z</time>
      </trkpt>
      <trkpt lat="46.6193" lon="0.61078">
        <ele>103.2</ele>
        <time>2024-03-17T09:27:12Z</time>
      </trkpt>
      <trkpt lat="46.61915" lon="0.61085">
        <ele>103.4</ele>
        <time>2024-03-17T09:27:16Z</time>
      </trkpt>
      <trkpt lat="46.61904" lon="0.61087">
        <ele>104.2</ele>
        <time>2024-03-17T09:27:19Z</time>
      </trkpt>
      <trkpt lat="46.61891" lon="0.61084">
        <ele>104.6</ele>
        <time>2024-03-17T09:27:23Z</time>
      </trkpt>
      <trkpt lat="46.61888" lon="0.61081">
        <ele>104.6</ele>
        <time>2024-03-17T09:27:24Z</time>
      </trkpt>
      <trkpt lat="46.61874" lon="0.61059">
        <ele>105.2</ele>
        <time>2024-03-17T09:27:30Z</time>
      </trkpt>
      <trkpt lat="46.61864" lon="0.61038">
        <ele>105.4</ele>
        <time>2024-03-17T09:27:35Z</time>
      </trkpt>
      <trkpt lat="46.61858" lon="0.61031">
        <ele>105.4</ele>
        <time>2024-03-17T09:27:37Z</time>
      </trkpt>
      <trkpt lat="46.61854" lon="0.61029">
        <ele>105.6</ele>
        <time>2024-03-17T09:27:38Z</time>
      </trkpt>
      <trkpt lat="46.6185" lon="0.61028">
        <ele>105.6</ele>
        <time>2024-03-17T09:27:39Z</time>
      </trkpt>
      <trkpt lat="46.61841" lon="0.61028">
        <ele>105.6</ele>
        <time>2024-03-17T09:27:41Z</time>
      </trkpt>
      <trkpt lat="46.61811" lon="0.61028">
        <ele>105.4</ele>
        <time>2024-03-17T09:27:47Z</time>
      </trkpt>
      <trkpt lat="46.61805" lon="0.61026">
        <ele>105.2</ele>
        <time>2024-03-17T09:27:48Z</time>
      </trkpt>
      <trkpt lat="46.61799" lon="0.61024">
        <ele>105</ele>
        <time>2024-03-17T09:27:49Z</time>
      </trkpt>
      <trkpt lat="46.61786" lon="0.61015">
        <ele>104.2</ele>
        <time>2024-03-17T09:27:51Z</time>
      </trkpt>
      <trkpt lat="46.61779" lon="0.61011">
        <ele>104</ele>
        <time>2024-03-17T09:27:52Z</time>
      </trkpt>
      <trkpt lat="46.61765" lon="0.61005">
        <ele>103.6</ele>
        <time>2024-03-17T09:27:54Z</time>
      </trkpt>
      <trkpt lat="46.61751" lon="0.61001">
        <ele>103.4</ele>
        <time>2024-03-17T09:27:56Z</time>
      </trkpt>
      <trkpt lat="46.61744" lon="0.61">
        <ele>102.8</ele>
        <time>2024-03-17T09:27:57Z</time>
      </trkpt>
      <trkpt lat="46.61737" lon="0.61005">
        <ele>101.4</ele>
        <time>2024-03-17T09:27:59Z</time>
      </trkpt>
      <trkpt lat="46.61737" lon="0.61012">
        <ele>100.8</ele>
        <time>2024-03-17T09:28:01Z</time>
      </trkpt>
      <trkpt lat="46.61738" lon="0.61015">
        <ele>100.6</ele>
        <time>2024-03-17T09:28:02Z</time>
      </trkpt>
      <trkpt lat="46.61741" lon="0.61022">
        <ele>100.4</ele>
        <time>2024-03-17T09:28:04Z</time>
      </trkpt>
      <trkpt lat="46.6175" lon="0.6104">
        <ele>100.6</ele>
        <time>2024-03-17T09:28:08Z</time>
      </trkpt>
      <trkpt lat="46.61753" lon="0.61047">
        <ele>101</ele>
        <time>2024-03-17T09:28:09Z</time>
      </trkpt>
      <trkpt lat="46.61758" lon="0.61059">
        <ele>101.6</ele>
        <time>2024-03-17T09:28:11Z</time>
      </trkpt>
      <trkpt lat="46.61763" lon="0.61071">
        <ele>102</ele>
        <time>2024-03-17T09:28:13Z</time>
      </trkpt>
      <trkpt lat="46.61772" lon="0.6109">
        <ele>102.6</ele>
        <time>2024-03-17T09:28:16Z</time>
      </trkpt>
      <trkpt lat="46.61784" lon="0.61114">
        <ele>103.8</ele>
        <time>2024-03-17T09:28:20Z</time>
      </trkpt>
      <trkpt lat="46.61787" lon="0.6112">
        <ele>103.8</ele>
        <time>2024-03-17T09:28:21Z</time>
      </trkpt>
      <trkpt lat="46.61805" lon="0.61152">
        <ele>105</ele>
        <time>2024-03-17T09:28:27Z</time>
      </trkpt>
      <trkpt lat="46.61814" lon="0.61167">
        <ele>105.4</ele>
        <time>2024-03-17T09:28:30Z</time>
      </trkpt>
      <trkpt lat="46.61816" lon="0.61171">
        <ele>105.6</ele>
        <time>2024-03-17T09:28:31Z</time>
      </trkpt>
      <trkpt lat="46.61821" lon="0.6118">
        <ele>106</ele>
        <time>2024-03-17T09:28:33Z</time>
      </trkpt>
      <trkpt lat="46.61826" lon="0.61189">
        <ele>106.4</ele>
        <time>2024-03-17T09:28:35Z</time>
      </trkpt>
      <trkpt lat="46.61837" lon="0.61207">
        <ele>106.8</ele>
        <time>2024-03-17T09:28:39Z</time>
      </trkpt>
      <trkpt lat="46.61843" lon="0.61215">
        <ele>106.8</ele>
        <time>2024-03-17T09:28:41Z</time>
      </trkpt>
      <trkpt lat="46.61845" lon="0.6122">
        <ele>107</ele>
        <time>2024-03-17T09:28:42Z</time>
      </trkpt>
      <trkpt lat="46.61847" lon="0.61224">
        <ele>107</ele>
        <time>2024-03-17T09:28:43Z</time>
      </trkpt>
      <trkpt lat="46.61851" lon="0.61234">
        <ele>107.4</ele>
        <time>2024-03-17T09:28:45Z</time>
      </trkpt>
      <trkpt lat="46.61852" lon="0.6124">
        <ele>107.4</ele>
        <time>2024-03-17T09:28:46Z</time>
      </trkpt>
      <trkpt lat="46.61856" lon="0.6125">
        <ele>107.6</ele>
        <time>2024-03-17T09:28:48Z</time>
      </trkpt>
      <trkpt lat="46.61865" lon="0.61277">
        <ele>107.8</ele>
        <time>2024-03-17T09:28:53Z</time>
      </trkpt>
      <trkpt lat="46.61867" lon="0.61283">
        <ele>108</ele>
        <time>2024-03-17T09:28:54Z</time>
      </trkpt>
      <trkpt lat="46.61882" lon="0.61329">
        <ele>108.6</ele>
        <time>2024-03-17T09:29:01Z</time>
      </trkpt>
      <trkpt lat="46.61893" lon="0.61371">
        <ele>108.8</ele>
        <time>2024-03-17T09:29:08Z</time>
      </trkpt>
      <trkpt lat="46.61895" lon="0.61383">
        <ele>108.8</ele>
        <time>2024-03-17T09:29:10Z</time>
      </trkpt>
      <trkpt lat="46.61893" lon="0.61393">
        <ele>108.8</ele>
        <time>2024-03-17T09:29:12Z</time>
      </trkpt>
      <trkpt lat="46.61891" lon="0.61396">
        <ele>108.6</ele>
        <time>2024-03-17T09:29:13Z</time>
      </trkpt>
      <trkpt lat="46.61878" lon="0.61413">
        <ele>109</ele>
        <time>2024-03-17T09:29:18Z</time>
      </trkpt>
      <trkpt lat="46.61875" lon="0.61417">
        <ele>109.6</ele>
        <time>2024-03-17T09:29:19Z</time>
      </trkpt>
      <trkpt lat="46.61866" lon="0.61426">
        <ele>110.2</ele>
        <time>2024-03-17T09:29:22Z</time>
      </trkpt>
      <trkpt lat="46.61855" lon="0.61438">
        <ele>110.8</ele>
        <time>2024-03-17T09:29:26Z</time>
      </trkpt>
      <trkpt lat="46.61848" lon="0.61445">
        <ele>111</ele>
        <time>2024-03-17T09:29:28Z</time>
      </trkpt>
      <trkpt lat="46.61837" lon="0.61457">
        <ele>110</ele>
        <time>2024-03-17T09:29:32Z</time>
      </trkpt>
      <trkpt lat="46.61831" lon="0.61464">
        <ele>109.8</ele>
        <time>2024-03-17T09:29:34Z</time>
      </trkpt>
      <trkpt lat="46.61824" lon="0.6147">
        <ele>110</ele>
        <time>2024-03-17T09:29:36Z</time>
      </trkpt>
      <trkpt lat="46.61811" lon="0.61482">
        <ele>110.4</ele>
        <time>2024-03-17T09:29:40Z</time>
      </trkpt>
      <trkpt lat="46.618" lon="0.61493">
        <ele>110</ele>
        <time>2024-03-17T09:29:43Z</time>
      </trkpt>
      <trkpt lat="46.61792" lon="0.61503">
        <ele>109.4</ele>
        <time>2024-03-17T09:29:45Z</time>
      </trkpt>
      <trkpt lat="46.61786" lon="0.61507">
        <ele>109</ele>
        <time>2024-03-17T09:29:46Z</time>
      </trkpt>
      <trkpt lat="46.61766" lon="0.61528">
        <ele>107.8</ele>
        <time>2024-03-17T09:29:50Z</time>
      </trkpt>
      <trkpt lat="46.61756" lon="0.61539">
        <ele>107.6</ele>
        <time>2024-03-17T09:29:52Z</time>
      </trkpt>
      <trkpt lat="46.61737" lon="0.61557">
        <ele>106.6</ele>
        <time>2024-03-17T09:29:56Z</time>
      </trkpt>
      <trkpt lat="46.61734" lon="0.6156">
        <ele>106</ele>
        <time>2024-03-17T09:29:57Z</time>
      </trkpt>
      <trkpt lat="46.6173" lon="0.61563">
        <ele>105.2</ele>
        <time>2024-03-17T09:29:58Z</time>
      </trkpt>
      <trkpt lat="46.6172" lon="0.6157">
        <ele>104</ele>
        <time>2024-03-17T09:30:02Z</time>
      </trkpt>
      <trkpt lat="46.61718" lon="0.61572">
        <ele>104</ele>
        <time>2024-03-17T09:30:03Z</time>
      </trkpt>
      <trkpt lat="46.61713" lon="0.61581">
        <ele>103.4</ele>
        <time>2024-03-17T09:30:07Z</time>
      </trkpt>
      <trkpt lat="46.61713" lon="0.61584">
        <ele>103.4</ele>
        <time>2024-03-17T09:30:08Z</time>
      </trkpt>
      <trkpt lat="46.6171" lon="0.61611">
        <ele>103.4</ele>
        <time>2024-03-17T09:30:13Z</time>
      </trkpt>
      <trkpt lat="46.61706" lon="0.61653">
        <ele>104.2</ele>
        <time>2024-03-17T09:30:19Z</time>
      </trkpt>
      <trkpt lat="46.61709" lon="0.61666">
        <ele>104.2</ele>
        <time>2024-03-17T09:30:21Z</time>
      </trkpt>
      <trkpt lat="46.61713" lon="0.61678">
        <ele>104.2</ele>
        <time>2024-03-17T09:30:23Z</time>
      </trkpt>
      <trkpt lat="46.61728" lon="0.61716">
        <ele>105</ele>
        <time>2024-03-17T09:30:29Z</time>
      </trkpt>
      <trkpt lat="46.6173" lon="0.61723">
        <ele>105.2</ele>
        <time>2024-03-17T09:30:30Z</time>
      </trkpt>
      <trkpt lat="46.61738" lon="0.61765">
        <ele>106</ele>
        <time>2024-03-17T09:30:36Z</time>
      </trkpt>
      <trkpt lat="46.6174" lon="0.61772">
        <ele>106.4</ele>
        <time>2024-03-17T09:30:37Z</time>
      </trkpt>
      <trkpt lat="46.61742" lon="0.61784">
        <ele>106.6</ele>
        <time>2024-03-17T09:30:39Z</time>
      </trkpt>
      <trkpt lat="46.61742" lon="0.61801">
        <ele>107</ele>
        <time>2024-03-17T09:30:42Z</time>
      </trkpt>
      <trkpt lat="46.6174" lon="0.61816">
        <ele>108</ele>
        <time>2024-03-17T09:30:45Z</time>
      </trkpt>
      <trkpt lat="46.61739" lon="0.6183">
        <ele>108.8</ele>
        <time>2024-03-17T09:30:48Z</time>
      </trkpt>
      <trkpt lat="46.6174" lon="0.61835">
        <ele>109</ele>
        <time>2024-03-17T09:30:49Z</time>
      </trkpt>
      <trkpt lat="46.6174" lon="0.61864">
        <ele>109.8</ele>
        <time>2024-03-17T09:30:55Z</time>
      </trkpt>
      <trkpt lat="46.6174" lon="0.61892">
        <ele>109.8</ele>
        <time>2024-03-17T09:31:01Z</time>
      </trkpt>
      <trkpt lat="46.61741" lon="0.61908">
        <ele>110.2</ele>
        <time>2024-03-17T09:31:04Z</time>
      </trkpt>
      <trkpt lat="46.61744" lon="0.61923">
        <ele>110.8</ele>
        <time>2024-03-17T09:31:07Z</time>
      </trkpt>
      <trkpt lat="46.61751" lon="0.61955">
        <ele>111.2</ele>
        <time>2024-03-17T09:31:13Z</time>
      </trkpt>
      <trkpt lat="46.61752" lon="0.6196">
        <ele>111.2</ele>
        <time>2024-03-17T09:31:14Z</time>
      </trkpt>
      <trkpt lat="46.61754" lon="0.61993">
        <ele>111.6</ele>
        <time>2024-03-17T09:31:20Z</time>
      </trkpt>
      <trkpt lat="46.61746" lon="0.62022">
        <ele>112.4</ele>
        <time>2024-03-17T09:31:25Z</time>
      </trkpt>
      <trkpt lat="46.6174" lon="0.62038">
        <ele>112.6</ele>
        <time>2024-03-17T09:31:28Z</time>
      </trkpt>
      <trkpt lat="46.61732" lon="0.62064">
        <ele>112.4</ele>
        <time>2024-03-17T09:31:33Z</time>
      </trkpt>
      <trkpt lat="46.61717" lon="0.621">
        <ele>112.4</ele>
        <time>2024-03-17T09:31:40Z</time>
      </trkpt>
      <trkpt lat="46.61704" lon="0.62124">
        <ele>112</ele>
        <time>2024-03-17T09:31:46Z</time>
      </trkpt>
      <trkpt lat="46.61691" lon="0.62148">
        <ele>112.4</ele>
        <time>2024-03-17T09:31:52Z</time>
      </trkpt>
      <trkpt lat="46.61679" lon="0.62185">
        <ele>112.6</ele>
        <time>2024-03-17T09:31:59Z</time>
      </trkpt>
      <trkpt lat="46.61667" lon="0.62232">
        <ele>112.2</ele>
        <time>2024-03-17T09:32:06Z</time>
      </trkpt>
      <trkpt lat="46.61651" lon="0.62293">
        <ele>111.6</ele>
        <time>2024-03-17T09:32:14Z</time>
      </trkpt>
      <trkpt lat="46.61648" lon="0.62301">
        <ele>111.2</ele>
        <time>2024-03-17T09:32:15Z</time>
      </trkpt>
      <trkpt lat="46.61641" lon="0.62327">
        <ele>110</ele>
        <time>2024-03-17T09:32:18Z</time>
      </trkpt>
      <trkpt lat="46.61636" lon="0.62345">
        <ele>109.2</ele>
        <time>2024-03-17T09:32:20Z</time>
      </trkpt>
      <trkpt lat="46.61634" lon="0.62355">
        <ele>108.8</ele>
        <time>2024-03-17T09:32:21Z</time>
      </trkpt>
      <trkpt lat="46.61628" lon="0.62389">
        <ele>108</ele>
        <time>2024-03-17T09:32:25Z</time>
      </trkpt>
      <trkpt lat="46.61627" lon="0.62397">
        <ele>107.8</ele>
        <time>2024-03-17T09:32:26Z</time>
      </trkpt>
      <trkpt lat="46.61624" lon="0.62436">
        <ele>107.8</ele>
        <time>2024-03-17T09:32:32Z</time>
      </trkpt>
      <trkpt lat="46.61619" lon="0.62458">
        <ele>108.4</ele>
        <time>2024-03-17T09:32:37Z</time>
      </trkpt>
      <trkpt lat="46.61612" lon="0.6246">
        <ele>108.8</ele>
        <time>2024-03-17T09:32:39Z</time>
      </trkpt>
      <trkpt lat="46.61608" lon="0.62459">
        <ele>109</ele>
        <time>2024-03-17T09:32:40Z</time>
      </trkpt>
      <trkpt lat="46.61588" lon="0.62445">
        <ele>109.2</ele>
        <time>2024-03-17T09:32:45Z</time>
      </trkpt>
      <trkpt lat="46.61578" lon="0.62443">
        <ele>107.6</ele>
        <time>2024-03-17T09:32:48Z</time>
      </trkpt>
      <trkpt lat="46.61577" lon="0.62443">
        <ele>107.4</ele>
        <time>2024-03-17T09:32:49Z</time>
      </trkpt>
      <trkpt lat="46.61568" lon="0.62445">
        <ele>107.2</ele>
        <time>2024-03-17T09:32:54Z</time>
      </trkpt>
      <trkpt lat="46.6155" lon="0.62454">
        <ele>107.2</ele>
        <time>2024-03-17T09:32:59Z</time>
      </trkpt>
      <trkpt lat="46.61523" lon="0.6247">
        <ele>106.8</ele>
        <time>2024-03-17T09:33:05Z</time>
      </trkpt>
      <trkpt lat="46.61517" lon="0.62472">
        <ele>106.8</ele>
        <time>2024-03-17T09:33:06Z</time>
      </trkpt>
      <trkpt lat="46.61506" lon="0.62473">
        <ele>106.6</ele>
        <time>2024-03-17T09:33:08Z</time>
      </trkpt>
      <trkpt lat="46.61496" lon="0.62475">
        <ele>106.4</ele>
        <time>2024-03-17T09:33:10Z</time>
      </trkpt>
      <trkpt lat="46.61487" lon="0.62477">
        <ele>106</ele>
        <time>2024-03-17T09:33:12Z</time>
      </trkpt>
      <trkpt lat="46.61482" lon="0.62479">
        <ele>105.6</ele>
        <time>2024-03-17T09:33:13Z</time>
      </trkpt>
      <trkpt lat="46.61471" lon="0.62483">
        <ele>105.2</ele>
        <time>2024-03-17T09:33:15Z</time>
      </trkpt>
      <trkpt lat="46.61465" lon="0.62485">
        <ele>105</ele>
        <time>2024-03-17T09:33:16Z</time>
      </trkpt>
      <trkpt lat="46.6146" lon="0.62485">
        <ele>104.4</ele>
        <time>2024-03-17T09:33:17Z</time>
      </trkpt>
      <trkpt lat="46.61455" lon="0.62483">
        <ele>104.2</ele>
        <time>2024-03-17T09:33:18Z</time>
      </trkpt>
      <trkpt lat="46.6145" lon="0.62479">
        <ele>103.8</ele>
        <time>2024-03-17T09:33:19Z</time>
      </trkpt>
      <trkpt lat="46.6144" lon="0.62467">
        <ele>103.4</ele>
        <time>2024-03-17T09:33:21Z</time>
      </trkpt>
      <trkpt lat="46.61432" lon="0.62454">
        <ele>103.2</ele>
        <time>2024-03-17T09:33:23Z</time>
      </trkpt>
      <trkpt lat="46.61413" lon="0.62421">
        <ele>103.6</ele>
        <time>2024-03-17T09:33:28Z</time>
      </trkpt>
      <trkpt lat="46.61409" lon="0.62415">
        <ele>103.6</ele>
        <time>2024-03-17T09:33:29Z</time>
      </trkpt>
      <trkpt lat="46.6139" lon="0.62395">
        <ele>104.6</ele>
        <time>2024-03-17T09:33:33Z</time>
      </trkpt>
      <trkpt lat="46.61378" lon="0.62382">
        <ele>105</ele>
        <time>2024-03-17T09:33:36Z</time>
      </trkpt>
      <trkpt lat="46.61354" lon="0.62351">
        <ele>105.4</ele>
        <time>2024-03-17T09:33:42Z</time>
      </trkpt>
      <trkpt lat="46.61324" lon="0.62319">
        <ele>104.8</ele>
        <time>2024-03-17T09:33:49Z</time>
      </trkpt>
      <trkpt lat="46.61308" lon="0.62305">
        <ele>105.6</ele>
        <time>2024-03-17T09:33:53Z</time>
      </trkpt>
      <trkpt lat="46.61293" lon="0.62294">
        <ele>105.8</ele>
        <time>2024-03-17T09:33:57Z</time>
      </trkpt>
      <trkpt lat="46.61274" lon="0.62282">
        <ele>106.6</ele>
        <time>2024-03-17T09:34:03Z</time>
      </trkpt>
      <trkpt lat="46.61271" lon="0.6228">
        <ele>107</ele>
        <time>2024-03-17T09:34:04Z</time>
      </trkpt>
      <trkpt lat="46.61254" lon="0.62262">
        <ele>107.4</ele>
        <time>2024-03-17T09:34:10Z</time>
      </trkpt>
      <trkpt lat="46.61245" lon="0.62249">
        <ele>107.6</ele>
        <time>2024-03-17T09:34:13Z</time>
      </trkpt>
      <trkpt lat="46.61232" lon="0.62229">
        <ele>108</ele>
        <time>2024-03-17T09:34:17Z</time>
      </trkpt>
      <trkpt lat="46.612" lon="0.62182">
        <ele>106.8</ele>
        <time>2024-03-17T09:34:26Z</time>
      </trkpt>
      <trkpt lat="46.6119" lon="0.62165">
        <ele>106.6</ele>
        <time>2024-03-17T09:34:29Z</time>
      </trkpt>
      <trkpt lat="46.61186" lon="0.62161">
        <ele>106.4</ele>
        <time>2024-03-17T09:34:30Z</time>
      </trkpt>
      <trkpt lat="46.61182" lon="0.62157">
        <ele>106.2</ele>
        <time>2024-03-17T09:34:31Z</time>
      </trkpt>
      <trkpt lat="46.61155" lon="0.62128">
        <ele>105.6</ele>
        <time>2024-03-17T09:34:37Z</time>
      </trkpt>
      <trkpt lat="46.6115" lon="0.62124">
        <ele>105.4</ele>
        <time>2024-03-17T09:34:38Z</time>
      </trkpt>
      <trkpt lat="46.61139" lon="0.62119">
        <ele>104.8</ele>
        <time>2024-03-17T09:34:40Z</time>
      </trkpt>
      <trkpt lat="46.61127" lon="0.62115">
        <ele>104.4</ele>
        <time>2024-03-17T09:34:42Z</time>
      </trkpt>
      <trkpt lat="46.61122" lon="0.62112">
        <ele>104.4</ele>
        <time>2024-03-17T09:34:43Z</time>
      </trkpt>
      <trkpt lat="46.61106" lon="0.62098">
        <ele>104.4</ele>
        <time>2024-03-17T09:34:46Z</time>
      </trkpt>
      <trkpt lat="46.61101" lon="0.62093">
        <ele>104.4</ele>
        <time>2024-03-17T09:34:47Z</time>
      </trkpt>
      <trkpt lat="46.61096" lon="0.62087">
        <ele>104.2</ele>
        <time>2024-03-17T09:34:48Z</time>
      </trkpt>
      <trkpt lat="46.61079" lon="0.62058">
        <ele>105</ele>
        <time>2024-03-17T09:34:52Z</time>
      </trkpt>
      <trkpt lat="46.61051" lon="0.62002">
        <ele>105.6</ele>
        <time>2024-03-17T09:35:00Z</time>
      </trkpt>
      <trkpt lat="46.61037" lon="0.61979">
        <ele>106.2</ele>
        <time>2024-03-17T09:35:05Z</time>
      </trkpt>
      <trkpt lat="46.61027" lon="0.61967">
        <ele>106.6</ele>
        <time>2024-03-17T09:35:09Z</time>
      </trkpt>
      <trkpt lat="46.6102" lon="0.6196">
        <ele>107</ele>
        <time>2024-03-17T09:35:12Z</time>
      </trkpt>
      <trkpt lat="46.61015" lon="0.61948">
        <ele>107.8</ele>
        <time>2024-03-17T09:35:16Z</time>
      </trkpt>
      <trkpt lat="46.61015" lon="0.61944">
        <ele>107.8</ele>
        <time>2024-03-17T09:35:17Z</time>
      </trkpt>
      <trkpt lat="46.61021" lon="0.61917">
        <ele>108.2</ele>
        <time>2024-03-17T09:35:23Z</time>
      </trkpt>
      <trkpt lat="46.6103" lon="0.61879">
        <ele>108.6</ele>
        <time>2024-03-17T09:35:30Z</time>
      </trkpt>
      <trkpt lat="46.61036" lon="0.61844">
        <ele>108.6</ele>
        <time>2024-03-17T09:35:35Z</time>
      </trkpt>
      <trkpt lat="46.61038" lon="0.61829">
        <ele>108.6</ele>
        <time>2024-03-17T09:35:37Z</time>
      </trkpt>
      <trkpt lat="46.61039" lon="0.6178">
        <ele>108.8</ele>
        <time>2024-03-17T09:35:43Z</time>
      </trkpt>
      <trkpt lat="46.61039" lon="0.61763">
        <ele>108.8</ele>
        <time>2024-03-17T09:35:45Z</time>
      </trkpt>
      <trkpt lat="46.61038" lon="0.61702">
        <ele>108.8</ele>
        <time>2024-03-17T09:35:52Z</time>
      </trkpt>
      <trkpt lat="46.61036" lon="0.61658">
        <ele>108.8</ele>
        <time>2024-03-17T09:35:57Z</time>
      </trkpt>
      <trkpt lat="46.61034" lon="0.61642">
        <ele>108.8</ele>
        <time>2024-03-17T09:35:59Z</time>
      </trkpt>
      <trkpt lat="46.61032" lon="0.61634">
        <ele>108.6</ele>
        <time>2024-03-17T09:36:00Z</time>
      </trkpt>
      <trkpt lat="46.61025" lon="0.61622">
        <ele>108.6</ele>
        <time>2024-03-17T09:36:02Z</time>
      </trkpt>
      <trkpt lat="46.6102" lon="0.6162">
        <ele>108.6</ele>
        <time>2024-03-17T09:36:03Z</time>
      </trkpt>
      <trkpt lat="46.61015" lon="0.61621">
        <ele>108.6</ele>
        <time>2024-03-17T09:36:04Z</time>
      </trkpt>
      <trkpt lat="46.61" lon="0.61625">
        <ele>108.8</ele>
        <time>2024-03-17T09:36:07Z</time>
      </trkpt>
      <trkpt lat="46.6097" lon="0.61635">
        <ele>109.6</ele>
        <time>2024-03-17T09:36:13Z</time>
      </trkpt>
      <trkpt lat="46.60956" lon="0.6164">
        <ele>109.8</ele>
        <time>2024-03-17T09:36:16Z</time>
      </trkpt>
      <trkpt lat="46.60931" lon="0.61651">
        <ele>110.4</ele>
        <time>2024-03-17T09:36:21Z</time>
      </trkpt>
      <trkpt lat="46.60911" lon="0.61662">
        <ele>111</ele>
        <time>2024-03-17T09:36:25Z</time>
      </trkpt>
      <trkpt lat="46.60889" lon="0.61673">
        <ele>112</ele>
        <time>2024-03-17T09:36:30Z</time>
      </trkpt>
      <trkpt lat="46.60884" lon="0.61676">
        <ele>112</ele>
        <time>2024-03-17T09:36:31Z</time>
      </trkpt>
      <trkpt lat="46.60864" lon="0.61689">
        <ele>112.6</ele>
        <time>2024-03-17T09:36:36Z</time>
      </trkpt>
      <trkpt lat="46.60856" lon="0.61695">
        <ele>113.2</ele>
        <time>2024-03-17T09:36:38Z</time>
      </trkpt>
      <trkpt lat="46.60824" lon="0.61718">
        <ele>114.2</ele>
        <time>2024-03-17T09:36:46Z</time>
      </trkpt>
      <trkpt lat="46.60821" lon="0.6172">
        <ele>114.2</ele>
        <time>2024-03-17T09:36:47Z</time>
      </trkpt>
      <trkpt lat="46.60802" lon="0.61731">
        <ele>114.6</ele>
        <time>2024-03-17T09:36:52Z</time>
      </trkpt>
      <trkpt lat="46.60799" lon="0.61734">
        <ele>114.8</ele>
        <time>2024-03-17T09:36:53Z</time>
      </trkpt>
      <trkpt lat="46.60797" lon="0.61739">
        <ele>115</ele>
        <time>2024-03-17T09:36:54Z</time>
      </trkpt>
      <trkpt lat="46.60793" lon="0.61756">
        <ele>115.2</ele>
        <time>2024-03-17T09:36:57Z</time>
      </trkpt>
      <trkpt lat="46.60785" lon="0.61785">
        <ele>116.2</ele>
        <time>2024-03-17T09:37:03Z</time>
      </trkpt>
      <trkpt lat="46.60771" lon="0.61813">
        <ele>117</ele>
        <time>2024-03-17T09:37:10Z</time>
      </trkpt>
      <trkpt lat="46.60757" lon="0.61836">
        <ele>117.4</ele>
        <time>2024-03-17T09:37:16Z</time>
      </trkpt>
      <trkpt lat="46.6074" lon="0.61869">
        <ele>117.8</ele>
        <time>2024-03-17T09:37:23Z</time>
      </trkpt>
      <trkpt lat="46.60724" lon="0.61897">
        <ele>118.4</ele>
        <time>2024-03-17T09:37:29Z</time>
      </trkpt>
      <trkpt lat="46.60722" lon="0.61901">
        <ele>118.6</ele>
        <time>2024-03-17T09:37:30Z</time>
      </trkpt>
      <trkpt lat="46.60705" lon="0.61929">
        <ele>119.2</ele>
        <time>2024-03-17T09:37:36Z</time>
      </trkpt>
      <trkpt lat="46.60687" lon="0.61967">
        <ele>119.4</ele>
        <time>2024-03-17T09:37:43Z</time>
      </trkpt>
      <trkpt lat="46.60666" lon="0.62">
        <ele>119.6</ele>
        <time>2024-03-17T09:37:50Z</time>
      </trkpt>
      <trkpt lat="46.60657" lon="0.62011">
        <ele>119.6</ele>
        <time>2024-03-17T09:37:53Z</time>
      </trkpt>
      <trkpt lat="46.60646" lon="0.62028">
        <ele>119.6</ele>
        <time>2024-03-17T09:37:57Z</time>
      </trkpt>
      <trkpt lat="46.60643" lon="0.62033">
        <ele>119.8</ele>
        <time>2024-03-17T09:37:58Z</time>
      </trkpt>
      <trkpt lat="46.60629" lon="0.62049">
        <ele>120</ele>
        <time>2024-03-17T09:38:03Z</time>
      </trkpt>
      <trkpt lat="46.60622" lon="0.62045">
        <ele>119.8</ele>
        <time>2024-03-17T09:38:07Z</time>
      </trkpt>
      <trkpt lat="46.60611" lon="0.62042">
        <ele>119.8</ele>
        <time>2024-03-17T09:38:12Z</time>
      </trkpt>
      <trkpt lat="46.60603" lon="0.62042">
        <ele>119.6</ele>
        <time>2024-03-17T09:38:16Z</time>
      </trkpt>
      <trkpt lat="46.60591" lon="0.62044">
        <ele>119.8</ele>
        <time>2024-03-17T09:38:20Z</time>
      </trkpt>
      <trkpt lat="46.60585" lon="0.62048">
        <ele>119.8</ele>
        <time>2024-03-17T09:38:22Z</time>
      </trkpt>
      <trkpt lat="46.6058" lon="0.62048">
        <ele>119.8</ele>
        <time>2024-03-17T09:38:24Z</time>
      </trkpt>
      <trkpt lat="46.60574" lon="0.62049">
        <ele>119.6</ele>
        <time>2024-03-17T09:38:26Z</time>
      </trkpt>
      <trkpt lat="46.6057" lon="0.62053">
        <ele>119.6</ele>
        <time>2024-03-17T09:38:28Z</time>
      </trkpt>
      <trkpt lat="46.6056" lon="0.62062">
        <ele>119.4</ele>
        <time>2024-03-17T09:38:33Z</time>
      </trkpt>
      <trkpt lat="46.6055" lon="0.62076">
        <ele>119</ele>
        <time>2024-03-17T09:38:39Z</time>
      </trkpt>
      <trkpt lat="46.60546" lon="0.62077">
        <ele>118.8</ele>
        <time>2024-03-17T09:38:41Z</time>
      </trkpt>
      <trkpt lat="46.60535" lon="0.62082">
        <ele>118.8</ele>
        <time>2024-03-17T09:38:45Z</time>
      </trkpt>
      <trkpt lat="46.60521" lon="0.62092">
        <ele>118.8</ele>
        <time>2024-03-17T09:38:50Z</time>
      </trkpt>
      <trkpt lat="46.60518" lon="0.62095">
        <ele>118.4</ele>
        <time>2024-03-17T09:38:51Z</time>
      </trkpt>
      <trkpt lat="46.60516" lon="0.62098">
        <ele>118.4</ele>
        <time>2024-03-17T09:38:52Z</time>
      </trkpt>
      <trkpt lat="46.60509" lon="0.62107">
        <ele>118.2</ele>
        <time>2024-03-17T09:38:54Z</time>
      </trkpt>
      <trkpt lat="46.60503" lon="0.62117">
        <ele>118</ele>
        <time>2024-03-17T09:38:56Z</time>
      </trkpt>
      <trkpt lat="46.60499" lon="0.62126">
        <ele>117.4</ele>
        <time>2024-03-17T09:38:58Z</time>
      </trkpt>
      <trkpt lat="46.60496" lon="0.62134">
        <ele>116.6</ele>
        <time>2024-03-17T09:39:00Z</time>
      </trkpt>
      <trkpt lat="46.6049" lon="0.62143">
        <ele>115.8</ele>
        <time>2024-03-17T09:39:02Z</time>
      </trkpt>
      <trkpt lat="46.60484" lon="0.62151">
        <ele>115.2</ele>
        <time>2024-03-17T09:39:04Z</time>
      </trkpt>
      <trkpt lat="46.6048" lon="0.62161">
        <ele>114.8</ele>
        <time>2024-03-17T09:39:06Z</time>
      </trkpt>
      <trkpt lat="46.60475" lon="0.62176">
        <ele>114</ele>
        <time>2024-03-17T09:39:09Z</time>
      </trkpt>
      <trkpt lat="46.60474" lon="0.6218">
        <ele>113.6</ele>
        <time>2024-03-17T09:39:10Z</time>
      </trkpt>
      <trkpt lat="46.6047" lon="0.62185">
        <ele>112.4</ele>
        <time>2024-03-17T09:39:11Z</time>
      </trkpt>
      <trkpt lat="46.6047" lon="0.62185">
        <ele>111.4</ele>
        <time>2024-03-17T09:39:13Z</time>
      </trkpt>
      <trkpt lat="46.60455" lon="0.62197">
        <ele>110.8</ele>
        <time>2024-03-17T09:39:14Z</time>
      </trkpt>
      <trkpt lat="46.6045" lon="0.62198">
        <ele>110.6</ele>
        <time>2024-03-17T09:39:15Z</time>
      </trkpt>
      <trkpt lat="46.60443" lon="0.62201">
        <ele>110.2</ele>
        <time>2024-03-17T09:39:17Z</time>
      </trkpt>
      <trkpt lat="46.60439" lon="0.62202">
        <ele>110</ele>
        <time>2024-03-17T09:39:18Z</time>
      </trkpt>
      <trkpt lat="46.60436" lon="0.62204">
        <ele>109.2</ele>
        <time>2024-03-17T09:39:19Z</time>
      </trkpt>
      <trkpt lat="46.60433" lon="0.62204">
        <ele>108.4</ele>
        <time>2024-03-17T09:39:20Z</time>
      </trkpt>
      <trkpt lat="46.6043" lon="0.62205">
        <ele>108</ele>
        <time>2024-03-17T09:39:21Z</time>
      </trkpt>
      <trkpt lat="46.6042" lon="0.62205">
        <ele>107.4</ele>
        <time>2024-03-17T09:39:24Z</time>
      </trkpt>
      <trkpt lat="46.60415" lon="0.62205">
        <ele>107.2</ele>
        <time>2024-03-17T09:39:25Z</time>
      </trkpt>
      <trkpt lat="46.60406" lon="0.62202">
        <ele>106.8</ele>
        <time>2024-03-17T09:39:27Z</time>
      </trkpt>
      <trkpt lat="46.60398" lon="0.62203">
        <ele>106.4</ele>
        <time>2024-03-17T09:39:29Z</time>
      </trkpt>
      <trkpt lat="46.60393" lon="0.62203">
        <ele>106.4</ele>
        <time>2024-03-17T09:39:30Z</time>
      </trkpt>
      <trkpt lat="46.60388" lon="0.62203">
        <ele>106.2</ele>
        <time>2024-03-17T09:39:31Z</time>
      </trkpt>
      <trkpt lat="46.60381" lon="0.62201">
        <ele>105.4</ele>
        <time>2024-03-17T09:39:33Z</time>
      </trkpt>
      <trkpt lat="46.60378" lon="0.62199">
        <ele>105</ele>
        <time>2024-03-17T09:39:34Z</time>
      </trkpt>
      <trkpt lat="46.60371" lon="0.62196">
        <ele>104.4</ele>
        <time>2024-03-17T09:39:36Z</time>
      </trkpt>
      <trkpt lat="46.60367" lon="0.62194">
        <ele>104.2</ele>
        <time>2024-03-17T09:39:37Z</time>
      </trkpt>
      <trkpt lat="46.60355" lon="0.62192">
        <ele>103.8</ele>
        <time>2024-03-17T09:39:39Z</time>
      </trkpt>
      <trkpt lat="46.60345" lon="0.62189">
        <ele>103.6</ele>
        <time>2024-03-17T09:39:41Z</time>
      </trkpt>
      <trkpt lat="46.60336" lon="0.62186">
        <ele>102.6</ele>
        <time>2024-03-17T09:39:43Z</time>
      </trkpt>
      <trkpt lat="46.60331" lon="0.62184">
        <ele>102.4</ele>
        <time>2024-03-17T09:39:44Z</time>
      </trkpt>
      <trkpt lat="46.60322" lon="0.62181">
        <ele>101.6</ele>
        <time>2024-03-17T09:39:46Z</time>
      </trkpt>
      <trkpt lat="46.60318" lon="0.62181">
        <ele>101.4</ele>
        <time>2024-03-17T09:39:47Z</time>
      </trkpt>
      <trkpt lat="46.60314" lon="0.62181">
        <ele>101.2</ele>
        <time>2024-03-17T09:39:48Z</time>
      </trkpt>
      <trkpt lat="46.60308" lon="0.62178">
        <ele>100.2</ele>
        <time>2024-03-17T09:39:50Z</time>
      </trkpt>
      <trkpt lat="46.60302" lon="0.62172">
        <ele>99.8</ele>
        <time>2024-03-17T09:39:52Z</time>
      </trkpt>
      <trkpt lat="46.60293" lon="0.62168">
        <ele>99.2</ele>
        <time>2024-03-17T09:39:54Z</time>
      </trkpt>
      <trkpt lat="46.60288" lon="0.62166">
        <ele>98.8</ele>
        <time>2024-03-17T09:39:55Z</time>
      </trkpt>
      <trkpt lat="46.60283" lon="0.62165">
        <ele>98</ele>
        <time>2024-03-17T09:39:56Z</time>
      </trkpt>
      <trkpt lat="46.60278" lon="0.62164">
        <ele>96.2</ele>
        <time>2024-03-17T09:39:57Z</time>
      </trkpt>
      <trkpt lat="46.60274" lon="0.62162">
        <ele>94.8</ele>
        <time>2024-03-17T09:39:58Z</time>
      </trkpt>
      <trkpt lat="46.60271" lon="0.62161">
        <ele>93.8</ele>
        <time>2024-03-17T09:39:59Z</time>
      </trkpt>
      <trkpt lat="46.60263" lon="0.6216">
        <ele>91.8</ele>
        <time>2024-03-17T09:40:01Z</time>
      </trkpt>
      <trkpt lat="46.60257" lon="0.62162">
        <ele>90</ele>
        <time>2024-03-17T09:40:03Z</time>
      </trkpt>
      <trkpt lat="46.60254" lon="0.62162">
        <ele>89.2</ele>
        <time>2024-03-17T09:40:04Z</time>
      </trkpt>
      <trkpt lat="46.60252" lon="0.62163">
        <ele>87.8</ele>
        <time>2024-03-17T09:40:05Z</time>
      </trkpt>
      <trkpt lat="46.60248" lon="0.62167">
        <ele>86.4</ele>
        <time>2024-03-17T09:40:07Z</time>
      </trkpt>
      <trkpt lat="46.60242" lon="0.62175">
        <ele>85</ele>
        <time>2024-03-17T09:40:09Z</time>
      </trkpt>
      <trkpt lat="46.60236" lon="0.62181">
        <ele>83.2</ele>
        <time>2024-03-17T09:40:11Z</time>
      </trkpt>
      <trkpt lat="46.60232" lon="0.62184">
        <ele>82</ele>
        <time>2024-03-17T09:40:12Z</time>
      </trkpt>
      <trkpt lat="46.60229" lon="0.62186">
        <ele>81.2</ele>
        <time>2024-03-17T09:40:13Z</time>
      </trkpt>
      <trkpt lat="46.60227" lon="0.62187">
        <ele>80.8</ele>
        <time>2024-03-17T09:40:14Z</time>
      </trkpt>
      <trkpt lat="46.60223" lon="0.62188">
        <ele>80.2</ele>
        <time>2024-03-17T09:40:16Z</time>
      </trkpt>
      <trkpt lat="46.6022" lon="0.62185">
        <ele>80.2</ele>
        <time>2024-03-17T09:40:18Z</time>
      </trkpt>
      <trkpt lat="46.60207" lon="0.62168">
        <ele>80.4</ele>
        <time>2024-03-17T09:40:24Z</time>
      </trkpt>
      <trkpt lat="46.60205" lon="0.62165">
        <ele>80.6</ele>
        <time>2024-03-17T09:40:25Z</time>
      </trkpt>
      <trkpt lat="46.602" lon="0.62158">
        <ele>80.4</ele>
        <time>2024-03-17T09:40:27Z</time>
      </trkpt>
      <trkpt lat="46.60189" lon="0.62148">
        <ele>80</ele>
        <time>2024-03-17T09:40:30Z</time>
      </trkpt>
      <trkpt lat="46.60166" lon="0.62127">
        <ele>79.8</ele>
        <time>2024-03-17T09:40:36Z</time>
      </trkpt>
      <trkpt lat="46.60159" lon="0.62117">
        <ele>79.8</ele>
        <time>2024-03-17T09:40:38Z</time>
      </trkpt>
      <trkpt lat="46.60155" lon="0.62112">
        <ele>79.6</ele>
        <time>2024-03-17T09:40:39Z</time>
      </trkpt>
      <trkpt lat="46.60151" lon="0.62106">
        <ele>79.2</ele>
        <time>2024-03-17T09:40:40Z</time>
      </trkpt>
      <trkpt lat="46.60143" lon="0.62095">
        <ele>78.2</ele>
        <time>2024-03-17T09:40:42Z</time>
      </trkpt>
      <trkpt lat="46.60136" lon="0.62084">
        <ele>77.4</ele>
        <time>2024-03-17T09:40:45Z</time>
      </trkpt>
      <trkpt lat="46.60133" lon="0.6208">
        <ele>77</ele>
        <time>2024-03-17T09:40:47Z</time>
      </trkpt>
      <trkpt lat="46.60129" lon="0.62073">
        <ele>75.8</ele>
        <time>2024-03-17T09:40:50Z</time>
      </trkpt>
      <trkpt lat="46.60126" lon="0.62068">
        <ele>75.8</ele>
        <time>2024-03-17T09:40:52Z</time>
      </trkpt>
      <trkpt lat="46.60121" lon="0.62055">
        <ele>75.6</ele>
        <time>2024-03-17T09:40:57Z</time>
      </trkpt>
      <trkpt lat="46.6011" lon="0.62031">
        <ele>75.8</ele>
        <time>2024-03-17T09:41:03Z</time>
      </trkpt>
      <trkpt lat="46.60097" lon="0.62001">
        <ele>76</ele>
        <time>2024-03-17T09:41:10Z</time>
      </trkpt>
      <trkpt lat="46.60092" lon="0.6199">
        <ele>75.8</ele>
        <time>2024-03-17T09:41:13Z</time>
      </trkpt>
      <trkpt lat="46.60089" lon="0.61982">
        <ele>75.6</ele>
        <time>2024-03-17T09:41:15Z</time>
      </trkpt>
      <trkpt lat="46.60087" lon="0.61977">
        <ele>75.8</ele>
        <time>2024-03-17T09:41:16Z</time>
      </trkpt>
      <trkpt lat="46.6008" lon="0.61948">
        <ele>75.2</ele>
        <time>2024-03-17T09:41:20Z</time>
      </trkpt>
      <trkpt lat="46.6008" lon="0.61933">
        <ele>75</ele>
        <time>2024-03-17T09:41:22Z</time>
      </trkpt>
      <trkpt lat="46.6008" lon="0.61915">
        <ele>74.6</ele>
        <time>2024-03-17T09:41:24Z</time>
      </trkpt>
      <trkpt lat="46.6008" lon="0.6189">
        <ele>74.6</ele>
        <time>2024-03-17T09:41:27Z</time>
      </trkpt>
      <trkpt lat="46.60078" lon="0.61873">
        <ele>74.4</ele>
        <time>2024-03-17T09:41:29Z</time>
      </trkpt>
      <trkpt lat="46.60078" lon="0.61865">
        <ele>74.4</ele>
        <time>2024-03-17T09:41:30Z</time>
      </trkpt>
      <trkpt lat="46.60077" lon="0.61825">
        <ele>74</ele>
        <time>2024-03-17T09:41:34Z</time>
      </trkpt>
      <trkpt lat="46.60077" lon="0.61796">
        <ele>74</ele>
        <time>2024-03-17T09:41:37Z</time>
      </trkpt>
      <trkpt lat="46.60079" lon="0.61779">
        <ele>73.8</ele>
        <time>2024-03-17T09:41:39Z</time>
      </trkpt>
      <trkpt lat="46.60082" lon="0.61754">
        <ele>73.6</ele>
        <time>2024-03-17T09:41:42Z</time>
      </trkpt>
      <trkpt lat="46.6008" lon="0.61736">
        <ele>73.4</ele>
        <time>2024-03-17T09:41:44Z</time>
      </trkpt>
      <trkpt lat="46.6008" lon="0.61727">
        <ele>73.4</ele>
        <time>2024-03-17T09:41:45Z</time>
      </trkpt>
      <trkpt lat="46.60079" lon="0.61718">
        <ele>73.2</ele>
        <time>2024-03-17T09:41:46Z</time>
      </trkpt>
      <trkpt lat="46.6008" lon="0.61693">
        <ele>72.4</ele>
        <time>2024-03-17T09:41:49Z</time>
      </trkpt>
      <trkpt lat="46.6008" lon="0.61685">
        <ele>72.2</ele>
        <time>2024-03-17T09:41:50Z</time>
      </trkpt>
      <trkpt lat="46.60081" lon="0.61677">
        <ele>72</ele>
        <time>2024-03-17T09:41:51Z</time>
      </trkpt>
      <trkpt lat="46.60083" lon="0.6166">
        <ele>71.4</ele>
        <time>2024-03-17T09:41:53Z</time>
      </trkpt>
      <trkpt lat="46.60082" lon="0.61649">
        <ele>71.2</ele>
        <time>2024-03-17T09:41:54Z</time>
      </trkpt>
      <trkpt lat="46.6008" lon="0.61629">
        <ele>71.2</ele>
        <time>2024-03-17T09:41:56Z</time>
      </trkpt>
      <trkpt lat="46.60078" lon="0.61617">
        <ele>70.8</ele>
        <time>2024-03-17T09:41:57Z</time>
      </trkpt>
      <trkpt lat="46.60074" lon="0.61587">
        <ele>70.6</ele>
        <time>2024-03-17T09:42:00Z</time>
      </trkpt>
      <trkpt lat="46.60073" lon="0.61579">
        <ele>70.6</ele>
        <time>2024-03-17T09:42:01Z</time>
      </trkpt>
      <trkpt lat="46.6007" lon="0.61562">
        <ele>70.4</ele>
        <time>2024-03-17T09:42:03Z</time>
      </trkpt>
      <trkpt lat="46.60065" lon="0.61545">
        <ele>70.2</ele>
        <time>2024-03-17T09:42:05Z</time>
      </trkpt>
      <trkpt lat="46.60062" lon="0.61538">
        <ele>69.6</ele>
        <time>2024-03-17T09:42:06Z</time>
      </trkpt>
      <trkpt lat="46.60055" lon="0.61526">
        <ele>69.2</ele>
        <time>2024-03-17T09:42:08Z</time>
      </trkpt>
      <trkpt lat="46.60053" lon="0.61521">
        <ele>68.6</ele>
        <time>2024-03-17T09:42:09Z</time>
      </trkpt>
      <trkpt lat="46.6005" lon="0.61517">
        <ele>68.4</ele>
        <time>2024-03-17T09:42:10Z</time>
      </trkpt>
      <trkpt lat="46.60036" lon="0.61499">
        <ele>67.6</ele>
        <time>2024-03-17T09:42:15Z</time>
      </trkpt>
      <trkpt lat="46.60029" lon="0.61485">
        <ele>67.6</ele>
        <time>2024-03-17T09:42:19Z</time>
      </trkpt>
      <trkpt lat="46.60022" lon="0.61471">
        <ele>67.8</ele>
        <time>2024-03-17T09:42:23Z</time>
      </trkpt>
      <trkpt lat="46.60013" lon="0.61453">
        <ele>68.2</ele>
        <time>2024-03-17T09:42:27Z</time>
      </trkpt>
      <trkpt lat="46.60011" lon="0.61448">
        <ele>68.2</ele>
        <time>2024-03-17T09:42:28Z</time>
      </trkpt>
      <trkpt lat="46.60007" lon="0.6143">
        <ele>68.6</ele>
        <time>2024-03-17T09:42:31Z</time>
      </trkpt>
      <trkpt lat="46.60006" lon="0.61423">
        <ele>68.6</ele>
        <time>2024-03-17T09:42:32Z</time>
      </trkpt>
      <trkpt lat="46.60005" lon="0.61398">
        <ele>68.4</ele>
        <time>2024-03-17T09:42:36Z</time>
      </trkpt>
      <trkpt lat="46.60006" lon="0.61393">
        <ele>68.2</ele>
        <time>2024-03-17T09:42:37Z</time>
      </trkpt>
      <trkpt lat="46.60006" lon="0.61387">
        <ele>68</ele>
        <time>2024-03-17T09:42:38Z</time>
      </trkpt>
      <trkpt lat="46.60005" lon="0.61375">
        <ele>67.8</ele>
        <time>2024-03-17T09:42:40Z</time>
      </trkpt>
      <trkpt lat="46.6" lon="0.61363">
        <ele>67.8</ele>
        <time>2024-03-17T09:42:42Z</time>
      </trkpt>
      <trkpt lat="46.59993" lon="0.61354">
        <ele>67.8</ele>
        <time>2024-03-17T09:42:44Z</time>
      </trkpt>
      <trkpt lat="46.59986" lon="0.6135">
        <ele>67.8</ele>
        <time>2024-03-17T09:42:46Z</time>
      </trkpt>
      <trkpt lat="46.59964" lon="0.61341">
        <ele>69.6</ele>
        <time>2024-03-17T09:42:53Z</time>
      </trkpt>
      <trkpt lat="46.59961" lon="0.6134">
        <ele>69.8</ele>
        <time>2024-03-17T09:42:54Z</time>
      </trkpt>
      <trkpt lat="46.5994" lon="0.61341">
        <ele>70.8</ele>
        <time>2024-03-17T09:43:01Z</time>
      </trkpt>
      <trkpt lat="46.59933" lon="0.61345">
        <ele>71.2</ele>
        <time>2024-03-17T09:43:04Z</time>
      </trkpt>
      <trkpt lat="46.59928" lon="0.61349">
        <ele>71.6</ele>
        <time>2024-03-17T09:43:07Z</time>
      </trkpt>
      <trkpt lat="46.59922" lon="0.61359">
        <ele>72.4</ele>
        <time>2024-03-17T09:43:12Z</time>
      </trkpt>
      <trkpt lat="46.59921" lon="0.61362">
        <ele>73</ele>
        <time>2024-03-17T09:43:14Z</time>
      </trkpt>
      <trkpt lat="46.5992" lon="0.61367">
        <ele>73.6</ele>
        <time>2024-03-17T09:43:17Z</time>
      </trkpt>
      <trkpt lat="46.5992" lon="0.61373">
        <ele>74.4</ele>
        <time>2024-03-17T09:43:21Z</time>
      </trkpt>
      <trkpt lat="46.5992" lon="0.61377">
        <ele>74.6</ele>
        <time>2024-03-17T09:43:23Z</time>
      </trkpt>
      <trkpt lat="46.59921" lon="0.61388">
        <ele>75.8</ele>
        <time>2024-03-17T09:43:29Z</time>
      </trkpt>
      <trkpt lat="46.59922" lon="0.61397">
        <ele>77</ele>
        <time>2024-03-17T09:43:34Z</time>
      </trkpt>
      <trkpt lat="46.59922" lon="0.61399">
        <ele>77.2</ele>
        <time>2024-03-17T09:43:35Z</time>
      </trkpt>
      <trkpt lat="46.59924" lon="0.6141">
        <ele>78.2</ele>
        <time>2024-03-17T09:43:41Z</time>
      </trkpt>
      <trkpt lat="46.59924" lon="0.61415">
        <ele>78.4</ele>
        <time>2024-03-17T09:43:44Z</time>
      </trkpt>
      <trkpt lat="46.59925" lon="0.6142">
        <ele>79.4</ele>
        <time>2024-03-17T09:43:47Z</time>
      </trkpt>
      <trkpt lat="46.59926" lon="0.61432">
        <ele>80.2</ele>
        <time>2024-03-17T09:43:53Z</time>
      </trkpt>
      <trkpt lat="46.59926" lon="0.61434">
        <ele>80.4</ele>
        <time>2024-03-17T09:43:54Z</time>
      </trkpt>
      <trkpt lat="46.59924" lon="0.61445">
        <ele>81.4</ele>
        <time>2024-03-17T09:44:00Z</time>
      </trkpt>
      <trkpt lat="46.59924" lon="0.61446">
        <ele>81.6</ele>
        <time>2024-03-17T09:44:01Z</time>
      </trkpt>
      <trkpt lat="46.59922" lon="0.61452">
        <ele>82.2</ele>
        <time>2024-03-17T09:44:05Z</time>
      </trkpt>
      <trkpt lat="46.59922" lon="0.61454">
        <ele>82.6</ele>
        <time>2024-03-17T09:44:07Z</time>
      </trkpt>
      <trkpt lat="46.59921" lon="0.61458">
        <ele>83</ele>
        <time>2024-03-17T09:44:09Z</time>
      </trkpt>
      <trkpt lat="46.59919" lon="0.61464">
        <ele>83.8</ele>
        <time>2024-03-17T09:44:12Z</time>
      </trkpt>
      <trkpt lat="46.59917" lon="0.61472">
        <ele>84.8</ele>
        <time>2024-03-17T09:44:17Z</time>
      </trkpt>
      <trkpt lat="46.59916" lon="0.61477">
        <ele>85.4</ele>
        <time>2024-03-17T09:44:20Z</time>
      </trkpt>
      <trkpt lat="46.59915" lon="0.61481">
        <ele>86.2</ele>
        <time>2024-03-17T09:44:23Z</time>
      </trkpt>
      <trkpt lat="46.59913" lon="0.6149">
        <ele>87.4</ele>
        <time>2024-03-17T09:44:29Z</time>
      </trkpt>
      <trkpt lat="46.59912" lon="0.61497">
        <ele>88.4</ele>
        <time>2024-03-17T09:44:34Z</time>
      </trkpt>
      <trkpt lat="46.59912" lon="0.61499">
        <ele>88.4</ele>
        <time>2024-03-17T09:44:35Z</time>
      </trkpt>
      <trkpt lat="46.5991" lon="0.61505">
        <ele>89.6</ele>
        <time>2024-03-17T09:44:39Z</time>
      </trkpt>
      <trkpt lat="46.59907" lon="0.61514">
        <ele>90.8</ele>
        <time>2024-03-17T09:44:45Z</time>
      </trkpt>
      <trkpt lat="46.59906" lon="0.61517">
        <ele>91</ele>
        <time>2024-03-17T09:44:47Z</time>
      </trkpt>
      <trkpt lat="46.59904" lon="0.61522">
        <ele>91.8</ele>
        <time>2024-03-17T09:44:50Z</time>
      </trkpt>
      <trkpt lat="46.59902" lon="0.61528">
        <ele>92.8</ele>
        <time>2024-03-17T09:44:54Z</time>
      </trkpt>
      <trkpt lat="46.59901" lon="0.61537">
        <ele>94.2</ele>
        <time>2024-03-17T09:45:00Z</time>
      </trkpt>
      <trkpt lat="46.59901" lon="0.61542">
        <ele>94.8</ele>
        <time>2024-03-17T09:45:03Z</time>
      </trkpt>
      <trkpt lat="46.59901" lon="0.61545">
        <ele>95.4</ele>
        <time>2024-03-17T09:45:05Z</time>
      </trkpt>
      <trkpt lat="46.59902" lon="0.61553">
        <ele>96.6</ele>
        <time>2024-03-17T09:45:11Z</time>
      </trkpt>
      <trkpt lat="46.59902" lon="0.61556">
        <ele>97.4</ele>
        <time>2024-03-17T09:45:13Z</time>
      </trkpt>
      <trkpt lat="46.59903" lon="0.61558">
        <ele>97.8</ele>
        <time>2024-03-17T09:45:14Z</time>
      </trkpt>
      <trkpt lat="46.59902" lon="0.61571">
        <ele>98.8</ele>
        <time>2024-03-17T09:45:22Z</time>
      </trkpt>
      <trkpt lat="46.59902" lon="0.61574">
        <ele>99.2</ele>
        <time>2024-03-17T09:45:24Z</time>
      </trkpt>
      <trkpt lat="46.59902" lon="0.61579">
        <ele>100</ele>
        <time>2024-03-17T09:45:27Z</time>
      </trkpt>
      <trkpt lat="46.59901" lon="0.6159">
        <ele>101</ele>
        <time>2024-03-17T09:45:34Z</time>
      </trkpt>
      <trkpt lat="46.599" lon="0.61596">
        <ele>101.6</ele>
        <time>2024-03-17T09:45:37Z</time>
      </trkpt>
      <trkpt lat="46.599" lon="0.61599">
        <ele>102</ele>
        <time>2024-03-17T09:45:39Z</time>
      </trkpt>
      <trkpt lat="46.59899" lon="0.61615">
        <ele>103.2</ele>
        <time>2024-03-17T09:45:48Z</time>
      </trkpt>
      <trkpt lat="46.59899" lon="0.61617">
        <ele>103.2</ele>
        <time>2024-03-17T09:45:49Z</time>
      </trkpt>
      <trkpt lat="46.599" lon="0.61629">
        <ele>104.2</ele>
        <time>2024-03-17T09:45:55Z</time>
      </trkpt>
      <trkpt lat="46.59901" lon="0.61637">
        <ele>104.8</ele>
        <time>2024-03-17T09:45:59Z</time>
      </trkpt>
      <trkpt lat="46.59901" lon="0.61647">
        <ele>105.4</ele>
        <time>2024-03-17T09:46:03Z</time>
      </trkpt>
      <trkpt lat="46.59904" lon="0.61664">
        <ele>105.6</ele>
        <time>2024-03-17T09:46:08Z</time>
      </trkpt>
      <trkpt lat="46.59909" lon="0.61686">
        <ele>106</ele>
        <time>2024-03-17T09:46:14Z</time>
      </trkpt>
      <trkpt lat="46.59915" lon="0.61714">
        <ele>106.2</ele>
        <time>2024-03-17T09:46:22Z</time>
      </trkpt>
      <trkpt lat="46.59916" lon="0.61722">
        <ele>106.4</ele>
        <time>2024-03-17T09:46:24Z</time>
      </trkpt>
      <trkpt lat="46.5992" lon="0.6174">
        <ele>106.2</ele>
        <time>2024-03-17T09:46:28Z</time>
      </trkpt>
      <trkpt lat="46.59923" lon="0.61759">
        <ele>106.2</ele>
        <time>2024-03-17T09:46:33Z</time>
      </trkpt>
      <trkpt lat="46.59927" lon="0.61793">
        <ele>106.2</ele>
        <time>2024-03-17T09:46:40Z</time>
      </trkpt>
      <trkpt lat="46.59928" lon="0.61827">
        <ele>106.2</ele>
        <time>2024-03-17T09:46:47Z</time>
      </trkpt>
      <trkpt lat="46.59926" lon="0.61851">
        <ele>106.2</ele>
        <time>2024-03-17T09:46:53Z</time>
      </trkpt>
      <trkpt lat="46.59921" lon="0.61877">
        <ele>106.4</ele>
        <time>2024-03-17T09:46:59Z</time>
      </trkpt>
      <trkpt lat="46.59917" lon="0.61907">
        <ele>106.6</ele>
        <time>2024-03-17T09:47:05Z</time>
      </trkpt>
      <trkpt lat="46.59917" lon="0.61937">
        <ele>106.6</ele>
        <time>2024-03-17T09:47:12Z</time>
      </trkpt>
      <trkpt lat="46.59916" lon="0.61961">
        <ele>107</ele>
        <time>2024-03-17T09:47:18Z</time>
      </trkpt>
      <trkpt lat="46.59914" lon="0.61978">
        <ele>107.4</ele>
        <time>2024-03-17T09:47:23Z</time>
      </trkpt>
      <trkpt lat="46.59914" lon="0.61984">
        <ele>107.6</ele>
        <time>2024-03-17T09:47:25Z</time>
      </trkpt>
      <trkpt lat="46.59912" lon="0.62005">
        <ele>108</ele>
        <time>2024-03-17T09:47:31Z</time>
      </trkpt>
      <trkpt lat="46.59912" lon="0.62015">
        <ele>108.4</ele>
        <time>2024-03-17T09:47:34Z</time>
      </trkpt>
      <trkpt lat="46.59911" lon="0.62022">
        <ele>108.8</ele>
        <time>2024-03-17T09:47:36Z</time>
      </trkpt>
      <trkpt lat="46.59911" lon="0.62051">
        <ele>109.4</ele>
        <time>2024-03-17T09:47:44Z</time>
      </trkpt>
      <trkpt lat="46.5991" lon="0.62063">
        <ele>109.4</ele>
        <time>2024-03-17T09:47:47Z</time>
      </trkpt>
      <trkpt lat="46.5991" lon="0.62081">
        <ele>110</ele>
        <time>2024-03-17T09:47:52Z</time>
      </trkpt>
      <trkpt lat="46.59909" lon="0.621">
        <ele>110.6</ele>
        <time>2024-03-17T09:47:58Z</time>
      </trkpt>
      <trkpt lat="46.59909" lon="0.62107">
        <ele>110.6</ele>
        <time>2024-03-17T09:48:00Z</time>
      </trkpt>
      <trkpt lat="46.59907" lon="0.62135">
        <ele>111.4</ele>
        <time>2024-03-17T09:48:08Z</time>
      </trkpt>
      <trkpt lat="46.59907" lon="0.62141">
        <ele>111.6</ele>
        <time>2024-03-17T09:48:10Z</time>
      </trkpt>
      <trkpt lat="46.59908" lon="0.62158">
        <ele>112.2</ele>
        <time>2024-03-17T09:48:15Z</time>
      </trkpt>
      <trkpt lat="46.59907" lon="0.62174">
        <ele>112.6</ele>
        <time>2024-03-17T09:48:20Z</time>
      </trkpt>
      <trkpt lat="46.59904" lon="0.62179">
        <ele>112.6</ele>
        <time>2024-03-17T09:48:22Z</time>
      </trkpt>
      <trkpt lat="46.59897" lon="0.62186">
        <ele>112.6</ele>
        <time>2024-03-17T09:48:26Z</time>
      </trkpt>
      <trkpt lat="46.59895" lon="0.62192">
        <ele>112.8</ele>
        <time>2024-03-17T09:48:28Z</time>
      </trkpt>
      <trkpt lat="46.59897" lon="0.62214">
        <ele>113</ele>
        <time>2024-03-17T09:48:35Z</time>
      </trkpt>
      <trkpt lat="46.599" lon="0.62235">
        <ele>113.2</ele>
        <time>2024-03-17T09:48:41Z</time>
      </trkpt>
      <trkpt lat="46.59902" lon="0.62256">
        <ele>113.2</ele>
        <time>2024-03-17T09:48:46Z</time>
      </trkpt>
      <trkpt lat="46.59906" lon="0.6228">
        <ele>114</ele>
        <time>2024-03-17T09:48:51Z</time>
      </trkpt>
      <trkpt lat="46.59909" lon="0.62292">
        <ele>114.2</ele>
        <time>2024-03-17T09:48:53Z</time>
      </trkpt>
      <trkpt lat="46.59916" lon="0.62332">
        <ele>114.8</ele>
        <time>2024-03-17T09:48:59Z</time>
      </trkpt>
      <trkpt lat="46.59916" lon="0.6234">
        <ele>115</ele>
        <time>2024-03-17T09:49:00Z</time>
      </trkpt>
      <trkpt lat="46.59918" lon="0.62385">
        <ele>115.2</ele>
        <time>2024-03-17T09:49:06Z</time>
      </trkpt>
      <trkpt lat="46.5992" lon="0.62408">
        <ele>115.4</ele>
        <time>2024-03-17T09:49:09Z</time>
      </trkpt>
      <trkpt lat="46.59924" lon="0.62422">
        <ele>115.6</ele>
        <time>2024-03-17T09:49:11Z</time>
      </trkpt>
      <trkpt lat="46.59933" lon="0.62453">
        <ele>115.8</ele>
        <time>2024-03-17T09:49:15Z</time>
      </trkpt>
      <trkpt lat="46.59937" lon="0.62461">
        <ele>115.6</ele>
        <time>2024-03-17T09:49:16Z</time>
      </trkpt>
      <trkpt lat="46.59956" lon="0.62497">
        <ele>115.6</ele>
        <time>2024-03-17T09:49:22Z</time>
      </trkpt>
      <trkpt lat="46.59972" lon="0.62524">
        <ele>115</ele>
        <time>2024-03-17T09:49:27Z</time>
      </trkpt>
      <trkpt lat="46.59976" lon="0.6253">
        <ele>114.8</ele>
        <time>2024-03-17T09:49:28Z</time>
      </trkpt>
      <trkpt lat="46.59979" lon="0.62535">
        <ele>114.6</ele>
        <time>2024-03-17T09:49:29Z</time>
      </trkpt>
      <trkpt lat="46.59985" lon="0.62549">
        <ele>114.2</ele>
        <time>2024-03-17T09:49:31Z</time>
      </trkpt>
      <trkpt lat="46.59988" lon="0.62556">
        <ele>114</ele>
        <time>2024-03-17T09:49:32Z</time>
      </trkpt>
      <trkpt lat="46.59989" lon="0.62564">
        <ele>113.6</ele>
        <time>2024-03-17T09:49:33Z</time>
      </trkpt>
      <trkpt lat="46.59992" lon="0.62578">
        <ele>112.8</ele>
        <time>2024-03-17T09:49:35Z</time>
      </trkpt>
      <trkpt lat="46.59994" lon="0.62585">
        <ele>112.6</ele>
        <time>2024-03-17T09:49:36Z</time>
      </trkpt>
      <trkpt lat="46.59996" lon="0.62591">
        <ele>112.6</ele>
        <time>2024-03-17T09:49:37Z</time>
      </trkpt>
      <trkpt lat="46.60007" lon="0.62619">
        <ele>112</ele>
        <time>2024-03-17T09:49:41Z</time>
      </trkpt>
      <trkpt lat="46.60011" lon="0.62625">
        <ele>111.6</ele>
        <time>2024-03-17T09:49:42Z</time>
      </trkpt>
      <trkpt lat="46.60014" lon="0.62631">
        <ele>111.2</ele>
        <time>2024-03-17T09:49:43Z</time>
      </trkpt>
      <trkpt lat="46.60026" lon="0.62652">
        <ele>110.6</ele>
        <time>2024-03-17T09:49:46Z</time>
      </trkpt>
      <trkpt lat="46.60036" lon="0.62668">
        <ele>110.2</ele>
        <time>2024-03-17T09:49:48Z</time>
      </trkpt>
      <trkpt lat="46.6005" lon="0.62692">
        <ele>109.8</ele>
        <time>2024-03-17T09:49:51Z</time>
      </trkpt>
      <trkpt lat="46.60058" lon="0.62709">
        <ele>109.6</ele>
        <time>2024-03-17T09:49:53Z</time>
      </trkpt>
      <trkpt lat="46.60062" lon="0.62717">
        <ele>109.4</ele>
        <time>2024-03-17T09:49:54Z</time>
      </trkpt>
      <trkpt lat="46.60069" lon="0.62734">
        <ele>109.2</ele>
        <time>2024-03-17T09:49:56Z</time>
      </trkpt>
      <trkpt lat="46.60074" lon="0.62741">
        <ele>109</ele>
        <time>2024-03-17T09:49:57Z</time>
      </trkpt>
      <trkpt lat="46.60084" lon="0.62754">
        <ele>108.2</ele>
        <time>2024-03-17T09:49:59Z</time>
      </trkpt>
      <trkpt lat="46.60088" lon="0.6276">
        <ele>107.8</ele>
        <time>2024-03-17T09:50:00Z</time>
      </trkpt>
      <trkpt lat="46.60095" lon="0.62774">
        <ele>107.4</ele>
        <time>2024-03-17T09:50:02Z</time>
      </trkpt>
      <trkpt lat="46.60097" lon="0.62778">
        <ele>107</ele>
        <time>2024-03-17T09:50:03Z</time>
      </trkpt>
      <trkpt lat="46.60098" lon="0.62781">
        <ele>106.6</ele>
        <time>2024-03-17T09:50:04Z</time>
      </trkpt>
      <trkpt lat="46.60098" lon="0.62783">
        <ele>106.6</ele>
        <time>2024-03-17T09:50:05Z</time>
      </trkpt>
      <trkpt lat="46.60095" lon="0.62783">
        <ele>106.4</ele>
        <time>2024-03-17T09:50:08Z</time>
      </trkpt>
      <trkpt lat="46.60085" lon="0.62777">
        <ele>107</ele>
        <time>2024-03-17T09:50:13Z</time>
      </trkpt>
      <trkpt lat="46.60075" lon="0.62771">
        <ele>108.2</ele>
        <time>2024-03-17T09:50:17Z</time>
      </trkpt>
      <trkpt lat="46.6007" lon="0.62767">
        <ele>108.4</ele>
        <time>2024-03-17T09:50:19Z</time>
      </trkpt>
      <trkpt lat="46.60058" lon="0.62753">
        <ele>108.8</ele>
        <time>2024-03-17T09:50:25Z</time>
      </trkpt>
      <trkpt lat="46.60049" lon="0.62741">
        <ele>109.2</ele>
        <time>2024-03-17T09:50:30Z</time>
      </trkpt>
      <trkpt lat="46.60043" lon="0.62725">
        <ele>109.6</ele>
        <time>2024-03-17T09:50:35Z</time>
      </trkpt>
      <trkpt lat="46.60038" lon="0.62715">
        <ele>110</ele>
        <time>2024-03-17T09:50:38Z</time>
      </trkpt>
      <trkpt lat="46.60033" lon="0.6271">
        <ele>110.2</ele>
        <time>2024-03-17T09:50:40Z</time>
      </trkpt>
      <trkpt lat="46.60019" lon="0.627">
        <ele>110.6</ele>
        <time>2024-03-17T09:50:46Z</time>
      </trkpt>
      <trkpt lat="46.6001" lon="0.62693">
        <ele>111.2</ele>
        <time>2024-03-17T09:50:50Z</time>
      </trkpt>
      <trkpt lat="46.60008" lon="0.62691">
        <ele>111.4</ele>
        <time>2024-03-17T09:50:51Z</time>
      </trkpt>
      <trkpt lat="46.59998" lon="0.62677">
        <ele>112.4</ele>
        <time>2024-03-17T09:50:57Z</time>
      </trkpt>
      <trkpt lat="46.59996" lon="0.62674">
        <ele>112.4</ele>
        <time>2024-03-17T09:50:58Z</time>
      </trkpt>
      <trkpt lat="46.59994" lon="0.62669">
        <ele>112.8</ele>
        <time>2024-03-17T09:51:00Z</time>
      </trkpt>
      <trkpt lat="46.59989" lon="0.62658">
        <ele>113.2</ele>
        <time>2024-03-17T09:51:04Z</time>
      </trkpt>
      <trkpt lat="46.59981" lon="0.62644">
        <ele>113.4</ele>
        <time>2024-03-17T09:51:08Z</time>
      </trkpt>
      <trkpt lat="46.59979" lon="0.62642">
        <ele>113.6</ele>
        <time>2024-03-17T09:51:09Z</time>
      </trkpt>
      <trkpt lat="46.59966" lon="0.62628">
        <ele>114.2</ele>
        <time>2024-03-17T09:51:15Z</time>
      </trkpt>
      <trkpt lat="46.59956" lon="0.62617">
        <ele>114.4</ele>
        <time>2024-03-17T09:51:19Z</time>
      </trkpt>
      <trkpt lat="46.59947" lon="0.62606">
        <ele>114.8</ele>
        <time>2024-03-17T09:51:22Z</time>
      </trkpt>
      <trkpt lat="46.59922" lon="0.62579">
        <ele>115.4</ele>
        <time>2024-03-17T09:51:29Z</time>
      </trkpt>
      <trkpt lat="46.59906" lon="0.62566">
        <ele>115.4</ele>
        <time>2024-03-17T09:51:33Z</time>
      </trkpt>
      <trkpt lat="46.59895" lon="0.62555">
        <ele>115.6</ele>
        <time>2024-03-17T09:51:36Z</time>
      </trkpt>
      <trkpt lat="46.59873" lon="0.62536">
        <ele>115.4</ele>
        <time>2024-03-17T09:51:42Z</time>
      </trkpt>
      <trkpt lat="46.59853" lon="0.6252">
        <ele>115.4</ele>
        <time>2024-03-17T09:51:47Z</time>
      </trkpt>
      <trkpt lat="46.59844" lon="0.62516">
        <ele>115.4</ele>
        <time>2024-03-17T09:51:49Z</time>
      </trkpt>
      <trkpt lat="46.59835" lon="0.62515">
        <ele>115.4</ele>
        <time>2024-03-17T09:51:51Z</time>
      </trkpt>
      <trkpt lat="46.5983" lon="0.62518">
        <ele>115.6</ele>
        <time>2024-03-17T09:51:53Z</time>
      </trkpt>
      <trkpt lat="46.59829" lon="0.62522">
        <ele>115.6</ele>
        <time>2024-03-17T09:51:55Z</time>
      </trkpt>
      <trkpt lat="46.59831" lon="0.62528">
        <ele>115.8</ele>
        <time>2024-03-17T09:51:57Z</time>
      </trkpt>
      <trkpt lat="46.59834" lon="0.62541">
        <ele>116.2</ele>
        <time>2024-03-17T09:52:00Z</time>
      </trkpt>
      <trkpt lat="46.59837" lon="0.6255">
        <ele>116.2</ele>
        <time>2024-03-17T09:52:02Z</time>
      </trkpt>
      <trkpt lat="46.59847" lon="0.62575">
        <ele>115.8</ele>
        <time>2024-03-17T09:52:07Z</time>
      </trkpt>
      <trkpt lat="46.59849" lon="0.62581">
        <ele>115.8</ele>
        <time>2024-03-17T09:52:08Z</time>
      </trkpt>
      <trkpt lat="46.5985" lon="0.62588">
        <ele>116</ele>
        <time>2024-03-17T09:52:09Z</time>
      </trkpt>
      <trkpt lat="46.59851" lon="0.62602">
        <ele>116.2</ele>
        <time>2024-03-17T09:52:11Z</time>
      </trkpt>
      <trkpt lat="46.59853" lon="0.62616">
        <ele>116.4</ele>
        <time>2024-03-17T09:52:13Z</time>
      </trkpt>
      <trkpt lat="46.59858" lon="0.62635">
        <ele>116.2</ele>
        <time>2024-03-17T09:52:16Z</time>
      </trkpt>
      <trkpt lat="46.59865" lon="0.62652">
        <ele>116</ele>
        <time>2024-03-17T09:52:19Z</time>
      </trkpt>
      <trkpt lat="46.59869" lon="0.62665">
        <ele>115.6</ele>
        <time>2024-03-17T09:52:21Z</time>
      </trkpt>
      <trkpt lat="46.5988" lon="0.62694">
        <ele>115.2</ele>
        <time>2024-03-17T09:52:25Z</time>
      </trkpt>
      <trkpt lat="46.59882" lon="0.62701">
        <ele>115.2</ele>
        <time>2024-03-17T09:52:26Z</time>
      </trkpt>
      <trkpt lat="46.59889" lon="0.62722">
        <ele>115</ele>
        <time>2024-03-17T09:52:29Z</time>
      </trkpt>
      <trkpt lat="46.59897" lon="0.62754">
        <ele>114.4</ele>
        <time>2024-03-17T09:52:33Z</time>
      </trkpt>
      <trkpt lat="46.599" lon="0.62763">
        <ele>114</ele>
        <time>2024-03-17T09:52:34Z</time>
      </trkpt>
      <trkpt lat="46.59914" lon="0.62803">
        <ele>113.2</ele>
        <time>2024-03-17T09:52:38Z</time>
      </trkpt>
      <trkpt lat="46.59918" lon="0.62823">
        <ele>112.8</ele>
        <time>2024-03-17T09:52:40Z</time>
      </trkpt>
      <trkpt lat="46.59923" lon="0.62857">
        <ele>112</ele>
        <time>2024-03-17T09:52:44Z</time>
      </trkpt>
      <trkpt lat="46.59922" lon="0.62865">
        <ele>111.8</ele>
        <time>2024-03-17T09:52:46Z</time>
      </trkpt>
      <trkpt lat="46.59921" lon="0.62866">
        <ele>111.6</ele>
        <time>2024-03-17T09:52:47Z</time>
      </trkpt>
      <trkpt lat="46.5992" lon="0.62867">
        <ele>111.6</ele>
        <time>2024-03-17T09:52:48Z</time>
      </trkpt>
      <trkpt lat="46.59916" lon="0.62869">
        <ele>111.4</ele>
        <time>2024-03-17T09:52:52Z</time>
      </trkpt>
      <trkpt lat="46.59905" lon="0.62877">
        <ele>112</ele>
        <time>2024-03-17T09:52:57Z</time>
      </trkpt>
      <trkpt lat="46.59889" lon="0.62893">
        <ele>112.2</ele>
        <time>2024-03-17T09:53:03Z</time>
      </trkpt>
      <trkpt lat="46.59886" lon="0.62896">
        <ele>112.4</ele>
        <time>2024-03-17T09:53:04Z</time>
      </trkpt>
      <trkpt lat="46.59878" lon="0.6291">
        <ele>112</ele>
        <time>2024-03-17T09:53:08Z</time>
      </trkpt>
      <trkpt lat="46.59874" lon="0.62915">
        <ele>111.8</ele>
        <time>2024-03-17T09:53:10Z</time>
      </trkpt>
      <trkpt lat="46.59869" lon="0.6292">
        <ele>111.6</ele>
        <time>2024-03-17T09:53:12Z</time>
      </trkpt>
      <trkpt lat="46.59868" lon="0.62923">
        <ele>111.4</ele>
        <time>2024-03-17T09:53:13Z</time>
      </trkpt>
      <trkpt lat="46.5986" lon="0.62942">
        <ele>111.4</ele>
        <time>2024-03-17T09:53:17Z</time>
      </trkpt>
      <trkpt lat="46.59857" lon="0.62946">
        <ele>111.4</ele>
        <time>2024-03-17T09:53:18Z</time>
      </trkpt>
      <trkpt lat="46.59848" lon="0.62959">
        <ele>111.8</ele>
        <time>2024-03-17T09:53:21Z</time>
      </trkpt>
      <trkpt lat="46.59841" lon="0.62966">
        <ele>111.6</ele>
        <time>2024-03-17T09:53:23Z</time>
      </trkpt>
      <trkpt lat="46.59829" lon="0.62978">
        <ele>111.2</ele>
        <time>2024-03-17T09:53:27Z</time>
      </trkpt>
      <trkpt lat="46.59828" lon="0.62981">
        <ele>111.2</ele>
        <time>2024-03-17T09:53:28Z</time>
      </trkpt>
      <trkpt lat="46.59825" lon="0.62988">
        <ele>111</ele>
        <time>2024-03-17T09:53:30Z</time>
      </trkpt>
      <trkpt lat="46.5982" lon="0.62996">
        <ele>111</ele>
        <time>2024-03-17T09:53:32Z</time>
      </trkpt>
      <trkpt lat="46.59818" lon="0.62999">
        <ele>110.8</ele>
        <time>2024-03-17T09:53:33Z</time>
      </trkpt>
      <trkpt lat="46.59816" lon="0.63001">
        <ele>110.8</ele>
        <time>2024-03-17T09:53:34Z</time>
      </trkpt>
      <trkpt lat="46.59809" lon="0.63009">
        <ele>110.4</ele>
        <time>2024-03-17T09:53:38Z</time>
      </trkpt>
      <trkpt lat="46.59806" lon="0.63014">
        <ele>110.4</ele>
        <time>2024-03-17T09:53:40Z</time>
      </trkpt>
      <trkpt lat="46.59805" lon="0.63019">
        <ele>110.4</ele>
        <time>2024-03-17T09:53:43Z</time>
      </trkpt>
      <trkpt lat="46.59805" lon="0.63021">
        <ele>110.4</ele>
        <time>2024-03-17T09:53:44Z</time>
      </trkpt>
      <trkpt lat="46.598" lon="0.63038">
        <ele>110.4</ele>
        <time>2024-03-17T09:53:49Z</time>
      </trkpt>
      <trkpt lat="46.59796" lon="0.63057">
        <ele>110</ele>
        <time>2024-03-17T09:53:54Z</time>
      </trkpt>
      <trkpt lat="46.59791" lon="0.63065">
        <ele>110</ele>
        <time>2024-03-17T09:53:57Z</time>
      </trkpt>
      <trkpt lat="46.5979" lon="0.63071">
        <ele>110</ele>
        <time>2024-03-17T09:53:59Z</time>
      </trkpt>
      <trkpt lat="46.59786" lon="0.6309">
        <ele>110.2</ele>
        <time>2024-03-17T09:54:04Z</time>
      </trkpt>
      <trkpt lat="46.59782" lon="0.63106">
        <ele>110.2</ele>
        <time>2024-03-17T09:54:08Z</time>
      </trkpt>
      <trkpt lat="46.59781" lon="0.6311">
        <ele>110.2</ele>
        <time>2024-03-17T09:54:09Z</time>
      </trkpt>
      <trkpt lat="46.5978" lon="0.63113">
        <ele>110</ele>
        <time>2024-03-17T09:54:10Z</time>
      </trkpt>
      <trkpt lat="46.59773" lon="0.63126">
        <ele>109.8</ele>
        <time>2024-03-17T09:54:14Z</time>
      </trkpt>
      <trkpt lat="46.5976" lon="0.63144">
        <ele>108.8</ele>
        <time>2024-03-17T09:54:20Z</time>
      </trkpt>
      <trkpt lat="46.59754" lon="0.63148">
        <ele>108.6</ele>
        <time>2024-03-17T09:54:22Z</time>
      </trkpt>
      <trkpt lat="46.5975" lon="0.63154">
        <ele>108.4</ele>
        <time>2024-03-17T09:54:24Z</time>
      </trkpt>
      <trkpt lat="46.5974" lon="0.63166">
        <ele>107.8</ele>
        <time>2024-03-17T09:54:28Z</time>
      </trkpt>
      <trkpt lat="46.59726" lon="0.63178">
        <ele>107.4</ele>
        <time>2024-03-17T09:54:33Z</time>
      </trkpt>
      <trkpt lat="46.59719" lon="0.63185">
        <ele>107</ele>
        <time>2024-03-17T09:54:36Z</time>
      </trkpt>
      <trkpt lat="46.59715" lon="0.6319">
        <ele>106.6</ele>
        <time>2024-03-17T09:54:38Z</time>
      </trkpt>
      <trkpt lat="46.597" lon="0.63199">
        <ele>105.6</ele>
        <time>2024-03-17T09:54:43Z</time>
      </trkpt>
      <trkpt lat="46.59697" lon="0.63203">
        <ele>105.2</ele>
        <time>2024-03-17T09:54:44Z</time>
      </trkpt>
      <trkpt lat="46.59694" lon="0.63206">
        <ele>104.8</ele>
        <time>2024-03-17T09:54:45Z</time>
      </trkpt>
      <trkpt lat="46.5969" lon="0.63213">
        <ele>104.4</ele>
        <time>2024-03-17T09:54:47Z</time>
      </trkpt>
      <trkpt lat="46.59688" lon="0.63217">
        <ele>104.2</ele>
        <time>2024-03-17T09:54:48Z</time>
      </trkpt>
      <trkpt lat="46.59671" lon="0.63235">
        <ele>103.6</ele>
        <time>2024-03-17T09:54:52Z</time>
      </trkpt>
      <trkpt lat="46.59668" lon="0.63242">
        <ele>102.8</ele>
        <time>2024-03-17T09:54:53Z</time>
      </trkpt>
      <trkpt lat="46.59662" lon="0.63257">
        <ele>102.4</ele>
        <time>2024-03-17T09:54:55Z</time>
      </trkpt>
      <trkpt lat="46.59659" lon="0.63265">
        <ele>102</ele>
        <time>2024-03-17T09:54:56Z</time>
      </trkpt>
      <trkpt lat="46.59657" lon="0.63271">
        <ele>101.8</ele>
        <time>2024-03-17T09:54:57Z</time>
      </trkpt>
      <trkpt lat="46.59655" lon="0.63282">
        <ele>101.4</ele>
        <time>2024-03-17T09:54:59Z</time>
      </trkpt>
      <trkpt lat="46.59657" lon="0.633">
        <ele>100.4</ele>
        <time>2024-03-17T09:55:02Z</time>
      </trkpt>
      <trkpt lat="46.59657" lon="0.63307">
        <ele>100</ele>
        <time>2024-03-17T09:55:03Z</time>
      </trkpt>
      <trkpt lat="46.59653" lon="0.6335">
        <ele>99</ele>
        <time>2024-03-17T09:55:08Z</time>
      </trkpt>
      <trkpt lat="46.59652" lon="0.63373">
        <ele>97.4</ele>
        <time>2024-03-17T09:55:11Z</time>
      </trkpt>
      <trkpt lat="46.5965" lon="0.63379">
        <ele>96.4</ele>
        <time>2024-03-17T09:55:12Z</time>
      </trkpt>
      <trkpt lat="46.59647" lon="0.63383">
        <ele>95.2</ele>
        <time>2024-03-17T09:55:13Z</time>
      </trkpt>
      <trkpt lat="46.5964" lon="0.63389">
        <ele>93</ele>
        <time>2024-03-17T09:55:15Z</time>
      </trkpt>
      <trkpt lat="46.59635" lon="0.63394">
        <ele>91.8</ele>
        <time>2024-03-17T09:55:17Z</time>
      </trkpt>
      <trkpt lat="46.59629" lon="0.634">
        <ele>90.8</ele>
        <time>2024-03-17T09:55:19Z</time>
      </trkpt>
      <trkpt lat="46.59621" lon="0.63404">
        <ele>90.4</ele>
        <time>2024-03-17T09:55:21Z</time>
      </trkpt>
      <trkpt lat="46.59617" lon="0.63405">
        <ele>89.4</ele>
        <time>2024-03-17T09:55:22Z</time>
      </trkpt>
      <trkpt lat="46.59613" lon="0.63406">
        <ele>88.6</ele>
        <time>2024-03-17T09:55:23Z</time>
      </trkpt>
      <trkpt lat="46.59605" lon="0.6341">
        <ele>87.2</ele>
        <time>2024-03-17T09:55:25Z</time>
      </trkpt>
      <trkpt lat="46.59599" lon="0.63413">
        <ele>86.8</ele>
        <time>2024-03-17T09:55:27Z</time>
      </trkpt>
      <trkpt lat="46.59592" lon="0.63417">
        <ele>86.2</ele>
        <time>2024-03-17T09:55:29Z</time>
      </trkpt>
      <trkpt lat="46.59584" lon="0.63422">
        <ele>85.4</ele>
        <time>2024-03-17T09:55:32Z</time>
      </trkpt>
      <trkpt lat="46.59583" lon="0.63422">
        <ele>85.2</ele>
        <time>2024-03-17T09:55:33Z</time>
      </trkpt>
      <trkpt lat="46.59577" lon="0.63424">
        <ele>85</ele>
        <time>2024-03-17T09:55:37Z</time>
      </trkpt>
      <trkpt lat="46.59575" lon="0.63424">
        <ele>85</ele>
        <time>2024-03-17T09:55:38Z</time>
      </trkpt>
      <trkpt lat="46.59571" lon="0.63424">
        <ele>85.4</ele>
        <time>2024-03-17T09:55:40Z</time>
      </trkpt>
      <trkpt lat="46.59564" lon="0.63428">
        <ele>85.8</ele>
        <time>2024-03-17T09:55:43Z</time>
      </trkpt>
      <trkpt lat="46.59556" lon="0.63429">
        <ele>86.4</ele>
        <time>2024-03-17T09:55:46Z</time>
      </trkpt>
      <trkpt lat="46.59549" lon="0.63429">
        <ele>86.8</ele>
        <time>2024-03-17T09:55:49Z</time>
      </trkpt>
      <trkpt lat="46.59546" lon="0.63428">
        <ele>87.2</ele>
        <time>2024-03-17T09:55:51Z</time>
      </trkpt>
      <trkpt lat="46.59545" lon="0.63425">
        <ele>87.2</ele>
        <time>2024-03-17T09:55:53Z</time>
      </trkpt>
      <trkpt lat="46.59542" lon="0.63413">
        <ele>86.6</ele>
        <time>2024-03-17T09:55:58Z</time>
      </trkpt>
      <trkpt lat="46.5954" lon="0.6341">
        <ele>86.4</ele>
        <time>2024-03-17T09:55:59Z</time>
      </trkpt>
      <trkpt lat="46.59535" lon="0.63404">
        <ele>85.6</ele>
        <time>2024-03-17T09:56:02Z</time>
      </trkpt>
      <trkpt lat="46.59524" lon="0.63397">
        <ele>86</ele>
        <time>2024-03-17T09:56:08Z</time>
      </trkpt>
      <trkpt lat="46.59515" lon="0.6339">
        <ele>87</ele>
        <time>2024-03-17T09:56:14Z</time>
      </trkpt>
      <trkpt lat="46.59512" lon="0.63385">
        <ele>87.4</ele>
        <time>2024-03-17T09:56:16Z</time>
      </trkpt>
      <trkpt lat="46.59508" lon="0.63378">
        <ele>87.8</ele>
        <time>2024-03-17T09:56:19Z</time>
      </trkpt>
      <trkpt lat="46.59501" lon="0.63366">
        <ele>87.6</ele>
        <time>2024-03-17T09:56:25Z</time>
      </trkpt>
      <trkpt lat="46.59492" lon="0.63355">
        <ele>88</ele>
        <time>2024-03-17T09:56:30Z</time>
      </trkpt>
      <trkpt lat="46.59491" lon="0.63352">
        <ele>88</ele>
        <time>2024-03-17T09:56:31Z</time>
      </trkpt>
      <trkpt lat="46.59489" lon="0.6335">
        <ele>88.2</ele>
        <time>2024-03-17T09:56:32Z</time>
      </trkpt>
      <trkpt lat="46.59483" lon="0.63345">
        <ele>88.4</ele>
        <time>2024-03-17T09:56:36Z</time>
      </trkpt>
      <trkpt lat="46.59481" lon="0.63344">
        <ele>88.6</ele>
        <time>2024-03-17T09:56:37Z</time>
      </trkpt>
      <trkpt lat="46.5947" lon="0.63332">
        <ele>89.4</ele>
        <time>2024-03-17T09:56:42Z</time>
      </trkpt>
      <trkpt lat="46.59469" lon="0.6333">
        <ele>89.6</ele>
        <time>2024-03-17T09:56:43Z</time>
      </trkpt>
      <trkpt lat="46.59461" lon="0.63324">
        <ele>90</ele>
        <time>2024-03-17T09:56:47Z</time>
      </trkpt>
      <trkpt lat="46.59457" lon="0.63322">
        <ele>90</ele>
        <time>2024-03-17T09:56:49Z</time>
      </trkpt>
      <trkpt lat="46.59451" lon="0.63319">
        <ele>90</ele>
        <time>2024-03-17T09:56:53Z</time>
      </trkpt>
      <trkpt lat="46.59447" lon="0.63319">
        <ele>90</ele>
        <time>2024-03-17T09:56:55Z</time>
      </trkpt>
      <trkpt lat="46.5944" lon="0.63318">
        <ele>89.8</ele>
        <time>2024-03-17T09:56:58Z</time>
      </trkpt>
      <trkpt lat="46.59433" lon="0.63317">
        <ele>89.8</ele>
        <time>2024-03-17T09:57:00Z</time>
      </trkpt>
      <trkpt lat="46.59429" lon="0.63313">
        <ele>89.4</ele>
        <time>2024-03-17T09:57:01Z</time>
      </trkpt>
      <trkpt lat="46.59426" lon="0.63307">
        <ele>88.8</ele>
        <time>2024-03-17T09:57:02Z</time>
      </trkpt>
      <trkpt lat="46.59423" lon="0.633">
        <ele>88</ele>
        <time>2024-03-17T09:57:03Z</time>
      </trkpt>
      <trkpt lat="46.59421" lon="0.63294">
        <ele>87.6</ele>
        <time>2024-03-17T09:57:04Z</time>
      </trkpt>
      <trkpt lat="46.59422" lon="0.63282">
        <ele>87.2</ele>
        <time>2024-03-17T09:57:06Z</time>
      </trkpt>
      <trkpt lat="46.59422" lon="0.63277">
        <ele>87</ele>
        <time>2024-03-17T09:57:07Z</time>
      </trkpt>
      <trkpt lat="46.59421" lon="0.63274">
        <ele>86.6</ele>
        <time>2024-03-17T09:57:08Z</time>
      </trkpt>
      <trkpt lat="46.59421" lon="0.63268">
        <ele>86</ele>
        <time>2024-03-17T09:57:11Z</time>
      </trkpt>
      <trkpt lat="46.59421" lon="0.63264">
        <ele>85.8</ele>
        <time>2024-03-17T09:57:13Z</time>
      </trkpt>
      <trkpt lat="46.59422" lon="0.63254">
        <ele>85.8</ele>
        <time>2024-03-17T09:57:17Z</time>
      </trkpt>
      <trkpt lat="46.59425" lon="0.63242">
        <ele>85.6</ele>
        <time>2024-03-17T09:57:21Z</time>
      </trkpt>
      <trkpt lat="46.59424" lon="0.63238">
        <ele>85.2</ele>
        <time>2024-03-17T09:57:23Z</time>
      </trkpt>
      <trkpt lat="46.59422" lon="0.63235">
        <ele>84.8</ele>
        <time>2024-03-17T09:57:25Z</time>
      </trkpt>
      <trkpt lat="46.59421" lon="0.63233">
        <ele>84.8</ele>
        <time>2024-03-17T09:57:26Z</time>
      </trkpt>
      <trkpt lat="46.59417" lon="0.6323">
        <ele>85.4</ele>
        <time>2024-03-17T09:57:30Z</time>
      </trkpt>
      <trkpt lat="46.59415" lon="0.63228">
        <ele>85.8</ele>
        <time>2024-03-17T09:57:32Z</time>
      </trkpt>
      <trkpt lat="46.59415" lon="0.63228">
        <ele>86</ele>
        <time>2024-03-17T09:57:33Z</time>
      </trkpt>
      <trkpt lat="46.59412" lon="0.63228">
        <ele>87.2</ele>
        <time>2024-03-17T09:57:36Z</time>
      </trkpt>
      <trkpt lat="46.59411" lon="0.63227">
        <ele>87.4</ele>
        <time>2024-03-17T09:57:37Z</time>
      </trkpt>
      <trkpt lat="46.59407" lon="0.63226">
        <ele>88.6</ele>
        <time>2024-03-17T09:57:40Z</time>
      </trkpt>
      <trkpt lat="46.59406" lon="0.63225">
        <ele>89</ele>
        <time>2024-03-17T09:57:41Z</time>
      </trkpt>
      <trkpt lat="46.59401" lon="0.63223">
        <ele>89.6</ele>
        <time>2024-03-17T09:57:44Z</time>
      </trkpt>
      <trkpt lat="46.59398" lon="0.63216">
        <ele>90</ele>
        <time>2024-03-17T09:57:50Z</time>
      </trkpt>
      <trkpt lat="46.59398" lon="0.63213">
        <ele>89.8</ele>
        <time>2024-03-17T09:57:51Z</time>
      </trkpt>
      <trkpt lat="46.59404" lon="0.63201">
        <ele>88.8</ele>
        <time>2024-03-17T09:57:56Z</time>
      </trkpt>
      <trkpt lat="46.59405" lon="0.63195">
        <ele>88.4</ele>
        <time>2024-03-17T09:57:58Z</time>
      </trkpt>
      <trkpt lat="46.59406" lon="0.63189">
        <ele>87.2</ele>
        <time>2024-03-17T09:58:00Z</time>
      </trkpt>
      <trkpt lat="46.59409" lon="0.63173">
        <ele>86</ele>
        <time>2024-03-17T09:58:03Z</time>
      </trkpt>
      <trkpt lat="46.5941" lon="0.63169">
        <ele>85.4</ele>
        <time>2024-03-17T09:58:04Z</time>
      </trkpt>
      <trkpt lat="46.59413" lon="0.63161">
        <ele>84.8</ele>
        <time>2024-03-17T09:58:06Z</time>
      </trkpt>
      <trkpt lat="46.59417" lon="0.63153">
        <ele>83.6</ele>
        <time>2024-03-17T09:58:08Z</time>
      </trkpt>
      <trkpt lat="46.59422" lon="0.63145">
        <ele>82.8</ele>
        <time>2024-03-17T09:58:10Z</time>
      </trkpt>
      <trkpt lat="46.59424" lon="0.6314">
        <ele>82.4</ele>
        <time>2024-03-17T09:58:11Z</time>
      </trkpt>
      <trkpt lat="46.59426" lon="0.6313">
        <ele>81.2</ele>
        <time>2024-03-17T09:58:13Z</time>
      </trkpt>
      <trkpt lat="46.59427" lon="0.63123">
        <ele>80</ele>
        <time>2024-03-17T09:58:15Z</time>
      </trkpt>
      <trkpt lat="46.59429" lon="0.63106">
        <ele>79.4</ele>
        <time>2024-03-17T09:58:18Z</time>
      </trkpt>
      <trkpt lat="46.5943" lon="0.63096">
        <ele>79.2</ele>
        <time>2024-03-17T09:58:20Z</time>
      </trkpt>
      <trkpt lat="46.59431" lon="0.63092">
        <ele>78.6</ele>
        <time>2024-03-17T09:58:21Z</time>
      </trkpt>
      <trkpt lat="46.59434" lon="0.63083">
        <ele>78.2</ele>
        <time>2024-03-17T09:58:23Z</time>
      </trkpt>
      <trkpt lat="46.59437" lon="0.6307">
        <ele>77.8</ele>
        <time>2024-03-17T09:58:27Z</time>
      </trkpt>
      <trkpt lat="46.59437" lon="0.63068">
        <ele>77.6</ele>
        <time>2024-03-17T09:58:28Z</time>
      </trkpt>
      <trkpt lat="46.59437" lon="0.63064">
        <ele>77.6</ele>
        <time>2024-03-17T09:58:29Z</time>
      </trkpt>
      <trkpt lat="46.59437" lon="0.63062">
        <ele>77.6</ele>
        <time>2024-03-17T09:58:30Z</time>
      </trkpt>
      <trkpt lat="46.59436" lon="0.6306">
        <ele>77.4</ele>
        <time>2024-03-17T09:58:31Z</time>
      </trkpt>
      <trkpt lat="46.59433" lon="0.63056">
        <ele>77.2</ele>
        <time>2024-03-17T09:58:33Z</time>
      </trkpt>
      <trkpt lat="46.59429" lon="0.63048">
        <ele>77</ele>
        <time>2024-03-17T09:58:35Z</time>
      </trkpt>
      <trkpt lat="46.59423" lon="0.63046">
        <ele>76.8</ele>
        <time>2024-03-17T09:58:37Z</time>
      </trkpt>
      <trkpt lat="46.59412" lon="0.63051">
        <ele>77</ele>
        <time>2024-03-17T09:58:43Z</time>
      </trkpt>
      <trkpt lat="46.59406" lon="0.63055">
        <ele>78.6</ele>
        <time>2024-03-17T09:58:48Z</time>
      </trkpt>
      <trkpt lat="46.59404" lon="0.63057">
        <ele>79.2</ele>
        <time>2024-03-17T09:58:50Z</time>
      </trkpt>
      <trkpt lat="46.59402" lon="0.63059">
        <ele>79.8</ele>
        <time>2024-03-17T09:58:52Z</time>
      </trkpt>
      <trkpt lat="46.59396" lon="0.63063">
        <ele>80.8</ele>
        <time>2024-03-17T09:58:56Z</time>
      </trkpt>
      <trkpt lat="46.59396" lon="0.63063">
        <ele>81</ele>
        <time>2024-03-17T09:58:57Z</time>
      </trkpt>
      <trkpt lat="46.59392" lon="0.63067">
        <ele>82</ele>
        <time>2024-03-17T09:59:01Z</time>
      </trkpt>
      <trkpt lat="46.59389" lon="0.6307">
        <ele>82.8</ele>
        <time>2024-03-17T09:59:04Z</time>
      </trkpt>
      <trkpt lat="46.59388" lon="0.63071">
        <ele>83</ele>
        <time>2024-03-17T09:59:05Z</time>
      </trkpt>
      <trkpt lat="46.59383" lon="0.63076">
        <ele>84.2</ele>
        <time>2024-03-17T09:59:09Z</time>
      </trkpt>
      <trkpt lat="46.59381" lon="0.63079">
        <ele>84.8</ele>
        <time>2024-03-17T09:59:11Z</time>
      </trkpt>
      <trkpt lat="46.59378" lon="0.63082">
        <ele>85.4</ele>
        <time>2024-03-17T09:59:14Z</time>
      </trkpt>
      <trkpt lat="46.59373" lon="0.63089">
        <ele>86.2</ele>
        <time>2024-03-17T09:59:19Z</time>
      </trkpt>
      <trkpt lat="46.59372" lon="0.6309">
        <ele>86.4</ele>
        <time>2024-03-17T09:59:20Z</time>
      </trkpt>
      <trkpt lat="46.59368" lon="0.63097">
        <ele>87.6</ele>
        <time>2024-03-17T09:59:25Z</time>
      </trkpt>
      <trkpt lat="46.59366" lon="0.631">
        <ele>87.8</ele>
        <time>2024-03-17T09:59:27Z</time>
      </trkpt>
      <trkpt lat="46.59359" lon="0.63109">
        <ele>88.6</ele>
        <time>2024-03-17T09:59:33Z</time>
      </trkpt>
      <trkpt lat="46.59358" lon="0.6311">
        <ele>88.8</ele>
        <time>2024-03-17T09:59:34Z</time>
      </trkpt>
      <trkpt lat="46.59353" lon="0.63117">
        <ele>89.6</ele>
        <time>2024-03-17T09:59:38Z</time>
      </trkpt>
      <trkpt lat="46.59345" lon="0.63126">
        <ele>90.4</ele>
        <time>2024-03-17T09:59:44Z</time>
      </trkpt>
      <trkpt lat="46.59339" lon="0.63132">
        <ele>91</ele>
        <time>2024-03-17T09:59:48Z</time>
      </trkpt>
      <trkpt lat="46.59331" lon="0.6314">
        <ele>91.8</ele>
        <time>2024-03-17T09:59:53Z</time>
      </trkpt>
      <trkpt lat="46.59325" lon="0.63145">
        <ele>92.2</ele>
        <time>2024-03-17T09:59:56Z</time>
      </trkpt>
      <trkpt lat="46.59315" lon="0.63153">
        <ele>93.2</ele>
        <time>2024-03-17T10:00:02Z</time>
      </trkpt>
      <trkpt lat="46.59313" lon="0.63154">
        <ele>93.2</ele>
        <time>2024-03-17T10:00:03Z</time>
      </trkpt>
      <trkpt lat="46.59304" lon="0.63152">
        <ele>94.4</ele>
        <time>2024-03-17T10:00:08Z</time>
      </trkpt>
      <trkpt lat="46.59302" lon="0.6315">
        <ele>94.4</ele>
        <time>2024-03-17T10:00:09Z</time>
      </trkpt>
      <trkpt lat="46.59293" lon="0.63129">
        <ele>94.6</ele>
        <time>2024-03-17T10:00:15Z</time>
      </trkpt>
      <trkpt lat="46.59283" lon="0.6311">
        <ele>95.4</ele>
        <time>2024-03-17T10:00:20Z</time>
      </trkpt>
      <trkpt lat="46.59279" lon="0.63103">
        <ele>95.6</ele>
        <time>2024-03-17T10:00:22Z</time>
      </trkpt>
      <trkpt lat="46.59262" lon="0.63073">
        <ele>96</ele>
        <time>2024-03-17T10:00:30Z</time>
      </trkpt>
      <trkpt lat="46.5925" lon="0.63054">
        <ele>96.4</ele>
        <time>2024-03-17T10:00:35Z</time>
      </trkpt>
      <trkpt lat="46.59239" lon="0.63037">
        <ele>96.8</ele>
        <time>2024-03-17T10:00:39Z</time>
      </trkpt>
      <trkpt lat="46.59218" lon="0.63">
        <ele>96.4</ele>
        <time>2024-03-17T10:00:47Z</time>
      </trkpt>
      <trkpt lat="46.59192" lon="0.62958">
        <ele>96.6</ele>
        <time>2024-03-17T10:00:55Z</time>
      </trkpt>
      <trkpt lat="46.59179" lon="0.62938">
        <ele>96.2</ele>
        <time>2024-03-17T10:01:00Z</time>
      </trkpt>
      <trkpt lat="46.59168" lon="0.62919">
        <ele>95.8</ele>
        <time>2024-03-17T10:01:05Z</time>
      </trkpt>
      <trkpt lat="46.59148" lon="0.62885">
        <ele>95.8</ele>
        <time>2024-03-17T10:01:12Z</time>
      </trkpt>
      <trkpt lat="46.59124" lon="0.62851">
        <ele>95.8</ele>
        <time>2024-03-17T10:01:20Z</time>
      </trkpt>
      <trkpt lat="46.59096" lon="0.62809">
        <ele>95.6</ele>
        <time>2024-03-17T10:01:29Z</time>
      </trkpt>
      <trkpt lat="46.59092" lon="0.62804">
        <ele>95.2</ele>
        <time>2024-03-17T10:01:30Z</time>
      </trkpt>
      <trkpt lat="46.59074" lon="0.62783">
        <ele>94.2</ele>
        <time>2024-03-17T10:01:34Z</time>
      </trkpt>
      <trkpt lat="46.5907" lon="0.62779">
        <ele>93.8</ele>
        <time>2024-03-17T10:01:35Z</time>
      </trkpt>
      <trkpt lat="46.59064" lon="0.62772">
        <ele>93</ele>
        <time>2024-03-17T10:01:37Z</time>
      </trkpt>
      <trkpt lat="46.59061" lon="0.62769">
        <ele>92.2</ele>
        <time>2024-03-17T10:01:39Z</time>
      </trkpt>
      <trkpt lat="46.5906" lon="0.62769">
        <ele>92</ele>
        <time>2024-03-17T10:01:41Z</time>
      </trkpt>
      <trkpt lat="46.59059" lon="0.6277">
        <ele>90.4</ele>
        <time>2024-03-17T10:01:44Z</time>
      </trkpt>
      <trkpt lat="46.59059" lon="0.6277">
        <ele>90.4</ele>
        <time>2024-03-17T10:01:47Z</time>
      </trkpt>
      <trkpt lat="46.59059" lon="0.6277">
        <ele>90.4</ele>
        <time>2024-03-17T10:02:40Z</time>
      </trkpt>
      <trkpt lat="46.59059" lon="0.6277">
        <ele>90.4</ele>
        <time>2024-03-17T10:02:53Z</time>
      </trkpt>
      <trkpt lat="46.59059" lon="0.62771">
        <ele>90.4</ele>
        <time>2024-03-17T10:03:51Z</time>
      </trkpt>
      <trkpt lat="46.5906" lon="0.62771">
        <ele>90.4</ele>
        <time>2024-03-17T10:04:29Z</time>
      </trkpt>
      <trkpt lat="46.5906" lon="0.62763">
        <ele>90.4</ele>
        <time>2024-03-17T10:04:38Z</time>
      </trkpt>
      <trkpt lat="46.5906" lon="0.62746">
        <ele>90.4</ele>
        <time>2024-03-17T10:04:42Z</time>
      </trkpt>
      <trkpt lat="46.59068" lon="0.62715">
        <ele>90.4</ele>
        <time>2024-03-17T10:04:46Z</time>
      </trkpt>
      <trkpt lat="46.59073" lon="0.62696">
        <ele>90.2</ele>
        <time>2024-03-17T10:04:48Z</time>
      </trkpt>
      <trkpt lat="46.59077" lon="0.62662">
        <ele>89.6</ele>
        <time>2024-03-17T10:04:51Z</time>
      </trkpt>
      <trkpt lat="46.59078" lon="0.6265">
        <ele>89.2</ele>
        <time>2024-03-17T10:04:52Z</time>
      </trkpt>
      <trkpt lat="46.59081" lon="0.626">
        <ele>88</ele>
        <time>2024-03-17T10:04:56Z</time>
      </trkpt>
      <trkpt lat="46.59081" lon="0.62587">
        <ele>87.8</ele>
        <time>2024-03-17T10:04:57Z</time>
      </trkpt>
      <trkpt lat="46.59078" lon="0.62547">
        <ele>86.4</ele>
        <time>2024-03-17T10:05:00Z</time>
      </trkpt>
      <trkpt lat="46.59073" lon="0.62493">
        <ele>85.8</ele>
        <time>2024-03-17T10:05:04Z</time>
      </trkpt>
      <trkpt lat="46.5907" lon="0.62467">
        <ele>85</ele>
        <time>2024-03-17T10:05:06Z</time>
      </trkpt>
      <trkpt lat="46.59066" lon="0.62431">
        <ele>83.6</ele>
        <time>2024-03-17T10:05:09Z</time>
      </trkpt>
      <trkpt lat="46.59064" lon="0.62419">
        <ele>83.4</ele>
        <time>2024-03-17T10:05:10Z</time>
      </trkpt>
      <trkpt lat="46.5906" lon="0.62373">
        <ele>82.2</ele>
        <time>2024-03-17T10:05:14Z</time>
      </trkpt>
      <trkpt lat="46.59058" lon="0.62351">
        <ele>81.8</ele>
        <time>2024-03-17T10:05:16Z</time>
      </trkpt>
      <trkpt lat="46.59054" lon="0.6233">
        <ele>81</ele>
        <time>2024-03-17T10:05:18Z</time>
      </trkpt>
      <trkpt lat="46.59048" lon="0.62289">
        <ele>79.8</ele>
        <time>2024-03-17T10:05:22Z</time>
      </trkpt>
      <trkpt lat="46.59038" lon="0.62229">
        <ele>78.8</ele>
        <time>2024-03-17T10:05:28Z</time>
      </trkpt>
      <trkpt lat="46.59034" lon="0.62196">
        <ele>77.4</ele>
        <time>2024-03-17T10:05:31Z</time>
      </trkpt>
      <trkpt lat="46.59029" lon="0.62163">
        <ele>76.4</ele>
        <time>2024-03-17T10:05:34Z</time>
      </trkpt>
      <trkpt lat="46.59027" lon="0.62152">
        <ele>76.2</ele>
        <time>2024-03-17T10:05:35Z</time>
      </trkpt>
      <trkpt lat="46.59021" lon="0.62127">
        <ele>75.2</ele>
        <time>2024-03-17T10:05:37Z</time>
      </trkpt>
      <trkpt lat="46.59014" lon="0.62101">
        <ele>74.2</ele>
        <time>2024-03-17T10:05:39Z</time>
      </trkpt>
      <trkpt lat="46.59011" lon="0.62087">
        <ele>73.6</ele>
        <time>2024-03-17T10:05:40Z</time>
      </trkpt>
      <trkpt lat="46.59007" lon="0.62073">
        <ele>73</ele>
        <time>2024-03-17T10:05:41Z</time>
      </trkpt>
      <trkpt lat="46.58996" lon="0.62031">
        <ele>72</ele>
        <time>2024-03-17T10:05:44Z</time>
      </trkpt>
      <trkpt lat="46.58986" lon="0.61989">
        <ele>71</ele>
        <time>2024-03-17T10:05:47Z</time>
      </trkpt>
      <trkpt lat="46.58978" lon="0.61963">
        <ele>69.6</ele>
        <time>2024-03-17T10:05:49Z</time>
      </trkpt>
      <trkpt lat="46.58967" lon="0.61923">
        <ele>68.8</ele>
        <time>2024-03-17T10:05:52Z</time>
      </trkpt>
      <trkpt lat="46.58963" lon="0.61911">
        <ele>68.4</ele>
        <time>2024-03-17T10:05:53Z</time>
      </trkpt>
      <trkpt lat="46.58953" lon="0.61874">
        <ele>67.2</ele>
        <time>2024-03-17T10:05:56Z</time>
      </trkpt>
      <trkpt lat="46.58948" lon="0.61848">
        <ele>66.6</ele>
        <time>2024-03-17T10:05:58Z</time>
      </trkpt>
      <trkpt lat="46.58946" lon="0.61836">
        <ele>66</ele>
        <time>2024-03-17T10:05:59Z</time>
      </trkpt>
      <trkpt lat="46.58934" lon="0.6179">
        <ele>65.2</ele>
        <time>2024-03-17T10:06:03Z</time>
      </trkpt>
      <trkpt lat="46.58931" lon="0.61778">
        <ele>64.8</ele>
        <time>2024-03-17T10:06:04Z</time>
      </trkpt>
      <trkpt lat="46.58925" lon="0.61758">
        <ele>63.4</ele>
        <time>2024-03-17T10:06:06Z</time>
      </trkpt>
      <trkpt lat="46.5892" lon="0.61743">
        <ele>62.8</ele>
        <time>2024-03-17T10:06:08Z</time>
      </trkpt>
      <trkpt lat="46.58919" lon="0.61739">
        <ele>62.2</ele>
        <time>2024-03-17T10:06:09Z</time>
      </trkpt>
      <trkpt lat="46.58918" lon="0.61733">
        <ele>61.4</ele>
        <time>2024-03-17T10:06:11Z</time>
      </trkpt>
      <trkpt lat="46.58918" lon="0.6173">
        <ele>61</ele>
        <time>2024-03-17T10:06:12Z</time>
      </trkpt>
      <trkpt lat="46.58914" lon="0.6172">
        <ele>60.8</ele>
        <time>2024-03-17T10:06:15Z</time>
      </trkpt>
      <trkpt lat="46.58902" lon="0.6169">
        <ele>61.2</ele>
        <time>2024-03-17T10:06:20Z</time>
      </trkpt>
      <trkpt lat="46.58882" lon="0.6163">
        <ele>61.4</ele>
        <time>2024-03-17T10:06:27Z</time>
      </trkpt>
      <trkpt lat="46.58865" lon="0.61563">
        <ele>60.8</ele>
        <time>2024-03-17T10:06:34Z</time>
      </trkpt>
      <trkpt lat="46.58845" lon="0.61499">
        <ele>60.8</ele>
        <time>2024-03-17T10:06:41Z</time>
      </trkpt>
      <trkpt lat="46.58819" lon="0.61436">
        <ele>60</ele>
        <time>2024-03-17T10:06:48Z</time>
      </trkpt>
      <trkpt lat="46.58794" lon="0.61374">
        <ele>59</ele>
        <time>2024-03-17T10:06:54Z</time>
      </trkpt>
      <trkpt lat="46.58791" lon="0.61364">
        <ele>58.8</ele>
        <time>2024-03-17T10:06:55Z</time>
      </trkpt>
      <trkpt lat="46.58774" lon="0.61316">
        <ele>58</ele>
        <time>2024-03-17T10:07:00Z</time>
      </trkpt>
      <trkpt lat="46.58771" lon="0.61308">
        <ele>58</ele>
        <time>2024-03-17T10:07:01Z</time>
      </trkpt>
      <trkpt lat="46.58764" lon="0.6129">
        <ele>57.8</ele>
        <time>2024-03-17T10:07:04Z</time>
      </trkpt>
      <trkpt lat="46.58765" lon="0.61286">
        <ele>57.4</ele>
        <time>2024-03-17T10:07:05Z</time>
      </trkpt>
      <trkpt lat="46.5877" lon="0.6128">
        <ele>57.2</ele>
        <time>2024-03-17T10:07:07Z</time>
      </trkpt>
      <trkpt lat="46.58784" lon="0.61267">
        <ele>57</ele>
        <time>2024-03-17T10:07:11Z</time>
      </trkpt>
      <trkpt lat="46.58791" lon="0.61257">
        <ele>57</ele>
        <time>2024-03-17T10:07:13Z</time>
      </trkpt>
      <trkpt lat="46.58795" lon="0.61252">
        <ele>57</ele>
        <time>2024-03-17T10:07:14Z</time>
      </trkpt>
      <trkpt lat="46.58808" lon="0.61225">
        <ele>57.2</ele>
        <time>2024-03-17T10:07:18Z</time>
      </trkpt>
      <trkpt lat="46.58811" lon="0.6121">
        <ele>57.4</ele>
        <time>2024-03-17T10:07:20Z</time>
      </trkpt>
      <trkpt lat="46.58809" lon="0.61203">
        <ele>57.4</ele>
        <time>2024-03-17T10:07:21Z</time>
      </trkpt>
      <trkpt lat="46.58807" lon="0.61196">
        <ele>57.4</ele>
        <time>2024-03-17T10:07:22Z</time>
      </trkpt>
      <trkpt lat="46.58803" lon="0.61183">
        <ele>57.4</ele>
        <time>2024-03-17T10:07:24Z</time>
      </trkpt>
      <trkpt lat="46.58804" lon="0.61177">
        <ele>57.4</ele>
        <time>2024-03-17T10:07:25Z</time>
      </trkpt>
      <trkpt lat="46.5881" lon="0.61167">
        <ele>57.4</ele>
        <time>2024-03-17T10:07:27Z</time>
      </trkpt>
      <trkpt lat="46.58812" lon="0.61161">
        <ele>57.2</ele>
        <time>2024-03-17T10:07:28Z</time>
      </trkpt>
      <trkpt lat="46.58811" lon="0.61154">
        <ele>57.4</ele>
        <time>2024-03-17T10:07:29Z</time>
      </trkpt>
      <trkpt lat="46.58808" lon="0.61141">
        <ele>57.2</ele>
        <time>2024-03-17T10:07:31Z</time>
      </trkpt>
      <trkpt lat="46.58805" lon="0.6113">
        <ele>57.2</ele>
        <time>2024-03-17T10:07:33Z</time>
      </trkpt>
      <trkpt lat="46.58806" lon="0.6112">
        <ele>57</ele>
        <time>2024-03-17T10:07:35Z</time>
      </trkpt>
      <trkpt lat="46.5882" lon="0.61103">
        <ele>57</ele>
        <time>2024-03-17T10:07:39Z</time>
      </trkpt>
      <trkpt lat="46.58851" lon="0.61066">
        <ele>56.6</ele>
        <time>2024-03-17T10:07:46Z</time>
      </trkpt>
      <trkpt lat="46.58897" lon="0.6101">
        <ele>57</ele>
        <time>2024-03-17T10:07:56Z</time>
      </trkpt>
      <trkpt lat="46.58902" lon="0.61004">
        <ele>57</ele>
        <time>2024-03-17T10:07:57Z</time>
      </trkpt>
      <trkpt lat="46.5894" lon="0.6096">
        <ele>57</ele>
        <time>2024-03-17T10:08:05Z</time>
      </trkpt>
      <trkpt lat="46.58977" lon="0.60916">
        <ele>56.6</ele>
        <time>2024-03-17T10:08:13Z</time>
      </trkpt>
      <trkpt lat="46.59015" lon="0.6087">
        <ele>56.8</ele>
        <time>2024-03-17T10:08:21Z</time>
      </trkpt>
      <trkpt lat="46.59057" lon="0.60822">
        <ele>56.4</ele>
        <time>2024-03-17T10:08:30Z</time>
      </trkpt>
      <trkpt lat="46.59061" lon="0.60817">
        <ele>56.2</ele>
        <time>2024-03-17T10:08:31Z</time>
      </trkpt>
      <trkpt lat="46.59095" lon="0.60786">
        <ele>56</ele>
        <time>2024-03-17T10:08:39Z</time>
      </trkpt>
      <trkpt lat="46.59123" lon="0.6076">
        <ele>55.8</ele>
        <time>2024-03-17T10:08:46Z</time>
      </trkpt>
      <trkpt lat="46.59164" lon="0.60727">
        <ele>56.2</ele>
        <time>2024-03-17T10:08:54Z</time>
      </trkpt>
      <trkpt lat="46.592" lon="0.60707">
        <ele>56.2</ele>
        <time>2024-03-17T10:09:00Z</time>
      </trkpt>
      <trkpt lat="46.59237" lon="0.60696">
        <ele>56.2</ele>
        <time>2024-03-17T10:09:06Z</time>
      </trkpt>
      <trkpt lat="46.59243" lon="0.60696">
        <ele>56.2</ele>
        <time>2024-03-17T10:09:07Z</time>
      </trkpt>
      <trkpt lat="46.59265" lon="0.60699">
        <ele>56.2</ele>
        <time>2024-03-17T10:09:11Z</time>
      </trkpt>
      <trkpt lat="46.59299" lon="0.60694">
        <ele>56.2</ele>
        <time>2024-03-17T10:09:17Z</time>
      </trkpt>
      <trkpt lat="46.59341" lon="0.6068">
        <ele>56.6</ele>
        <time>2024-03-17T10:09:24Z</time>
      </trkpt>
      <trkpt lat="46.59391" lon="0.60674">
        <ele>56.8</ele>
        <time>2024-03-17T10:09:32Z</time>
      </trkpt>
      <trkpt lat="46.59426" lon="0.60671">
        <ele>56.4</ele>
        <time>2024-03-17T10:09:38Z</time>
      </trkpt>
      <trkpt lat="46.59481" lon="0.60665">
        <ele>56.2</ele>
        <time>2024-03-17T10:09:47Z</time>
      </trkpt>
      <trkpt lat="46.59499" lon="0.60664">
        <ele>56.2</ele>
        <time>2024-03-17T10:09:50Z</time>
      </trkpt>
      <trkpt lat="46.59508" lon="0.60671">
        <ele>56.2</ele>
        <time>2024-03-17T10:09:52Z</time>
      </trkpt>
      <trkpt lat="46.59511" lon="0.60684">
        <ele>56.4</ele>
        <time>2024-03-17T10:09:54Z</time>
      </trkpt>
      <trkpt lat="46.59512" lon="0.60691">
        <ele>56.4</ele>
        <time>2024-03-17T10:09:55Z</time>
      </trkpt>
      <trkpt lat="46.59517" lon="0.6073">
        <ele>56.6</ele>
        <time>2024-03-17T10:10:00Z</time>
      </trkpt>
      <trkpt lat="46.59517" lon="0.60746">
        <ele>56.4</ele>
        <time>2024-03-17T10:10:02Z</time>
      </trkpt>
      <trkpt lat="46.59524" lon="0.60755">
        <ele>56.2</ele>
        <time>2024-03-17T10:10:04Z</time>
      </trkpt>
      <trkpt lat="46.59537" lon="0.60751">
        <ele>55.8</ele>
        <time>2024-03-17T10:10:07Z</time>
      </trkpt>
      <trkpt lat="46.59547" lon="0.60747">
        <ele>55.6</ele>
        <time>2024-03-17T10:10:09Z</time>
      </trkpt>
      <trkpt lat="46.5956" lon="0.60743">
        <ele>55.4</ele>
        <time>2024-03-17T10:10:12Z</time>
      </trkpt>
      <trkpt lat="46.59589" lon="0.60731">
        <ele>56.2</ele>
        <time>2024-03-17T10:10:18Z</time>
      </trkpt>
      <trkpt lat="46.59639" lon="0.60708">
        <ele>55.8</ele>
        <time>2024-03-17T10:10:28Z</time>
      </trkpt>
      <trkpt lat="46.59683" lon="0.60692">
        <ele>55.6</ele>
        <time>2024-03-17T10:10:37Z</time>
      </trkpt>
      <trkpt lat="46.59708" lon="0.60694">
        <ele>55.4</ele>
        <time>2024-03-17T10:10:42Z</time>
      </trkpt>
      <trkpt lat="46.59718" lon="0.60696">
        <ele>55.2</ele>
        <time>2024-03-17T10:10:44Z</time>
      </trkpt>
      <trkpt lat="46.59749" lon="0.60704">
        <ele>55</ele>
        <time>2024-03-17T10:10:51Z</time>
      </trkpt>
      <trkpt lat="46.59784" lon="0.60714">
        <ele>55</ele>
        <time>2024-03-17T10:10:59Z</time>
      </trkpt>
      <trkpt lat="46.59825" lon="0.60725">
        <ele>56</ele>
        <time>2024-03-17T10:11:08Z</time>
      </trkpt>
      <trkpt lat="46.59842" lon="0.6073">
        <ele>56.6</ele>
        <time>2024-03-17T10:11:12Z</time>
      </trkpt>
      <trkpt lat="46.59854" lon="0.60733">
        <ele>57</ele>
        <time>2024-03-17T10:11:15Z</time>
      </trkpt>
      <trkpt lat="46.59891" lon="0.60742">
        <ele>57.4</ele>
        <time>2024-03-17T10:11:24Z</time>
      </trkpt>
      <trkpt lat="46.59916" lon="0.60747">
        <ele>57.2</ele>
        <time>2024-03-17T10:11:29Z</time>
      </trkpt>
      <trkpt lat="46.59921" lon="0.60747">
        <ele>57</ele>
        <time>2024-03-17T10:11:30Z</time>
      </trkpt>
      <trkpt lat="46.5993" lon="0.60745">
        <ele>56.8</ele>
        <time>2024-03-17T10:11:32Z</time>
      </trkpt>
      <trkpt lat="46.59938" lon="0.60748">
        <ele>56.8</ele>
        <time>2024-03-17T10:11:34Z</time>
      </trkpt>
      <trkpt lat="46.59943" lon="0.60758">
        <ele>56.8</ele>
        <time>2024-03-17T10:11:36Z</time>
      </trkpt>
      <trkpt lat="46.59944" lon="0.60763">
        <ele>56.8</ele>
        <time>2024-03-17T10:11:37Z</time>
      </trkpt>
      <trkpt lat="46.59945" lon="0.60767">
        <ele>56.8</ele>
        <time>2024-03-17T10:11:38Z</time>
      </trkpt>
      <trkpt lat="46.59951" lon="0.6077">
        <ele>56.8</ele>
        <time>2024-03-17T10:11:40Z</time>
      </trkpt>
      <trkpt lat="46.59973" lon="0.60758">
        <ele>56.8</ele>
        <time>2024-03-17T10:11:45Z</time>
      </trkpt>
      <trkpt lat="46.59987" lon="0.6075">
        <ele>56.8</ele>
        <time>2024-03-17T10:11:48Z</time>
      </trkpt>
      <trkpt lat="46.59998" lon="0.60746">
        <ele>56.8</ele>
        <time>2024-03-17T10:11:51Z</time>
      </trkpt>
      <trkpt lat="46.60013" lon="0.6074">
        <ele>56.6</ele>
        <time>2024-03-17T10:11:57Z</time>
      </trkpt>
      <trkpt lat="46.60014" lon="0.60739">
        <ele>56.4</ele>
        <time>2024-03-17T10:11:58Z</time>
      </trkpt>
      <trkpt lat="46.60015" lon="0.60736">
        <ele>55.4</ele>
        <time>2024-03-17T10:12:00Z</time>
      </trkpt>
      <trkpt lat="46.60018" lon="0.60731">
        <ele>54.4</ele>
        <time>2024-03-17T10:12:02Z</time>
      </trkpt>
      <trkpt lat="46.60019" lon="0.60729">
        <ele>54.2</ele>
        <time>2024-03-17T10:12:03Z</time>
      </trkpt>
      <trkpt lat="46.60025" lon="0.60716">
        <ele>54</ele>
        <time>2024-03-17T10:12:10Z</time>
      </trkpt>
      <trkpt lat="46.60026" lon="0.60714">
        <ele>54</ele>
        <time>2024-03-17T10:12:13Z</time>
      </trkpt>
      <trkpt lat="46.60027" lon="0.60712">
        <ele>54.2</ele>
        <time>2024-03-17T10:12:17Z</time>
      </trkpt>
      <trkpt lat="46.60031" lon="0.60711">
        <ele>55.4</ele>
        <time>2024-03-17T10:12:28Z</time>
      </trkpt>
      <trkpt lat="46.60032" lon="0.60712">
        <ele>56</ele>
        <time>2024-03-17T10:12:30Z</time>
      </trkpt>
      <trkpt lat="46.60032" lon="0.60713">
        <ele>56.4</ele>
        <time>2024-03-17T10:12:32Z</time>
      </trkpt>
      <trkpt lat="46.60033" lon="0.60714">
        <ele>57.4</ele>
        <time>2024-03-17T10:12:39Z</time>
      </trkpt>
      <trkpt lat="46.60035" lon="0.60714">
        <ele>58.2</ele>
        <time>2024-03-17T10:12:42Z</time>
      </trkpt>
      <trkpt lat="46.60037" lon="0.60714">
        <ele>58.6</ele>
        <time>2024-03-17T10:12:44Z</time>
      </trkpt>
      <trkpt lat="46.60037" lon="0.60712">
        <ele>59</ele>
        <time>2024-03-17T10:12:47Z</time>
      </trkpt>
      <trkpt lat="46.60037" lon="0.60712">
        <ele>59</ele>
        <time>2024-03-17T10:12:50Z</time>
      </trkpt>
      <trkpt lat="46.6004" lon="0.60701">
        <ele>59</ele>
        <time>2024-03-17T10:12:55Z</time>
      </trkpt>
      <trkpt lat="46.60048" lon="0.60676">
        <ele>59.2</ele>
        <time>2024-03-17T10:13:01Z</time>
      </trkpt>
      <trkpt lat="46.6006" lon="0.60636">
        <ele>59.4</ele>
        <time>2024-03-17T10:13:08Z</time>
      </trkpt>
      <trkpt lat="46.60064" lon="0.60623">
        <ele>59.8</ele>
        <time>2024-03-17T10:13:10Z</time>
      </trkpt>
      <trkpt lat="46.60066" lon="0.60617">
        <ele>59.8</ele>
        <time>2024-03-17T10:13:11Z</time>
      </trkpt>
      <trkpt lat="46.60073" lon="0.60606">
        <ele>60</ele>
        <time>2024-03-17T10:13:13Z</time>
      </trkpt>
      <trkpt lat="46.60077" lon="0.60601">
        <ele>60</ele>
        <time>2024-03-17T10:13:14Z</time>
      </trkpt>
      <trkpt lat="46.60111" lon="0.60562">
        <ele>60.2</ele>
        <time>2024-03-17T10:13:22Z</time>
      </trkpt>
      <trkpt lat="46.60154" lon="0.60505">
        <ele>59.8</ele>
        <time>2024-03-17T10:13:32Z</time>
      </trkpt>
      <trkpt lat="46.60187" lon="0.60451">
        <ele>58.8</ele>
        <time>2024-03-17T10:13:39Z</time>
      </trkpt>
      <trkpt lat="46.60192" lon="0.60443">
        <ele>58.6</ele>
        <time>2024-03-17T10:13:40Z</time>
      </trkpt>
      <trkpt lat="46.60218" lon="0.60397">
        <ele>58</ele>
        <time>2024-03-17T10:13:46Z</time>
      </trkpt>
      <trkpt lat="46.60242" lon="0.60351">
        <ele>58.6</ele>
        <time>2024-03-17T10:13:53Z</time>
      </trkpt>
      <trkpt lat="46.60278" lon="0.60292">
        <ele>57.8</ele>
        <time>2024-03-17T10:14:02Z</time>
      </trkpt>
      <trkpt lat="46.60283" lon="0.60287">
        <ele>57.8</ele>
        <time>2024-03-17T10:14:03Z</time>
      </trkpt>
      <trkpt lat="46.60289" lon="0.60282">
        <ele>57.8</ele>
        <time>2024-03-17T10:14:04Z</time>
      </trkpt>
      <trkpt lat="46.603" lon="0.60274">
        <ele>57.8</ele>
        <time>2024-03-17T10:14:06Z</time>
      </trkpt>
      <trkpt lat="46.60342" lon="0.60243">
        <ele>57.8</ele>
        <time>2024-03-17T10:14:14Z</time>
      </trkpt>
      <trkpt lat="46.60346" lon="0.60239">
        <ele>57.8</ele>
        <time>2024-03-17T10:14:15Z</time>
      </trkpt>
      <trkpt lat="46.60351" lon="0.60235">
        <ele>57.8</ele>
        <time>2024-03-17T10:14:16Z</time>
      </trkpt>
      <trkpt lat="46.60376" lon="0.60216">
        <ele>58.2</ele>
        <time>2024-03-17T10:14:21Z</time>
      </trkpt>
      <trkpt lat="46.60425" lon="0.60179">
        <ele>57.8</ele>
        <time>2024-03-17T10:14:30Z</time>
      </trkpt>
      <trkpt lat="46.60441" lon="0.60167">
        <ele>58</ele>
        <time>2024-03-17T10:14:33Z</time>
      </trkpt>
      <trkpt lat="46.60491" lon="0.6013">
        <ele>57.8</ele>
        <time>2024-03-17T10:14:42Z</time>
      </trkpt>
      <trkpt lat="46.60502" lon="0.60122">
        <ele>58</ele>
        <time>2024-03-17T10:14:44Z</time>
      </trkpt>
      <trkpt lat="46.60537" lon="0.60096">
        <ele>57.8</ele>
        <time>2024-03-17T10:14:50Z</time>
      </trkpt>
      <trkpt lat="46.60571" lon="0.60072">
        <ele>57.8</ele>
        <time>2024-03-17T10:14:56Z</time>
      </trkpt>
      <trkpt lat="46.60612" lon="0.60042">
        <ele>58</ele>
        <time>2024-03-17T10:15:03Z</time>
      </trkpt>
      <trkpt lat="46.60631" lon="0.60031">
        <ele>58.2</ele>
        <time>2024-03-17T10:15:07Z</time>
      </trkpt>
      <trkpt lat="46.60638" lon="0.60024">
        <ele>58.2</ele>
        <time>2024-03-17T10:15:10Z</time>
      </trkpt>
      <trkpt lat="46.60638" lon="0.60021">
        <ele>58.6</ele>
        <time>2024-03-17T10:15:11Z</time>
      </trkpt>
      <trkpt lat="46.60637" lon="0.60016">
        <ele>58.8</ele>
        <time>2024-03-17T10:15:12Z</time>
      </trkpt>
      <trkpt lat="46.60633" lon="0.60001">
        <ele>59.2</ele>
        <time>2024-03-17T10:15:15Z</time>
      </trkpt>
      <trkpt lat="46.60626" lon="0.59974">
        <ele>59.8</ele>
        <time>2024-03-17T10:15:19Z</time>
      </trkpt>
      <trkpt lat="46.60623" lon="0.59961">
        <ele>60</ele>
        <time>2024-03-17T10:15:21Z</time>
      </trkpt>
      <trkpt lat="46.60613" lon="0.59919">
        <ele>60.6</ele>
        <time>2024-03-17T10:15:27Z</time>
      </trkpt>
      <trkpt lat="46.6061" lon="0.59907">
        <ele>61</ele>
        <time>2024-03-17T10:15:29Z</time>
      </trkpt>
      <trkpt lat="46.60601" lon="0.59871">
        <ele>61.6</ele>
        <time>2024-03-17T10:15:34Z</time>
      </trkpt>
      <trkpt lat="46.60588" lon="0.59821">
        <ele>62</ele>
        <time>2024-03-17T10:15:41Z</time>
      </trkpt>
      <trkpt lat="46.60584" lon="0.59806">
        <ele>62.2</ele>
        <time>2024-03-17T10:15:43Z</time>
      </trkpt>
      <trkpt lat="46.60569" lon="0.59747">
        <ele>61.8</ele>
        <time>2024-03-17T10:15:51Z</time>
      </trkpt>
      <trkpt lat="46.6056" lon="0.59715">
        <ele>61.4</ele>
        <time>2024-03-17T10:15:55Z</time>
      </trkpt>
      <trkpt lat="46.60557" lon="0.59709">
        <ele>61.4</ele>
        <time>2024-03-17T10:15:56Z</time>
      </trkpt>
      <trkpt lat="46.60552" lon="0.59706">
        <ele>61</ele>
        <time>2024-03-17T10:15:57Z</time>
      </trkpt>
      <trkpt lat="46.60541" lon="0.59705">
        <ele>60.4</ele>
        <time>2024-03-17T10:15:59Z</time>
      </trkpt>
      <trkpt lat="46.60537" lon="0.59705">
        <ele>59.8</ele>
        <time>2024-03-17T10:16:00Z</time>
      </trkpt>
      <trkpt lat="46.60531" lon="0.59705">
        <ele>59</ele>
        <time>2024-03-17T10:16:02Z</time>
      </trkpt>
      <trkpt lat="46.60528" lon="0.59706">
        <ele>58.6</ele>
        <time>2024-03-17T10:16:03Z</time>
      </trkpt>
      <trkpt lat="46.60518" lon="0.59707">
        <ele>57.8</ele>
        <time>2024-03-17T10:16:05Z</time>
      </trkpt>
      <trkpt lat="46.60514" lon="0.59708">
        <ele>57.4</ele>
        <time>2024-03-17T10:16:06Z</time>
      </trkpt>
      <trkpt lat="46.60496" lon="0.59709">
        <ele>57.2</ele>
        <time>2024-03-17T10:16:10Z</time>
      </trkpt>
      <trkpt lat="46.60483" lon="0.59709">
        <ele>57.2</ele>
        <time>2024-03-17T10:16:13Z</time>
      </trkpt>
      <trkpt lat="46.60463" lon="0.5971">
        <ele>57.4</ele>
        <time>2024-03-17T10:16:18Z</time>
      </trkpt>
      <trkpt lat="46.60431" lon="0.59721">
        <ele>58</ele>
        <time>2024-03-17T10:16:25Z</time>
      </trkpt>
      <trkpt lat="46.60427" lon="0.59721">
        <ele>58.2</ele>
        <time>2024-03-17T10:16:26Z</time>
      </trkpt>
      <trkpt lat="46.6042" lon="0.59717">
        <ele>58.6</ele>
        <time>2024-03-17T10:16:28Z</time>
      </trkpt>
      <trkpt lat="46.60416" lon="0.59715">
        <ele>58.6</ele>
        <time>2024-03-17T10:16:29Z</time>
      </trkpt>
      <trkpt lat="46.60408" lon="0.59711">
        <ele>58.6</ele>
        <time>2024-03-17T10:16:31Z</time>
      </trkpt>
      <trkpt lat="46.60404" lon="0.59708">
        <ele>58.6</ele>
        <time>2024-03-17T10:16:32Z</time>
      </trkpt>
      <trkpt lat="46.60389" lon="0.59691">
        <ele>58.8</ele>
        <time>2024-03-17T10:16:36Z</time>
      </trkpt>
      <trkpt lat="46.60383" lon="0.59683">
        <ele>58.8</ele>
        <time>2024-03-17T10:16:38Z</time>
      </trkpt>
      <trkpt lat="46.60373" lon="0.59668">
        <ele>59.2</ele>
        <time>2024-03-17T10:16:42Z</time>
      </trkpt>
      <trkpt lat="46.60369" lon="0.59668">
        <ele>59.2</ele>
        <time>2024-03-17T10:16:43Z</time>
      </trkpt>
      <trkpt lat="46.60364" lon="0.59669">
        <ele>59.4</ele>
        <time>2024-03-17T10:16:44Z</time>
      </trkpt>
      <trkpt lat="46.6036" lon="0.59671">
        <ele>59.6</ele>
        <time>2024-03-17T10:16:45Z</time>
      </trkpt>
      <trkpt lat="46.60351" lon="0.59675">
        <ele>59.8</ele>
        <time>2024-03-17T10:16:47Z</time>
      </trkpt>
      <trkpt lat="46.60336" lon="0.59678">
        <ele>59.8</ele>
        <time>2024-03-17T10:16:50Z</time>
      </trkpt>
      <trkpt lat="46.60327" lon="0.59675">
        <ele>60</ele>
        <time>2024-03-17T10:16:52Z</time>
      </trkpt>
      <trkpt lat="46.60319" lon="0.59665">
        <ele>59.8</ele>
        <time>2024-03-17T10:16:54Z</time>
      </trkpt>
      <trkpt lat="46.60316" lon="0.59659">
        <ele>59.8</ele>
        <time>2024-03-17T10:16:55Z</time>
      </trkpt>
      <trkpt lat="46.60297" lon="0.59609">
        <ele>60.2</ele>
        <time>2024-03-17T10:17:02Z</time>
      </trkpt>
      <trkpt lat="46.60287" lon="0.59582">
        <ele>60.6</ele>
        <time>2024-03-17T10:17:06Z</time>
      </trkpt>
      <trkpt lat="46.60282" lon="0.59571">
        <ele>60.8</ele>
        <time>2024-03-17T10:17:08Z</time>
      </trkpt>
      <trkpt lat="46.60265" lon="0.59523">
        <ele>61.6</ele>
        <time>2024-03-17T10:17:16Z</time>
      </trkpt>
      <trkpt lat="46.60263" lon="0.59517">
        <ele>61.8</ele>
        <time>2024-03-17T10:17:17Z</time>
      </trkpt>
      <trkpt lat="46.60252" lon="0.59487">
        <ele>63</ele>
        <time>2024-03-17T10:17:22Z</time>
      </trkpt>
      <trkpt lat="46.60247" lon="0.59477">
        <ele>63.4</ele>
        <time>2024-03-17T10:17:24Z</time>
      </trkpt>
      <trkpt lat="46.60234" lon="0.59446">
        <ele>64</ele>
        <time>2024-03-17T10:17:30Z</time>
      </trkpt>
      <trkpt lat="46.60231" lon="0.5944">
        <ele>64.2</ele>
        <time>2024-03-17T10:17:31Z</time>
      </trkpt>
      <trkpt lat="46.60224" lon="0.59422">
        <ele>64.4</ele>
        <time>2024-03-17T10:17:34Z</time>
      </trkpt>
      <trkpt lat="46.60219" lon="0.59409">
        <ele>64.4</ele>
        <time>2024-03-17T10:17:36Z</time>
      </trkpt>
      <trkpt lat="46.60205" lon="0.59382">
        <ele>63.8</ele>
        <time>2024-03-17T10:17:41Z</time>
      </trkpt>
      <trkpt lat="46.60204" lon="0.59376">
        <ele>63.8</ele>
        <time>2024-03-17T10:17:42Z</time>
      </trkpt>
      <trkpt lat="46.60203" lon="0.59371">
        <ele>63.8</ele>
        <time>2024-03-17T10:17:43Z</time>
      </trkpt>
      <trkpt lat="46.60204" lon="0.59359">
        <ele>64.4</ele>
        <time>2024-03-17T10:17:46Z</time>
      </trkpt>
      <trkpt lat="46.60198" lon="0.59345">
        <ele>65</ele>
        <time>2024-03-17T10:17:50Z</time>
      </trkpt>
      <trkpt lat="46.60196" lon="0.59341">
        <ele>65</ele>
        <time>2024-03-17T10:17:51Z</time>
      </trkpt>
      <trkpt lat="46.60181" lon="0.59314">
        <ele>64.6</ele>
        <time>2024-03-17T10:17:56Z</time>
      </trkpt>
      <trkpt lat="46.60165" lon="0.59291">
        <ele>64.6</ele>
        <time>2024-03-17T10:18:00Z</time>
      </trkpt>
      <trkpt lat="46.60161" lon="0.59285">
        <ele>65</ele>
        <time>2024-03-17T10:18:01Z</time>
      </trkpt>
      <trkpt lat="46.60157" lon="0.59279">
        <ele>65.2</ele>
        <time>2024-03-17T10:18:02Z</time>
      </trkpt>
      <trkpt lat="46.60153" lon="0.59272">
        <ele>65.2</ele>
        <time>2024-03-17T10:18:03Z</time>
      </trkpt>
      <trkpt lat="46.60144" lon="0.59253">
        <ele>65.4</ele>
        <time>2024-03-17T10:18:06Z</time>
      </trkpt>
      <trkpt lat="46.60141" lon="0.59248">
        <ele>65.4</ele>
        <time>2024-03-17T10:18:07Z</time>
      </trkpt>
      <trkpt lat="46.60128" lon="0.59228">
        <ele>65.8</ele>
        <time>2024-03-17T10:18:12Z</time>
      </trkpt>
      <trkpt lat="46.60114" lon="0.59208">
        <ele>66.2</ele>
        <time>2024-03-17T10:18:17Z</time>
      </trkpt>
      <trkpt lat="46.60112" lon="0.59204">
        <ele>66.4</ele>
        <time>2024-03-17T10:18:18Z</time>
      </trkpt>
      <trkpt lat="46.60097" lon="0.59182">
        <ele>66.6</ele>
        <time>2024-03-17T10:18:23Z</time>
      </trkpt>
      <trkpt lat="46.60094" lon="0.59177">
        <ele>66.8</ele>
        <time>2024-03-17T10:18:24Z</time>
      </trkpt>
      <trkpt lat="46.60087" lon="0.59167">
        <ele>66.8</ele>
        <time>2024-03-17T10:18:26Z</time>
      </trkpt>
      <trkpt lat="46.6008" lon="0.59155">
        <ele>66.4</ele>
        <time>2024-03-17T10:18:28Z</time>
      </trkpt>
      <trkpt lat="46.60077" lon="0.59149">
        <ele>66.2</ele>
        <time>2024-03-17T10:18:29Z</time>
      </trkpt>
      <trkpt lat="46.60065" lon="0.59129">
        <ele>66.2</ele>
        <time>2024-03-17T10:18:33Z</time>
      </trkpt>
      <trkpt lat="46.60048" lon="0.59106">
        <ele>66.8</ele>
        <time>2024-03-17T10:18:39Z</time>
      </trkpt>
      <trkpt lat="46.60046" lon="0.59102">
        <ele>67</ele>
        <time>2024-03-17T10:18:40Z</time>
      </trkpt>
      <trkpt lat="46.60044" lon="0.59098">
        <ele>67.2</ele>
        <time>2024-03-17T10:18:41Z</time>
      </trkpt>
      <trkpt lat="46.60037" lon="0.59086">
        <ele>67.8</ele>
        <time>2024-03-17T10:18:45Z</time>
      </trkpt>
      <trkpt lat="46.60034" lon="0.59081">
        <ele>68.4</ele>
        <time>2024-03-17T10:18:47Z</time>
      </trkpt>
      <trkpt lat="46.60025" lon="0.59069">
        <ele>68.6</ele>
        <time>2024-03-17T10:18:51Z</time>
      </trkpt>
      <trkpt lat="46.60016" lon="0.59052">
        <ele>69.6</ele>
        <time>2024-03-17T10:18:57Z</time>
      </trkpt>
      <trkpt lat="46.60013" lon="0.59039">
        <ele>70.6</ele>
        <time>2024-03-17T10:19:02Z</time>
      </trkpt>
      <trkpt lat="46.60008" lon="0.59028">
        <ele>70.8</ele>
        <time>2024-03-17T10:19:05Z</time>
      </trkpt>
      <trkpt lat="46.60008" lon="0.59024">
        <ele>70.8</ele>
        <time>2024-03-17T10:19:06Z</time>
      </trkpt>
      <trkpt lat="46.60007" lon="0.59011">
        <ele>71.2</ele>
        <time>2024-03-17T10:19:11Z</time>
      </trkpt>
      <trkpt lat="46.60007" lon="0.59002">
        <ele>71.8</ele>
        <time>2024-03-17T10:19:14Z</time>
      </trkpt>
      <trkpt lat="46.60012" lon="0.58986">
        <ele>72.4</ele>
        <time>2024-03-17T10:19:18Z</time>
      </trkpt>
      <trkpt lat="46.60019" lon="0.58962">
        <ele>72.4</ele>
        <time>2024-03-17T10:19:23Z</time>
      </trkpt>
      <trkpt lat="46.6002" lon="0.58958">
        <ele>72.4</ele>
        <time>2024-03-17T10:19:24Z</time>
      </trkpt>
      <trkpt lat="46.60024" lon="0.58943">
        <ele>72.4</ele>
        <time>2024-03-17T10:19:27Z</time>
      </trkpt>
      <trkpt lat="46.60029" lon="0.58929">
        <ele>72.2</ele>
        <time>2024-03-17T10:19:29Z</time>
      </trkpt>
      <trkpt lat="46.6003" lon="0.58923">
        <ele>72</ele>
        <time>2024-03-17T10:19:30Z</time>
      </trkpt>
      <trkpt lat="46.60034" lon="0.58908">
        <ele>71.8</ele>
        <time>2024-03-17T10:19:32Z</time>
      </trkpt>
      <trkpt lat="46.6004" lon="0.58897">
        <ele>71.6</ele>
        <time>2024-03-17T10:19:34Z</time>
      </trkpt>
      <trkpt lat="46.60049" lon="0.58878">
        <ele>71.2</ele>
        <time>2024-03-17T10:19:37Z</time>
      </trkpt>
      <trkpt lat="46.60055" lon="0.58868">
        <ele>70.8</ele>
        <time>2024-03-17T10:19:39Z</time>
      </trkpt>
      <trkpt lat="46.60057" lon="0.58863">
        <ele>71</ele>
        <time>2024-03-17T10:19:40Z</time>
      </trkpt>
      <trkpt lat="46.60072" lon="0.5884">
        <ele>72</ele>
        <time>2024-03-17T10:19:46Z</time>
      </trkpt>
      <trkpt lat="46.60082" lon="0.58826">
        <ele>71.8</ele>
        <time>2024-03-17T10:19:50Z</time>
      </trkpt>
      <trkpt lat="46.60101" lon="0.58815">
        <ele>73</ele>
        <time>2024-03-17T10:19:56Z</time>
      </trkpt>
      <trkpt lat="46.60124" lon="0.58802">
        <ele>73.4</ele>
        <time>2024-03-17T10:20:02Z</time>
      </trkpt>
      <trkpt lat="46.60142" lon="0.58792">
        <ele>74</ele>
        <time>2024-03-17T10:20:07Z</time>
      </trkpt>
      <trkpt lat="46.60144" lon="0.58791">
        <ele>74</ele>
        <time>2024-03-17T10:20:08Z</time>
      </trkpt>
      <trkpt lat="46.60163" lon="0.5878">
        <ele>75</ele>
        <time>2024-03-17T10:20:15Z</time>
      </trkpt>
      <trkpt lat="46.60166" lon="0.58779">
        <ele>75.2</ele>
        <time>2024-03-17T10:20:16Z</time>
      </trkpt>
      <trkpt lat="46.60181" lon="0.58776">
        <ele>75.6</ele>
        <time>2024-03-17T10:20:21Z</time>
      </trkpt>
      <trkpt lat="46.602" lon="0.58781">
        <ele>76.2</ele>
        <time>2024-03-17T10:20:28Z</time>
      </trkpt>
      <trkpt lat="46.60214" lon="0.5879">
        <ele>77.4</ele>
        <time>2024-03-17T10:20:35Z</time>
      </trkpt>
      <trkpt lat="46.60221" lon="0.58801">
        <ele>78.4</ele>
        <time>2024-03-17T10:20:41Z</time>
      </trkpt>
      <trkpt lat="46.60222" lon="0.58804">
        <ele>78.6</ele>
        <time>2024-03-17T10:20:42Z</time>
      </trkpt>
      <trkpt lat="46.60229" lon="0.58816">
        <ele>79.4</ele>
        <time>2024-03-17T10:20:47Z</time>
      </trkpt>
      <trkpt lat="46.60231" lon="0.58818">
        <ele>79.6</ele>
        <time>2024-03-17T10:20:48Z</time>
      </trkpt>
      <trkpt lat="46.60238" lon="0.58832">
        <ele>80.2</ele>
        <time>2024-03-17T10:20:53Z</time>
      </trkpt>
      <trkpt lat="46.60241" lon="0.58834">
        <ele>80.2</ele>
        <time>2024-03-17T10:20:54Z</time>
      </trkpt>
      <trkpt lat="46.60252" lon="0.58839">
        <ele>80.2</ele>
        <time>2024-03-17T10:20:57Z</time>
      </trkpt>
      <trkpt lat="46.60264" lon="0.58851">
        <ele>80.8</ele>
        <time>2024-03-17T10:21:02Z</time>
      </trkpt>
      <trkpt lat="46.60281" lon="0.58863">
        <ele>81.8</ele>
        <time>2024-03-17T10:21:10Z</time>
      </trkpt>
      <trkpt lat="46.60284" lon="0.58865">
        <ele>81.8</ele>
        <time>2024-03-17T10:21:11Z</time>
      </trkpt>
      <trkpt lat="46.60298" lon="0.58872">
        <ele>82.4</ele>
        <time>2024-03-17T10:21:17Z</time>
      </trkpt>
      <trkpt lat="46.60304" lon="0.58873">
        <ele>83</ele>
        <time>2024-03-17T10:21:20Z</time>
      </trkpt>
      <trkpt lat="46.60314" lon="0.58875">
        <ele>83.2</ele>
        <time>2024-03-17T10:21:24Z</time>
      </trkpt>
      <trkpt lat="46.60329" lon="0.58872">
        <ele>83.8</ele>
        <time>2024-03-17T10:21:30Z</time>
      </trkpt>
      <trkpt lat="46.60347" lon="0.58856">
        <ele>83.2</ele>
        <time>2024-03-17T10:21:36Z</time>
      </trkpt>
      <trkpt lat="46.60355" lon="0.58844">
        <ele>83.8</ele>
        <time>2024-03-17T10:21:41Z</time>
      </trkpt>
      <trkpt lat="46.60356" lon="0.58839">
        <ele>84</ele>
        <time>2024-03-17T10:21:43Z</time>
      </trkpt>
      <trkpt lat="46.60357" lon="0.58833">
        <ele>84.6</ele>
        <time>2024-03-17T10:21:46Z</time>
      </trkpt>
      <trkpt lat="46.60357" lon="0.58826">
        <ele>85.2</ele>
        <time>2024-03-17T10:21:50Z</time>
      </trkpt>
      <trkpt lat="46.60357" lon="0.58823">
        <ele>85.6</ele>
        <time>2024-03-17T10:21:52Z</time>
      </trkpt>
      <trkpt lat="46.60357" lon="0.5882">
        <ele>85.6</ele>
        <time>2024-03-17T10:21:53Z</time>
      </trkpt>
      <trkpt lat="46.60357" lon="0.58815">
        <ele>86.2</ele>
        <time>2024-03-17T10:21:56Z</time>
      </trkpt>
      <trkpt lat="46.60357" lon="0.58812">
        <ele>86.6</ele>
        <time>2024-03-17T10:21:57Z</time>
      </trkpt>
      <trkpt lat="46.60355" lon="0.58805">
        <ele>87</ele>
        <time>2024-03-17T10:22:00Z</time>
      </trkpt>
      <trkpt lat="46.60353" lon="0.5879">
        <ele>87</ele>
        <time>2024-03-17T10:22:05Z</time>
      </trkpt>
      <trkpt lat="46.60352" lon="0.58786">
        <ele>87.2</ele>
        <time>2024-03-17T10:22:07Z</time>
      </trkpt>
      <trkpt lat="46.60351" lon="0.58771">
        <ele>87.2</ele>
        <time>2024-03-17T10:22:12Z</time>
      </trkpt>
      <trkpt lat="46.60349" lon="0.58751">
        <ele>86.6</ele>
        <time>2024-03-17T10:22:17Z</time>
      </trkpt>
      <trkpt lat="46.60347" lon="0.58738">
        <ele>86.6</ele>
        <time>2024-03-17T10:22:20Z</time>
      </trkpt>
      <trkpt lat="46.60345" lon="0.58712">
        <ele>87</ele>
        <time>2024-03-17T10:22:26Z</time>
      </trkpt>
      <trkpt lat="46.60343" lon="0.587">
        <ele>87.2</ele>
        <time>2024-03-17T10:22:29Z</time>
      </trkpt>
      <trkpt lat="46.6034" lon="0.58689">
        <ele>87.4</ele>
        <time>2024-03-17T10:22:32Z</time>
      </trkpt>
      <trkpt lat="46.60337" lon="0.58678">
        <ele>88.2</ele>
        <time>2024-03-17T10:22:36Z</time>
      </trkpt>
      <trkpt lat="46.60336" lon="0.58667">
        <ele>88.6</ele>
        <time>2024-03-17T10:22:39Z</time>
      </trkpt>
      <trkpt lat="46.60332" lon="0.58646">
        <ele>89.4</ele>
        <time>2024-03-17T10:22:44Z</time>
      </trkpt>
      <trkpt lat="46.60332" lon="0.58643">
        <ele>89.8</ele>
        <time>2024-03-17T10:22:45Z</time>
      </trkpt>
      <trkpt lat="46.60331" lon="0.58627">
        <ele>90.6</ele>
        <time>2024-03-17T10:22:49Z</time>
      </trkpt>
      <trkpt lat="46.60332" lon="0.58616">
        <ele>90.6</ele>
        <time>2024-03-17T10:22:52Z</time>
      </trkpt>
      <trkpt lat="46.60332" lon="0.58613">
        <ele>90.6</ele>
        <time>2024-03-17T10:22:53Z</time>
      </trkpt>
      <trkpt lat="46.60334" lon="0.58595">
        <ele>90.4</ele>
        <time>2024-03-17T10:22:57Z</time>
      </trkpt>
      <trkpt lat="46.60341" lon="0.58571">
        <ele>91</ele>
        <time>2024-03-17T10:23:02Z</time>
      </trkpt>
      <trkpt lat="46.60345" lon="0.58552">
        <ele>91.4</ele>
        <time>2024-03-17T10:23:07Z</time>
      </trkpt>
      <trkpt lat="46.60343" lon="0.58545">
        <ele>91.6</ele>
        <time>2024-03-17T10:23:09Z</time>
      </trkpt>
      <trkpt lat="46.60339" lon="0.58537">
        <ele>91.6</ele>
        <time>2024-03-17T10:23:11Z</time>
      </trkpt>
      <trkpt lat="46.60332" lon="0.58514">
        <ele>91.4</ele>
        <time>2024-03-17T10:23:16Z</time>
      </trkpt>
      <trkpt lat="46.60323" lon="0.58485">
        <ele>91.4</ele>
        <time>2024-03-17T10:23:22Z</time>
      </trkpt>
      <trkpt lat="46.60315" lon="0.58464">
        <ele>92.6</ele>
        <time>2024-03-17T10:23:29Z</time>
      </trkpt>
      <trkpt lat="46.60311" lon="0.58454">
        <ele>93.8</ele>
        <time>2024-03-17T10:23:33Z</time>
      </trkpt>
      <trkpt lat="46.60305" lon="0.58441">
        <ele>94.8</ele>
        <time>2024-03-17T10:23:37Z</time>
      </trkpt>
      <trkpt lat="46.60301" lon="0.58428">
        <ele>95.8</ele>
        <time>2024-03-17T10:23:41Z</time>
      </trkpt>
      <trkpt lat="46.60295" lon="0.58415">
        <ele>96.8</ele>
        <time>2024-03-17T10:23:46Z</time>
      </trkpt>
      <trkpt lat="46.60283" lon="0.58394">
        <ele>97.8</ele>
        <time>2024-03-17T10:23:54Z</time>
      </trkpt>
      <trkpt lat="46.6028" lon="0.58389">
        <ele>98</ele>
        <time>2024-03-17T10:23:56Z</time>
      </trkpt>
      <trkpt lat="46.60269" lon="0.58365">
        <ele>99</ele>
        <time>2024-03-17T10:24:04Z</time>
      </trkpt>
      <trkpt lat="46.60268" lon="0.58361">
        <ele>99.2</ele>
        <time>2024-03-17T10:24:05Z</time>
      </trkpt>
      <trkpt lat="46.60257" lon="0.58339">
        <ele>99.6</ele>
        <time>2024-03-17T10:24:12Z</time>
      </trkpt>
      <trkpt lat="46.60249" lon="0.58323">
        <ele>100.2</ele>
        <time>2024-03-17T10:24:17Z</time>
      </trkpt>
      <trkpt lat="46.60242" lon="0.5831">
        <ele>100.4</ele>
        <time>2024-03-17T10:24:21Z</time>
      </trkpt>
      <trkpt lat="46.60228" lon="0.58288">
        <ele>100.4</ele>
        <time>2024-03-17T10:24:28Z</time>
      </trkpt>
      <trkpt lat="46.60212" lon="0.58284">
        <ele>101</ele>
        <time>2024-03-17T10:24:33Z</time>
      </trkpt>
      <trkpt lat="46.60205" lon="0.58282">
        <ele>101.4</ele>
        <time>2024-03-17T10:24:35Z</time>
      </trkpt>
      <trkpt lat="46.6018" lon="0.58277">
        <ele>101.6</ele>
        <time>2024-03-17T10:24:42Z</time>
      </trkpt>
      <trkpt lat="46.60157" lon="0.58275">
        <ele>102.2</ele>
        <time>2024-03-17T10:24:49Z</time>
      </trkpt>
      <trkpt lat="46.60154" lon="0.58274">
        <ele>102.4</ele>
        <time>2024-03-17T10:24:50Z</time>
      </trkpt>
      <trkpt lat="46.6012" lon="0.58271">
        <ele>102.2</ele>
        <time>2024-03-17T10:24:59Z</time>
      </trkpt>
      <trkpt lat="46.60085" lon="0.58268">
        <ele>102.2</ele>
        <time>2024-03-17T10:25:07Z</time>
      </trkpt>
      <trkpt lat="46.60046" lon="0.58262">
        <ele>101.8</ele>
        <time>2024-03-17T10:25:15Z</time>
      </trkpt>
      <trkpt lat="46.6003" lon="0.5826">
        <ele>101.4</ele>
        <time>2024-03-17T10:25:18Z</time>
      </trkpt>
      <trkpt lat="46.60018" lon="0.58257">
        <ele>101.2</ele>
        <time>2024-03-17T10:25:20Z</time>
      </trkpt>
      <trkpt lat="46.60012" lon="0.58255">
        <ele>101</ele>
        <time>2024-03-17T10:25:21Z</time>
      </trkpt>
      <trkpt lat="46.60006" lon="0.58253">
        <ele>100.6</ele>
        <time>2024-03-17T10:25:22Z</time>
      </trkpt>
      <trkpt lat="46.59996" lon="0.58246">
        <ele>100.2</ele>
        <time>2024-03-17T10:25:24Z</time>
      </trkpt>
      <trkpt lat="46.59986" lon="0.58238">
        <ele>99.6</ele>
        <time>2024-03-17T10:25:26Z</time>
      </trkpt>
      <trkpt lat="46.59981" lon="0.58234">
        <ele>99</ele>
        <time>2024-03-17T10:25:27Z</time>
      </trkpt>
      <trkpt lat="46.59977" lon="0.58229">
        <ele>98.6</ele>
        <time>2024-03-17T10:25:28Z</time>
      </trkpt>
      <trkpt lat="46.59969" lon="0.58215">
        <ele>98</ele>
        <time>2024-03-17T10:25:30Z</time>
      </trkpt>
      <trkpt lat="46.59966" lon="0.58208">
        <ele>97.8</ele>
        <time>2024-03-17T10:25:31Z</time>
      </trkpt>
      <trkpt lat="46.59951" lon="0.58172">
        <ele>98.6</ele>
        <time>2024-03-17T10:25:36Z</time>
      </trkpt>
      <trkpt lat="46.59948" lon="0.58166">
        <ele>98.8</ele>
        <time>2024-03-17T10:25:37Z</time>
      </trkpt>
      <trkpt lat="46.59937" lon="0.58151">
        <ele>98.6</ele>
        <time>2024-03-17T10:25:40Z</time>
      </trkpt>
      <trkpt lat="46.59905" lon="0.58114">
        <ele>98.2</ele>
        <time>2024-03-17T10:25:47Z</time>
      </trkpt>
      <trkpt lat="46.5987" lon="0.58081">
        <ele>96.6</ele>
        <time>2024-03-17T10:25:53Z</time>
      </trkpt>
      <trkpt lat="46.59857" lon="0.5807">
        <ele>95.6</ele>
        <time>2024-03-17T10:25:55Z</time>
      </trkpt>
      <trkpt lat="46.59832" lon="0.58048">
        <ele>94.6</ele>
        <time>2024-03-17T10:25:59Z</time>
      </trkpt>
      <trkpt lat="46.59821" lon="0.58035">
        <ele>93</ele>
        <time>2024-03-17T10:26:01Z</time>
      </trkpt>
      <trkpt lat="46.59815" lon="0.58029">
        <ele>92.2</ele>
        <time>2024-03-17T10:26:02Z</time>
      </trkpt>
      <trkpt lat="46.59809" lon="0.58024">
        <ele>91</ele>
        <time>2024-03-17T10:26:03Z</time>
      </trkpt>
      <trkpt lat="46.59804" lon="0.5802">
        <ele>90</ele>
        <time>2024-03-17T10:26:04Z</time>
      </trkpt>
      <trkpt lat="46.59801" lon="0.58018">
        <ele>89</ele>
        <time>2024-03-17T10:26:05Z</time>
      </trkpt>
      <trkpt lat="46.59798" lon="0.58016">
        <ele>88.4</ele>
        <time>2024-03-17T10:26:06Z</time>
      </trkpt>
      <trkpt lat="46.59796" lon="0.58017">
        <ele>87.6</ele>
        <time>2024-03-17T10:26:07Z</time>
      </trkpt>
      <trkpt lat="46.59794" lon="0.58021">
        <ele>86.8</ele>
        <time>2024-03-17T10:26:09Z</time>
      </trkpt>
      <trkpt lat="46.59795" lon="0.58026">
        <ele>86.4</ele>
        <time>2024-03-17T10:26:11Z</time>
      </trkpt>
      <trkpt lat="46.59799" lon="0.58037">
        <ele>86.2</ele>
        <time>2024-03-17T10:26:14Z</time>
      </trkpt>
      <trkpt lat="46.59802" lon="0.58045">
        <ele>85.6</ele>
        <time>2024-03-17T10:26:16Z</time>
      </trkpt>
      <trkpt lat="46.59806" lon="0.58052">
        <ele>85.4</ele>
        <time>2024-03-17T10:26:18Z</time>
      </trkpt>
      <trkpt lat="46.5981" lon="0.58058">
        <ele>85.6</ele>
        <time>2024-03-17T10:26:20Z</time>
      </trkpt>
      <trkpt lat="46.5982" lon="0.58079">
        <ele>85.4</ele>
        <time>2024-03-17T10:26:25Z</time>
      </trkpt>
      <trkpt lat="46.59831" lon="0.58106">
        <ele>85.2</ele>
        <time>2024-03-17T10:26:32Z</time>
      </trkpt>
      <trkpt lat="46.59838" lon="0.58119">
        <ele>84.8</ele>
        <time>2024-03-17T10:26:37Z</time>
      </trkpt>
      <trkpt lat="46.59843" lon="0.58148">
        <ele>84.6</ele>
        <time>2024-03-17T10:26:44Z</time>
      </trkpt>
      <trkpt lat="46.59846" lon="0.58152">
        <ele>84.4</ele>
        <time>2024-03-17T10:26:45Z</time>
      </trkpt>
      <trkpt lat="46.59849" lon="0.58156">
        <ele>84.4</ele>
        <time>2024-03-17T10:26:46Z</time>
      </trkpt>
      <trkpt lat="46.59855" lon="0.58163">
        <ele>84.2</ele>
        <time>2024-03-17T10:26:48Z</time>
      </trkpt>
      <trkpt lat="46.59864" lon="0.58183">
        <ele>84</ele>
        <time>2024-03-17T10:26:53Z</time>
      </trkpt>
      <trkpt lat="46.59867" lon="0.58202">
        <ele>85</ele>
        <time>2024-03-17T10:26:59Z</time>
      </trkpt>
      <trkpt lat="46.59868" lon="0.58208">
        <ele>85.6</ele>
        <time>2024-03-17T10:27:01Z</time>
      </trkpt>
      <trkpt lat="46.59869" lon="0.58216">
        <ele>86.8</ele>
        <time>2024-03-17T10:27:04Z</time>
      </trkpt>
      <trkpt lat="46.59869" lon="0.58221">
        <ele>87</ele>
        <time>2024-03-17T10:27:06Z</time>
      </trkpt>
      <trkpt lat="46.59869" lon="0.58227">
        <ele>87.8</ele>
        <time>2024-03-17T10:27:08Z</time>
      </trkpt>
      <trkpt lat="46.5987" lon="0.58238">
        <ele>89</ele>
        <time>2024-03-17T10:27:13Z</time>
      </trkpt>
      <trkpt lat="46.59869" lon="0.58246">
        <ele>89.8</ele>
        <time>2024-03-17T10:27:16Z</time>
      </trkpt>
      <trkpt lat="46.59869" lon="0.5825">
        <ele>90</ele>
        <time>2024-03-17T10:27:18Z</time>
      </trkpt>
      <trkpt lat="46.5987" lon="0.58263">
        <ele>91.2</ele>
        <time>2024-03-17T10:27:24Z</time>
      </trkpt>
      <trkpt lat="46.59869" lon="0.58278">
        <ele>92.4</ele>
        <time>2024-03-17T10:27:29Z</time>
      </trkpt>
      <trkpt lat="46.59869" lon="0.58296">
        <ele>93.4</ele>
        <time>2024-03-17T10:27:35Z</time>
      </trkpt>
      <trkpt lat="46.59869" lon="0.58302">
        <ele>93.4</ele>
        <time>2024-03-17T10:27:37Z</time>
      </trkpt>
      <trkpt lat="46.5987" lon="0.5833">
        <ele>94</ele>
        <time>2024-03-17T10:27:45Z</time>
      </trkpt>
      <trkpt lat="46.59871" lon="0.58356">
        <ele>93.6</ele>
        <time>2024-03-17T10:27:52Z</time>
      </trkpt>
      <trkpt lat="46.59868" lon="0.5837">
        <ele>92.4</ele>
        <time>2024-03-17T10:27:57Z</time>
      </trkpt>
      <trkpt lat="46.59868" lon="0.58374">
        <ele>92</ele>
        <time>2024-03-17T10:27:58Z</time>
      </trkpt>
      <trkpt lat="46.59868" lon="0.58391">
        <ele>91.6</ele>
        <time>2024-03-17T10:28:01Z</time>
      </trkpt>
      <trkpt lat="46.59868" lon="0.58403">
        <ele>90.4</ele>
        <time>2024-03-17T10:28:03Z</time>
      </trkpt>
      <trkpt lat="46.59867" lon="0.58414">
        <ele>89</ele>
        <time>2024-03-17T10:28:05Z</time>
      </trkpt>
      <trkpt lat="46.59867" lon="0.58419">
        <ele>87.6</ele>
        <time>2024-03-17T10:28:06Z</time>
      </trkpt>
      <trkpt lat="46.59867" lon="0.58424">
        <ele>86.4</ele>
        <time>2024-03-17T10:28:07Z</time>
      </trkpt>
      <trkpt lat="46.59867" lon="0.58432">
        <ele>85.2</ele>
        <time>2024-03-17T10:28:08Z</time>
      </trkpt>
      <trkpt lat="46.59867" lon="0.5844">
        <ele>84.2</ele>
        <time>2024-03-17T10:28:09Z</time>
      </trkpt>
      <trkpt lat="46.59867" lon="0.5845">
        <ele>82.8</ele>
        <time>2024-03-17T10:28:10Z</time>
      </trkpt>
      <trkpt lat="46.59867" lon="0.58469">
        <ele>81.2</ele>
        <time>2024-03-17T10:28:12Z</time>
      </trkpt>
      <trkpt lat="46.59867" lon="0.5848">
        <ele>80.8</ele>
        <time>2024-03-17T10:28:14Z</time>
      </trkpt>
      <trkpt lat="46.59865" lon="0.5849">
        <ele>80.4</ele>
        <time>2024-03-17T10:28:18Z</time>
      </trkpt>
      <trkpt lat="46.59864" lon="0.58493">
        <ele>80.8</ele>
        <time>2024-03-17T10:28:20Z</time>
      </trkpt>
      <trkpt lat="46.59861" lon="0.58494">
        <ele>81.2</ele>
        <time>2024-03-17T10:28:22Z</time>
      </trkpt>
      <trkpt lat="46.5986" lon="0.58493">
        <ele>81.4</ele>
        <time>2024-03-17T10:28:23Z</time>
      </trkpt>
      <trkpt lat="46.59853" lon="0.58481">
        <ele>82</ele>
        <time>2024-03-17T10:28:29Z</time>
      </trkpt>
      <trkpt lat="46.59848" lon="0.58476">
        <ele>82.6</ele>
        <time>2024-03-17T10:28:32Z</time>
      </trkpt>
      <trkpt lat="46.59846" lon="0.58474">
        <ele>82.8</ele>
        <time>2024-03-17T10:28:33Z</time>
      </trkpt>
      <trkpt lat="46.59831" lon="0.58458">
        <ele>83.4</ele>
        <time>2024-03-17T10:28:39Z</time>
      </trkpt>
      <trkpt lat="46.59827" lon="0.58452">
        <ele>83.6</ele>
        <time>2024-03-17T10:28:41Z</time>
      </trkpt>
      <trkpt lat="46.59817" lon="0.58439">
        <ele>84.2</ele>
        <time>2024-03-17T10:28:45Z</time>
      </trkpt>
      <trkpt lat="46.59803" lon="0.58424">
        <ele>84.8</ele>
        <time>2024-03-17T10:28:50Z</time>
      </trkpt>
      <trkpt lat="46.598" lon="0.58422">
        <ele>85</ele>
        <time>2024-03-17T10:28:51Z</time>
      </trkpt>
      <trkpt lat="46.59784" lon="0.58405">
        <ele>85.6</ele>
        <time>2024-03-17T10:28:56Z</time>
      </trkpt>
      <trkpt lat="46.59779" lon="0.584">
        <ele>85.8</ele>
        <time>2024-03-17T10:28:58Z</time>
      </trkpt>
      <trkpt lat="46.59767" lon="0.5839">
        <ele>86.2</ele>
        <time>2024-03-17T10:29:02Z</time>
      </trkpt>
      <trkpt lat="46.5975" lon="0.58375">
        <ele>86.6</ele>
        <time>2024-03-17T10:29:08Z</time>
      </trkpt>
      <trkpt lat="46.59743" lon="0.58369">
        <ele>86.8</ele>
        <time>2024-03-17T10:29:11Z</time>
      </trkpt>
      <trkpt lat="46.59739" lon="0.58365">
        <ele>87</ele>
        <time>2024-03-17T10:29:13Z</time>
      </trkpt>
      <trkpt lat="46.59727" lon="0.58356">
        <ele>87.8</ele>
        <time>2024-03-17T10:29:17Z</time>
      </trkpt>
      <trkpt lat="46.59721" lon="0.5835">
        <ele>88.2</ele>
        <time>2024-03-17T10:29:19Z</time>
      </trkpt>
      <trkpt lat="46.59704" lon="0.58334">
        <ele>88.6</ele>
        <time>2024-03-17T10:29:25Z</time>
      </trkpt>
      <trkpt lat="46.59698" lon="0.58328">
        <ele>88.8</ele>
        <time>2024-03-17T10:29:27Z</time>
      </trkpt>
      <trkpt lat="46.59678" lon="0.58308">
        <ele>89.6</ele>
        <time>2024-03-17T10:29:34Z</time>
      </trkpt>
      <trkpt lat="46.59663" lon="0.58295">
        <ele>89.8</ele>
        <time>2024-03-17T10:29:39Z</time>
      </trkpt>
      <trkpt lat="46.59651" lon="0.58283">
        <ele>90.2</ele>
        <time>2024-03-17T10:29:43Z</time>
      </trkpt>
      <trkpt lat="46.59636" lon="0.5827">
        <ele>91</ele>
        <time>2024-03-17T10:29:48Z</time>
      </trkpt>
      <trkpt lat="46.59629" lon="0.58263">
        <ele>91.6</ele>
        <time>2024-03-17T10:29:51Z</time>
      </trkpt>
      <trkpt lat="46.59619" lon="0.5825">
        <ele>92</ele>
        <time>2024-03-17T10:29:56Z</time>
      </trkpt>
      <trkpt lat="46.59616" lon="0.58247">
        <ele>92</ele>
        <time>2024-03-17T10:29:57Z</time>
      </trkpt>
      <trkpt lat="46.59606" lon="0.58239">
        <ele>92.2</ele>
        <time>2024-03-17T10:30:01Z</time>
      </trkpt>
      <trkpt lat="46.59589" lon="0.58223">
        <ele>93</ele>
        <time>2024-03-17T10:30:08Z</time>
      </trkpt>
      <trkpt lat="46.59577" lon="0.58212">
        <ele>93.2</ele>
        <time>2024-03-17T10:30:13Z</time>
      </trkpt>
      <trkpt lat="46.59563" lon="0.58201">
        <ele>94</ele>
        <time>2024-03-17T10:30:17Z</time>
      </trkpt>
      <trkpt lat="46.59556" lon="0.58194">
        <ele>94.4</ele>
        <time>2024-03-17T10:30:19Z</time>
      </trkpt>
      <trkpt lat="46.59542" lon="0.58181">
        <ele>95.2</ele>
        <time>2024-03-17T10:30:23Z</time>
      </trkpt>
      <trkpt lat="46.59538" lon="0.58177">
        <ele>95.2</ele>
        <time>2024-03-17T10:30:24Z</time>
      </trkpt>
      <trkpt lat="46.59528" lon="0.58162">
        <ele>95.2</ele>
        <time>2024-03-17T10:30:27Z</time>
      </trkpt>
      <trkpt lat="46.59521" lon="0.58151">
        <ele>95.6</ele>
        <time>2024-03-17T10:30:29Z</time>
      </trkpt>
      <trkpt lat="46.59518" lon="0.58145">
        <ele>95.6</ele>
        <time>2024-03-17T10:30:30Z</time>
      </trkpt>
      <trkpt lat="46.59502" lon="0.58117">
        <ele>96.2</ele>
        <time>2024-03-17T10:30:36Z</time>
      </trkpt>
      <trkpt lat="46.59499" lon="0.58107">
        <ele>96.8</ele>
        <time>2024-03-17T10:30:39Z</time>
      </trkpt>
      <trkpt lat="46.595" lon="0.581">
        <ele>97.2</ele>
        <time>2024-03-17T10:30:41Z</time>
      </trkpt>
      <trkpt lat="46.59503" lon="0.58071">
        <ele>98</ele>
        <time>2024-03-17T10:30:48Z</time>
      </trkpt>
      <trkpt lat="46.59503" lon="0.58066">
        <ele>98.4</ele>
        <time>2024-03-17T10:30:50Z</time>
      </trkpt>
      <trkpt lat="46.59501" lon="0.58062">
        <ele>98.4</ele>
        <time>2024-03-17T10:30:52Z</time>
      </trkpt>
      <trkpt lat="46.59496" lon="0.58047">
        <ele>98.8</ele>
        <time>2024-03-17T10:30:57Z</time>
      </trkpt>
      <trkpt lat="46.59495" lon="0.58043">
        <ele>99.2</ele>
        <time>2024-03-17T10:30:58Z</time>
      </trkpt>
      <trkpt lat="46.59484" lon="0.58022">
        <ele>99.4</ele>
        <time>2024-03-17T10:31:03Z</time>
      </trkpt>
      <trkpt lat="46.59461" lon="0.57988">
        <ele>99.6</ele>
        <time>2024-03-17T10:31:10Z</time>
      </trkpt>
      <trkpt lat="46.59444" lon="0.57963">
        <ele>100</ele>
        <time>2024-03-17T10:31:16Z</time>
      </trkpt>
      <trkpt lat="46.59437" lon="0.57955">
        <ele>100.2</ele>
        <time>2024-03-17T10:31:18Z</time>
      </trkpt>
      <trkpt lat="46.59415" lon="0.57921">
        <ele>100.8</ele>
        <time>2024-03-17T10:31:25Z</time>
      </trkpt>
      <trkpt lat="46.59408" lon="0.57912">
        <ele>100.8</ele>
        <time>2024-03-17T10:31:27Z</time>
      </trkpt>
      <trkpt lat="46.59394" lon="0.57894">
        <ele>101.2</ele>
        <time>2024-03-17T10:31:31Z</time>
      </trkpt>
      <trkpt lat="46.5939" lon="0.57889">
        <ele>101.4</ele>
        <time>2024-03-17T10:31:32Z</time>
      </trkpt>
      <trkpt lat="46.59382" lon="0.57882">
        <ele>101.6</ele>
        <time>2024-03-17T10:31:34Z</time>
      </trkpt>
      <trkpt lat="46.59368" lon="0.57876">
        <ele>101.4</ele>
        <time>2024-03-17T10:31:37Z</time>
      </trkpt>
      <trkpt lat="46.59346" lon="0.57873">
        <ele>100.6</ele>
        <time>2024-03-17T10:31:41Z</time>
      </trkpt>
      <trkpt lat="46.5934" lon="0.57874">
        <ele>100.4</ele>
        <time>2024-03-17T10:31:42Z</time>
      </trkpt>
      <trkpt lat="46.59334" lon="0.57875">
        <ele>100.2</ele>
        <time>2024-03-17T10:31:43Z</time>
      </trkpt>
      <trkpt lat="46.59305" lon="0.57879">
        <ele>100</ele>
        <time>2024-03-17T10:31:48Z</time>
      </trkpt>
      <trkpt lat="46.5929" lon="0.57882">
        <ele>101.2</ele>
        <time>2024-03-17T10:31:52Z</time>
      </trkpt>
      <trkpt lat="46.59288" lon="0.57881">
        <ele>101.6</ele>
        <time>2024-03-17T10:31:53Z</time>
      </trkpt>
      <trkpt lat="46.59281" lon="0.57881">
        <ele>102.4</ele>
        <time>2024-03-17T10:31:55Z</time>
      </trkpt>
      <trkpt lat="46.59265" lon="0.57882">
        <ele>103.4</ele>
        <time>2024-03-17T10:31:59Z</time>
      </trkpt>
      <trkpt lat="46.59261" lon="0.57882">
        <ele>103.4</ele>
        <time>2024-03-17T10:32:00Z</time>
      </trkpt>
      <trkpt lat="46.59257" lon="0.5788">
        <ele>103.6</ele>
        <time>2024-03-17T10:32:01Z</time>
      </trkpt>
      <trkpt lat="46.59244" lon="0.57878">
        <ele>103.8</ele>
        <time>2024-03-17T10:32:04Z</time>
      </trkpt>
      <trkpt lat="46.59229" lon="0.57876">
        <ele>104.6</ele>
        <time>2024-03-17T10:32:07Z</time>
      </trkpt>
      <trkpt lat="46.59213" lon="0.57874">
        <ele>104.8</ele>
        <time>2024-03-17T10:32:10Z</time>
      </trkpt>
      <trkpt lat="46.59194" lon="0.57872">
        <ele>105.6</ele>
        <time>2024-03-17T10:32:14Z</time>
      </trkpt>
      <trkpt lat="46.59183" lon="0.5787">
        <ele>105.6</ele>
        <time>2024-03-17T10:32:16Z</time>
      </trkpt>
      <trkpt lat="46.59162" lon="0.57864">
        <ele>105.8</ele>
        <time>2024-03-17T10:32:20Z</time>
      </trkpt>
      <trkpt lat="46.59153" lon="0.57859">
        <ele>106</ele>
        <time>2024-03-17T10:32:22Z</time>
      </trkpt>
      <trkpt lat="46.59139" lon="0.57849">
        <ele>106.6</ele>
        <time>2024-03-17T10:32:25Z</time>
      </trkpt>
      <trkpt lat="46.5913" lon="0.5784">
        <ele>106.6</ele>
        <time>2024-03-17T10:32:27Z</time>
      </trkpt>
      <trkpt lat="46.59101" lon="0.57798">
        <ele>105.8</ele>
        <time>2024-03-17T10:32:34Z</time>
      </trkpt>
      <trkpt lat="46.59092" lon="0.57771">
        <ele>105.8</ele>
        <time>2024-03-17T10:32:38Z</time>
      </trkpt>
      <trkpt lat="46.5909" lon="0.57765">
        <ele>105.8</ele>
        <time>2024-03-17T10:32:39Z</time>
      </trkpt>
      <trkpt lat="46.59076" lon="0.57726">
        <ele>105.2</ele>
        <time>2024-03-17T10:32:45Z</time>
      </trkpt>
      <trkpt lat="46.59073" lon="0.57719">
        <ele>105.2</ele>
        <time>2024-03-17T10:32:46Z</time>
      </trkpt>
      <trkpt lat="46.5906" lon="0.57704">
        <ele>105.4</ele>
        <time>2024-03-17T10:32:49Z</time>
      </trkpt>
      <trkpt lat="46.59049" lon="0.57702">
        <ele>105.4</ele>
        <time>2024-03-17T10:32:51Z</time>
      </trkpt>
      <trkpt lat="46.59038" lon="0.57705">
        <ele>105.4</ele>
        <time>2024-03-17T10:32:53Z</time>
      </trkpt>
      <trkpt lat="46.59023" lon="0.5771">
        <ele>105.6</ele>
        <time>2024-03-17T10:32:56Z</time>
      </trkpt>
      <trkpt lat="46.59014" lon="0.57708">
        <ele>105.8</ele>
        <time>2024-03-17T10:32:58Z</time>
      </trkpt>
      <trkpt lat="46.59001" lon="0.57692">
        <ele>105.8</ele>
        <time>2024-03-17T10:33:02Z</time>
      </trkpt>
      <trkpt lat="46.58989" lon="0.57686">
        <ele>105.2</ele>
        <time>2024-03-17T10:33:05Z</time>
      </trkpt>
      <trkpt lat="46.58981" lon="0.57683">
        <ele>105.4</ele>
        <time>2024-03-17T10:33:07Z</time>
      </trkpt>
      <trkpt lat="46.58942" lon="0.57671">
        <ele>106.6</ele>
        <time>2024-03-17T10:33:16Z</time>
      </trkpt>
      <trkpt lat="46.58938" lon="0.5767">
        <ele>106.8</ele>
        <time>2024-03-17T10:33:17Z</time>
      </trkpt>
      <trkpt lat="46.58905" lon="0.57658">
        <ele>107.8</ele>
        <time>2024-03-17T10:33:26Z</time>
      </trkpt>
      <trkpt lat="46.58873" lon="0.57646">
        <ele>108.8</ele>
        <time>2024-03-17T10:33:35Z</time>
      </trkpt>
      <trkpt lat="46.58869" lon="0.57645">
        <ele>109</ele>
        <time>2024-03-17T10:33:36Z</time>
      </trkpt>
      <trkpt lat="46.58833" lon="0.57635">
        <ele>110</ele>
        <time>2024-03-17T10:33:46Z</time>
      </trkpt>
      <trkpt lat="46.5883" lon="0.57634">
        <ele>110</ele>
        <time>2024-03-17T10:33:47Z</time>
      </trkpt>
      <trkpt lat="46.58801" lon="0.57625">
        <ele>111</ele>
        <time>2024-03-17T10:33:56Z</time>
      </trkpt>
      <trkpt lat="46.58798" lon="0.57624">
        <ele>111.2</ele>
        <time>2024-03-17T10:33:57Z</time>
      </trkpt>
      <trkpt lat="46.58773" lon="0.57618">
        <ele>111.4</ele>
        <time>2024-03-17T10:34:05Z</time>
      </trkpt>
      <trkpt lat="46.5875" lon="0.57612">
        <ele>112</ele>
        <time>2024-03-17T10:34:12Z</time>
      </trkpt>
      <trkpt lat="46.58744" lon="0.5761">
        <ele>112.4</ele>
        <time>2024-03-17T10:34:14Z</time>
      </trkpt>
      <trkpt lat="46.58719" lon="0.57602">
        <ele>113</ele>
        <time>2024-03-17T10:34:22Z</time>
      </trkpt>
      <trkpt lat="46.58697" lon="0.57595">
        <ele>113.4</ele>
        <time>2024-03-17T10:34:29Z</time>
      </trkpt>
      <trkpt lat="46.58691" lon="0.57594">
        <ele>113.6</ele>
        <time>2024-03-17T10:34:31Z</time>
      </trkpt>
      <trkpt lat="46.58666" lon="0.57586">
        <ele>114.4</ele>
        <time>2024-03-17T10:34:41Z</time>
      </trkpt>
      <trkpt lat="46.58654" lon="0.57582">
        <ele>115.6</ele>
        <time>2024-03-17T10:34:46Z</time>
      </trkpt>
      <trkpt lat="46.58644" lon="0.57579">
        <ele>116</ele>
        <time>2024-03-17T10:34:50Z</time>
      </trkpt>
      <trkpt lat="46.58631" lon="0.57576">
        <ele>116.6</ele>
        <time>2024-03-17T10:34:57Z</time>
      </trkpt>
      <trkpt lat="46.58627" lon="0.57574">
        <ele>117</ele>
        <time>2024-03-17T10:34:59Z</time>
      </trkpt>
      <trkpt lat="46.58608" lon="0.57569">
        <ele>117.6</ele>
        <time>2024-03-17T10:35:07Z</time>
      </trkpt>
      <trkpt lat="46.58601" lon="0.57566">
        <ele>118</ele>
        <time>2024-03-17T10:35:10Z</time>
      </trkpt>
      <trkpt lat="46.58584" lon="0.57561">
        <ele>118.8</ele>
        <time>2024-03-17T10:35:18Z</time>
      </trkpt>
      <trkpt lat="46.58563" lon="0.57552">
        <ele>119.8</ele>
        <time>2024-03-17T10:35:27Z</time>
      </trkpt>
      <trkpt lat="46.58556" lon="0.57547">
        <ele>119.8</ele>
        <time>2024-03-17T10:35:31Z</time>
      </trkpt>
      <trkpt lat="46.58553" lon="0.57545">
        <ele>120</ele>
        <time>2024-03-17T10:35:32Z</time>
      </trkpt>
      <trkpt lat="46.58531" lon="0.57534">
        <ele>120</ele>
        <time>2024-03-17T10:35:39Z</time>
      </trkpt>
      <trkpt lat="46.58503" lon="0.57528">
        <ele>120.2</ele>
        <time>2024-03-17T10:35:47Z</time>
      </trkpt>
      <trkpt lat="46.58486" lon="0.57543">
        <ele>120.2</ele>
        <time>2024-03-17T10:35:52Z</time>
      </trkpt>
      <trkpt lat="46.5847" lon="0.57558">
        <ele>120.6</ele>
        <time>2024-03-17T10:35:57Z</time>
      </trkpt>
      <trkpt lat="46.58466" lon="0.57558">
        <ele>120.6</ele>
        <time>2024-03-17T10:35:58Z</time>
      </trkpt>
      <trkpt lat="46.58457" lon="0.5755">
        <ele>121</ele>
        <time>2024-03-17T10:36:01Z</time>
      </trkpt>
      <trkpt lat="46.58455" lon="0.57546">
        <ele>121</ele>
        <time>2024-03-17T10:36:02Z</time>
      </trkpt>
      <trkpt lat="46.58428" lon="0.57509">
        <ele>121.6</ele>
        <time>2024-03-17T10:36:11Z</time>
      </trkpt>
      <trkpt lat="46.58418" lon="0.57496">
        <ele>122</ele>
        <time>2024-03-17T10:36:14Z</time>
      </trkpt>
      <trkpt lat="46.584" lon="0.57471">
        <ele>122</ele>
        <time>2024-03-17T10:36:20Z</time>
      </trkpt>
      <trkpt lat="46.58386" lon="0.5745">
        <ele>122.2</ele>
        <time>2024-03-17T10:36:26Z</time>
      </trkpt>
      <trkpt lat="46.58362" lon="0.57417">
        <ele>122.2</ele>
        <time>2024-03-17T10:36:34Z</time>
      </trkpt>
      <trkpt lat="46.5834" lon="0.57387">
        <ele>122.4</ele>
        <time>2024-03-17T10:36:41Z</time>
      </trkpt>
      <trkpt lat="46.58317" lon="0.57357">
        <ele>121.8</ele>
        <time>2024-03-17T10:36:48Z</time>
      </trkpt>
      <trkpt lat="46.58313" lon="0.57354">
        <ele>121.8</ele>
        <time>2024-03-17T10:36:49Z</time>
      </trkpt>
      <trkpt lat="46.58302" lon="0.57345">
        <ele>121.8</ele>
        <time>2024-03-17T10:36:52Z</time>
      </trkpt>
      <trkpt lat="46.58294" lon="0.57345">
        <ele>121.6</ele>
        <time>2024-03-17T10:36:54Z</time>
      </trkpt>
      <trkpt lat="46.58285" lon="0.57348">
        <ele>121.2</ele>
        <time>2024-03-17T10:36:56Z</time>
      </trkpt>
      <trkpt lat="46.58277" lon="0.57349">
        <ele>121</ele>
        <time>2024-03-17T10:36:58Z</time>
      </trkpt>
      <trkpt lat="46.58274" lon="0.57349">
        <ele>120.8</ele>
        <time>2024-03-17T10:36:59Z</time>
      </trkpt>
      <trkpt lat="46.58267" lon="0.57349">
        <ele>120.8</ele>
        <time>2024-03-17T10:37:01Z</time>
      </trkpt>
      <trkpt lat="46.58254" lon="0.57352">
        <ele>120.8</ele>
        <time>2024-03-17T10:37:04Z</time>
      </trkpt>
      <trkpt lat="46.58215" lon="0.57361">
        <ele>120.6</ele>
        <time>2024-03-17T10:37:12Z</time>
      </trkpt>
      <trkpt lat="46.5819" lon="0.57368">
        <ele>119.6</ele>
        <time>2024-03-17T10:37:17Z</time>
      </trkpt>
      <trkpt lat="46.58179" lon="0.5737">
        <ele>119.4</ele>
        <time>2024-03-17T10:37:19Z</time>
      </trkpt>
      <trkpt lat="46.58149" lon="0.57376">
        <ele>118.4</ele>
        <time>2024-03-17T10:37:24Z</time>
      </trkpt>
      <trkpt lat="46.5813" lon="0.5738">
        <ele>118.2</ele>
        <time>2024-03-17T10:37:27Z</time>
      </trkpt>
      <trkpt lat="46.58105" lon="0.57385">
        <ele>117.4</ele>
        <time>2024-03-17T10:37:31Z</time>
      </trkpt>
      <trkpt lat="46.5808" lon="0.57386">
        <ele>116.4</ele>
        <time>2024-03-17T10:37:35Z</time>
      </trkpt>
      <trkpt lat="46.58066" lon="0.57388">
        <ele>116.2</ele>
        <time>2024-03-17T10:37:37Z</time>
      </trkpt>
      <trkpt lat="46.58038" lon="0.57393">
        <ele>115.8</ele>
        <time>2024-03-17T10:37:41Z</time>
      </trkpt>
      <trkpt lat="46.5801" lon="0.57394">
        <ele>114.8</ele>
        <time>2024-03-17T10:37:45Z</time>
      </trkpt>
      <trkpt lat="46.57996" lon="0.57394">
        <ele>114.4</ele>
        <time>2024-03-17T10:37:47Z</time>
      </trkpt>
      <trkpt lat="46.57976" lon="0.57396">
        <ele>113.4</ele>
        <time>2024-03-17T10:37:50Z</time>
      </trkpt>
      <trkpt lat="46.57949" lon="0.574">
        <ele>113.6</ele>
        <time>2024-03-17T10:37:54Z</time>
      </trkpt>
      <trkpt lat="46.57901" lon="0.57415">
        <ele>113.6</ele>
        <time>2024-03-17T10:38:02Z</time>
      </trkpt>
      <trkpt lat="46.57884" lon="0.57418">
        <ele>113.2</ele>
        <time>2024-03-17T10:38:05Z</time>
      </trkpt>
      <trkpt lat="46.57872" lon="0.57417">
        <ele>112.8</ele>
        <time>2024-03-17T10:38:07Z</time>
      </trkpt>
      <trkpt lat="46.57841" lon="0.57402">
        <ele>112.4</ele>
        <time>2024-03-17T10:38:13Z</time>
      </trkpt>
      <trkpt lat="46.57819" lon="0.57396">
        <ele>112.4</ele>
        <time>2024-03-17T10:38:17Z</time>
      </trkpt>
      <trkpt lat="46.57809" lon="0.57393">
        <ele>112.4</ele>
        <time>2024-03-17T10:38:19Z</time>
      </trkpt>
      <trkpt lat="46.57785" lon="0.57385">
        <ele>111.6</ele>
        <time>2024-03-17T10:38:24Z</time>
      </trkpt>
      <trkpt lat="46.57775" lon="0.57382">
        <ele>111.4</ele>
        <time>2024-03-17T10:38:26Z</time>
      </trkpt>
      <trkpt lat="46.5776" lon="0.57374">
        <ele>111.2</ele>
        <time>2024-03-17T10:38:29Z</time>
      </trkpt>
      <trkpt lat="46.5773" lon="0.57357">
        <ele>111.6</ele>
        <time>2024-03-17T10:38:34Z</time>
      </trkpt>
      <trkpt lat="46.57687" lon="0.57339">
        <ele>110.8</ele>
        <time>2024-03-17T10:38:41Z</time>
      </trkpt>
      <trkpt lat="46.57675" lon="0.57334">
        <ele>110.2</ele>
        <time>2024-03-17T10:38:43Z</time>
      </trkpt>
      <trkpt lat="46.57651" lon="0.57318">
        <ele>109.6</ele>
        <time>2024-03-17T10:38:47Z</time>
      </trkpt>
      <trkpt lat="46.57639" lon="0.57306">
        <ele>109</ele>
        <time>2024-03-17T10:38:49Z</time>
      </trkpt>
      <trkpt lat="46.57624" lon="0.57285">
        <ele>108.6</ele>
        <time>2024-03-17T10:38:52Z</time>
      </trkpt>
      <trkpt lat="46.57605" lon="0.57246">
        <ele>108.2</ele>
        <time>2024-03-17T10:38:57Z</time>
      </trkpt>
      <trkpt lat="46.57598" lon="0.57232">
        <ele>108</ele>
        <time>2024-03-17T10:38:59Z</time>
      </trkpt>
      <trkpt lat="46.57584" lon="0.57204">
        <ele>108.4</ele>
        <time>2024-03-17T10:39:03Z</time>
      </trkpt>
      <trkpt lat="46.5758" lon="0.57198">
        <ele>108.4</ele>
        <time>2024-03-17T10:39:04Z</time>
      </trkpt>
      <trkpt lat="46.57552" lon="0.57147">
        <ele>109.2</ele>
        <time>2024-03-17T10:39:12Z</time>
      </trkpt>
      <trkpt lat="46.57519" lon="0.57094">
        <ele>110.2</ele>
        <time>2024-03-17T10:39:21Z</time>
      </trkpt>
      <trkpt lat="46.57497" lon="0.57063">
        <ele>110</ele>
        <time>2024-03-17T10:39:27Z</time>
      </trkpt>
      <trkpt lat="46.57493" lon="0.57058">
        <ele>110</ele>
        <time>2024-03-17T10:39:28Z</time>
      </trkpt>
      <trkpt lat="46.57463" lon="0.57029">
        <ele>110</ele>
        <time>2024-03-17T10:39:35Z</time>
      </trkpt>
      <trkpt lat="46.57432" lon="0.56999">
        <ele>110</ele>
        <time>2024-03-17T10:39:42Z</time>
      </trkpt>
      <trkpt lat="46.57396" lon="0.56966">
        <ele>109.4</ele>
        <time>2024-03-17T10:39:50Z</time>
      </trkpt>
      <trkpt lat="46.57391" lon="0.56961">
        <ele>109.2</ele>
        <time>2024-03-17T10:39:51Z</time>
      </trkpt>
      <trkpt lat="46.57377" lon="0.56948">
        <ele>109.2</ele>
        <time>2024-03-17T10:39:54Z</time>
      </trkpt>
      <trkpt lat="46.57368" lon="0.5694">
        <ele>109.2</ele>
        <time>2024-03-17T10:39:56Z</time>
      </trkpt>
      <trkpt lat="46.57349" lon="0.56924">
        <ele>109.2</ele>
        <time>2024-03-17T10:40:00Z</time>
      </trkpt>
      <trkpt lat="46.57318" lon="0.56896">
        <ele>109</ele>
        <time>2024-03-17T10:40:08Z</time>
      </trkpt>
      <trkpt lat="46.5729" lon="0.56856">
        <ele>109.4</ele>
        <time>2024-03-17T10:40:17Z</time>
      </trkpt>
      <trkpt lat="46.57275" lon="0.5683">
        <ele>110.2</ele>
        <time>2024-03-17T10:40:22Z</time>
      </trkpt>
      <trkpt lat="46.57268" lon="0.56813">
        <ele>110.4</ele>
        <time>2024-03-17T10:40:25Z</time>
      </trkpt>
      <trkpt lat="46.57254" lon="0.56772">
        <ele>111.2</ele>
        <time>2024-03-17T10:40:32Z</time>
      </trkpt>
      <trkpt lat="46.57253" lon="0.56765">
        <ele>111.4</ele>
        <time>2024-03-17T10:40:33Z</time>
      </trkpt>
      <trkpt lat="46.57242" lon="0.56731">
        <ele>112</ele>
        <time>2024-03-17T10:40:39Z</time>
      </trkpt>
      <trkpt lat="46.5724" lon="0.56725">
        <ele>112</ele>
        <time>2024-03-17T10:40:40Z</time>
      </trkpt>
      <trkpt lat="46.57229" lon="0.56704">
        <ele>112.4</ele>
        <time>2024-03-17T10:40:44Z</time>
      </trkpt>
      <trkpt lat="46.57227" lon="0.56699">
        <ele>112.6</ele>
        <time>2024-03-17T10:40:45Z</time>
      </trkpt>
      <trkpt lat="46.57222" lon="0.56688">
        <ele>112.8</ele>
        <time>2024-03-17T10:40:47Z</time>
      </trkpt>
      <trkpt lat="46.572" lon="0.56648">
        <ele>113</ele>
        <time>2024-03-17T10:40:55Z</time>
      </trkpt>
      <trkpt lat="46.57176" lon="0.56612">
        <ele>113.4</ele>
        <time>2024-03-17T10:41:03Z</time>
      </trkpt>
      <trkpt lat="46.57165" lon="0.56598">
        <ele>113.4</ele>
        <time>2024-03-17T10:41:06Z</time>
      </trkpt>
      <trkpt lat="46.57158" lon="0.56589">
        <ele>113.6</ele>
        <time>2024-03-17T10:41:08Z</time>
      </trkpt>
      <trkpt lat="46.57137" lon="0.56554">
        <ele>114</ele>
        <time>2024-03-17T10:41:15Z</time>
      </trkpt>
      <trkpt lat="46.57117" lon="0.56517">
        <ele>114.2</ele>
        <time>2024-03-17T10:41:22Z</time>
      </trkpt>
      <trkpt lat="46.57095" lon="0.5649">
        <ele>114.4</ele>
        <time>2024-03-17T10:41:28Z</time>
      </trkpt>
      <trkpt lat="46.57091" lon="0.56487">
        <ele>114.6</ele>
        <time>2024-03-17T10:41:29Z</time>
      </trkpt>
      <trkpt lat="46.57076" lon="0.56473">
        <ele>115.2</ele>
        <time>2024-03-17T10:41:33Z</time>
      </trkpt>
      <trkpt lat="46.57072" lon="0.56463">
        <ele>115.4</ele>
        <time>2024-03-17T10:41:35Z</time>
      </trkpt>
      <trkpt lat="46.57069" lon="0.56449">
        <ele>115.4</ele>
        <time>2024-03-17T10:41:37Z</time>
      </trkpt>
      <trkpt lat="46.5707" lon="0.56442">
        <ele>115.2</ele>
        <time>2024-03-17T10:41:38Z</time>
      </trkpt>
      <trkpt lat="46.57072" lon="0.56435">
        <ele>115.2</ele>
        <time>2024-03-17T10:41:39Z</time>
      </trkpt>
      <trkpt lat="46.57077" lon="0.56413">
        <ele>115</ele>
        <time>2024-03-17T10:41:42Z</time>
      </trkpt>
      <trkpt lat="46.57078" lon="0.56405">
        <ele>115</ele>
        <time>2024-03-17T10:41:43Z</time>
      </trkpt>
      <trkpt lat="46.57085" lon="0.56355">
        <ele>115.4</ele>
        <time>2024-03-17T10:41:49Z</time>
      </trkpt>
      <trkpt lat="46.57091" lon="0.56317">
        <ele>115.6</ele>
        <time>2024-03-17T10:41:54Z</time>
      </trkpt>
      <trkpt lat="46.57093" lon="0.56303">
        <ele>115.6</ele>
        <time>2024-03-17T10:41:56Z</time>
      </trkpt>
      <trkpt lat="46.57102" lon="0.56248">
        <ele>116</ele>
        <time>2024-03-17T10:42:04Z</time>
      </trkpt>
      <trkpt lat="46.57106" lon="0.56217">
        <ele>116.6</ele>
        <time>2024-03-17T10:42:09Z</time>
      </trkpt>
      <trkpt lat="46.5711" lon="0.56193">
        <ele>116.8</ele>
        <time>2024-03-17T10:42:13Z</time>
      </trkpt>
      <trkpt lat="46.57116" lon="0.56147">
        <ele>117.2</ele>
        <time>2024-03-17T10:42:21Z</time>
      </trkpt>
      <trkpt lat="46.57127" lon="0.56122">
        <ele>117.2</ele>
        <time>2024-03-17T10:42:26Z</time>
      </trkpt>
      <trkpt lat="46.57129" lon="0.56117">
        <ele>117.4</ele>
        <time>2024-03-17T10:42:27Z</time>
      </trkpt>
      <trkpt lat="46.57129" lon="0.56107">
        <ele>117.6</ele>
        <time>2024-03-17T10:42:29Z</time>
      </trkpt>
      <trkpt lat="46.57129" lon="0.56102">
        <ele>117.8</ele>
        <time>2024-03-17T10:42:30Z</time>
      </trkpt>
      <trkpt lat="46.5713" lon="0.56088">
        <ele>118</ele>
        <time>2024-03-17T10:42:33Z</time>
      </trkpt>
      <trkpt lat="46.57133" lon="0.56084">
        <ele>118.2</ele>
        <time>2024-03-17T10:42:34Z</time>
      </trkpt>
      <trkpt lat="46.57139" lon="0.56075">
        <ele>118.2</ele>
        <time>2024-03-17T10:42:36Z</time>
      </trkpt>
      <trkpt lat="46.57141" lon="0.56064">
        <ele>118.4</ele>
        <time>2024-03-17T10:42:38Z</time>
      </trkpt>
      <trkpt lat="46.57147" lon="0.56">
        <ele>118.6</ele>
        <time>2024-03-17T10:42:48Z</time>
      </trkpt>
      <trkpt lat="46.57149" lon="0.55982">
        <ele>118.8</ele>
        <time>2024-03-17T10:42:51Z</time>
      </trkpt>
      <trkpt lat="46.57152" lon="0.5596">
        <ele>118.8</ele>
        <time>2024-03-17T10:42:55Z</time>
      </trkpt>
      <trkpt lat="46.57159" lon="0.55928">
        <ele>118.4</ele>
        <time>2024-03-17T10:43:02Z</time>
      </trkpt>
      <trkpt lat="46.5717" lon="0.55914">
        <ele>118</ele>
        <time>2024-03-17T10:43:07Z</time>
      </trkpt>
      <trkpt lat="46.57176" lon="0.55911">
        <ele>117.8</ele>
        <time>2024-03-17T10:43:10Z</time>
      </trkpt>
      <trkpt lat="46.5718" lon="0.55909">
        <ele>117.6</ele>
        <time>2024-03-17T10:43:12Z</time>
      </trkpt>
      <trkpt lat="46.57186" lon="0.55894">
        <ele>117.4</ele>
        <time>2024-03-17T10:43:18Z</time>
      </trkpt>
      <trkpt lat="46.57187" lon="0.55886">
        <ele>117.2</ele>
        <time>2024-03-17T10:43:21Z</time>
      </trkpt>
      <trkpt lat="46.57185" lon="0.55884">
        <ele>117.2</ele>
        <time>2024-03-17T10:43:23Z</time>
      </trkpt>
      <trkpt lat="46.57185" lon="0.55883">
        <ele>117.2</ele>
        <time>2024-03-17T10:43:24Z</time>
      </trkpt>
      <trkpt lat="46.57185" lon="0.55883">
        <ele>117.2</ele>
        <time>2024-03-17T10:43:26Z</time>
      </trkpt>
    </trkseg>
  </trk>
</gpx>